<?xml version="1.0" encoding="UTF-8" standalone="no" ?>
<gpx xmlns="http://www.topografix.com/GPX/1/1" xmlns:xsi="http://www.w3.org/2001/XMLSchema-instance" xsi:schemaLocation="http://www.topografix.com/GPX/1/1 http://www.topografix.com/GPX/1/1/gpx.xsd" version="1.1" creator="VisuGPX - https://www.visugpx.com">
  <metadata>
    <name>NO-NE-Chézine Gournerie Le Cens Erdre Carquefou Ste Luce Nantes</name>
    <desc><![CDATA[NO-NE-Chézine Gournerie Le Cens Erdre Carquefou Ste Luce Nantes]]></desc>
  </metadata>
  <trk>
    <name><![CDATA[2020-05-30 16:58]]></name>
    <desc><![CDATA[<p>Heure de départ: 05/30/2020 16:59<br/>Heure d'arrivée: 05/30/2020 20:15<br/>Distance: 61,4 km (03:16)<br/>Temps déplacement: 02:34<br/>Vitesse moyenne: 18,72 km/h<br/>Vitesse moyenne mouv.: 23,92 km/h<br/>Vitesse Max.: 45,68 km/h<br/>Altitude minimale: -18 m<br/>Altitude maximale: 65 m<br/>Vitesse de montée: 208,8 m/h<br/>Vitesse de descente: -398,3 m/h<br/>Gain d'altitude: 328 m<br/>Perte d'altitude: -335 m<br/>Temps de montée: 01:34<br/>Temps de descente: 00:50<br/></p><hr align="center" width="480" style="height: 2px; width: 517px"/>]]></desc>
    <trkseg>
      <trkpt lat="47.16795" lon="-1.62656">
        <ele>38.53</ele>
        <time>2020-05-30T14:59:01Z</time>
      </trkpt>
      <trkpt lat="47.16786" lon="-1.6265">
        <ele>25.31</ele>
        <time>2020-05-30T14:59:07Z</time>
      </trkpt>
      <trkpt lat="47.16793" lon="-1.62639">
        <ele>19.99</ele>
        <time>2020-05-30T14:59:34Z</time>
      </trkpt>
      <trkpt lat="47.168" lon="-1.62627">
        <ele>20.4</ele>
        <time>2020-05-30T14:59:36Z</time>
      </trkpt>
      <trkpt lat="47.16809" lon="-1.62613">
        <ele>21.53</ele>
        <time>2020-05-30T14:59:38Z</time>
      </trkpt>
      <trkpt lat="47.16817" lon="-1.626">
        <ele>21.81</ele>
        <time>2020-05-30T14:59:40Z</time>
      </trkpt>
      <trkpt lat="47.16824" lon="-1.62589">
        <ele>21.2</ele>
        <time>2020-05-30T14:59:42Z</time>
      </trkpt>
      <trkpt lat="47.16824" lon="-1.62575">
        <ele>19.76</ele>
        <time>2020-05-30T14:59:44Z</time>
      </trkpt>
      <trkpt lat="47.16818" lon="-1.62561">
        <ele>17.98</ele>
        <time>2020-05-30T14:59:46Z</time>
      </trkpt>
      <trkpt lat="47.16809" lon="-1.6255">
        <ele>17.7</ele>
        <time>2020-05-30T14:59:48Z</time>
      </trkpt>
      <trkpt lat="47.168" lon="-1.62542">
        <ele>20.89</ele>
        <time>2020-05-30T14:59:50Z</time>
      </trkpt>
      <trkpt lat="47.1679" lon="-1.62533">
        <ele>25.54</ele>
        <time>2020-05-30T14:59:52Z</time>
      </trkpt>
      <trkpt lat="47.16779" lon="-1.62525">
        <ele>29.68</ele>
        <time>2020-05-30T14:59:54Z</time>
      </trkpt>
      <trkpt lat="47.16769" lon="-1.62518">
        <ele>32.79</ele>
        <time>2020-05-30T14:59:56Z</time>
      </trkpt>
      <trkpt lat="47.1676" lon="-1.62511">
        <ele>34.46</ele>
        <time>2020-05-30T14:59:58Z</time>
      </trkpt>
      <trkpt lat="47.1675" lon="-1.62505">
        <ele>34.79</ele>
        <time>2020-05-30T15:00:00Z</time>
      </trkpt>
      <trkpt lat="47.1674" lon="-1.625">
        <ele>34.36</ele>
        <time>2020-05-30T15:00:02Z</time>
      </trkpt>
      <trkpt lat="47.16729" lon="-1.62495">
        <ele>33.43</ele>
        <time>2020-05-30T15:00:04Z</time>
      </trkpt>
      <trkpt lat="47.16719" lon="-1.62491">
        <ele>32.67</ele>
        <time>2020-05-30T15:00:06Z</time>
      </trkpt>
      <trkpt lat="47.16715" lon="-1.62477">
        <ele>30.7</ele>
        <time>2020-05-30T15:00:09Z</time>
      </trkpt>
      <trkpt lat="47.16717" lon="-1.62456">
        <ele>29.61</ele>
        <time>2020-05-30T15:00:11Z</time>
      </trkpt>
      <trkpt lat="47.1672" lon="-1.62438">
        <ele>29.68</ele>
        <time>2020-05-30T15:00:13Z</time>
      </trkpt>
      <trkpt lat="47.16722" lon="-1.62422">
        <ele>29.51</ele>
        <time>2020-05-30T15:00:15Z</time>
      </trkpt>
      <trkpt lat="47.16728" lon="-1.62407">
        <ele>29.91</ele>
        <time>2020-05-30T15:00:17Z</time>
      </trkpt>
      <trkpt lat="47.16733" lon="-1.62391">
        <ele>30.36</ele>
        <time>2020-05-30T15:00:19Z</time>
      </trkpt>
      <trkpt lat="47.16739" lon="-1.62374">
        <ele>30.19</ele>
        <time>2020-05-30T15:00:21Z</time>
      </trkpt>
      <trkpt lat="47.16744" lon="-1.6236">
        <ele>29.82</ele>
        <time>2020-05-30T15:00:23Z</time>
      </trkpt>
      <trkpt lat="47.16753" lon="-1.62347">
        <ele>28.94</ele>
        <time>2020-05-30T15:00:25Z</time>
      </trkpt>
      <trkpt lat="47.16764" lon="-1.62338">
        <ele>27.71</ele>
        <time>2020-05-30T15:00:27Z</time>
      </trkpt>
      <trkpt lat="47.16776" lon="-1.6233">
        <ele>26.86</ele>
        <time>2020-05-30T15:00:29Z</time>
      </trkpt>
      <trkpt lat="47.16786" lon="-1.62323">
        <ele>26.9</ele>
        <time>2020-05-30T15:00:31Z</time>
      </trkpt>
      <trkpt lat="47.16797" lon="-1.62318">
        <ele>26.99</ele>
        <time>2020-05-30T15:00:33Z</time>
      </trkpt>
      <trkpt lat="47.16808" lon="-1.62314">
        <ele>27.4</ele>
        <time>2020-05-30T15:00:35Z</time>
      </trkpt>
      <trkpt lat="47.16818" lon="-1.6231">
        <ele>27.62</ele>
        <time>2020-05-30T15:00:37Z</time>
      </trkpt>
      <trkpt lat="47.16829" lon="-1.62302">
        <ele>27.07</ele>
        <time>2020-05-30T15:00:39Z</time>
      </trkpt>
      <trkpt lat="47.1684" lon="-1.62294">
        <ele>25.74</ele>
        <time>2020-05-30T15:00:41Z</time>
      </trkpt>
      <trkpt lat="47.16848" lon="-1.62285">
        <ele>23.27</ele>
        <time>2020-05-30T15:00:43Z</time>
      </trkpt>
      <trkpt lat="47.16858" lon="-1.6227">
        <ele>19.77</ele>
        <time>2020-05-30T15:00:46Z</time>
      </trkpt>
      <trkpt lat="47.16867" lon="-1.62257">
        <ele>18.92</ele>
        <time>2020-05-30T15:00:48Z</time>
      </trkpt>
      <trkpt lat="47.16876" lon="-1.62246">
        <ele>19.2</ele>
        <time>2020-05-30T15:00:50Z</time>
      </trkpt>
      <trkpt lat="47.16884" lon="-1.62236">
        <ele>20.05</ele>
        <time>2020-05-30T15:00:52Z</time>
      </trkpt>
      <trkpt lat="47.16893" lon="-1.62224">
        <ele>20.45</ele>
        <time>2020-05-30T15:00:54Z</time>
      </trkpt>
      <trkpt lat="47.16902" lon="-1.62211">
        <ele>20.98</ele>
        <time>2020-05-30T15:00:56Z</time>
      </trkpt>
      <trkpt lat="47.16911" lon="-1.62196">
        <ele>21.96</ele>
        <time>2020-05-30T15:00:58Z</time>
      </trkpt>
      <trkpt lat="47.16919" lon="-1.62183">
        <ele>22.71</ele>
        <time>2020-05-30T15:01:00Z</time>
      </trkpt>
      <trkpt lat="47.16927" lon="-1.62169">
        <ele>22.53</ele>
        <time>2020-05-30T15:01:02Z</time>
      </trkpt>
      <trkpt lat="47.16934" lon="-1.62155">
        <ele>22.61</ele>
        <time>2020-05-30T15:01:04Z</time>
      </trkpt>
      <trkpt lat="47.1694" lon="-1.62141">
        <ele>22.3</ele>
        <time>2020-05-30T15:01:06Z</time>
      </trkpt>
      <trkpt lat="47.16947" lon="-1.62127">
        <ele>22.21</ele>
        <time>2020-05-30T15:01:08Z</time>
      </trkpt>
      <trkpt lat="47.16956" lon="-1.62111">
        <ele>21.91</ele>
        <time>2020-05-30T15:01:10Z</time>
      </trkpt>
      <trkpt lat="47.16963" lon="-1.62098">
        <ele>21.6</ele>
        <time>2020-05-30T15:01:12Z</time>
      </trkpt>
      <trkpt lat="47.16971" lon="-1.62083">
        <ele>21.04</ele>
        <time>2020-05-30T15:01:14Z</time>
      </trkpt>
      <trkpt lat="47.16977" lon="-1.62072">
        <ele>19.69</ele>
        <time>2020-05-30T15:01:16Z</time>
      </trkpt>
      <trkpt lat="47.16985" lon="-1.62057">
        <ele>18.2</ele>
        <time>2020-05-30T15:01:18Z</time>
      </trkpt>
      <trkpt lat="47.16993" lon="-1.62041">
        <ele>17.91</ele>
        <time>2020-05-30T15:01:20Z</time>
      </trkpt>
      <trkpt lat="47.17001" lon="-1.62027">
        <ele>17.92</ele>
        <time>2020-05-30T15:01:22Z</time>
      </trkpt>
      <trkpt lat="47.17008" lon="-1.62015">
        <ele>18.23</ele>
        <time>2020-05-30T15:01:24Z</time>
      </trkpt>
      <trkpt lat="47.17017" lon="-1.62002">
        <ele>18.35</ele>
        <time>2020-05-30T15:01:26Z</time>
      </trkpt>
      <trkpt lat="47.17025" lon="-1.61991">
        <ele>18.79</ele>
        <time>2020-05-30T15:01:28Z</time>
      </trkpt>
      <trkpt lat="47.17033" lon="-1.61979">
        <ele>19.05</ele>
        <time>2020-05-30T15:01:30Z</time>
      </trkpt>
      <trkpt lat="47.17041" lon="-1.61968">
        <ele>19.61</ele>
        <time>2020-05-30T15:01:32Z</time>
      </trkpt>
      <trkpt lat="47.17049" lon="-1.61956">
        <ele>20.11</ele>
        <time>2020-05-30T15:01:34Z</time>
      </trkpt>
      <trkpt lat="47.17057" lon="-1.61944">
        <ele>19.8</ele>
        <time>2020-05-30T15:01:36Z</time>
      </trkpt>
      <trkpt lat="47.17066" lon="-1.61934">
        <ele>19.13</ele>
        <time>2020-05-30T15:01:38Z</time>
      </trkpt>
      <trkpt lat="47.17075" lon="-1.61922">
        <ele>19.31</ele>
        <time>2020-05-30T15:01:40Z</time>
      </trkpt>
      <trkpt lat="47.17084" lon="-1.61913">
        <ele>19.58</ele>
        <time>2020-05-30T15:01:42Z</time>
      </trkpt>
      <trkpt lat="47.17092" lon="-1.61904">
        <ele>19.6</ele>
        <time>2020-05-30T15:01:44Z</time>
      </trkpt>
      <trkpt lat="47.17103" lon="-1.61893">
        <ele>20.09</ele>
        <time>2020-05-30T15:01:46Z</time>
      </trkpt>
      <trkpt lat="47.17113" lon="-1.61885">
        <ele>20.63</ele>
        <time>2020-05-30T15:01:48Z</time>
      </trkpt>
      <trkpt lat="47.17124" lon="-1.61875">
        <ele>20.4</ele>
        <time>2020-05-30T15:01:50Z</time>
      </trkpt>
      <trkpt lat="47.17135" lon="-1.61865">
        <ele>20.7</ele>
        <time>2020-05-30T15:01:52Z</time>
      </trkpt>
      <trkpt lat="47.17144" lon="-1.61856">
        <ele>20.97</ele>
        <time>2020-05-30T15:01:54Z</time>
      </trkpt>
      <trkpt lat="47.17154" lon="-1.61847">
        <ele>20.41</ele>
        <time>2020-05-30T15:01:56Z</time>
      </trkpt>
      <trkpt lat="47.17163" lon="-1.61839">
        <ele>19.78</ele>
        <time>2020-05-30T15:01:59Z</time>
      </trkpt>
      <trkpt lat="47.17173" lon="-1.6183">
        <ele>19.51</ele>
        <time>2020-05-30T15:02:01Z</time>
      </trkpt>
      <trkpt lat="47.17183" lon="-1.6182">
        <ele>19.2</ele>
        <time>2020-05-30T15:02:03Z</time>
      </trkpt>
      <trkpt lat="47.17193" lon="-1.61812">
        <ele>18.79</ele>
        <time>2020-05-30T15:02:05Z</time>
      </trkpt>
      <trkpt lat="47.17202" lon="-1.61802">
        <ele>19.28</ele>
        <time>2020-05-30T15:02:07Z</time>
      </trkpt>
      <trkpt lat="47.1721" lon="-1.61793">
        <ele>19.35</ele>
        <time>2020-05-30T15:02:09Z</time>
      </trkpt>
      <trkpt lat="47.17218" lon="-1.61783">
        <ele>19.28</ele>
        <time>2020-05-30T15:02:11Z</time>
      </trkpt>
      <trkpt lat="47.17223" lon="-1.6177">
        <ele>17.95</ele>
        <time>2020-05-30T15:02:13Z</time>
      </trkpt>
      <trkpt lat="47.17229" lon="-1.61754">
        <ele>17.19</ele>
        <time>2020-05-30T15:02:15Z</time>
      </trkpt>
      <trkpt lat="47.17238" lon="-1.61741">
        <ele>17.45</ele>
        <time>2020-05-30T15:02:17Z</time>
      </trkpt>
      <trkpt lat="47.17247" lon="-1.61729">
        <ele>18.39</ele>
        <time>2020-05-30T15:02:19Z</time>
      </trkpt>
      <trkpt lat="47.17254" lon="-1.61717">
        <ele>19.35</ele>
        <time>2020-05-30T15:02:21Z</time>
      </trkpt>
      <trkpt lat="47.1726" lon="-1.61705">
        <ele>20.44</ele>
        <time>2020-05-30T15:02:23Z</time>
      </trkpt>
      <trkpt lat="47.17266" lon="-1.6169">
        <ele>20.57</ele>
        <time>2020-05-30T15:02:25Z</time>
      </trkpt>
      <trkpt lat="47.17272" lon="-1.61676">
        <ele>20.31</ele>
        <time>2020-05-30T15:02:27Z</time>
      </trkpt>
      <trkpt lat="47.17279" lon="-1.61661">
        <ele>20.5</ele>
        <time>2020-05-30T15:02:29Z</time>
      </trkpt>
      <trkpt lat="47.17286" lon="-1.61648">
        <ele>21.14</ele>
        <time>2020-05-30T15:02:31Z</time>
      </trkpt>
      <trkpt lat="47.17294" lon="-1.61634">
        <ele>20.6</ele>
        <time>2020-05-30T15:02:33Z</time>
      </trkpt>
      <trkpt lat="47.17303" lon="-1.6162">
        <ele>19.66</ele>
        <time>2020-05-30T15:02:35Z</time>
      </trkpt>
      <trkpt lat="47.17313" lon="-1.61604">
        <ele>18.49</ele>
        <time>2020-05-30T15:02:37Z</time>
      </trkpt>
      <trkpt lat="47.17321" lon="-1.61593">
        <ele>18.68</ele>
        <time>2020-05-30T15:02:39Z</time>
      </trkpt>
      <trkpt lat="47.17328" lon="-1.61583">
        <ele>19.31</ele>
        <time>2020-05-30T15:02:41Z</time>
      </trkpt>
      <trkpt lat="47.17336" lon="-1.61573">
        <ele>20.1</ele>
        <time>2020-05-30T15:02:43Z</time>
      </trkpt>
      <trkpt lat="47.17345" lon="-1.61563">
        <ele>19.6</ele>
        <time>2020-05-30T15:02:45Z</time>
      </trkpt>
      <trkpt lat="47.17354" lon="-1.61553">
        <ele>19.01</ele>
        <time>2020-05-30T15:02:47Z</time>
      </trkpt>
      <trkpt lat="47.17364" lon="-1.61542">
        <ele>18.62</ele>
        <time>2020-05-30T15:02:49Z</time>
      </trkpt>
      <trkpt lat="47.17374" lon="-1.61532">
        <ele>18.51</ele>
        <time>2020-05-30T15:02:51Z</time>
      </trkpt>
      <trkpt lat="47.17384" lon="-1.61521">
        <ele>17.88</ele>
        <time>2020-05-30T15:02:53Z</time>
      </trkpt>
      <trkpt lat="47.17396" lon="-1.61511">
        <ele>17.28</ele>
        <time>2020-05-30T15:02:55Z</time>
      </trkpt>
      <trkpt lat="47.17406" lon="-1.61503">
        <ele>17.73</ele>
        <time>2020-05-30T15:02:57Z</time>
      </trkpt>
      <trkpt lat="47.17419" lon="-1.61495">
        <ele>17.88</ele>
        <time>2020-05-30T15:02:59Z</time>
      </trkpt>
      <trkpt lat="47.17431" lon="-1.61487">
        <ele>18.5</ele>
        <time>2020-05-30T15:03:01Z</time>
      </trkpt>
      <trkpt lat="47.17443" lon="-1.61481">
        <ele>19.46</ele>
        <time>2020-05-30T15:03:03Z</time>
      </trkpt>
      <trkpt lat="47.17457" lon="-1.61474">
        <ele>19.6</ele>
        <time>2020-05-30T15:03:05Z</time>
      </trkpt>
      <trkpt lat="47.17469" lon="-1.61468">
        <ele>19.73</ele>
        <time>2020-05-30T15:03:07Z</time>
      </trkpt>
      <trkpt lat="47.17483" lon="-1.61462">
        <ele>19.31</ele>
        <time>2020-05-30T15:03:09Z</time>
      </trkpt>
      <trkpt lat="47.17495" lon="-1.61457">
        <ele>18.73</ele>
        <time>2020-05-30T15:03:11Z</time>
      </trkpt>
      <trkpt lat="47.17506" lon="-1.61451">
        <ele>18.69</ele>
        <time>2020-05-30T15:03:13Z</time>
      </trkpt>
      <trkpt lat="47.17512" lon="-1.61436">
        <ele>18.54</ele>
        <time>2020-05-30T15:03:15Z</time>
      </trkpt>
      <trkpt lat="47.17516" lon="-1.61418">
        <ele>17.76</ele>
        <time>2020-05-30T15:03:17Z</time>
      </trkpt>
      <trkpt lat="47.17521" lon="-1.61397">
        <ele>16.06</ele>
        <time>2020-05-30T15:03:19Z</time>
      </trkpt>
      <trkpt lat="47.17526" lon="-1.61375">
        <ele>13.49</ele>
        <time>2020-05-30T15:03:21Z</time>
      </trkpt>
      <trkpt lat="47.1753" lon="-1.61359">
        <ele>11.58</ele>
        <time>2020-05-30T15:03:23Z</time>
      </trkpt>
      <trkpt lat="47.17528" lon="-1.61346">
        <ele>10.63</ele>
        <time>2020-05-30T15:03:26Z</time>
      </trkpt>
      <trkpt lat="47.17522" lon="-1.61332">
        <ele>9.86</ele>
        <time>2020-05-30T15:03:28Z</time>
      </trkpt>
      <trkpt lat="47.17518" lon="-1.61316">
        <ele>9.67</ele>
        <time>2020-05-30T15:03:30Z</time>
      </trkpt>
      <trkpt lat="47.17518" lon="-1.61298">
        <ele>9.88</ele>
        <time>2020-05-30T15:03:32Z</time>
      </trkpt>
      <trkpt lat="47.17512" lon="-1.61281">
        <ele>10.46</ele>
        <time>2020-05-30T15:03:34Z</time>
      </trkpt>
      <trkpt lat="47.17506" lon="-1.61267">
        <ele>11.2</ele>
        <time>2020-05-30T15:03:36Z</time>
      </trkpt>
      <trkpt lat="47.17499" lon="-1.61252">
        <ele>11.69</ele>
        <time>2020-05-30T15:03:38Z</time>
      </trkpt>
      <trkpt lat="47.17492" lon="-1.61237">
        <ele>10.97</ele>
        <time>2020-05-30T15:03:40Z</time>
      </trkpt>
      <trkpt lat="47.17485" lon="-1.61222">
        <ele>10.72</ele>
        <time>2020-05-30T15:03:42Z</time>
      </trkpt>
      <trkpt lat="47.17479" lon="-1.61208">
        <ele>10.75</ele>
        <time>2020-05-30T15:03:44Z</time>
      </trkpt>
      <trkpt lat="47.17473" lon="-1.61192">
        <ele>11.54</ele>
        <time>2020-05-30T15:03:46Z</time>
      </trkpt>
      <trkpt lat="47.17467" lon="-1.61176">
        <ele>12.04</ele>
        <time>2020-05-30T15:03:48Z</time>
      </trkpt>
      <trkpt lat="47.17461" lon="-1.6116">
        <ele>12.33</ele>
        <time>2020-05-30T15:03:50Z</time>
      </trkpt>
      <trkpt lat="47.17453" lon="-1.61143">
        <ele>12.01</ele>
        <time>2020-05-30T15:03:52Z</time>
      </trkpt>
      <trkpt lat="47.17446" lon="-1.61127">
        <ele>11.36</ele>
        <time>2020-05-30T15:03:54Z</time>
      </trkpt>
      <trkpt lat="47.1744" lon="-1.61111">
        <ele>11.2</ele>
        <time>2020-05-30T15:03:56Z</time>
      </trkpt>
      <trkpt lat="47.17433" lon="-1.61093">
        <ele>11.15</ele>
        <time>2020-05-30T15:03:58Z</time>
      </trkpt>
      <trkpt lat="47.17426" lon="-1.61076">
        <ele>11.53</ele>
        <time>2020-05-30T15:04:00Z</time>
      </trkpt>
      <trkpt lat="47.17426" lon="-1.61057">
        <ele>12.08</ele>
        <time>2020-05-30T15:04:02Z</time>
      </trkpt>
      <trkpt lat="47.17421" lon="-1.61038">
        <ele>11.95</ele>
        <time>2020-05-30T15:04:04Z</time>
      </trkpt>
      <trkpt lat="47.17418" lon="-1.6102">
        <ele>10.96</ele>
        <time>2020-05-30T15:04:06Z</time>
      </trkpt>
      <trkpt lat="47.1743" lon="-1.61029">
        <ele>9.07</ele>
        <time>2020-05-30T15:04:11Z</time>
      </trkpt>
      <trkpt lat="47.17435" lon="-1.61046">
        <ele>6.89</ele>
        <time>2020-05-30T15:04:13Z</time>
      </trkpt>
      <trkpt lat="47.17441" lon="-1.61062">
        <ele>5.75</ele>
        <time>2020-05-30T15:04:15Z</time>
      </trkpt>
      <trkpt lat="47.17448" lon="-1.61077">
        <ele>4.91</ele>
        <time>2020-05-30T15:04:17Z</time>
      </trkpt>
      <trkpt lat="47.17458" lon="-1.61091">
        <ele>4.71</ele>
        <time>2020-05-30T15:04:19Z</time>
      </trkpt>
      <trkpt lat="47.17472" lon="-1.61104">
        <ele>4.27</ele>
        <time>2020-05-30T15:04:21Z</time>
      </trkpt>
      <trkpt lat="47.17489" lon="-1.61109">
        <ele>4.16</ele>
        <time>2020-05-30T15:04:23Z</time>
      </trkpt>
      <trkpt lat="47.17503" lon="-1.61107">
        <ele>4.13</ele>
        <time>2020-05-30T15:04:25Z</time>
      </trkpt>
      <trkpt lat="47.17518" lon="-1.611">
        <ele>4.37</ele>
        <time>2020-05-30T15:04:27Z</time>
      </trkpt>
      <trkpt lat="47.17531" lon="-1.61089">
        <ele>4.92</ele>
        <time>2020-05-30T15:04:29Z</time>
      </trkpt>
      <trkpt lat="47.17543" lon="-1.61077">
        <ele>5.49</ele>
        <time>2020-05-30T15:04:31Z</time>
      </trkpt>
      <trkpt lat="47.17556" lon="-1.61064">
        <ele>5.61</ele>
        <time>2020-05-30T15:04:33Z</time>
      </trkpt>
      <trkpt lat="47.17568" lon="-1.61054">
        <ele>5.78</ele>
        <time>2020-05-30T15:04:35Z</time>
      </trkpt>
      <trkpt lat="47.1758" lon="-1.61042">
        <ele>5.99</ele>
        <time>2020-05-30T15:04:37Z</time>
      </trkpt>
      <trkpt lat="47.17592" lon="-1.61032">
        <ele>6.49</ele>
        <time>2020-05-30T15:04:39Z</time>
      </trkpt>
      <trkpt lat="47.17605" lon="-1.61021">
        <ele>6.5</ele>
        <time>2020-05-30T15:04:41Z</time>
      </trkpt>
      <trkpt lat="47.17618" lon="-1.61011">
        <ele>6.52</ele>
        <time>2020-05-30T15:04:43Z</time>
      </trkpt>
      <trkpt lat="47.17631" lon="-1.60999">
        <ele>5.94</ele>
        <time>2020-05-30T15:04:45Z</time>
      </trkpt>
      <trkpt lat="47.17643" lon="-1.60988">
        <ele>4.88</ele>
        <time>2020-05-30T15:04:47Z</time>
      </trkpt>
      <trkpt lat="47.17656" lon="-1.60977">
        <ele>4.45</ele>
        <time>2020-05-30T15:04:49Z</time>
      </trkpt>
      <trkpt lat="47.17668" lon="-1.60969">
        <ele>3.82</ele>
        <time>2020-05-30T15:04:51Z</time>
      </trkpt>
      <trkpt lat="47.17681" lon="-1.6097">
        <ele>3.17</ele>
        <time>2020-05-30T15:04:53Z</time>
      </trkpt>
      <trkpt lat="47.17695" lon="-1.60971">
        <ele>2.71</ele>
        <time>2020-05-30T15:04:55Z</time>
      </trkpt>
      <trkpt lat="47.17708" lon="-1.60967">
        <ele>2.67</ele>
        <time>2020-05-30T15:04:57Z</time>
      </trkpt>
      <trkpt lat="47.1772" lon="-1.60961">
        <ele>2.2</ele>
        <time>2020-05-30T15:04:59Z</time>
      </trkpt>
      <trkpt lat="47.17733" lon="-1.60953">
        <ele>2.07</ele>
        <time>2020-05-30T15:05:01Z</time>
      </trkpt>
      <trkpt lat="47.17746" lon="-1.60943">
        <ele>1.51</ele>
        <time>2020-05-30T15:05:03Z</time>
      </trkpt>
      <trkpt lat="47.17759" lon="-1.60932">
        <ele>1.33</ele>
        <time>2020-05-30T15:05:05Z</time>
      </trkpt>
      <trkpt lat="47.17771" lon="-1.60922">
        <ele>1.23</ele>
        <time>2020-05-30T15:05:07Z</time>
      </trkpt>
      <trkpt lat="47.17783" lon="-1.60911">
        <ele>1.67</ele>
        <time>2020-05-30T15:05:09Z</time>
      </trkpt>
      <trkpt lat="47.17795" lon="-1.60902">
        <ele>2.42</ele>
        <time>2020-05-30T15:05:11Z</time>
      </trkpt>
      <trkpt lat="47.17808" lon="-1.60893">
        <ele>2.63</ele>
        <time>2020-05-30T15:05:13Z</time>
      </trkpt>
      <trkpt lat="47.17821" lon="-1.60881">
        <ele>3.25</ele>
        <time>2020-05-30T15:05:15Z</time>
      </trkpt>
      <trkpt lat="47.1783" lon="-1.60865">
        <ele>4.77</ele>
        <time>2020-05-30T15:05:17Z</time>
      </trkpt>
      <trkpt lat="47.17839" lon="-1.6085">
        <ele>5.97</ele>
        <time>2020-05-30T15:05:19Z</time>
      </trkpt>
      <trkpt lat="47.17846" lon="-1.60832">
        <ele>6.04</ele>
        <time>2020-05-30T15:05:21Z</time>
      </trkpt>
      <trkpt lat="47.17852" lon="-1.60813">
        <ele>5.27</ele>
        <time>2020-05-30T15:05:23Z</time>
      </trkpt>
      <trkpt lat="47.17857" lon="-1.60792">
        <ele>3.27</ele>
        <time>2020-05-30T15:05:25Z</time>
      </trkpt>
      <trkpt lat="47.17861" lon="-1.60772">
        <ele>1.68</ele>
        <time>2020-05-30T15:05:27Z</time>
      </trkpt>
      <trkpt lat="47.17865" lon="-1.6075">
        <ele>1.29</ele>
        <time>2020-05-30T15:05:29Z</time>
      </trkpt>
      <trkpt lat="47.17869" lon="-1.60731">
        <ele>1.83</ele>
        <time>2020-05-30T15:05:31Z</time>
      </trkpt>
      <trkpt lat="47.17873" lon="-1.60711">
        <ele>2.31</ele>
        <time>2020-05-30T15:05:33Z</time>
      </trkpt>
      <trkpt lat="47.17878" lon="-1.60691">
        <ele>3.13</ele>
        <time>2020-05-30T15:05:35Z</time>
      </trkpt>
      <trkpt lat="47.17882" lon="-1.60673">
        <ele>3.42</ele>
        <time>2020-05-30T15:05:37Z</time>
      </trkpt>
      <trkpt lat="47.17888" lon="-1.60655">
        <ele>3.82</ele>
        <time>2020-05-30T15:05:39Z</time>
      </trkpt>
      <trkpt lat="47.17894" lon="-1.60637">
        <ele>3.22</ele>
        <time>2020-05-30T15:05:41Z</time>
      </trkpt>
      <trkpt lat="47.17899" lon="-1.60619">
        <ele>2.05</ele>
        <time>2020-05-30T15:05:43Z</time>
      </trkpt>
      <trkpt lat="47.17903" lon="-1.60603">
        <ele>1.53</ele>
        <time>2020-05-30T15:05:45Z</time>
      </trkpt>
      <trkpt lat="47.17906" lon="-1.60591">
        <ele>0.98</ele>
        <time>2020-05-30T15:05:47Z</time>
      </trkpt>
      <trkpt lat="47.17916" lon="-1.60583">
        <ele>1.88</ele>
        <time>2020-05-30T15:05:50Z</time>
      </trkpt>
      <trkpt lat="47.17929" lon="-1.60582">
        <ele>3.82</ele>
        <time>2020-05-30T15:05:52Z</time>
      </trkpt>
      <trkpt lat="47.17943" lon="-1.60581">
        <ele>4.51</ele>
        <time>2020-05-30T15:05:54Z</time>
      </trkpt>
      <trkpt lat="47.17957" lon="-1.60577">
        <ele>5.03</ele>
        <time>2020-05-30T15:05:56Z</time>
      </trkpt>
      <trkpt lat="47.17968" lon="-1.60572">
        <ele>5.77</ele>
        <time>2020-05-30T15:05:58Z</time>
      </trkpt>
      <trkpt lat="47.17982" lon="-1.60565">
        <ele>5.27</ele>
        <time>2020-05-30T15:06:00Z</time>
      </trkpt>
      <trkpt lat="47.17996" lon="-1.60559">
        <ele>4.64</ele>
        <time>2020-05-30T15:06:02Z</time>
      </trkpt>
      <trkpt lat="47.1801" lon="-1.60553">
        <ele>4.01</ele>
        <time>2020-05-30T15:06:04Z</time>
      </trkpt>
      <trkpt lat="47.18023" lon="-1.6055">
        <ele>3.71</ele>
        <time>2020-05-30T15:06:06Z</time>
      </trkpt>
      <trkpt lat="47.18038" lon="-1.60554">
        <ele>3.58</ele>
        <time>2020-05-30T15:06:08Z</time>
      </trkpt>
      <trkpt lat="47.18051" lon="-1.60562">
        <ele>3.4</ele>
        <time>2020-05-30T15:06:10Z</time>
      </trkpt>
      <trkpt lat="47.18065" lon="-1.60571">
        <ele>3.95</ele>
        <time>2020-05-30T15:06:12Z</time>
      </trkpt>
      <trkpt lat="47.18078" lon="-1.60578">
        <ele>4.26</ele>
        <time>2020-05-30T15:06:14Z</time>
      </trkpt>
      <trkpt lat="47.18091" lon="-1.60586">
        <ele>4.21</ele>
        <time>2020-05-30T15:06:16Z</time>
      </trkpt>
      <trkpt lat="47.18104" lon="-1.60593">
        <ele>3.8</ele>
        <time>2020-05-30T15:06:18Z</time>
      </trkpt>
      <trkpt lat="47.18117" lon="-1.60598">
        <ele>3.79</ele>
        <time>2020-05-30T15:06:20Z</time>
      </trkpt>
      <trkpt lat="47.18131" lon="-1.60602">
        <ele>4.59</ele>
        <time>2020-05-30T15:06:22Z</time>
      </trkpt>
      <trkpt lat="47.18145" lon="-1.60605">
        <ele>5.02</ele>
        <time>2020-05-30T15:06:24Z</time>
      </trkpt>
      <trkpt lat="47.18157" lon="-1.60607">
        <ele>6.57</ele>
        <time>2020-05-30T15:06:26Z</time>
      </trkpt>
      <trkpt lat="47.1817" lon="-1.60607">
        <ele>6.83</ele>
        <time>2020-05-30T15:06:28Z</time>
      </trkpt>
      <trkpt lat="47.18184" lon="-1.60604">
        <ele>6.56</ele>
        <time>2020-05-30T15:06:30Z</time>
      </trkpt>
      <trkpt lat="47.18191" lon="-1.60594">
        <ele>5.96</ele>
        <time>2020-05-30T15:06:32Z</time>
      </trkpt>
      <trkpt lat="47.18198" lon="-1.60577">
        <ele>5.39</ele>
        <time>2020-05-30T15:06:35Z</time>
      </trkpt>
      <trkpt lat="47.1821" lon="-1.60572">
        <ele>4.72</ele>
        <time>2020-05-30T15:06:37Z</time>
      </trkpt>
      <trkpt lat="47.18224" lon="-1.60565">
        <ele>4.49</ele>
        <time>2020-05-30T15:06:39Z</time>
      </trkpt>
      <trkpt lat="47.18237" lon="-1.60558">
        <ele>4.29</ele>
        <time>2020-05-30T15:06:41Z</time>
      </trkpt>
      <trkpt lat="47.1825" lon="-1.60549">
        <ele>4.44</ele>
        <time>2020-05-30T15:06:43Z</time>
      </trkpt>
      <trkpt lat="47.18261" lon="-1.60541">
        <ele>5.72</ele>
        <time>2020-05-30T15:06:45Z</time>
      </trkpt>
      <trkpt lat="47.18273" lon="-1.60531">
        <ele>6.7</ele>
        <time>2020-05-30T15:06:47Z</time>
      </trkpt>
      <trkpt lat="47.18285" lon="-1.60519">
        <ele>6.32</ele>
        <time>2020-05-30T15:06:49Z</time>
      </trkpt>
      <trkpt lat="47.18297" lon="-1.60505">
        <ele>5.93</ele>
        <time>2020-05-30T15:06:51Z</time>
      </trkpt>
      <trkpt lat="47.18307" lon="-1.60493">
        <ele>5.59</ele>
        <time>2020-05-30T15:06:53Z</time>
      </trkpt>
      <trkpt lat="47.18319" lon="-1.60481">
        <ele>5.75</ele>
        <time>2020-05-30T15:06:55Z</time>
      </trkpt>
      <trkpt lat="47.18329" lon="-1.60467">
        <ele>4.89</ele>
        <time>2020-05-30T15:06:57Z</time>
      </trkpt>
      <trkpt lat="47.18339" lon="-1.60455">
        <ele>4.83</ele>
        <time>2020-05-30T15:06:59Z</time>
      </trkpt>
      <trkpt lat="47.18348" lon="-1.60443">
        <ele>5.15</ele>
        <time>2020-05-30T15:07:01Z</time>
      </trkpt>
      <trkpt lat="47.18357" lon="-1.6043">
        <ele>4.95</ele>
        <time>2020-05-30T15:07:03Z</time>
      </trkpt>
      <trkpt lat="47.18367" lon="-1.60418">
        <ele>4.62</ele>
        <time>2020-05-30T15:07:05Z</time>
      </trkpt>
      <trkpt lat="47.18377" lon="-1.60405">
        <ele>4.49</ele>
        <time>2020-05-30T15:07:07Z</time>
      </trkpt>
      <trkpt lat="47.18385" lon="-1.60394">
        <ele>4.31</ele>
        <time>2020-05-30T15:07:09Z</time>
      </trkpt>
      <trkpt lat="47.18394" lon="-1.6038">
        <ele>4</ele>
        <time>2020-05-30T15:07:11Z</time>
      </trkpt>
      <trkpt lat="47.18403" lon="-1.60368">
        <ele>3.85</ele>
        <time>2020-05-30T15:07:13Z</time>
      </trkpt>
      <trkpt lat="47.18412" lon="-1.60356">
        <ele>4.51</ele>
        <time>2020-05-30T15:07:15Z</time>
      </trkpt>
      <trkpt lat="47.18421" lon="-1.60343">
        <ele>5.59</ele>
        <time>2020-05-30T15:07:17Z</time>
      </trkpt>
      <trkpt lat="47.1843" lon="-1.6033">
        <ele>6.35</ele>
        <time>2020-05-30T15:07:19Z</time>
      </trkpt>
      <trkpt lat="47.18438" lon="-1.60317">
        <ele>6.39</ele>
        <time>2020-05-30T15:07:21Z</time>
      </trkpt>
      <trkpt lat="47.18448" lon="-1.60301">
        <ele>5.56</ele>
        <time>2020-05-30T15:07:23Z</time>
      </trkpt>
      <trkpt lat="47.18456" lon="-1.60287">
        <ele>4.91</ele>
        <time>2020-05-30T15:07:25Z</time>
      </trkpt>
      <trkpt lat="47.18465" lon="-1.60271">
        <ele>5.34</ele>
        <time>2020-05-30T15:07:27Z</time>
      </trkpt>
      <trkpt lat="47.18473" lon="-1.60256">
        <ele>5.48</ele>
        <time>2020-05-30T15:07:29Z</time>
      </trkpt>
      <trkpt lat="47.18481" lon="-1.60241">
        <ele>4.72</ele>
        <time>2020-05-30T15:07:31Z</time>
      </trkpt>
      <trkpt lat="47.18489" lon="-1.60228">
        <ele>4.73</ele>
        <time>2020-05-30T15:07:33Z</time>
      </trkpt>
      <trkpt lat="47.18497" lon="-1.60213">
        <ele>4.69</ele>
        <time>2020-05-30T15:07:35Z</time>
      </trkpt>
      <trkpt lat="47.18505" lon="-1.60197">
        <ele>4</ele>
        <time>2020-05-30T15:07:37Z</time>
      </trkpt>
      <trkpt lat="47.18512" lon="-1.60181">
        <ele>3.68</ele>
        <time>2020-05-30T15:07:39Z</time>
      </trkpt>
      <trkpt lat="47.1852" lon="-1.60166">
        <ele>3.12</ele>
        <time>2020-05-30T15:07:41Z</time>
      </trkpt>
      <trkpt lat="47.18528" lon="-1.60148">
        <ele>2.77</ele>
        <time>2020-05-30T15:07:43Z</time>
      </trkpt>
      <trkpt lat="47.18536" lon="-1.60132">
        <ele>2.5</ele>
        <time>2020-05-30T15:07:45Z</time>
      </trkpt>
      <trkpt lat="47.18543" lon="-1.60115">
        <ele>2.47</ele>
        <time>2020-05-30T15:07:47Z</time>
      </trkpt>
      <trkpt lat="47.18551" lon="-1.60098">
        <ele>2.11</ele>
        <time>2020-05-30T15:07:49Z</time>
      </trkpt>
      <trkpt lat="47.18558" lon="-1.60081">
        <ele>2.46</ele>
        <time>2020-05-30T15:07:51Z</time>
      </trkpt>
      <trkpt lat="47.18565" lon="-1.60065">
        <ele>3.14</ele>
        <time>2020-05-30T15:07:53Z</time>
      </trkpt>
      <trkpt lat="47.18571" lon="-1.6005">
        <ele>3.9</ele>
        <time>2020-05-30T15:07:55Z</time>
      </trkpt>
      <trkpt lat="47.18577" lon="-1.60031">
        <ele>4.55</ele>
        <time>2020-05-30T15:07:57Z</time>
      </trkpt>
      <trkpt lat="47.18583" lon="-1.60014">
        <ele>4.56</ele>
        <time>2020-05-30T15:07:59Z</time>
      </trkpt>
      <trkpt lat="47.18589" lon="-1.59995">
        <ele>4.21</ele>
        <time>2020-05-30T15:08:01Z</time>
      </trkpt>
      <trkpt lat="47.18594" lon="-1.59978">
        <ele>4.15</ele>
        <time>2020-05-30T15:08:03Z</time>
      </trkpt>
      <trkpt lat="47.186" lon="-1.5996">
        <ele>4.23</ele>
        <time>2020-05-30T15:08:05Z</time>
      </trkpt>
      <trkpt lat="47.18605" lon="-1.5994">
        <ele>4.42</ele>
        <time>2020-05-30T15:08:07Z</time>
      </trkpt>
      <trkpt lat="47.1861" lon="-1.59921">
        <ele>4.1</ele>
        <time>2020-05-30T15:08:09Z</time>
      </trkpt>
      <trkpt lat="47.18615" lon="-1.59903">
        <ele>3.58</ele>
        <time>2020-05-30T15:08:11Z</time>
      </trkpt>
      <trkpt lat="47.1862" lon="-1.59887">
        <ele>3.27</ele>
        <time>2020-05-30T15:08:13Z</time>
      </trkpt>
      <trkpt lat="47.18624" lon="-1.59869">
        <ele>2.78</ele>
        <time>2020-05-30T15:08:15Z</time>
      </trkpt>
      <trkpt lat="47.18621" lon="-1.59851">
        <ele>2.71</ele>
        <time>2020-05-30T15:08:17Z</time>
      </trkpt>
      <trkpt lat="47.18619" lon="-1.59833">
        <ele>2.1</ele>
        <time>2020-05-30T15:08:19Z</time>
      </trkpt>
      <trkpt lat="47.18623" lon="-1.59819">
        <ele>2.08</ele>
        <time>2020-05-30T15:08:21Z</time>
      </trkpt>
      <trkpt lat="47.1863" lon="-1.59803">
        <ele>3.52</ele>
        <time>2020-05-30T15:08:24Z</time>
      </trkpt>
      <trkpt lat="47.18633" lon="-1.59786">
        <ele>4.4</ele>
        <time>2020-05-30T15:08:26Z</time>
      </trkpt>
      <trkpt lat="47.1864" lon="-1.59769">
        <ele>4.75</ele>
        <time>2020-05-30T15:08:28Z</time>
      </trkpt>
      <trkpt lat="47.18648" lon="-1.59755">
        <ele>4.49</ele>
        <time>2020-05-30T15:08:30Z</time>
      </trkpt>
      <trkpt lat="47.18655" lon="-1.59738">
        <ele>5.45</ele>
        <time>2020-05-30T15:08:32Z</time>
      </trkpt>
      <trkpt lat="47.18659" lon="-1.59721">
        <ele>5.85</ele>
        <time>2020-05-30T15:08:34Z</time>
      </trkpt>
      <trkpt lat="47.18661" lon="-1.59704">
        <ele>5.41</ele>
        <time>2020-05-30T15:08:36Z</time>
      </trkpt>
      <trkpt lat="47.18665" lon="-1.59686">
        <ele>5.64</ele>
        <time>2020-05-30T15:08:38Z</time>
      </trkpt>
      <trkpt lat="47.18669" lon="-1.59666">
        <ele>5.63</ele>
        <time>2020-05-30T15:08:40Z</time>
      </trkpt>
      <trkpt lat="47.18673" lon="-1.59647">
        <ele>4.73</ele>
        <time>2020-05-30T15:08:42Z</time>
      </trkpt>
      <trkpt lat="47.18677" lon="-1.59628">
        <ele>4.49</ele>
        <time>2020-05-30T15:08:44Z</time>
      </trkpt>
      <trkpt lat="47.1868" lon="-1.5961">
        <ele>3.93</ele>
        <time>2020-05-30T15:08:46Z</time>
      </trkpt>
      <trkpt lat="47.18683" lon="-1.59592">
        <ele>3.43</ele>
        <time>2020-05-30T15:08:48Z</time>
      </trkpt>
      <trkpt lat="47.18685" lon="-1.59575">
        <ele>4.56</ele>
        <time>2020-05-30T15:08:50Z</time>
      </trkpt>
      <trkpt lat="47.18687" lon="-1.59557">
        <ele>4.74</ele>
        <time>2020-05-30T15:08:52Z</time>
      </trkpt>
      <trkpt lat="47.18689" lon="-1.59539">
        <ele>4.72</ele>
        <time>2020-05-30T15:08:54Z</time>
      </trkpt>
      <trkpt lat="47.1869" lon="-1.5952">
        <ele>5.07</ele>
        <time>2020-05-30T15:08:56Z</time>
      </trkpt>
      <trkpt lat="47.18692" lon="-1.59502">
        <ele>5.04</ele>
        <time>2020-05-30T15:08:58Z</time>
      </trkpt>
      <trkpt lat="47.18694" lon="-1.59483">
        <ele>4.6</ele>
        <time>2020-05-30T15:09:00Z</time>
      </trkpt>
      <trkpt lat="47.18696" lon="-1.59464">
        <ele>4.45</ele>
        <time>2020-05-30T15:09:02Z</time>
      </trkpt>
      <trkpt lat="47.18698" lon="-1.59445">
        <ele>4.14</ele>
        <time>2020-05-30T15:09:04Z</time>
      </trkpt>
      <trkpt lat="47.18699" lon="-1.59426">
        <ele>3.64</ele>
        <time>2020-05-30T15:09:06Z</time>
      </trkpt>
      <trkpt lat="47.18701" lon="-1.59409">
        <ele>3.82</ele>
        <time>2020-05-30T15:09:08Z</time>
      </trkpt>
      <trkpt lat="47.18703" lon="-1.59392">
        <ele>4.18</ele>
        <time>2020-05-30T15:09:10Z</time>
      </trkpt>
      <trkpt lat="47.18705" lon="-1.59373">
        <ele>4.3</ele>
        <time>2020-05-30T15:09:12Z</time>
      </trkpt>
      <trkpt lat="47.18707" lon="-1.59354">
        <ele>4.93</ele>
        <time>2020-05-30T15:09:14Z</time>
      </trkpt>
      <trkpt lat="47.1871" lon="-1.59333">
        <ele>4.9</ele>
        <time>2020-05-30T15:09:16Z</time>
      </trkpt>
      <trkpt lat="47.18712" lon="-1.59315">
        <ele>4.43</ele>
        <time>2020-05-30T15:09:18Z</time>
      </trkpt>
      <trkpt lat="47.18714" lon="-1.59296">
        <ele>3.62</ele>
        <time>2020-05-30T15:09:20Z</time>
      </trkpt>
      <trkpt lat="47.18716" lon="-1.59277">
        <ele>3.04</ele>
        <time>2020-05-30T15:09:22Z</time>
      </trkpt>
      <trkpt lat="47.18718" lon="-1.59259">
        <ele>3.11</ele>
        <time>2020-05-30T15:09:24Z</time>
      </trkpt>
      <trkpt lat="47.18719" lon="-1.59241">
        <ele>3.69</ele>
        <time>2020-05-30T15:09:26Z</time>
      </trkpt>
      <trkpt lat="47.18722" lon="-1.59224">
        <ele>4.56</ele>
        <time>2020-05-30T15:09:28Z</time>
      </trkpt>
      <trkpt lat="47.18723" lon="-1.59206">
        <ele>4.8</ele>
        <time>2020-05-30T15:09:30Z</time>
      </trkpt>
      <trkpt lat="47.18725" lon="-1.59187">
        <ele>4.67</ele>
        <time>2020-05-30T15:09:32Z</time>
      </trkpt>
      <trkpt lat="47.18727" lon="-1.59167">
        <ele>4.12</ele>
        <time>2020-05-30T15:09:34Z</time>
      </trkpt>
      <trkpt lat="47.18729" lon="-1.59148">
        <ele>3.83</ele>
        <time>2020-05-30T15:09:36Z</time>
      </trkpt>
      <trkpt lat="47.18732" lon="-1.5913">
        <ele>3.83</ele>
        <time>2020-05-30T15:09:38Z</time>
      </trkpt>
      <trkpt lat="47.18734" lon="-1.59112">
        <ele>3.06</ele>
        <time>2020-05-30T15:09:40Z</time>
      </trkpt>
      <trkpt lat="47.18736" lon="-1.59095">
        <ele>3.26</ele>
        <time>2020-05-30T15:09:42Z</time>
      </trkpt>
      <trkpt lat="47.18739" lon="-1.59074">
        <ele>3.19</ele>
        <time>2020-05-30T15:09:44Z</time>
      </trkpt>
      <trkpt lat="47.1874" lon="-1.59056">
        <ele>2.69</ele>
        <time>2020-05-30T15:09:46Z</time>
      </trkpt>
      <trkpt lat="47.18742" lon="-1.59038">
        <ele>2.72</ele>
        <time>2020-05-30T15:09:48Z</time>
      </trkpt>
      <trkpt lat="47.18744" lon="-1.59019">
        <ele>2.52</ele>
        <time>2020-05-30T15:09:50Z</time>
      </trkpt>
      <trkpt lat="47.18746" lon="-1.59">
        <ele>2.03</ele>
        <time>2020-05-30T15:09:52Z</time>
      </trkpt>
      <trkpt lat="47.18748" lon="-1.58983">
        <ele>2.63</ele>
        <time>2020-05-30T15:09:54Z</time>
      </trkpt>
      <trkpt lat="47.18751" lon="-1.58966">
        <ele>4.26</ele>
        <time>2020-05-30T15:09:56Z</time>
      </trkpt>
      <trkpt lat="47.18753" lon="-1.58946">
        <ele>4.39</ele>
        <time>2020-05-30T15:09:58Z</time>
      </trkpt>
      <trkpt lat="47.18755" lon="-1.58926">
        <ele>4.08</ele>
        <time>2020-05-30T15:10:00Z</time>
      </trkpt>
      <trkpt lat="47.18757" lon="-1.58907">
        <ele>3.4</ele>
        <time>2020-05-30T15:10:02Z</time>
      </trkpt>
      <trkpt lat="47.18759" lon="-1.58889">
        <ele>2.96</ele>
        <time>2020-05-30T15:10:04Z</time>
      </trkpt>
      <trkpt lat="47.1876" lon="-1.58872">
        <ele>3</ele>
        <time>2020-05-30T15:10:06Z</time>
      </trkpt>
      <trkpt lat="47.18762" lon="-1.58854">
        <ele>3.02</ele>
        <time>2020-05-30T15:10:08Z</time>
      </trkpt>
      <trkpt lat="47.18765" lon="-1.58837">
        <ele>2.57</ele>
        <time>2020-05-30T15:10:10Z</time>
      </trkpt>
      <trkpt lat="47.18766" lon="-1.58817">
        <ele>2.16</ele>
        <time>2020-05-30T15:10:12Z</time>
      </trkpt>
      <trkpt lat="47.18766" lon="-1.58798">
        <ele>1.48</ele>
        <time>2020-05-30T15:10:14Z</time>
      </trkpt>
      <trkpt lat="47.18765" lon="-1.58783">
        <ele>1.25</ele>
        <time>2020-05-30T15:10:16Z</time>
      </trkpt>
      <trkpt lat="47.18762" lon="-1.58764">
        <ele>1.35</ele>
        <time>2020-05-30T15:10:19Z</time>
      </trkpt>
      <trkpt lat="47.18759" lon="-1.58749">
        <ele>2.27</ele>
        <time>2020-05-30T15:10:21Z</time>
      </trkpt>
      <trkpt lat="47.18762" lon="-1.5873">
        <ele>3.12</ele>
        <time>2020-05-30T15:10:23Z</time>
      </trkpt>
      <trkpt lat="47.18769" lon="-1.58716">
        <ele>3.62</ele>
        <time>2020-05-30T15:10:25Z</time>
      </trkpt>
      <trkpt lat="47.18778" lon="-1.58702">
        <ele>4.5</ele>
        <time>2020-05-30T15:10:27Z</time>
      </trkpt>
      <trkpt lat="47.18787" lon="-1.58687">
        <ele>4.94</ele>
        <time>2020-05-30T15:10:29Z</time>
      </trkpt>
      <trkpt lat="47.18792" lon="-1.58668">
        <ele>5.47</ele>
        <time>2020-05-30T15:10:31Z</time>
      </trkpt>
      <trkpt lat="47.18795" lon="-1.58648">
        <ele>5.42</ele>
        <time>2020-05-30T15:10:33Z</time>
      </trkpt>
      <trkpt lat="47.18799" lon="-1.58631">
        <ele>5.21</ele>
        <time>2020-05-30T15:10:35Z</time>
      </trkpt>
      <trkpt lat="47.18803" lon="-1.58613">
        <ele>3.62</ele>
        <time>2020-05-30T15:10:37Z</time>
      </trkpt>
      <trkpt lat="47.18807" lon="-1.58598">
        <ele>3.17</ele>
        <time>2020-05-30T15:10:39Z</time>
      </trkpt>
      <trkpt lat="47.18812" lon="-1.58579">
        <ele>2.47</ele>
        <time>2020-05-30T15:10:41Z</time>
      </trkpt>
      <trkpt lat="47.18817" lon="-1.58564">
        <ele>2.6</ele>
        <time>2020-05-30T15:10:43Z</time>
      </trkpt>
      <trkpt lat="47.18822" lon="-1.58546">
        <ele>3.2</ele>
        <time>2020-05-30T15:10:45Z</time>
      </trkpt>
      <trkpt lat="47.18827" lon="-1.58528">
        <ele>3.61</ele>
        <time>2020-05-30T15:10:47Z</time>
      </trkpt>
      <trkpt lat="47.18831" lon="-1.5851">
        <ele>3.88</ele>
        <time>2020-05-30T15:10:49Z</time>
      </trkpt>
      <trkpt lat="47.18836" lon="-1.58491">
        <ele>5.2</ele>
        <time>2020-05-30T15:10:51Z</time>
      </trkpt>
      <trkpt lat="47.18841" lon="-1.58476">
        <ele>6.37</ele>
        <time>2020-05-30T15:10:53Z</time>
      </trkpt>
      <trkpt lat="47.18847" lon="-1.5846">
        <ele>6.49</ele>
        <time>2020-05-30T15:10:55Z</time>
      </trkpt>
      <trkpt lat="47.18852" lon="-1.58443">
        <ele>6.08</ele>
        <time>2020-05-30T15:10:57Z</time>
      </trkpt>
      <trkpt lat="47.18857" lon="-1.58426">
        <ele>6.72</ele>
        <time>2020-05-30T15:10:59Z</time>
      </trkpt>
      <trkpt lat="47.18862" lon="-1.58408">
        <ele>6.73</ele>
        <time>2020-05-30T15:11:01Z</time>
      </trkpt>
      <trkpt lat="47.18869" lon="-1.58391">
        <ele>6.04</ele>
        <time>2020-05-30T15:11:03Z</time>
      </trkpt>
      <trkpt lat="47.18874" lon="-1.58373">
        <ele>5.59</ele>
        <time>2020-05-30T15:11:05Z</time>
      </trkpt>
      <trkpt lat="47.18881" lon="-1.58355">
        <ele>4.71</ele>
        <time>2020-05-30T15:11:07Z</time>
      </trkpt>
      <trkpt lat="47.18886" lon="-1.58339">
        <ele>4.31</ele>
        <time>2020-05-30T15:11:09Z</time>
      </trkpt>
      <trkpt lat="47.18892" lon="-1.58322">
        <ele>4.79</ele>
        <time>2020-05-30T15:11:11Z</time>
      </trkpt>
      <trkpt lat="47.18898" lon="-1.58306">
        <ele>5.2</ele>
        <time>2020-05-30T15:11:13Z</time>
      </trkpt>
      <trkpt lat="47.18903" lon="-1.58289">
        <ele>4.97</ele>
        <time>2020-05-30T15:11:15Z</time>
      </trkpt>
      <trkpt lat="47.1891" lon="-1.58272">
        <ele>4.31</ele>
        <time>2020-05-30T15:11:17Z</time>
      </trkpt>
      <trkpt lat="47.18916" lon="-1.58255">
        <ele>3.67</ele>
        <time>2020-05-30T15:11:19Z</time>
      </trkpt>
      <trkpt lat="47.18922" lon="-1.58238">
        <ele>3.5</ele>
        <time>2020-05-30T15:11:21Z</time>
      </trkpt>
      <trkpt lat="47.18928" lon="-1.58219">
        <ele>3.63</ele>
        <time>2020-05-30T15:11:22Z</time>
      </trkpt>
      <trkpt lat="47.18935" lon="-1.58201">
        <ele>4</ele>
        <time>2020-05-30T15:11:24Z</time>
      </trkpt>
      <trkpt lat="47.18941" lon="-1.58182">
        <ele>5.37</ele>
        <time>2020-05-30T15:11:26Z</time>
      </trkpt>
      <trkpt lat="47.18947" lon="-1.58168">
        <ele>6.19</ele>
        <time>2020-05-30T15:11:28Z</time>
      </trkpt>
      <trkpt lat="47.18954" lon="-1.58151">
        <ele>6.86</ele>
        <time>2020-05-30T15:11:30Z</time>
      </trkpt>
      <trkpt lat="47.18961" lon="-1.58132">
        <ele>7.87</ele>
        <time>2020-05-30T15:11:32Z</time>
      </trkpt>
      <trkpt lat="47.18966" lon="-1.58117">
        <ele>8.83</ele>
        <time>2020-05-30T15:11:34Z</time>
      </trkpt>
      <trkpt lat="47.18971" lon="-1.58101">
        <ele>8.8</ele>
        <time>2020-05-30T15:11:36Z</time>
      </trkpt>
      <trkpt lat="47.18977" lon="-1.58082">
        <ele>8.33</ele>
        <time>2020-05-30T15:11:38Z</time>
      </trkpt>
      <trkpt lat="47.18984" lon="-1.58064">
        <ele>7.89</ele>
        <time>2020-05-30T15:11:40Z</time>
      </trkpt>
      <trkpt lat="47.1899" lon="-1.58046">
        <ele>7.55</ele>
        <time>2020-05-30T15:11:42Z</time>
      </trkpt>
      <trkpt lat="47.18996" lon="-1.58029">
        <ele>6.25</ele>
        <time>2020-05-30T15:11:44Z</time>
      </trkpt>
      <trkpt lat="47.19003" lon="-1.5801">
        <ele>5.38</ele>
        <time>2020-05-30T15:11:46Z</time>
      </trkpt>
      <trkpt lat="47.19009" lon="-1.57994">
        <ele>5.13</ele>
        <time>2020-05-30T15:11:48Z</time>
      </trkpt>
      <trkpt lat="47.19014" lon="-1.57977">
        <ele>4.75</ele>
        <time>2020-05-30T15:11:50Z</time>
      </trkpt>
      <trkpt lat="47.19021" lon="-1.57959">
        <ele>3.77</ele>
        <time>2020-05-30T15:11:52Z</time>
      </trkpt>
      <trkpt lat="47.19027" lon="-1.57943">
        <ele>4.07</ele>
        <time>2020-05-30T15:11:54Z</time>
      </trkpt>
      <trkpt lat="47.19033" lon="-1.57925">
        <ele>4.95</ele>
        <time>2020-05-30T15:11:56Z</time>
      </trkpt>
      <trkpt lat="47.1904" lon="-1.57906">
        <ele>5.58</ele>
        <time>2020-05-30T15:11:58Z</time>
      </trkpt>
      <trkpt lat="47.19047" lon="-1.57891">
        <ele>5.38</ele>
        <time>2020-05-30T15:12:00Z</time>
      </trkpt>
      <trkpt lat="47.19054" lon="-1.5787">
        <ele>5.2</ele>
        <time>2020-05-30T15:12:02Z</time>
      </trkpt>
      <trkpt lat="47.1906" lon="-1.57852">
        <ele>5.85</ele>
        <time>2020-05-30T15:12:04Z</time>
      </trkpt>
      <trkpt lat="47.19066" lon="-1.57835">
        <ele>6.15</ele>
        <time>2020-05-30T15:12:06Z</time>
      </trkpt>
      <trkpt lat="47.19072" lon="-1.57818">
        <ele>6.26</ele>
        <time>2020-05-30T15:12:08Z</time>
      </trkpt>
      <trkpt lat="47.19079" lon="-1.578">
        <ele>6.5</ele>
        <time>2020-05-30T15:12:10Z</time>
      </trkpt>
      <trkpt lat="47.19084" lon="-1.57784">
        <ele>6.47</ele>
        <time>2020-05-30T15:12:12Z</time>
      </trkpt>
      <trkpt lat="47.19091" lon="-1.57764">
        <ele>6.46</ele>
        <time>2020-05-30T15:12:14Z</time>
      </trkpt>
      <trkpt lat="47.19098" lon="-1.57746">
        <ele>6.86</ele>
        <time>2020-05-30T15:12:16Z</time>
      </trkpt>
      <trkpt lat="47.19105" lon="-1.57727">
        <ele>6.22</ele>
        <time>2020-05-30T15:12:18Z</time>
      </trkpt>
      <trkpt lat="47.19111" lon="-1.5771">
        <ele>6.83</ele>
        <time>2020-05-30T15:12:20Z</time>
      </trkpt>
      <trkpt lat="47.19117" lon="-1.57693">
        <ele>6.69</ele>
        <time>2020-05-30T15:12:22Z</time>
      </trkpt>
      <trkpt lat="47.19123" lon="-1.57675">
        <ele>6.43</ele>
        <time>2020-05-30T15:12:24Z</time>
      </trkpt>
      <trkpt lat="47.19129" lon="-1.57656">
        <ele>6.53</ele>
        <time>2020-05-30T15:12:26Z</time>
      </trkpt>
      <trkpt lat="47.19136" lon="-1.57637">
        <ele>6.47</ele>
        <time>2020-05-30T15:12:28Z</time>
      </trkpt>
      <trkpt lat="47.19142" lon="-1.5762">
        <ele>6.08</ele>
        <time>2020-05-30T15:12:30Z</time>
      </trkpt>
      <trkpt lat="47.19148" lon="-1.57603">
        <ele>5.96</ele>
        <time>2020-05-30T15:12:32Z</time>
      </trkpt>
      <trkpt lat="47.19154" lon="-1.57584">
        <ele>5.56</ele>
        <time>2020-05-30T15:12:34Z</time>
      </trkpt>
      <trkpt lat="47.1916" lon="-1.57566">
        <ele>3.99</ele>
        <time>2020-05-30T15:12:36Z</time>
      </trkpt>
      <trkpt lat="47.19167" lon="-1.57549">
        <ele>3.42</ele>
        <time>2020-05-30T15:12:38Z</time>
      </trkpt>
      <trkpt lat="47.19173" lon="-1.5753">
        <ele>3.12</ele>
        <time>2020-05-30T15:12:40Z</time>
      </trkpt>
      <trkpt lat="47.1918" lon="-1.57511">
        <ele>3.26</ele>
        <time>2020-05-30T15:12:42Z</time>
      </trkpt>
      <trkpt lat="47.19184" lon="-1.57494">
        <ele>3.55</ele>
        <time>2020-05-30T15:12:44Z</time>
      </trkpt>
      <trkpt lat="47.1919" lon="-1.57475">
        <ele>3.99</ele>
        <time>2020-05-30T15:12:46Z</time>
      </trkpt>
      <trkpt lat="47.19196" lon="-1.57457">
        <ele>4.08</ele>
        <time>2020-05-30T15:12:48Z</time>
      </trkpt>
      <trkpt lat="47.19202" lon="-1.57437">
        <ele>3.66</ele>
        <time>2020-05-30T15:12:50Z</time>
      </trkpt>
      <trkpt lat="47.19207" lon="-1.57421">
        <ele>4.19</ele>
        <time>2020-05-30T15:12:52Z</time>
      </trkpt>
      <trkpt lat="47.19213" lon="-1.57401">
        <ele>3.59</ele>
        <time>2020-05-30T15:12:54Z</time>
      </trkpt>
      <trkpt lat="47.19218" lon="-1.57384">
        <ele>3.77</ele>
        <time>2020-05-30T15:12:56Z</time>
      </trkpt>
      <trkpt lat="47.19223" lon="-1.57366">
        <ele>3.93</ele>
        <time>2020-05-30T15:12:58Z</time>
      </trkpt>
      <trkpt lat="47.19228" lon="-1.57346">
        <ele>3.5</ele>
        <time>2020-05-30T15:13:00Z</time>
      </trkpt>
      <trkpt lat="47.19231" lon="-1.57327">
        <ele>2.82</ele>
        <time>2020-05-30T15:13:02Z</time>
      </trkpt>
      <trkpt lat="47.19234" lon="-1.57308">
        <ele>2.08</ele>
        <time>2020-05-30T15:13:04Z</time>
      </trkpt>
      <trkpt lat="47.19237" lon="-1.57288">
        <ele>1.64</ele>
        <time>2020-05-30T15:13:06Z</time>
      </trkpt>
      <trkpt lat="47.19239" lon="-1.57268">
        <ele>1.92</ele>
        <time>2020-05-30T15:13:08Z</time>
      </trkpt>
      <trkpt lat="47.19242" lon="-1.5725">
        <ele>2.24</ele>
        <time>2020-05-30T15:13:10Z</time>
      </trkpt>
      <trkpt lat="47.19244" lon="-1.57227">
        <ele>2.67</ele>
        <time>2020-05-30T15:13:12Z</time>
      </trkpt>
      <trkpt lat="47.19247" lon="-1.57208">
        <ele>2.25</ele>
        <time>2020-05-30T15:13:14Z</time>
      </trkpt>
      <trkpt lat="47.1925" lon="-1.57188">
        <ele>2.48</ele>
        <time>2020-05-30T15:13:16Z</time>
      </trkpt>
      <trkpt lat="47.19252" lon="-1.5717">
        <ele>2.75</ele>
        <time>2020-05-30T15:13:18Z</time>
      </trkpt>
      <trkpt lat="47.19254" lon="-1.5715">
        <ele>2.58</ele>
        <time>2020-05-30T15:13:20Z</time>
      </trkpt>
      <trkpt lat="47.19256" lon="-1.57132">
        <ele>3.06</ele>
        <time>2020-05-30T15:13:22Z</time>
      </trkpt>
      <trkpt lat="47.19259" lon="-1.57113">
        <ele>3.47</ele>
        <time>2020-05-30T15:13:24Z</time>
      </trkpt>
      <trkpt lat="47.19262" lon="-1.57097">
        <ele>3.35</ele>
        <time>2020-05-30T15:13:26Z</time>
      </trkpt>
      <trkpt lat="47.19263" lon="-1.57083">
        <ele>3.73</ele>
        <time>2020-05-30T15:13:28Z</time>
      </trkpt>
      <trkpt lat="47.1926" lon="-1.57064">
        <ele>4.02</ele>
        <time>2020-05-30T15:13:31Z</time>
      </trkpt>
      <trkpt lat="47.19257" lon="-1.57046">
        <ele>4.19</ele>
        <time>2020-05-30T15:13:33Z</time>
      </trkpt>
      <trkpt lat="47.19265" lon="-1.57035">
        <ele>4.47</ele>
        <time>2020-05-30T15:13:35Z</time>
      </trkpt>
      <trkpt lat="47.19275" lon="-1.57038">
        <ele>5.67</ele>
        <time>2020-05-30T15:13:37Z</time>
      </trkpt>
      <trkpt lat="47.19287" lon="-1.57045">
        <ele>7</ele>
        <time>2020-05-30T15:13:39Z</time>
      </trkpt>
      <trkpt lat="47.19301" lon="-1.5705">
        <ele>7.46</ele>
        <time>2020-05-30T15:13:41Z</time>
      </trkpt>
      <trkpt lat="47.19313" lon="-1.57049">
        <ele>7.92</ele>
        <time>2020-05-30T15:13:43Z</time>
      </trkpt>
      <trkpt lat="47.19325" lon="-1.57046">
        <ele>7.81</ele>
        <time>2020-05-30T15:13:45Z</time>
      </trkpt>
      <trkpt lat="47.19336" lon="-1.57048">
        <ele>7.84</ele>
        <time>2020-05-30T15:13:47Z</time>
      </trkpt>
      <trkpt lat="47.19349" lon="-1.57056">
        <ele>6.68</ele>
        <time>2020-05-30T15:13:49Z</time>
      </trkpt>
      <trkpt lat="47.19362" lon="-1.57064">
        <ele>6.27</ele>
        <time>2020-05-30T15:13:51Z</time>
      </trkpt>
      <trkpt lat="47.19375" lon="-1.5707">
        <ele>6.6</ele>
        <time>2020-05-30T15:13:53Z</time>
      </trkpt>
      <trkpt lat="47.19388" lon="-1.57073">
        <ele>6.09</ele>
        <time>2020-05-30T15:13:55Z</time>
      </trkpt>
      <trkpt lat="47.19401" lon="-1.57076">
        <ele>6.02</ele>
        <time>2020-05-30T15:13:57Z</time>
      </trkpt>
      <trkpt lat="47.19414" lon="-1.57078">
        <ele>5.77</ele>
        <time>2020-05-30T15:13:59Z</time>
      </trkpt>
      <trkpt lat="47.19429" lon="-1.57082">
        <ele>5.14</ele>
        <time>2020-05-30T15:14:01Z</time>
      </trkpt>
      <trkpt lat="47.19441" lon="-1.57082">
        <ele>5.41</ele>
        <time>2020-05-30T15:14:03Z</time>
      </trkpt>
      <trkpt lat="47.1945" lon="-1.57079">
        <ele>5.44</ele>
        <time>2020-05-30T15:14:06Z</time>
      </trkpt>
      <trkpt lat="47.19461" lon="-1.57074">
        <ele>5.6</ele>
        <time>2020-05-30T15:14:08Z</time>
      </trkpt>
      <trkpt lat="47.19472" lon="-1.5708">
        <ele>5.42</ele>
        <time>2020-05-30T15:14:10Z</time>
      </trkpt>
      <trkpt lat="47.19482" lon="-1.57091">
        <ele>5.62</ele>
        <time>2020-05-30T15:14:12Z</time>
      </trkpt>
      <trkpt lat="47.19494" lon="-1.571">
        <ele>5.69</ele>
        <time>2020-05-30T15:14:14Z</time>
      </trkpt>
      <trkpt lat="47.19507" lon="-1.57105">
        <ele>6.49</ele>
        <time>2020-05-30T15:14:16Z</time>
      </trkpt>
      <trkpt lat="47.19521" lon="-1.57108">
        <ele>6.76</ele>
        <time>2020-05-30T15:14:18Z</time>
      </trkpt>
      <trkpt lat="47.19533" lon="-1.57111">
        <ele>6.39</ele>
        <time>2020-05-30T15:14:20Z</time>
      </trkpt>
      <trkpt lat="47.19544" lon="-1.57113">
        <ele>6.72</ele>
        <time>2020-05-30T15:14:22Z</time>
      </trkpt>
      <trkpt lat="47.19557" lon="-1.57116">
        <ele>6.47</ele>
        <time>2020-05-30T15:14:24Z</time>
      </trkpt>
      <trkpt lat="47.19568" lon="-1.57119">
        <ele>6.27</ele>
        <time>2020-05-30T15:14:26Z</time>
      </trkpt>
      <trkpt lat="47.1958" lon="-1.57121">
        <ele>5.86</ele>
        <time>2020-05-30T15:14:28Z</time>
      </trkpt>
      <trkpt lat="47.19592" lon="-1.57119">
        <ele>5.57</ele>
        <time>2020-05-30T15:14:30Z</time>
      </trkpt>
      <trkpt lat="47.19599" lon="-1.57106">
        <ele>3.91</ele>
        <time>2020-05-30T15:14:32Z</time>
      </trkpt>
      <trkpt lat="47.19601" lon="-1.57088">
        <ele>1.67</ele>
        <time>2020-05-30T15:14:34Z</time>
      </trkpt>
      <trkpt lat="47.19602" lon="-1.57066">
        <ele>0.05</ele>
        <time>2020-05-30T15:14:36Z</time>
      </trkpt>
      <trkpt lat="47.19603" lon="-1.57047">
        <ele>-0.69</ele>
        <time>2020-05-30T15:14:38Z</time>
      </trkpt>
      <trkpt lat="47.19604" lon="-1.57029">
        <ele>-0.25</ele>
        <time>2020-05-30T15:14:40Z</time>
      </trkpt>
      <trkpt lat="47.19605" lon="-1.57012">
        <ele>0.6</ele>
        <time>2020-05-30T15:14:42Z</time>
      </trkpt>
      <trkpt lat="47.19607" lon="-1.56992">
        <ele>1.25</ele>
        <time>2020-05-30T15:14:44Z</time>
      </trkpt>
      <trkpt lat="47.19608" lon="-1.56973">
        <ele>2.37</ele>
        <time>2020-05-30T15:14:46Z</time>
      </trkpt>
      <trkpt lat="47.1961" lon="-1.56952">
        <ele>3.56</ele>
        <time>2020-05-30T15:14:48Z</time>
      </trkpt>
      <trkpt lat="47.19611" lon="-1.56932">
        <ele>4.45</ele>
        <time>2020-05-30T15:14:50Z</time>
      </trkpt>
      <trkpt lat="47.19613" lon="-1.56911">
        <ele>5.12</ele>
        <time>2020-05-30T15:14:52Z</time>
      </trkpt>
      <trkpt lat="47.19614" lon="-1.56892">
        <ele>5.78</ele>
        <time>2020-05-30T15:14:54Z</time>
      </trkpt>
      <trkpt lat="47.19615" lon="-1.56874">
        <ele>6.07</ele>
        <time>2020-05-30T15:14:56Z</time>
      </trkpt>
      <trkpt lat="47.19615" lon="-1.56854">
        <ele>5.8</ele>
        <time>2020-05-30T15:14:58Z</time>
      </trkpt>
      <trkpt lat="47.19616" lon="-1.56833">
        <ele>3.57</ele>
        <time>2020-05-30T15:15:00Z</time>
      </trkpt>
      <trkpt lat="47.19617" lon="-1.56814">
        <ele>1.68</ele>
        <time>2020-05-30T15:15:02Z</time>
      </trkpt>
      <trkpt lat="47.19618" lon="-1.56796">
        <ele>1.13</ele>
        <time>2020-05-30T15:15:04Z</time>
      </trkpt>
      <trkpt lat="47.1962" lon="-1.56777">
        <ele>0.43</ele>
        <time>2020-05-30T15:15:06Z</time>
      </trkpt>
      <trkpt lat="47.19621" lon="-1.56757">
        <ele>0.22</ele>
        <time>2020-05-30T15:15:08Z</time>
      </trkpt>
      <trkpt lat="47.19621" lon="-1.56739">
        <ele>0.91</ele>
        <time>2020-05-30T15:15:10Z</time>
      </trkpt>
      <trkpt lat="47.19621" lon="-1.56722">
        <ele>1.32</ele>
        <time>2020-05-30T15:15:12Z</time>
      </trkpt>
      <trkpt lat="47.19622" lon="-1.56704">
        <ele>1.96</ele>
        <time>2020-05-30T15:15:14Z</time>
      </trkpt>
      <trkpt lat="47.19623" lon="-1.56686">
        <ele>2.4</ele>
        <time>2020-05-30T15:15:16Z</time>
      </trkpt>
      <trkpt lat="47.19624" lon="-1.56668">
        <ele>2.83</ele>
        <time>2020-05-30T15:15:18Z</time>
      </trkpt>
      <trkpt lat="47.19624" lon="-1.56649">
        <ele>3.3</ele>
        <time>2020-05-30T15:15:20Z</time>
      </trkpt>
      <trkpt lat="47.19625" lon="-1.5663">
        <ele>3.53</ele>
        <time>2020-05-30T15:15:22Z</time>
      </trkpt>
      <trkpt lat="47.19625" lon="-1.56613">
        <ele>3.86</ele>
        <time>2020-05-30T15:15:24Z</time>
      </trkpt>
      <trkpt lat="47.19625" lon="-1.56595">
        <ele>3.31</ele>
        <time>2020-05-30T15:15:26Z</time>
      </trkpt>
      <trkpt lat="47.19626" lon="-1.56579">
        <ele>3.2</ele>
        <time>2020-05-30T15:15:28Z</time>
      </trkpt>
      <trkpt lat="47.19627" lon="-1.56561">
        <ele>2.58</ele>
        <time>2020-05-30T15:15:30Z</time>
      </trkpt>
      <trkpt lat="47.19628" lon="-1.56542">
        <ele>1.51</ele>
        <time>2020-05-30T15:15:32Z</time>
      </trkpt>
      <trkpt lat="47.19629" lon="-1.56525">
        <ele>1.35</ele>
        <time>2020-05-30T15:15:34Z</time>
      </trkpt>
      <trkpt lat="47.19629" lon="-1.56505">
        <ele>1.43</ele>
        <time>2020-05-30T15:15:36Z</time>
      </trkpt>
      <trkpt lat="47.19629" lon="-1.5649">
        <ele>1.88</ele>
        <time>2020-05-30T15:15:38Z</time>
      </trkpt>
      <trkpt lat="47.19629" lon="-1.56471">
        <ele>1.82</ele>
        <time>2020-05-30T15:15:40Z</time>
      </trkpt>
      <trkpt lat="47.19628" lon="-1.56453">
        <ele>2.09</ele>
        <time>2020-05-30T15:15:42Z</time>
      </trkpt>
      <trkpt lat="47.19628" lon="-1.56434">
        <ele>1.87</ele>
        <time>2020-05-30T15:15:44Z</time>
      </trkpt>
      <trkpt lat="47.19627" lon="-1.56418">
        <ele>1.86</ele>
        <time>2020-05-30T15:15:46Z</time>
      </trkpt>
      <trkpt lat="47.19627" lon="-1.56401">
        <ele>2.62</ele>
        <time>2020-05-30T15:15:48Z</time>
      </trkpt>
      <trkpt lat="47.19626" lon="-1.56382">
        <ele>3.27</ele>
        <time>2020-05-30T15:15:50Z</time>
      </trkpt>
      <trkpt lat="47.19626" lon="-1.56364">
        <ele>3.78</ele>
        <time>2020-05-30T15:15:52Z</time>
      </trkpt>
      <trkpt lat="47.19626" lon="-1.56348">
        <ele>4.4</ele>
        <time>2020-05-30T15:15:54Z</time>
      </trkpt>
      <trkpt lat="47.19626" lon="-1.56333">
        <ele>4.92</ele>
        <time>2020-05-30T15:15:56Z</time>
      </trkpt>
      <trkpt lat="47.19627" lon="-1.56315">
        <ele>4.68</ele>
        <time>2020-05-30T15:15:58Z</time>
      </trkpt>
      <trkpt lat="47.19628" lon="-1.56298">
        <ele>3.84</ele>
        <time>2020-05-30T15:16:00Z</time>
      </trkpt>
      <trkpt lat="47.19629" lon="-1.56281">
        <ele>3.57</ele>
        <time>2020-05-30T15:16:02Z</time>
      </trkpt>
      <trkpt lat="47.1963" lon="-1.56267">
        <ele>3.31</ele>
        <time>2020-05-30T15:16:04Z</time>
      </trkpt>
      <trkpt lat="47.19632" lon="-1.56253">
        <ele>2.89</ele>
        <time>2020-05-30T15:16:06Z</time>
      </trkpt>
      <trkpt lat="47.19639" lon="-1.56236">
        <ele>1.29</ele>
        <time>2020-05-30T15:16:09Z</time>
      </trkpt>
      <trkpt lat="47.19648" lon="-1.56226">
        <ele>1.36</ele>
        <time>2020-05-30T15:16:11Z</time>
      </trkpt>
      <trkpt lat="47.19659" lon="-1.56224">
        <ele>2.52</ele>
        <time>2020-05-30T15:16:13Z</time>
      </trkpt>
      <trkpt lat="47.1967" lon="-1.5622">
        <ele>3.71</ele>
        <time>2020-05-30T15:16:15Z</time>
      </trkpt>
      <trkpt lat="47.19682" lon="-1.56216">
        <ele>5.07</ele>
        <time>2020-05-30T15:16:17Z</time>
      </trkpt>
      <trkpt lat="47.19694" lon="-1.56214">
        <ele>6.35</ele>
        <time>2020-05-30T15:16:19Z</time>
      </trkpt>
      <trkpt lat="47.19704" lon="-1.56213">
        <ele>6.77</ele>
        <time>2020-05-30T15:16:21Z</time>
      </trkpt>
      <trkpt lat="47.19716" lon="-1.56209">
        <ele>7.7</ele>
        <time>2020-05-30T15:16:23Z</time>
      </trkpt>
      <trkpt lat="47.19727" lon="-1.56206">
        <ele>7.8</ele>
        <time>2020-05-30T15:16:25Z</time>
      </trkpt>
      <trkpt lat="47.19738" lon="-1.56204">
        <ele>7.75</ele>
        <time>2020-05-30T15:16:27Z</time>
      </trkpt>
      <trkpt lat="47.19749" lon="-1.56202">
        <ele>7.86</ele>
        <time>2020-05-30T15:16:29Z</time>
      </trkpt>
      <trkpt lat="47.19759" lon="-1.56201">
        <ele>7.6</ele>
        <time>2020-05-30T15:16:31Z</time>
      </trkpt>
      <trkpt lat="47.19769" lon="-1.56199">
        <ele>7.74</ele>
        <time>2020-05-30T15:16:33Z</time>
      </trkpt>
      <trkpt lat="47.1978" lon="-1.56197">
        <ele>7.64</ele>
        <time>2020-05-30T15:16:35Z</time>
      </trkpt>
      <trkpt lat="47.1979" lon="-1.56195">
        <ele>7.25</ele>
        <time>2020-05-30T15:16:37Z</time>
      </trkpt>
      <trkpt lat="47.19801" lon="-1.56193">
        <ele>6.79</ele>
        <time>2020-05-30T15:16:39Z</time>
      </trkpt>
      <trkpt lat="47.19811" lon="-1.56191">
        <ele>6.8</ele>
        <time>2020-05-30T15:16:41Z</time>
      </trkpt>
      <trkpt lat="47.19822" lon="-1.56189">
        <ele>6.68</ele>
        <time>2020-05-30T15:16:43Z</time>
      </trkpt>
      <trkpt lat="47.19833" lon="-1.56187">
        <ele>7.78</ele>
        <time>2020-05-30T15:16:45Z</time>
      </trkpt>
      <trkpt lat="47.19843" lon="-1.56186">
        <ele>7.45</ele>
        <time>2020-05-30T15:16:47Z</time>
      </trkpt>
      <trkpt lat="47.19857" lon="-1.56183">
        <ele>8.32</ele>
        <time>2020-05-30T15:16:50Z</time>
      </trkpt>
      <trkpt lat="47.19866" lon="-1.5618">
        <ele>8.93</ele>
        <time>2020-05-30T15:16:52Z</time>
      </trkpt>
      <trkpt lat="47.19878" lon="-1.56178">
        <ele>8.97</ele>
        <time>2020-05-30T15:16:54Z</time>
      </trkpt>
      <trkpt lat="47.1989" lon="-1.56176">
        <ele>9.48</ele>
        <time>2020-05-30T15:16:56Z</time>
      </trkpt>
      <trkpt lat="47.19901" lon="-1.56174">
        <ele>9.38</ele>
        <time>2020-05-30T15:16:58Z</time>
      </trkpt>
      <trkpt lat="47.19912" lon="-1.56172">
        <ele>9.21</ele>
        <time>2020-05-30T15:17:00Z</time>
      </trkpt>
      <trkpt lat="47.19925" lon="-1.56171">
        <ele>8.25</ele>
        <time>2020-05-30T15:17:02Z</time>
      </trkpt>
      <trkpt lat="47.19938" lon="-1.56168">
        <ele>8</ele>
        <time>2020-05-30T15:17:04Z</time>
      </trkpt>
      <trkpt lat="47.19952" lon="-1.56165">
        <ele>8.37</ele>
        <time>2020-05-30T15:17:06Z</time>
      </trkpt>
      <trkpt lat="47.19966" lon="-1.56163">
        <ele>8.64</ele>
        <time>2020-05-30T15:17:08Z</time>
      </trkpt>
      <trkpt lat="47.19979" lon="-1.56172">
        <ele>8.23</ele>
        <time>2020-05-30T15:17:10Z</time>
      </trkpt>
      <trkpt lat="47.19983" lon="-1.56188">
        <ele>4.92</ele>
        <time>2020-05-30T15:17:12Z</time>
      </trkpt>
      <trkpt lat="47.19986" lon="-1.56212">
        <ele>3.33</ele>
        <time>2020-05-30T15:17:14Z</time>
      </trkpt>
      <trkpt lat="47.19986" lon="-1.56226">
        <ele>3.63</ele>
        <time>2020-05-30T15:17:15Z</time>
      </trkpt>
      <trkpt lat="47.19985" lon="-1.56248">
        <ele>4.91</ele>
        <time>2020-05-30T15:17:17Z</time>
      </trkpt>
      <trkpt lat="47.19985" lon="-1.56272">
        <ele>6.39</ele>
        <time>2020-05-30T15:17:19Z</time>
      </trkpt>
      <trkpt lat="47.19983" lon="-1.56295">
        <ele>7.8</ele>
        <time>2020-05-30T15:17:21Z</time>
      </trkpt>
      <trkpt lat="47.19982" lon="-1.56314">
        <ele>8.11</ele>
        <time>2020-05-30T15:17:23Z</time>
      </trkpt>
      <trkpt lat="47.1998" lon="-1.56337">
        <ele>6.53</ele>
        <time>2020-05-30T15:17:25Z</time>
      </trkpt>
      <trkpt lat="47.19977" lon="-1.56362">
        <ele>5.26</ele>
        <time>2020-05-30T15:17:27Z</time>
      </trkpt>
      <trkpt lat="47.19975" lon="-1.56386">
        <ele>4.76</ele>
        <time>2020-05-30T15:17:29Z</time>
      </trkpt>
      <trkpt lat="47.19973" lon="-1.56407">
        <ele>4.91</ele>
        <time>2020-05-30T15:17:31Z</time>
      </trkpt>
      <trkpt lat="47.19968" lon="-1.5643">
        <ele>4.75</ele>
        <time>2020-05-30T15:17:33Z</time>
      </trkpt>
      <trkpt lat="47.19963" lon="-1.56454">
        <ele>4.67</ele>
        <time>2020-05-30T15:17:35Z</time>
      </trkpt>
      <trkpt lat="47.19959" lon="-1.56477">
        <ele>4.1</ele>
        <time>2020-05-30T15:17:37Z</time>
      </trkpt>
      <trkpt lat="47.19956" lon="-1.565">
        <ele>3.75</ele>
        <time>2020-05-30T15:17:39Z</time>
      </trkpt>
      <trkpt lat="47.19955" lon="-1.56514">
        <ele>3.86</ele>
        <time>2020-05-30T15:17:40Z</time>
      </trkpt>
      <trkpt lat="47.19954" lon="-1.56536">
        <ele>4.26</ele>
        <time>2020-05-30T15:17:42Z</time>
      </trkpt>
      <trkpt lat="47.19953" lon="-1.56559">
        <ele>3.81</ele>
        <time>2020-05-30T15:17:44Z</time>
      </trkpt>
      <trkpt lat="47.19953" lon="-1.56582">
        <ele>3.37</ele>
        <time>2020-05-30T15:17:46Z</time>
      </trkpt>
      <trkpt lat="47.19953" lon="-1.56606">
        <ele>3.18</ele>
        <time>2020-05-30T15:17:48Z</time>
      </trkpt>
      <trkpt lat="47.19953" lon="-1.56629">
        <ele>3.28</ele>
        <time>2020-05-30T15:17:50Z</time>
      </trkpt>
      <trkpt lat="47.19953" lon="-1.56652">
        <ele>3.02</ele>
        <time>2020-05-30T15:17:52Z</time>
      </trkpt>
      <trkpt lat="47.19954" lon="-1.56676">
        <ele>2.52</ele>
        <time>2020-05-30T15:17:54Z</time>
      </trkpt>
      <trkpt lat="47.19954" lon="-1.56689">
        <ele>2.64</ele>
        <time>2020-05-30T15:17:55Z</time>
      </trkpt>
      <trkpt lat="47.19954" lon="-1.56712">
        <ele>3</ele>
        <time>2020-05-30T15:17:57Z</time>
      </trkpt>
      <trkpt lat="47.19954" lon="-1.56737">
        <ele>3.28</ele>
        <time>2020-05-30T15:17:59Z</time>
      </trkpt>
      <trkpt lat="47.19953" lon="-1.56759">
        <ele>3.49</ele>
        <time>2020-05-30T15:18:01Z</time>
      </trkpt>
      <trkpt lat="47.19954" lon="-1.56782">
        <ele>3.61</ele>
        <time>2020-05-30T15:18:03Z</time>
      </trkpt>
      <trkpt lat="47.19954" lon="-1.56805">
        <ele>3.63</ele>
        <time>2020-05-30T15:18:05Z</time>
      </trkpt>
      <trkpt lat="47.19953" lon="-1.56827">
        <ele>3.1</ele>
        <time>2020-05-30T15:18:07Z</time>
      </trkpt>
      <trkpt lat="47.19953" lon="-1.56849">
        <ele>2.46</ele>
        <time>2020-05-30T15:18:09Z</time>
      </trkpt>
      <trkpt lat="47.19953" lon="-1.56872">
        <ele>2.47</ele>
        <time>2020-05-30T15:18:11Z</time>
      </trkpt>
      <trkpt lat="47.19953" lon="-1.56892">
        <ele>2.85</ele>
        <time>2020-05-30T15:18:13Z</time>
      </trkpt>
      <trkpt lat="47.19953" lon="-1.56916">
        <ele>2.84</ele>
        <time>2020-05-30T15:18:15Z</time>
      </trkpt>
      <trkpt lat="47.19952" lon="-1.5694">
        <ele>4.09</ele>
        <time>2020-05-30T15:18:17Z</time>
      </trkpt>
      <trkpt lat="47.19952" lon="-1.56963">
        <ele>5.43</ele>
        <time>2020-05-30T15:18:19Z</time>
      </trkpt>
      <trkpt lat="47.19952" lon="-1.56986">
        <ele>6.59</ele>
        <time>2020-05-30T15:18:21Z</time>
      </trkpt>
      <trkpt lat="47.19952" lon="-1.57007">
        <ele>7.09</ele>
        <time>2020-05-30T15:18:23Z</time>
      </trkpt>
      <trkpt lat="47.19952" lon="-1.57032">
        <ele>7.51</ele>
        <time>2020-05-30T15:18:25Z</time>
      </trkpt>
      <trkpt lat="47.19954" lon="-1.57054">
        <ele>7.97</ele>
        <time>2020-05-30T15:18:27Z</time>
      </trkpt>
      <trkpt lat="47.1996" lon="-1.57072">
        <ele>7.62</ele>
        <time>2020-05-30T15:18:29Z</time>
      </trkpt>
      <trkpt lat="47.19965" lon="-1.57091">
        <ele>7.54</ele>
        <time>2020-05-30T15:18:31Z</time>
      </trkpt>
      <trkpt lat="47.19971" lon="-1.57113">
        <ele>7.51</ele>
        <time>2020-05-30T15:18:33Z</time>
      </trkpt>
      <trkpt lat="47.19976" lon="-1.57136">
        <ele>7.24</ele>
        <time>2020-05-30T15:18:35Z</time>
      </trkpt>
      <trkpt lat="47.1998" lon="-1.57157">
        <ele>7.44</ele>
        <time>2020-05-30T15:18:37Z</time>
      </trkpt>
      <trkpt lat="47.19981" lon="-1.57178">
        <ele>7.36</ele>
        <time>2020-05-30T15:18:39Z</time>
      </trkpt>
      <trkpt lat="47.19981" lon="-1.57198">
        <ele>7.47</ele>
        <time>2020-05-30T15:18:41Z</time>
      </trkpt>
      <trkpt lat="47.1998" lon="-1.57217">
        <ele>7.52</ele>
        <time>2020-05-30T15:18:43Z</time>
      </trkpt>
      <trkpt lat="47.1998" lon="-1.57236">
        <ele>7</ele>
        <time>2020-05-30T15:18:45Z</time>
      </trkpt>
      <trkpt lat="47.19982" lon="-1.57256">
        <ele>6.5</ele>
        <time>2020-05-30T15:18:47Z</time>
      </trkpt>
      <trkpt lat="47.19985" lon="-1.57277">
        <ele>6.16</ele>
        <time>2020-05-30T15:18:49Z</time>
      </trkpt>
      <trkpt lat="47.19987" lon="-1.57296">
        <ele>5.87</ele>
        <time>2020-05-30T15:18:51Z</time>
      </trkpt>
      <trkpt lat="47.19995" lon="-1.57312">
        <ele>5.47</ele>
        <time>2020-05-30T15:18:53Z</time>
      </trkpt>
      <trkpt lat="47.20011" lon="-1.57315">
        <ele>5.17</ele>
        <time>2020-05-30T15:18:55Z</time>
      </trkpt>
      <trkpt lat="47.20024" lon="-1.57307">
        <ele>5.75</ele>
        <time>2020-05-30T15:18:57Z</time>
      </trkpt>
      <trkpt lat="47.20038" lon="-1.57298">
        <ele>6.03</ele>
        <time>2020-05-30T15:18:59Z</time>
      </trkpt>
      <trkpt lat="47.20052" lon="-1.57287">
        <ele>6.05</ele>
        <time>2020-05-30T15:19:01Z</time>
      </trkpt>
      <trkpt lat="47.20065" lon="-1.57278">
        <ele>5.98</ele>
        <time>2020-05-30T15:19:03Z</time>
      </trkpt>
      <trkpt lat="47.20078" lon="-1.57269">
        <ele>6.47</ele>
        <time>2020-05-30T15:19:05Z</time>
      </trkpt>
      <trkpt lat="47.2009" lon="-1.5726">
        <ele>7.55</ele>
        <time>2020-05-30T15:19:07Z</time>
      </trkpt>
      <trkpt lat="47.20102" lon="-1.57251">
        <ele>8.04</ele>
        <time>2020-05-30T15:19:09Z</time>
      </trkpt>
      <trkpt lat="47.20114" lon="-1.57242">
        <ele>8.54</ele>
        <time>2020-05-30T15:19:11Z</time>
      </trkpt>
      <trkpt lat="47.20126" lon="-1.57234">
        <ele>8.74</ele>
        <time>2020-05-30T15:19:13Z</time>
      </trkpt>
      <trkpt lat="47.20136" lon="-1.57226">
        <ele>9.49</ele>
        <time>2020-05-30T15:19:15Z</time>
      </trkpt>
      <trkpt lat="47.20148" lon="-1.57218">
        <ele>9.39</ele>
        <time>2020-05-30T15:19:17Z</time>
      </trkpt>
      <trkpt lat="47.20158" lon="-1.57211">
        <ele>9.67</ele>
        <time>2020-05-30T15:19:19Z</time>
      </trkpt>
      <trkpt lat="47.20169" lon="-1.57204">
        <ele>8.74</ele>
        <time>2020-05-30T15:19:21Z</time>
      </trkpt>
      <trkpt lat="47.20181" lon="-1.57197">
        <ele>8.72</ele>
        <time>2020-05-30T15:19:23Z</time>
      </trkpt>
      <trkpt lat="47.20192" lon="-1.5719">
        <ele>9.72</ele>
        <time>2020-05-30T15:19:25Z</time>
      </trkpt>
      <trkpt lat="47.20204" lon="-1.57182">
        <ele>11.15</ele>
        <time>2020-05-30T15:19:27Z</time>
      </trkpt>
      <trkpt lat="47.20215" lon="-1.57175">
        <ele>11.29</ele>
        <time>2020-05-30T15:19:29Z</time>
      </trkpt>
      <trkpt lat="47.20226" lon="-1.57167">
        <ele>10.18</ele>
        <time>2020-05-30T15:19:31Z</time>
      </trkpt>
      <trkpt lat="47.20237" lon="-1.5716">
        <ele>8.87</ele>
        <time>2020-05-30T15:19:33Z</time>
      </trkpt>
      <trkpt lat="47.20247" lon="-1.57153">
        <ele>7.91</ele>
        <time>2020-05-30T15:19:35Z</time>
      </trkpt>
      <trkpt lat="47.20258" lon="-1.57145">
        <ele>7.33</ele>
        <time>2020-05-30T15:19:37Z</time>
      </trkpt>
      <trkpt lat="47.2027" lon="-1.57139">
        <ele>7.25</ele>
        <time>2020-05-30T15:19:39Z</time>
      </trkpt>
      <trkpt lat="47.20282" lon="-1.57131">
        <ele>6.82</ele>
        <time>2020-05-30T15:19:41Z</time>
      </trkpt>
      <trkpt lat="47.20294" lon="-1.57121">
        <ele>6.57</ele>
        <time>2020-05-30T15:19:43Z</time>
      </trkpt>
      <trkpt lat="47.20306" lon="-1.57113">
        <ele>6.25</ele>
        <time>2020-05-30T15:19:45Z</time>
      </trkpt>
      <trkpt lat="47.20317" lon="-1.57105">
        <ele>7.27</ele>
        <time>2020-05-30T15:19:47Z</time>
      </trkpt>
      <trkpt lat="47.20328" lon="-1.57098">
        <ele>7.77</ele>
        <time>2020-05-30T15:19:49Z</time>
      </trkpt>
      <trkpt lat="47.20338" lon="-1.57087">
        <ele>9.46</ele>
        <time>2020-05-30T15:19:51Z</time>
      </trkpt>
      <trkpt lat="47.20345" lon="-1.57078">
        <ele>10.54</ele>
        <time>2020-05-30T15:19:52Z</time>
      </trkpt>
      <trkpt lat="47.20352" lon="-1.57064">
        <ele>11.51</ele>
        <time>2020-05-30T15:19:54Z</time>
      </trkpt>
      <trkpt lat="47.20359" lon="-1.57048">
        <ele>10.94</ele>
        <time>2020-05-30T15:19:56Z</time>
      </trkpt>
      <trkpt lat="47.20366" lon="-1.57029">
        <ele>9.98</ele>
        <time>2020-05-30T15:19:58Z</time>
      </trkpt>
      <trkpt lat="47.2037" lon="-1.57011">
        <ele>8.03</ele>
        <time>2020-05-30T15:20:00Z</time>
      </trkpt>
      <trkpt lat="47.20374" lon="-1.5699">
        <ele>5.14</ele>
        <time>2020-05-30T15:20:02Z</time>
      </trkpt>
      <trkpt lat="47.20376" lon="-1.56969">
        <ele>3.58</ele>
        <time>2020-05-30T15:20:04Z</time>
      </trkpt>
      <trkpt lat="47.20378" lon="-1.56948">
        <ele>2.92</ele>
        <time>2020-05-30T15:20:06Z</time>
      </trkpt>
      <trkpt lat="47.20379" lon="-1.56931">
        <ele>2.71</ele>
        <time>2020-05-30T15:20:08Z</time>
      </trkpt>
      <trkpt lat="47.2038" lon="-1.56909">
        <ele>2.27</ele>
        <time>2020-05-30T15:20:10Z</time>
      </trkpt>
      <trkpt lat="47.20381" lon="-1.5689">
        <ele>2.3</ele>
        <time>2020-05-30T15:20:12Z</time>
      </trkpt>
      <trkpt lat="47.20382" lon="-1.56875">
        <ele>2.44</ele>
        <time>2020-05-30T15:20:14Z</time>
      </trkpt>
      <trkpt lat="47.20382" lon="-1.56858">
        <ele>2.5</ele>
        <time>2020-05-30T15:20:16Z</time>
      </trkpt>
      <trkpt lat="47.20382" lon="-1.56836">
        <ele>1.22</ele>
        <time>2020-05-30T15:20:18Z</time>
      </trkpt>
      <trkpt lat="47.20383" lon="-1.56817">
        <ele>0.27</ele>
        <time>2020-05-30T15:20:20Z</time>
      </trkpt>
      <trkpt lat="47.20384" lon="-1.56799">
        <ele>0.44</ele>
        <time>2020-05-30T15:20:22Z</time>
      </trkpt>
      <trkpt lat="47.20386" lon="-1.56779">
        <ele>-0.05</ele>
        <time>2020-05-30T15:20:24Z</time>
      </trkpt>
      <trkpt lat="47.20388" lon="-1.56762">
        <ele>-0.43</ele>
        <time>2020-05-30T15:20:26Z</time>
      </trkpt>
      <trkpt lat="47.20389" lon="-1.56742">
        <ele>-2.4</ele>
        <time>2020-05-30T15:20:28Z</time>
      </trkpt>
      <trkpt lat="47.20392" lon="-1.56722">
        <ele>-4.4</ele>
        <time>2020-05-30T15:20:31Z</time>
      </trkpt>
      <trkpt lat="47.20397" lon="-1.56703">
        <ele>-5.36</ele>
        <time>2020-05-30T15:20:32Z</time>
      </trkpt>
      <trkpt lat="47.20397" lon="-1.56682">
        <ele>-5.02</ele>
        <time>2020-05-30T15:20:35Z</time>
      </trkpt>
      <trkpt lat="47.20398" lon="-1.56662">
        <ele>-3.89</ele>
        <time>2020-05-30T15:20:37Z</time>
      </trkpt>
      <trkpt lat="47.20399" lon="-1.56642">
        <ele>-3.29</ele>
        <time>2020-05-30T15:20:39Z</time>
      </trkpt>
      <trkpt lat="47.20401" lon="-1.56622">
        <ele>-3.63</ele>
        <time>2020-05-30T15:20:41Z</time>
      </trkpt>
      <trkpt lat="47.20403" lon="-1.56603">
        <ele>-4.87</ele>
        <time>2020-05-30T15:20:43Z</time>
      </trkpt>
      <trkpt lat="47.20403" lon="-1.56586">
        <ele>-6.62</ele>
        <time>2020-05-30T15:20:45Z</time>
      </trkpt>
      <trkpt lat="47.20404" lon="-1.56568">
        <ele>-8.23</ele>
        <time>2020-05-30T15:20:47Z</time>
      </trkpt>
      <trkpt lat="47.20404" lon="-1.5655">
        <ele>-9.21</ele>
        <time>2020-05-30T15:20:49Z</time>
      </trkpt>
      <trkpt lat="47.20405" lon="-1.5653">
        <ele>-9.9</ele>
        <time>2020-05-30T15:20:51Z</time>
      </trkpt>
      <trkpt lat="47.20407" lon="-1.56512">
        <ele>-10.24</ele>
        <time>2020-05-30T15:20:53Z</time>
      </trkpt>
      <trkpt lat="47.20409" lon="-1.56494">
        <ele>-10.72</ele>
        <time>2020-05-30T15:20:55Z</time>
      </trkpt>
      <trkpt lat="47.20411" lon="-1.56474">
        <ele>-10.46</ele>
        <time>2020-05-30T15:20:57Z</time>
      </trkpt>
      <trkpt lat="47.20414" lon="-1.56454">
        <ele>-9.43</ele>
        <time>2020-05-30T15:20:59Z</time>
      </trkpt>
      <trkpt lat="47.20416" lon="-1.56432">
        <ele>-7.08</ele>
        <time>2020-05-30T15:21:01Z</time>
      </trkpt>
      <trkpt lat="47.20419" lon="-1.56412">
        <ele>-4.42</ele>
        <time>2020-05-30T15:21:03Z</time>
      </trkpt>
      <trkpt lat="47.20422" lon="-1.56393">
        <ele>-2.96</ele>
        <time>2020-05-30T15:21:05Z</time>
      </trkpt>
      <trkpt lat="47.20425" lon="-1.56371">
        <ele>-1.34</ele>
        <time>2020-05-30T15:21:07Z</time>
      </trkpt>
      <trkpt lat="47.20427" lon="-1.56352">
        <ele>0.12</ele>
        <time>2020-05-30T15:21:09Z</time>
      </trkpt>
      <trkpt lat="47.2043" lon="-1.56336">
        <ele>0.37</ele>
        <time>2020-05-30T15:21:11Z</time>
      </trkpt>
      <trkpt lat="47.20433" lon="-1.56314">
        <ele>1.41</ele>
        <time>2020-05-30T15:21:13Z</time>
      </trkpt>
      <trkpt lat="47.20436" lon="-1.56294">
        <ele>2.35</ele>
        <time>2020-05-30T15:21:15Z</time>
      </trkpt>
      <trkpt lat="47.20438" lon="-1.56278">
        <ele>3.78</ele>
        <time>2020-05-30T15:21:17Z</time>
      </trkpt>
      <trkpt lat="47.2044" lon="-1.56263">
        <ele>5.48</ele>
        <time>2020-05-30T15:21:19Z</time>
      </trkpt>
      <trkpt lat="47.20443" lon="-1.56245">
        <ele>9.47</ele>
        <time>2020-05-30T15:21:22Z</time>
      </trkpt>
      <trkpt lat="47.20452" lon="-1.56234">
        <ele>11.45</ele>
        <time>2020-05-30T15:21:25Z</time>
      </trkpt>
      <trkpt lat="47.20463" lon="-1.56241">
        <ele>12.22</ele>
        <time>2020-05-30T15:21:27Z</time>
      </trkpt>
      <trkpt lat="47.20475" lon="-1.56248">
        <ele>12.02</ele>
        <time>2020-05-30T15:21:29Z</time>
      </trkpt>
      <trkpt lat="47.20488" lon="-1.56256">
        <ele>11.15</ele>
        <time>2020-05-30T15:21:31Z</time>
      </trkpt>
      <trkpt lat="47.20503" lon="-1.5627">
        <ele>10.48</ele>
        <time>2020-05-30T15:21:33Z</time>
      </trkpt>
      <trkpt lat="47.20515" lon="-1.56282">
        <ele>9.98</ele>
        <time>2020-05-30T15:21:35Z</time>
      </trkpt>
      <trkpt lat="47.20527" lon="-1.56294">
        <ele>9.41</ele>
        <time>2020-05-30T15:21:37Z</time>
      </trkpt>
      <trkpt lat="47.20539" lon="-1.56306">
        <ele>9.64</ele>
        <time>2020-05-30T15:21:39Z</time>
      </trkpt>
      <trkpt lat="47.2055" lon="-1.56316">
        <ele>9.69</ele>
        <time>2020-05-30T15:21:41Z</time>
      </trkpt>
      <trkpt lat="47.20563" lon="-1.56326">
        <ele>9.23</ele>
        <time>2020-05-30T15:21:43Z</time>
      </trkpt>
      <trkpt lat="47.20575" lon="-1.56338">
        <ele>8.06</ele>
        <time>2020-05-30T15:21:45Z</time>
      </trkpt>
      <trkpt lat="47.20587" lon="-1.56351">
        <ele>7.21</ele>
        <time>2020-05-30T15:21:47Z</time>
      </trkpt>
      <trkpt lat="47.206" lon="-1.56359">
        <ele>6.58</ele>
        <time>2020-05-30T15:21:49Z</time>
      </trkpt>
      <trkpt lat="47.20614" lon="-1.56371">
        <ele>5.64</ele>
        <time>2020-05-30T15:21:51Z</time>
      </trkpt>
      <trkpt lat="47.20627" lon="-1.56385">
        <ele>4.69</ele>
        <time>2020-05-30T15:21:53Z</time>
      </trkpt>
      <trkpt lat="47.20638" lon="-1.564">
        <ele>5.24</ele>
        <time>2020-05-30T15:21:55Z</time>
      </trkpt>
      <trkpt lat="47.20649" lon="-1.56413">
        <ele>5.79</ele>
        <time>2020-05-30T15:21:57Z</time>
      </trkpt>
      <trkpt lat="47.20658" lon="-1.56424">
        <ele>7.44</ele>
        <time>2020-05-30T15:21:59Z</time>
      </trkpt>
      <trkpt lat="47.2067" lon="-1.56436">
        <ele>8.53</ele>
        <time>2020-05-30T15:22:01Z</time>
      </trkpt>
      <trkpt lat="47.2068" lon="-1.56447">
        <ele>9.37</ele>
        <time>2020-05-30T15:22:03Z</time>
      </trkpt>
      <trkpt lat="47.20694" lon="-1.56461">
        <ele>8.16</ele>
        <time>2020-05-30T15:22:05Z</time>
      </trkpt>
      <trkpt lat="47.20707" lon="-1.56472">
        <ele>6.6</ele>
        <time>2020-05-30T15:22:07Z</time>
      </trkpt>
      <trkpt lat="47.20719" lon="-1.56482">
        <ele>6.14</ele>
        <time>2020-05-30T15:22:09Z</time>
      </trkpt>
      <trkpt lat="47.20732" lon="-1.56494">
        <ele>6.35</ele>
        <time>2020-05-30T15:22:11Z</time>
      </trkpt>
      <trkpt lat="47.20744" lon="-1.56504">
        <ele>6.32</ele>
        <time>2020-05-30T15:22:13Z</time>
      </trkpt>
      <trkpt lat="47.20755" lon="-1.56515">
        <ele>6.58</ele>
        <time>2020-05-30T15:22:15Z</time>
      </trkpt>
      <trkpt lat="47.20768" lon="-1.56525">
        <ele>4.88</ele>
        <time>2020-05-30T15:22:17Z</time>
      </trkpt>
      <trkpt lat="47.20779" lon="-1.56534">
        <ele>3.76</ele>
        <time>2020-05-30T15:22:19Z</time>
      </trkpt>
      <trkpt lat="47.2079" lon="-1.56544">
        <ele>3.31</ele>
        <time>2020-05-30T15:22:21Z</time>
      </trkpt>
      <trkpt lat="47.20802" lon="-1.56554">
        <ele>4.07</ele>
        <time>2020-05-30T15:22:23Z</time>
      </trkpt>
      <trkpt lat="47.20813" lon="-1.56563">
        <ele>4.9</ele>
        <time>2020-05-30T15:22:25Z</time>
      </trkpt>
      <trkpt lat="47.20823" lon="-1.56572">
        <ele>5.84</ele>
        <time>2020-05-30T15:22:27Z</time>
      </trkpt>
      <trkpt lat="47.20833" lon="-1.56582">
        <ele>6.89</ele>
        <time>2020-05-30T15:22:29Z</time>
      </trkpt>
      <trkpt lat="47.20844" lon="-1.56593">
        <ele>7.43</ele>
        <time>2020-05-30T15:22:31Z</time>
      </trkpt>
      <trkpt lat="47.20853" lon="-1.56601">
        <ele>8.3</ele>
        <time>2020-05-30T15:22:33Z</time>
      </trkpt>
      <trkpt lat="47.20864" lon="-1.56612">
        <ele>8.55</ele>
        <time>2020-05-30T15:22:35Z</time>
      </trkpt>
      <trkpt lat="47.20874" lon="-1.56621">
        <ele>8.17</ele>
        <time>2020-05-30T15:22:37Z</time>
      </trkpt>
      <trkpt lat="47.20886" lon="-1.56632">
        <ele>7.62</ele>
        <time>2020-05-30T15:22:39Z</time>
      </trkpt>
      <trkpt lat="47.20897" lon="-1.56643">
        <ele>6.86</ele>
        <time>2020-05-30T15:22:41Z</time>
      </trkpt>
      <trkpt lat="47.20908" lon="-1.56647">
        <ele>6.95</ele>
        <time>2020-05-30T15:22:43Z</time>
      </trkpt>
      <trkpt lat="47.2092" lon="-1.56652">
        <ele>7.58</ele>
        <time>2020-05-30T15:22:45Z</time>
      </trkpt>
      <trkpt lat="47.20928" lon="-1.56665">
        <ele>8.92</ele>
        <time>2020-05-30T15:22:47Z</time>
      </trkpt>
      <trkpt lat="47.20926" lon="-1.56679">
        <ele>10.44</ele>
        <time>2020-05-30T15:22:50Z</time>
      </trkpt>
      <trkpt lat="47.20922" lon="-1.56692">
        <ele>10.67</ele>
        <time>2020-05-30T15:22:56Z</time>
      </trkpt>
      <trkpt lat="47.20915" lon="-1.56711">
        <ele>9.24</ele>
        <time>2020-05-30T15:22:58Z</time>
      </trkpt>
      <trkpt lat="47.20911" lon="-1.56724">
        <ele>8.39</ele>
        <time>2020-05-30T15:22:59Z</time>
      </trkpt>
      <trkpt lat="47.20905" lon="-1.56744">
        <ele>7.18</ele>
        <time>2020-05-30T15:23:01Z</time>
      </trkpt>
      <trkpt lat="47.20901" lon="-1.56756">
        <ele>6.35</ele>
        <time>2020-05-30T15:23:02Z</time>
      </trkpt>
      <trkpt lat="47.20896" lon="-1.56777">
        <ele>6.1</ele>
        <time>2020-05-30T15:23:04Z</time>
      </trkpt>
      <trkpt lat="47.20891" lon="-1.56797">
        <ele>6.94</ele>
        <time>2020-05-30T15:23:06Z</time>
      </trkpt>
      <trkpt lat="47.20895" lon="-1.56816">
        <ele>7.64</ele>
        <time>2020-05-30T15:23:08Z</time>
      </trkpt>
      <trkpt lat="47.20902" lon="-1.56831">
        <ele>7.83</ele>
        <time>2020-05-30T15:23:10Z</time>
      </trkpt>
      <trkpt lat="47.20909" lon="-1.56849">
        <ele>6.96</ele>
        <time>2020-05-30T15:23:12Z</time>
      </trkpt>
      <trkpt lat="47.20916" lon="-1.56871">
        <ele>6.41</ele>
        <time>2020-05-30T15:23:14Z</time>
      </trkpt>
      <trkpt lat="47.20921" lon="-1.5689">
        <ele>5.93</ele>
        <time>2020-05-30T15:23:16Z</time>
      </trkpt>
      <trkpt lat="47.20927" lon="-1.56912">
        <ele>7.1</ele>
        <time>2020-05-30T15:23:18Z</time>
      </trkpt>
      <trkpt lat="47.20932" lon="-1.56933">
        <ele>9.04</ele>
        <time>2020-05-30T15:23:20Z</time>
      </trkpt>
      <trkpt lat="47.20937" lon="-1.5695">
        <ele>10.83</ele>
        <time>2020-05-30T15:23:22Z</time>
      </trkpt>
      <trkpt lat="47.20944" lon="-1.56966">
        <ele>11.5</ele>
        <time>2020-05-30T15:23:24Z</time>
      </trkpt>
      <trkpt lat="47.20948" lon="-1.56981">
        <ele>11.59</ele>
        <time>2020-05-30T15:23:26Z</time>
      </trkpt>
      <trkpt lat="47.20951" lon="-1.56996">
        <ele>11.77</ele>
        <time>2020-05-30T15:23:29Z</time>
      </trkpt>
      <trkpt lat="47.20954" lon="-1.57009">
        <ele>11.97</ele>
        <time>2020-05-30T15:23:32Z</time>
      </trkpt>
      <trkpt lat="47.20958" lon="-1.57023">
        <ele>12.45</ele>
        <time>2020-05-30T15:23:38Z</time>
      </trkpt>
      <trkpt lat="47.20963" lon="-1.57037">
        <ele>13.42</ele>
        <time>2020-05-30T15:23:40Z</time>
      </trkpt>
      <trkpt lat="47.20968" lon="-1.57054">
        <ele>13.4</ele>
        <time>2020-05-30T15:23:42Z</time>
      </trkpt>
      <trkpt lat="47.20974" lon="-1.57072">
        <ele>12.01</ele>
        <time>2020-05-30T15:23:44Z</time>
      </trkpt>
      <trkpt lat="47.2098" lon="-1.57091">
        <ele>10.55</ele>
        <time>2020-05-30T15:23:46Z</time>
      </trkpt>
      <trkpt lat="47.20984" lon="-1.57103">
        <ele>10.34</ele>
        <time>2020-05-30T15:23:47Z</time>
      </trkpt>
      <trkpt lat="47.20991" lon="-1.57126">
        <ele>9.42</ele>
        <time>2020-05-30T15:23:49Z</time>
      </trkpt>
      <trkpt lat="47.20995" lon="-1.57138">
        <ele>8.82</ele>
        <time>2020-05-30T15:23:50Z</time>
      </trkpt>
      <trkpt lat="47.21001" lon="-1.57159">
        <ele>6.86</ele>
        <time>2020-05-30T15:23:52Z</time>
      </trkpt>
      <trkpt lat="47.21008" lon="-1.57181">
        <ele>5.27</ele>
        <time>2020-05-30T15:23:54Z</time>
      </trkpt>
      <trkpt lat="47.21015" lon="-1.572">
        <ele>3.6</ele>
        <time>2020-05-30T15:23:56Z</time>
      </trkpt>
      <trkpt lat="47.21021" lon="-1.5722">
        <ele>2.86</ele>
        <time>2020-05-30T15:23:58Z</time>
      </trkpt>
      <trkpt lat="47.21027" lon="-1.57238">
        <ele>2.03</ele>
        <time>2020-05-30T15:24:00Z</time>
      </trkpt>
      <trkpt lat="47.21032" lon="-1.57253">
        <ele>0.35</ele>
        <time>2020-05-30T15:24:02Z</time>
      </trkpt>
      <trkpt lat="47.21038" lon="-1.57268">
        <ele>-0.7</ele>
        <time>2020-05-30T15:24:04Z</time>
      </trkpt>
      <trkpt lat="47.21043" lon="-1.57282">
        <ele>-1.21</ele>
        <time>2020-05-30T15:24:06Z</time>
      </trkpt>
      <trkpt lat="47.21047" lon="-1.57299">
        <ele>-0.65</ele>
        <time>2020-05-30T15:24:08Z</time>
      </trkpt>
      <trkpt lat="47.21051" lon="-1.57312">
        <ele>1</ele>
        <time>2020-05-30T15:24:11Z</time>
      </trkpt>
      <trkpt lat="47.21055" lon="-1.57326">
        <ele>2.1</ele>
        <time>2020-05-30T15:24:14Z</time>
      </trkpt>
      <trkpt lat="47.21058" lon="-1.57341">
        <ele>3.25</ele>
        <time>2020-05-30T15:24:16Z</time>
      </trkpt>
      <trkpt lat="47.21063" lon="-1.57359">
        <ele>4.27</ele>
        <time>2020-05-30T15:24:18Z</time>
      </trkpt>
      <trkpt lat="47.21069" lon="-1.5738">
        <ele>4.41</ele>
        <time>2020-05-30T15:24:20Z</time>
      </trkpt>
      <trkpt lat="47.21076" lon="-1.574">
        <ele>4.22</ele>
        <time>2020-05-30T15:24:22Z</time>
      </trkpt>
      <trkpt lat="47.21084" lon="-1.57422">
        <ele>4.32</ele>
        <time>2020-05-30T15:24:24Z</time>
      </trkpt>
      <trkpt lat="47.2109" lon="-1.57443">
        <ele>4.04</ele>
        <time>2020-05-30T15:24:26Z</time>
      </trkpt>
      <trkpt lat="47.21096" lon="-1.57465">
        <ele>4.29</ele>
        <time>2020-05-30T15:24:28Z</time>
      </trkpt>
      <trkpt lat="47.211" lon="-1.57484">
        <ele>5.08</ele>
        <time>2020-05-30T15:24:30Z</time>
      </trkpt>
      <trkpt lat="47.21106" lon="-1.57503">
        <ele>5.76</ele>
        <time>2020-05-30T15:24:32Z</time>
      </trkpt>
      <trkpt lat="47.21112" lon="-1.57525">
        <ele>6.11</ele>
        <time>2020-05-30T15:24:34Z</time>
      </trkpt>
      <trkpt lat="47.21116" lon="-1.57543">
        <ele>6.39</ele>
        <time>2020-05-30T15:24:36Z</time>
      </trkpt>
      <trkpt lat="47.2112" lon="-1.57557">
        <ele>8.93</ele>
        <time>2020-05-30T15:24:38Z</time>
      </trkpt>
      <trkpt lat="47.21124" lon="-1.57575">
        <ele>10.42</ele>
        <time>2020-05-30T15:24:40Z</time>
      </trkpt>
      <trkpt lat="47.21133" lon="-1.57585">
        <ele>10.27</ele>
        <time>2020-05-30T15:24:42Z</time>
      </trkpt>
      <trkpt lat="47.21145" lon="-1.57588">
        <ele>9.61</ele>
        <time>2020-05-30T15:24:44Z</time>
      </trkpt>
      <trkpt lat="47.21157" lon="-1.57592">
        <ele>9.78</ele>
        <time>2020-05-30T15:24:46Z</time>
      </trkpt>
      <trkpt lat="47.21167" lon="-1.57604">
        <ele>10.01</ele>
        <time>2020-05-30T15:24:48Z</time>
      </trkpt>
      <trkpt lat="47.21175" lon="-1.57622">
        <ele>8.77</ele>
        <time>2020-05-30T15:24:50Z</time>
      </trkpt>
      <trkpt lat="47.21178" lon="-1.57642">
        <ele>7.73</ele>
        <time>2020-05-30T15:24:52Z</time>
      </trkpt>
      <trkpt lat="47.21174" lon="-1.57661">
        <ele>7.17</ele>
        <time>2020-05-30T15:24:54Z</time>
      </trkpt>
      <trkpt lat="47.21166" lon="-1.57677">
        <ele>7.24</ele>
        <time>2020-05-30T15:24:56Z</time>
      </trkpt>
      <trkpt lat="47.21161" lon="-1.57694">
        <ele>6.96</ele>
        <time>2020-05-30T15:24:58Z</time>
      </trkpt>
      <trkpt lat="47.21165" lon="-1.57711">
        <ele>7.6</ele>
        <time>2020-05-30T15:25:00Z</time>
      </trkpt>
      <trkpt lat="47.21168" lon="-1.5773">
        <ele>9.77</ele>
        <time>2020-05-30T15:25:02Z</time>
      </trkpt>
      <trkpt lat="47.21172" lon="-1.57746">
        <ele>11.48</ele>
        <time>2020-05-30T15:25:04Z</time>
      </trkpt>
      <trkpt lat="47.21176" lon="-1.5776">
        <ele>12.25</ele>
        <time>2020-05-30T15:25:06Z</time>
      </trkpt>
      <trkpt lat="47.21179" lon="-1.57775">
        <ele>11.83</ele>
        <time>2020-05-30T15:25:08Z</time>
      </trkpt>
      <trkpt lat="47.21182" lon="-1.57789">
        <ele>11.53</ele>
        <time>2020-05-30T15:25:10Z</time>
      </trkpt>
      <trkpt lat="47.21187" lon="-1.57802">
        <ele>12.06</ele>
        <time>2020-05-30T15:25:12Z</time>
      </trkpt>
      <trkpt lat="47.21191" lon="-1.57814">
        <ele>13.07</ele>
        <time>2020-05-30T15:25:14Z</time>
      </trkpt>
      <trkpt lat="47.21196" lon="-1.57826">
        <ele>13.63</ele>
        <time>2020-05-30T15:25:16Z</time>
      </trkpt>
      <trkpt lat="47.212" lon="-1.57838">
        <ele>11.84</ele>
        <time>2020-05-30T15:25:18Z</time>
      </trkpt>
      <trkpt lat="47.21204" lon="-1.57855">
        <ele>10.29</ele>
        <time>2020-05-30T15:25:20Z</time>
      </trkpt>
      <trkpt lat="47.21209" lon="-1.57874">
        <ele>9.49</ele>
        <time>2020-05-30T15:25:22Z</time>
      </trkpt>
      <trkpt lat="47.21216" lon="-1.5789">
        <ele>9.34</ele>
        <time>2020-05-30T15:25:24Z</time>
      </trkpt>
      <trkpt lat="47.21222" lon="-1.57907">
        <ele>10.56</ele>
        <time>2020-05-30T15:25:26Z</time>
      </trkpt>
      <trkpt lat="47.21227" lon="-1.57925">
        <ele>11.54</ele>
        <time>2020-05-30T15:25:28Z</time>
      </trkpt>
      <trkpt lat="47.21232" lon="-1.57944">
        <ele>11.88</ele>
        <time>2020-05-30T15:25:30Z</time>
      </trkpt>
      <trkpt lat="47.21236" lon="-1.5796">
        <ele>12.85</ele>
        <time>2020-05-30T15:25:32Z</time>
      </trkpt>
      <trkpt lat="47.2124" lon="-1.57975">
        <ele>14.15</ele>
        <time>2020-05-30T15:25:34Z</time>
      </trkpt>
      <trkpt lat="47.21245" lon="-1.57993">
        <ele>15.09</ele>
        <time>2020-05-30T15:25:36Z</time>
      </trkpt>
      <trkpt lat="47.2125" lon="-1.58006">
        <ele>16.33</ele>
        <time>2020-05-30T15:25:38Z</time>
      </trkpt>
      <trkpt lat="47.21255" lon="-1.58022">
        <ele>17.48</ele>
        <time>2020-05-30T15:25:41Z</time>
      </trkpt>
      <trkpt lat="47.21261" lon="-1.58042">
        <ele>17.83</ele>
        <time>2020-05-30T15:25:44Z</time>
      </trkpt>
      <trkpt lat="47.21265" lon="-1.58056">
        <ele>18.3</ele>
        <time>2020-05-30T15:25:46Z</time>
      </trkpt>
      <trkpt lat="47.21269" lon="-1.58069">
        <ele>17.22</ele>
        <time>2020-05-30T15:25:48Z</time>
      </trkpt>
      <trkpt lat="47.21275" lon="-1.58088">
        <ele>16.93</ele>
        <time>2020-05-30T15:25:51Z</time>
      </trkpt>
      <trkpt lat="47.21278" lon="-1.58103">
        <ele>17.76</ele>
        <time>2020-05-30T15:25:53Z</time>
      </trkpt>
      <trkpt lat="47.21282" lon="-1.58117">
        <ele>18.21</ele>
        <time>2020-05-30T15:25:55Z</time>
      </trkpt>
      <trkpt lat="47.21286" lon="-1.58134">
        <ele>18.72</ele>
        <time>2020-05-30T15:25:57Z</time>
      </trkpt>
      <trkpt lat="47.2129" lon="-1.5815">
        <ele>20.58</ele>
        <time>2020-05-30T15:25:59Z</time>
      </trkpt>
      <trkpt lat="47.21293" lon="-1.58165">
        <ele>22.79</ele>
        <time>2020-05-30T15:26:01Z</time>
      </trkpt>
      <trkpt lat="47.21296" lon="-1.58179">
        <ele>24.13</ele>
        <time>2020-05-30T15:26:03Z</time>
      </trkpt>
      <trkpt lat="47.213" lon="-1.58194">
        <ele>24.45</ele>
        <time>2020-05-30T15:26:05Z</time>
      </trkpt>
      <trkpt lat="47.21304" lon="-1.58212">
        <ele>24.65</ele>
        <time>2020-05-30T15:26:08Z</time>
      </trkpt>
      <trkpt lat="47.2131" lon="-1.58229">
        <ele>25.94</ele>
        <time>2020-05-30T15:26:10Z</time>
      </trkpt>
      <trkpt lat="47.21315" lon="-1.58247">
        <ele>28.04</ele>
        <time>2020-05-30T15:26:12Z</time>
      </trkpt>
      <trkpt lat="47.21318" lon="-1.58264">
        <ele>31.24</ele>
        <time>2020-05-30T15:26:15Z</time>
      </trkpt>
      <trkpt lat="47.21324" lon="-1.58277">
        <ele>32.45</ele>
        <time>2020-05-30T15:26:17Z</time>
      </trkpt>
      <trkpt lat="47.21328" lon="-1.58289">
        <ele>33.79</ele>
        <time>2020-05-30T15:26:19Z</time>
      </trkpt>
      <trkpt lat="47.21332" lon="-1.58303">
        <ele>34.36</ele>
        <time>2020-05-30T15:26:21Z</time>
      </trkpt>
      <trkpt lat="47.21337" lon="-1.58318">
        <ele>35.06</ele>
        <time>2020-05-30T15:26:23Z</time>
      </trkpt>
      <trkpt lat="47.21342" lon="-1.58333">
        <ele>35.23</ele>
        <time>2020-05-30T15:26:25Z</time>
      </trkpt>
      <trkpt lat="47.21346" lon="-1.58346">
        <ele>35.26</ele>
        <time>2020-05-30T15:26:27Z</time>
      </trkpt>
      <trkpt lat="47.21351" lon="-1.5836">
        <ele>34.34</ele>
        <time>2020-05-30T15:26:29Z</time>
      </trkpt>
      <trkpt lat="47.21356" lon="-1.58373">
        <ele>32.3</ele>
        <time>2020-05-30T15:26:31Z</time>
      </trkpt>
      <trkpt lat="47.21361" lon="-1.58388">
        <ele>30.85</ele>
        <time>2020-05-30T15:26:33Z</time>
      </trkpt>
      <trkpt lat="47.21365" lon="-1.584">
        <ele>30.89</ele>
        <time>2020-05-30T15:26:35Z</time>
      </trkpt>
      <trkpt lat="47.21369" lon="-1.58414">
        <ele>31.92</ele>
        <time>2020-05-30T15:26:37Z</time>
      </trkpt>
      <trkpt lat="47.21374" lon="-1.58432">
        <ele>32.84</ele>
        <time>2020-05-30T15:26:40Z</time>
      </trkpt>
      <trkpt lat="47.21378" lon="-1.58447">
        <ele>34.01</ele>
        <time>2020-05-30T15:26:42Z</time>
      </trkpt>
      <trkpt lat="47.21382" lon="-1.58461">
        <ele>33.88</ele>
        <time>2020-05-30T15:26:44Z</time>
      </trkpt>
      <trkpt lat="47.21387" lon="-1.58475">
        <ele>32.61</ele>
        <time>2020-05-30T15:26:46Z</time>
      </trkpt>
      <trkpt lat="47.21393" lon="-1.58491">
        <ele>31.22</ele>
        <time>2020-05-30T15:26:48Z</time>
      </trkpt>
      <trkpt lat="47.21397" lon="-1.58504">
        <ele>29.64</ele>
        <time>2020-05-30T15:26:50Z</time>
      </trkpt>
      <trkpt lat="47.21402" lon="-1.58519">
        <ele>28.25</ele>
        <time>2020-05-30T15:26:52Z</time>
      </trkpt>
      <trkpt lat="47.21406" lon="-1.58535">
        <ele>27.04</ele>
        <time>2020-05-30T15:26:55Z</time>
      </trkpt>
      <trkpt lat="47.21411" lon="-1.58549">
        <ele>26.89</ele>
        <time>2020-05-30T15:26:59Z</time>
      </trkpt>
      <trkpt lat="47.21415" lon="-1.58561">
        <ele>27.5</ele>
        <time>2020-05-30T15:27:08Z</time>
      </trkpt>
      <trkpt lat="47.21423" lon="-1.5857">
        <ele>28.05</ele>
        <time>2020-05-30T15:27:17Z</time>
      </trkpt>
      <trkpt lat="47.21433" lon="-1.5858">
        <ele>29.05</ele>
        <time>2020-05-30T15:27:19Z</time>
      </trkpt>
      <trkpt lat="47.21443" lon="-1.58589">
        <ele>29.08</ele>
        <time>2020-05-30T15:27:21Z</time>
      </trkpt>
      <trkpt lat="47.21455" lon="-1.58598">
        <ele>29.1</ele>
        <time>2020-05-30T15:27:23Z</time>
      </trkpt>
      <trkpt lat="47.21466" lon="-1.58607">
        <ele>29.64</ele>
        <time>2020-05-30T15:27:25Z</time>
      </trkpt>
      <trkpt lat="47.21478" lon="-1.58614">
        <ele>30.56</ele>
        <time>2020-05-30T15:27:27Z</time>
      </trkpt>
      <trkpt lat="47.2149" lon="-1.5862">
        <ele>31.18</ele>
        <time>2020-05-30T15:27:29Z</time>
      </trkpt>
      <trkpt lat="47.21504" lon="-1.58628">
        <ele>31.48</ele>
        <time>2020-05-30T15:27:31Z</time>
      </trkpt>
      <trkpt lat="47.21515" lon="-1.58634">
        <ele>32.03</ele>
        <time>2020-05-30T15:27:33Z</time>
      </trkpt>
      <trkpt lat="47.21527" lon="-1.58642">
        <ele>32.73</ele>
        <time>2020-05-30T15:27:35Z</time>
      </trkpt>
      <trkpt lat="47.21539" lon="-1.58649">
        <ele>34.13</ele>
        <time>2020-05-30T15:27:37Z</time>
      </trkpt>
      <trkpt lat="47.21551" lon="-1.58656">
        <ele>35.34</ele>
        <time>2020-05-30T15:27:39Z</time>
      </trkpt>
      <trkpt lat="47.21564" lon="-1.58662">
        <ele>36.69</ele>
        <time>2020-05-30T15:27:41Z</time>
      </trkpt>
      <trkpt lat="47.21576" lon="-1.58667">
        <ele>36.99</ele>
        <time>2020-05-30T15:27:43Z</time>
      </trkpt>
      <trkpt lat="47.21585" lon="-1.58672">
        <ele>37.71</ele>
        <time>2020-05-30T15:27:45Z</time>
      </trkpt>
      <trkpt lat="47.21596" lon="-1.58678">
        <ele>38.79</ele>
        <time>2020-05-30T15:27:47Z</time>
      </trkpt>
      <trkpt lat="47.21608" lon="-1.58684">
        <ele>39.55</ele>
        <time>2020-05-30T15:27:49Z</time>
      </trkpt>
      <trkpt lat="47.2162" lon="-1.5869">
        <ele>40.49</ele>
        <time>2020-05-30T15:27:51Z</time>
      </trkpt>
      <trkpt lat="47.21631" lon="-1.58696">
        <ele>39.75</ele>
        <time>2020-05-30T15:27:54Z</time>
      </trkpt>
      <trkpt lat="47.21642" lon="-1.58701">
        <ele>38.94</ele>
        <time>2020-05-30T15:27:56Z</time>
      </trkpt>
      <trkpt lat="47.21655" lon="-1.58707">
        <ele>38.76</ele>
        <time>2020-05-30T15:27:58Z</time>
      </trkpt>
      <trkpt lat="47.21669" lon="-1.58714">
        <ele>38.17</ele>
        <time>2020-05-30T15:28:00Z</time>
      </trkpt>
      <trkpt lat="47.21683" lon="-1.58721">
        <ele>38.06</ele>
        <time>2020-05-30T15:28:02Z</time>
      </trkpt>
      <trkpt lat="47.21697" lon="-1.58728">
        <ele>37.81</ele>
        <time>2020-05-30T15:28:04Z</time>
      </trkpt>
      <trkpt lat="47.21711" lon="-1.58736">
        <ele>37.98</ele>
        <time>2020-05-30T15:28:06Z</time>
      </trkpt>
      <trkpt lat="47.21723" lon="-1.58743">
        <ele>38.99</ele>
        <time>2020-05-30T15:28:08Z</time>
      </trkpt>
      <trkpt lat="47.21739" lon="-1.58752">
        <ele>39.36</ele>
        <time>2020-05-30T15:28:10Z</time>
      </trkpt>
      <trkpt lat="47.21755" lon="-1.58761">
        <ele>39.29</ele>
        <time>2020-05-30T15:28:12Z</time>
      </trkpt>
      <trkpt lat="47.21771" lon="-1.58767">
        <ele>38.7</ele>
        <time>2020-05-30T15:28:14Z</time>
      </trkpt>
      <trkpt lat="47.2178" lon="-1.58768">
        <ele>37.88</ele>
        <time>2020-05-30T15:28:15Z</time>
      </trkpt>
      <trkpt lat="47.21798" lon="-1.58768">
        <ele>35.76</ele>
        <time>2020-05-30T15:28:17Z</time>
      </trkpt>
      <trkpt lat="47.21807" lon="-1.58768">
        <ele>34.67</ele>
        <time>2020-05-30T15:28:18Z</time>
      </trkpt>
      <trkpt lat="47.21817" lon="-1.58768">
        <ele>33.54</ele>
        <time>2020-05-30T15:28:19Z</time>
      </trkpt>
      <trkpt lat="47.21827" lon="-1.58764">
        <ele>32.69</ele>
        <time>2020-05-30T15:28:20Z</time>
      </trkpt>
      <trkpt lat="47.21836" lon="-1.58759">
        <ele>32</ele>
        <time>2020-05-30T15:28:21Z</time>
      </trkpt>
      <trkpt lat="47.21845" lon="-1.58755">
        <ele>31.63</ele>
        <time>2020-05-30T15:28:22Z</time>
      </trkpt>
      <trkpt lat="47.21862" lon="-1.58746">
        <ele>31.65</ele>
        <time>2020-05-30T15:28:24Z</time>
      </trkpt>
      <trkpt lat="47.21871" lon="-1.58741">
        <ele>31.51</ele>
        <time>2020-05-30T15:28:25Z</time>
      </trkpt>
      <trkpt lat="47.2188" lon="-1.58736">
        <ele>31.37</ele>
        <time>2020-05-30T15:28:26Z</time>
      </trkpt>
      <trkpt lat="47.21889" lon="-1.5873">
        <ele>31.27</ele>
        <time>2020-05-30T15:28:27Z</time>
      </trkpt>
      <trkpt lat="47.21899" lon="-1.58725">
        <ele>30.8</ele>
        <time>2020-05-30T15:28:28Z</time>
      </trkpt>
      <trkpt lat="47.2191" lon="-1.58719">
        <ele>30.42</ele>
        <time>2020-05-30T15:28:29Z</time>
      </trkpt>
      <trkpt lat="47.2192" lon="-1.58714">
        <ele>29.94</ele>
        <time>2020-05-30T15:28:30Z</time>
      </trkpt>
      <trkpt lat="47.21929" lon="-1.58708">
        <ele>29.57</ele>
        <time>2020-05-30T15:28:31Z</time>
      </trkpt>
      <trkpt lat="47.21938" lon="-1.58703">
        <ele>29.19</ele>
        <time>2020-05-30T15:28:32Z</time>
      </trkpt>
      <trkpt lat="47.21947" lon="-1.58698">
        <ele>28.53</ele>
        <time>2020-05-30T15:28:33Z</time>
      </trkpt>
      <trkpt lat="47.21965" lon="-1.5869">
        <ele>28.09</ele>
        <time>2020-05-30T15:28:35Z</time>
      </trkpt>
      <trkpt lat="47.21973" lon="-1.58685">
        <ele>28.05</ele>
        <time>2020-05-30T15:28:36Z</time>
      </trkpt>
      <trkpt lat="47.21983" lon="-1.58678">
        <ele>27.86</ele>
        <time>2020-05-30T15:28:37Z</time>
      </trkpt>
      <trkpt lat="47.21992" lon="-1.58673">
        <ele>27.37</ele>
        <time>2020-05-30T15:28:38Z</time>
      </trkpt>
      <trkpt lat="47.22002" lon="-1.58668">
        <ele>26.85</ele>
        <time>2020-05-30T15:28:39Z</time>
      </trkpt>
      <trkpt lat="47.2201" lon="-1.58662">
        <ele>26.25</ele>
        <time>2020-05-30T15:28:40Z</time>
      </trkpt>
      <trkpt lat="47.22019" lon="-1.58657">
        <ele>25.69</ele>
        <time>2020-05-30T15:28:41Z</time>
      </trkpt>
      <trkpt lat="47.22036" lon="-1.58646">
        <ele>24.41</ele>
        <time>2020-05-30T15:28:43Z</time>
      </trkpt>
      <trkpt lat="47.22046" lon="-1.58641">
        <ele>23.07</ele>
        <time>2020-05-30T15:28:44Z</time>
      </trkpt>
      <trkpt lat="47.22055" lon="-1.58636">
        <ele>21.95</ele>
        <time>2020-05-30T15:28:45Z</time>
      </trkpt>
      <trkpt lat="47.22064" lon="-1.58631">
        <ele>21.09</ele>
        <time>2020-05-30T15:28:46Z</time>
      </trkpt>
      <trkpt lat="47.2208" lon="-1.58621">
        <ele>19.47</ele>
        <time>2020-05-30T15:28:48Z</time>
      </trkpt>
      <trkpt lat="47.22095" lon="-1.58612">
        <ele>18.5</ele>
        <time>2020-05-30T15:28:50Z</time>
      </trkpt>
      <trkpt lat="47.22104" lon="-1.58607">
        <ele>18.08</ele>
        <time>2020-05-30T15:28:51Z</time>
      </trkpt>
      <trkpt lat="47.2212" lon="-1.58598">
        <ele>16.33</ele>
        <time>2020-05-30T15:28:53Z</time>
      </trkpt>
      <trkpt lat="47.22136" lon="-1.58589">
        <ele>14.82</ele>
        <time>2020-05-30T15:28:55Z</time>
      </trkpt>
      <trkpt lat="47.2215" lon="-1.58581">
        <ele>14.32</ele>
        <time>2020-05-30T15:28:57Z</time>
      </trkpt>
      <trkpt lat="47.22164" lon="-1.58575">
        <ele>14.42</ele>
        <time>2020-05-30T15:28:59Z</time>
      </trkpt>
      <trkpt lat="47.22178" lon="-1.58567">
        <ele>15.46</ele>
        <time>2020-05-30T15:29:01Z</time>
      </trkpt>
      <trkpt lat="47.22192" lon="-1.5856">
        <ele>15.1</ele>
        <time>2020-05-30T15:29:03Z</time>
      </trkpt>
      <trkpt lat="47.22206" lon="-1.58553">
        <ele>14.66</ele>
        <time>2020-05-30T15:29:05Z</time>
      </trkpt>
      <trkpt lat="47.22214" lon="-1.58546">
        <ele>14.91</ele>
        <time>2020-05-30T15:29:08Z</time>
      </trkpt>
      <trkpt lat="47.22223" lon="-1.58533">
        <ele>15.38</ele>
        <time>2020-05-30T15:29:13Z</time>
      </trkpt>
      <trkpt lat="47.22231" lon="-1.58523">
        <ele>16.23</ele>
        <time>2020-05-30T15:29:15Z</time>
      </trkpt>
      <trkpt lat="47.22244" lon="-1.58525">
        <ele>16.61</ele>
        <time>2020-05-30T15:29:17Z</time>
      </trkpt>
      <trkpt lat="47.22249" lon="-1.58541">
        <ele>15.68</ele>
        <time>2020-05-30T15:29:19Z</time>
      </trkpt>
      <trkpt lat="47.22254" lon="-1.58561">
        <ele>14.73</ele>
        <time>2020-05-30T15:29:21Z</time>
      </trkpt>
      <trkpt lat="47.22262" lon="-1.58577">
        <ele>14.62</ele>
        <time>2020-05-30T15:29:23Z</time>
      </trkpt>
      <trkpt lat="47.22271" lon="-1.58595">
        <ele>14.89</ele>
        <time>2020-05-30T15:29:25Z</time>
      </trkpt>
      <trkpt lat="47.22278" lon="-1.5861">
        <ele>14.85</ele>
        <time>2020-05-30T15:29:27Z</time>
      </trkpt>
      <trkpt lat="47.22285" lon="-1.58625">
        <ele>14.99</ele>
        <time>2020-05-30T15:29:29Z</time>
      </trkpt>
      <trkpt lat="47.22293" lon="-1.58639">
        <ele>15.57</ele>
        <time>2020-05-30T15:29:31Z</time>
      </trkpt>
      <trkpt lat="47.223" lon="-1.58652">
        <ele>16.71</ele>
        <time>2020-05-30T15:29:33Z</time>
      </trkpt>
      <trkpt lat="47.22306" lon="-1.58666">
        <ele>17.77</ele>
        <time>2020-05-30T15:29:35Z</time>
      </trkpt>
      <trkpt lat="47.22313" lon="-1.58681">
        <ele>18.91</ele>
        <time>2020-05-30T15:29:37Z</time>
      </trkpt>
      <trkpt lat="47.2232" lon="-1.58693">
        <ele>20.61</ele>
        <time>2020-05-30T15:29:39Z</time>
      </trkpt>
      <trkpt lat="47.22326" lon="-1.58704">
        <ele>21.72</ele>
        <time>2020-05-30T15:29:41Z</time>
      </trkpt>
      <trkpt lat="47.22333" lon="-1.58718">
        <ele>21.66</ele>
        <time>2020-05-30T15:29:43Z</time>
      </trkpt>
      <trkpt lat="47.2234" lon="-1.58732">
        <ele>20.18</ele>
        <time>2020-05-30T15:29:45Z</time>
      </trkpt>
      <trkpt lat="47.22346" lon="-1.58744">
        <ele>19.2</ele>
        <time>2020-05-30T15:29:47Z</time>
      </trkpt>
      <trkpt lat="47.22356" lon="-1.58761">
        <ele>17.11</ele>
        <time>2020-05-30T15:29:50Z</time>
      </trkpt>
      <trkpt lat="47.22364" lon="-1.58774">
        <ele>15.92</ele>
        <time>2020-05-30T15:29:52Z</time>
      </trkpt>
      <trkpt lat="47.22371" lon="-1.58786">
        <ele>15.39</ele>
        <time>2020-05-30T15:29:54Z</time>
      </trkpt>
      <trkpt lat="47.22378" lon="-1.58799">
        <ele>15.39</ele>
        <time>2020-05-30T15:29:56Z</time>
      </trkpt>
      <trkpt lat="47.22384" lon="-1.58809">
        <ele>14.86</ele>
        <time>2020-05-30T15:29:58Z</time>
      </trkpt>
      <trkpt lat="47.2239" lon="-1.5882">
        <ele>14.58</ele>
        <time>2020-05-30T15:30:00Z</time>
      </trkpt>
      <trkpt lat="47.22398" lon="-1.58836">
        <ele>15.81</ele>
        <time>2020-05-30T15:30:03Z</time>
      </trkpt>
      <trkpt lat="47.2241" lon="-1.58845">
        <ele>18.22</ele>
        <time>2020-05-30T15:30:06Z</time>
      </trkpt>
      <trkpt lat="47.22422" lon="-1.58846">
        <ele>19.63</ele>
        <time>2020-05-30T15:30:08Z</time>
      </trkpt>
      <trkpt lat="47.22433" lon="-1.58846">
        <ele>20.74</ele>
        <time>2020-05-30T15:30:10Z</time>
      </trkpt>
      <trkpt lat="47.22444" lon="-1.58846">
        <ele>21.48</ele>
        <time>2020-05-30T15:30:12Z</time>
      </trkpt>
      <trkpt lat="47.22453" lon="-1.58851">
        <ele>21.14</ele>
        <time>2020-05-30T15:30:14Z</time>
      </trkpt>
      <trkpt lat="47.22461" lon="-1.58861">
        <ele>21.16</ele>
        <time>2020-05-30T15:30:16Z</time>
      </trkpt>
      <trkpt lat="47.22468" lon="-1.58876">
        <ele>20.54</ele>
        <time>2020-05-30T15:30:18Z</time>
      </trkpt>
      <trkpt lat="47.22474" lon="-1.58889">
        <ele>20.11</ele>
        <time>2020-05-30T15:30:20Z</time>
      </trkpt>
      <trkpt lat="47.22481" lon="-1.58903">
        <ele>20.5</ele>
        <time>2020-05-30T15:30:22Z</time>
      </trkpt>
      <trkpt lat="47.22486" lon="-1.58918">
        <ele>20.24</ele>
        <time>2020-05-30T15:30:24Z</time>
      </trkpt>
      <trkpt lat="47.22494" lon="-1.58934">
        <ele>20.59</ele>
        <time>2020-05-30T15:30:26Z</time>
      </trkpt>
      <trkpt lat="47.22501" lon="-1.58951">
        <ele>22.25</ele>
        <time>2020-05-30T15:30:27Z</time>
      </trkpt>
      <trkpt lat="47.22508" lon="-1.58968">
        <ele>24.53</ele>
        <time>2020-05-30T15:30:29Z</time>
      </trkpt>
      <trkpt lat="47.22516" lon="-1.58987">
        <ele>25.25</ele>
        <time>2020-05-30T15:30:31Z</time>
      </trkpt>
      <trkpt lat="47.22526" lon="-1.59009">
        <ele>24.8</ele>
        <time>2020-05-30T15:30:33Z</time>
      </trkpt>
      <trkpt lat="47.22535" lon="-1.5903">
        <ele>24.43</ele>
        <time>2020-05-30T15:30:35Z</time>
      </trkpt>
      <trkpt lat="47.22544" lon="-1.59049">
        <ele>23.67</ele>
        <time>2020-05-30T15:30:37Z</time>
      </trkpt>
      <trkpt lat="47.22551" lon="-1.59066">
        <ele>22.41</ele>
        <time>2020-05-30T15:30:39Z</time>
      </trkpt>
      <trkpt lat="47.22557" lon="-1.59079">
        <ele>20.7</ele>
        <time>2020-05-30T15:30:41Z</time>
      </trkpt>
      <trkpt lat="47.22568" lon="-1.5908">
        <ele>19.58</ele>
        <time>2020-05-30T15:30:44Z</time>
      </trkpt>
      <trkpt lat="47.2258" lon="-1.59079">
        <ele>18.81</ele>
        <time>2020-05-30T15:30:46Z</time>
      </trkpt>
      <trkpt lat="47.2259" lon="-1.59074">
        <ele>17.81</ele>
        <time>2020-05-30T15:30:48Z</time>
      </trkpt>
      <trkpt lat="47.22603" lon="-1.59068">
        <ele>14.9</ele>
        <time>2020-05-30T15:30:50Z</time>
      </trkpt>
      <trkpt lat="47.22617" lon="-1.59064">
        <ele>12.54</ele>
        <time>2020-05-30T15:30:52Z</time>
      </trkpt>
      <trkpt lat="47.22629" lon="-1.59067">
        <ele>10.85</ele>
        <time>2020-05-30T15:30:54Z</time>
      </trkpt>
      <trkpt lat="47.22642" lon="-1.59067">
        <ele>9.87</ele>
        <time>2020-05-30T15:30:56Z</time>
      </trkpt>
      <trkpt lat="47.22652" lon="-1.5907">
        <ele>9.85</ele>
        <time>2020-05-30T15:30:58Z</time>
      </trkpt>
      <trkpt lat="47.2266" lon="-1.59079">
        <ele>10.22</ele>
        <time>2020-05-30T15:31:00Z</time>
      </trkpt>
      <trkpt lat="47.22669" lon="-1.59092">
        <ele>10.77</ele>
        <time>2020-05-30T15:31:02Z</time>
      </trkpt>
      <trkpt lat="47.22678" lon="-1.59107">
        <ele>11.43</ele>
        <time>2020-05-30T15:31:04Z</time>
      </trkpt>
      <trkpt lat="47.22684" lon="-1.59122">
        <ele>10.82</ele>
        <time>2020-05-30T15:31:06Z</time>
      </trkpt>
      <trkpt lat="47.22688" lon="-1.5914">
        <ele>9.84</ele>
        <time>2020-05-30T15:31:08Z</time>
      </trkpt>
      <trkpt lat="47.22691" lon="-1.59158">
        <ele>8.3</ele>
        <time>2020-05-30T15:31:10Z</time>
      </trkpt>
      <trkpt lat="47.22693" lon="-1.59177">
        <ele>6.16</ele>
        <time>2020-05-30T15:31:12Z</time>
      </trkpt>
      <trkpt lat="47.22692" lon="-1.59199">
        <ele>6.33</ele>
        <time>2020-05-30T15:31:14Z</time>
      </trkpt>
      <trkpt lat="47.22689" lon="-1.5922">
        <ele>7</ele>
        <time>2020-05-30T15:31:16Z</time>
      </trkpt>
      <trkpt lat="47.22686" lon="-1.59241">
        <ele>7.39</ele>
        <time>2020-05-30T15:31:18Z</time>
      </trkpt>
      <trkpt lat="47.22684" lon="-1.59259">
        <ele>8.57</ele>
        <time>2020-05-30T15:31:20Z</time>
      </trkpt>
      <trkpt lat="47.22682" lon="-1.59277">
        <ele>9.09</ele>
        <time>2020-05-30T15:31:22Z</time>
      </trkpt>
      <trkpt lat="47.2268" lon="-1.59298">
        <ele>9.13</ele>
        <time>2020-05-30T15:31:24Z</time>
      </trkpt>
      <trkpt lat="47.22679" lon="-1.59316">
        <ele>9.36</ele>
        <time>2020-05-30T15:31:26Z</time>
      </trkpt>
      <trkpt lat="47.22676" lon="-1.59336">
        <ele>7.23</ele>
        <time>2020-05-30T15:31:28Z</time>
      </trkpt>
      <trkpt lat="47.22674" lon="-1.59354">
        <ele>5.52</ele>
        <time>2020-05-30T15:31:30Z</time>
      </trkpt>
      <trkpt lat="47.22669" lon="-1.59375">
        <ele>4.22</ele>
        <time>2020-05-30T15:31:32Z</time>
      </trkpt>
      <trkpt lat="47.22663" lon="-1.59395">
        <ele>3.19</ele>
        <time>2020-05-30T15:31:34Z</time>
      </trkpt>
      <trkpt lat="47.22657" lon="-1.59413">
        <ele>2.9</ele>
        <time>2020-05-30T15:31:36Z</time>
      </trkpt>
      <trkpt lat="47.2265" lon="-1.59432">
        <ele>4.1</ele>
        <time>2020-05-30T15:31:38Z</time>
      </trkpt>
      <trkpt lat="47.22646" lon="-1.59448">
        <ele>5.35</ele>
        <time>2020-05-30T15:31:40Z</time>
      </trkpt>
      <trkpt lat="47.2264" lon="-1.59465">
        <ele>6.91</ele>
        <time>2020-05-30T15:31:42Z</time>
      </trkpt>
      <trkpt lat="47.22635" lon="-1.59482">
        <ele>7.78</ele>
        <time>2020-05-30T15:31:44Z</time>
      </trkpt>
      <trkpt lat="47.22634" lon="-1.59502">
        <ele>8.34</ele>
        <time>2020-05-30T15:31:46Z</time>
      </trkpt>
      <trkpt lat="47.22634" lon="-1.59519">
        <ele>8.53</ele>
        <time>2020-05-30T15:31:48Z</time>
      </trkpt>
      <trkpt lat="47.22634" lon="-1.59537">
        <ele>8.36</ele>
        <time>2020-05-30T15:31:50Z</time>
      </trkpt>
      <trkpt lat="47.22639" lon="-1.59554">
        <ele>8.19</ele>
        <time>2020-05-30T15:31:52Z</time>
      </trkpt>
      <trkpt lat="47.22646" lon="-1.59568">
        <ele>8.1</ele>
        <time>2020-05-30T15:31:54Z</time>
      </trkpt>
      <trkpt lat="47.22654" lon="-1.59578">
        <ele>8.26</ele>
        <time>2020-05-30T15:31:56Z</time>
      </trkpt>
      <trkpt lat="47.22662" lon="-1.59592">
        <ele>7.8</ele>
        <time>2020-05-30T15:31:59Z</time>
      </trkpt>
      <trkpt lat="47.22676" lon="-1.596">
        <ele>6.37</ele>
        <time>2020-05-30T15:32:01Z</time>
      </trkpt>
      <trkpt lat="47.2269" lon="-1.59603">
        <ele>5.12</ele>
        <time>2020-05-30T15:32:03Z</time>
      </trkpt>
      <trkpt lat="47.22704" lon="-1.59604">
        <ele>4.47</ele>
        <time>2020-05-30T15:32:05Z</time>
      </trkpt>
      <trkpt lat="47.22719" lon="-1.59603">
        <ele>4.89</ele>
        <time>2020-05-30T15:32:07Z</time>
      </trkpt>
      <trkpt lat="47.22729" lon="-1.59604">
        <ele>5.29</ele>
        <time>2020-05-30T15:32:09Z</time>
      </trkpt>
      <trkpt lat="47.22741" lon="-1.59607">
        <ele>6.58</ele>
        <time>2020-05-30T15:32:11Z</time>
      </trkpt>
      <trkpt lat="47.22754" lon="-1.59609">
        <ele>7.62</ele>
        <time>2020-05-30T15:32:13Z</time>
      </trkpt>
      <trkpt lat="47.22767" lon="-1.59608">
        <ele>8.49</ele>
        <time>2020-05-30T15:32:15Z</time>
      </trkpt>
      <trkpt lat="47.22781" lon="-1.59605">
        <ele>8.56</ele>
        <time>2020-05-30T15:32:17Z</time>
      </trkpt>
      <trkpt lat="47.22794" lon="-1.59601">
        <ele>8.4</ele>
        <time>2020-05-30T15:32:19Z</time>
      </trkpt>
      <trkpt lat="47.22807" lon="-1.59599">
        <ele>8.35</ele>
        <time>2020-05-30T15:32:21Z</time>
      </trkpt>
      <trkpt lat="47.2282" lon="-1.59601">
        <ele>8.58</ele>
        <time>2020-05-30T15:32:23Z</time>
      </trkpt>
      <trkpt lat="47.22831" lon="-1.59605">
        <ele>9.33</ele>
        <time>2020-05-30T15:32:25Z</time>
      </trkpt>
      <trkpt lat="47.22844" lon="-1.59614">
        <ele>9.88</ele>
        <time>2020-05-30T15:32:27Z</time>
      </trkpt>
      <trkpt lat="47.22852" lon="-1.59625">
        <ele>9.53</ele>
        <time>2020-05-30T15:32:29Z</time>
      </trkpt>
      <trkpt lat="47.2286" lon="-1.59641">
        <ele>7.55</ele>
        <time>2020-05-30T15:32:32Z</time>
      </trkpt>
      <trkpt lat="47.22867" lon="-1.59653">
        <ele>7.36</ele>
        <time>2020-05-30T15:32:34Z</time>
      </trkpt>
      <trkpt lat="47.22875" lon="-1.59665">
        <ele>7.55</ele>
        <time>2020-05-30T15:32:36Z</time>
      </trkpt>
      <trkpt lat="47.22882" lon="-1.59671">
        <ele>6.73</ele>
        <time>2020-05-30T15:32:38Z</time>
      </trkpt>
      <trkpt lat="47.22893" lon="-1.59683">
        <ele>6.48</ele>
        <time>2020-05-30T15:32:41Z</time>
      </trkpt>
      <trkpt lat="47.22899" lon="-1.59694">
        <ele>6.52</ele>
        <time>2020-05-30T15:32:43Z</time>
      </trkpt>
      <trkpt lat="47.22906" lon="-1.59706">
        <ele>5.45</ele>
        <time>2020-05-30T15:32:45Z</time>
      </trkpt>
      <trkpt lat="47.22909" lon="-1.59724">
        <ele>7.07</ele>
        <time>2020-05-30T15:32:48Z</time>
      </trkpt>
      <trkpt lat="47.22913" lon="-1.59743">
        <ele>7.61</ele>
        <time>2020-05-30T15:32:51Z</time>
      </trkpt>
      <trkpt lat="47.22921" lon="-1.59762">
        <ele>7.24</ele>
        <time>2020-05-30T15:33:02Z</time>
      </trkpt>
      <trkpt lat="47.2293" lon="-1.59762">
        <ele>7.35</ele>
        <time>2020-05-30T15:33:05Z</time>
      </trkpt>
      <trkpt lat="47.2294" lon="-1.59755">
        <ele>7.65</ele>
        <time>2020-05-30T15:33:08Z</time>
      </trkpt>
      <trkpt lat="47.22947" lon="-1.59743">
        <ele>9.48</ele>
        <time>2020-05-30T15:33:10Z</time>
      </trkpt>
      <trkpt lat="47.22955" lon="-1.59731">
        <ele>10.26</ele>
        <time>2020-05-30T15:33:12Z</time>
      </trkpt>
      <trkpt lat="47.22963" lon="-1.5972">
        <ele>10.22</ele>
        <time>2020-05-30T15:33:14Z</time>
      </trkpt>
      <trkpt lat="47.22973" lon="-1.59715">
        <ele>10.13</ele>
        <time>2020-05-30T15:33:16Z</time>
      </trkpt>
      <trkpt lat="47.22988" lon="-1.5971">
        <ele>10.41</ele>
        <time>2020-05-30T15:33:18Z</time>
      </trkpt>
      <trkpt lat="47.23003" lon="-1.59706">
        <ele>10.35</ele>
        <time>2020-05-30T15:33:20Z</time>
      </trkpt>
      <trkpt lat="47.23016" lon="-1.59707">
        <ele>10.84</ele>
        <time>2020-05-30T15:33:22Z</time>
      </trkpt>
      <trkpt lat="47.23031" lon="-1.5971">
        <ele>11.61</ele>
        <time>2020-05-30T15:33:24Z</time>
      </trkpt>
      <trkpt lat="47.23045" lon="-1.59704">
        <ele>11.17</ele>
        <time>2020-05-30T15:33:26Z</time>
      </trkpt>
      <trkpt lat="47.2306" lon="-1.59693">
        <ele>10.2</ele>
        <time>2020-05-30T15:33:28Z</time>
      </trkpt>
      <trkpt lat="47.2307" lon="-1.59679">
        <ele>10.09</ele>
        <time>2020-05-30T15:33:30Z</time>
      </trkpt>
      <trkpt lat="47.2308" lon="-1.59666">
        <ele>9.84</ele>
        <time>2020-05-30T15:33:32Z</time>
      </trkpt>
      <trkpt lat="47.23093" lon="-1.59658">
        <ele>10.16</ele>
        <time>2020-05-30T15:33:34Z</time>
      </trkpt>
      <trkpt lat="47.23105" lon="-1.59656">
        <ele>9.82</ele>
        <time>2020-05-30T15:33:36Z</time>
      </trkpt>
      <trkpt lat="47.23118" lon="-1.59659">
        <ele>10.62</ele>
        <time>2020-05-30T15:33:38Z</time>
      </trkpt>
      <trkpt lat="47.23131" lon="-1.59669">
        <ele>11.1</ele>
        <time>2020-05-30T15:33:40Z</time>
      </trkpt>
      <trkpt lat="47.2314" lon="-1.59682">
        <ele>10.08</ele>
        <time>2020-05-30T15:33:42Z</time>
      </trkpt>
      <trkpt lat="47.23148" lon="-1.59699">
        <ele>9.56</ele>
        <time>2020-05-30T15:33:44Z</time>
      </trkpt>
      <trkpt lat="47.23157" lon="-1.59715">
        <ele>9.51</ele>
        <time>2020-05-30T15:33:46Z</time>
      </trkpt>
      <trkpt lat="47.23167" lon="-1.59732">
        <ele>8.75</ele>
        <time>2020-05-30T15:33:48Z</time>
      </trkpt>
      <trkpt lat="47.23176" lon="-1.59747">
        <ele>7.85</ele>
        <time>2020-05-30T15:33:50Z</time>
      </trkpt>
      <trkpt lat="47.23184" lon="-1.59762">
        <ele>7.57</ele>
        <time>2020-05-30T15:33:52Z</time>
      </trkpt>
      <trkpt lat="47.23191" lon="-1.59776">
        <ele>8.53</ele>
        <time>2020-05-30T15:33:54Z</time>
      </trkpt>
      <trkpt lat="47.23193" lon="-1.59797">
        <ele>8.21</ele>
        <time>2020-05-30T15:33:56Z</time>
      </trkpt>
      <trkpt lat="47.23195" lon="-1.59816">
        <ele>8.12</ele>
        <time>2020-05-30T15:33:58Z</time>
      </trkpt>
      <trkpt lat="47.232" lon="-1.59832">
        <ele>7.43</ele>
        <time>2020-05-30T15:34:00Z</time>
      </trkpt>
      <trkpt lat="47.2321" lon="-1.5985">
        <ele>5.9</ele>
        <time>2020-05-30T15:34:02Z</time>
      </trkpt>
      <trkpt lat="47.2322" lon="-1.59866">
        <ele>4.81</ele>
        <time>2020-05-30T15:34:04Z</time>
      </trkpt>
      <trkpt lat="47.2323" lon="-1.59879">
        <ele>4.88</ele>
        <time>2020-05-30T15:34:06Z</time>
      </trkpt>
      <trkpt lat="47.23241" lon="-1.59894">
        <ele>5.4</ele>
        <time>2020-05-30T15:34:08Z</time>
      </trkpt>
      <trkpt lat="47.23251" lon="-1.59906">
        <ele>5.96</ele>
        <time>2020-05-30T15:34:10Z</time>
      </trkpt>
      <trkpt lat="47.23262" lon="-1.59917">
        <ele>5.69</ele>
        <time>2020-05-30T15:34:12Z</time>
      </trkpt>
      <trkpt lat="47.23274" lon="-1.59928">
        <ele>6.16</ele>
        <time>2020-05-30T15:34:14Z</time>
      </trkpt>
      <trkpt lat="47.23286" lon="-1.5994">
        <ele>5.25</ele>
        <time>2020-05-30T15:34:16Z</time>
      </trkpt>
      <trkpt lat="47.23296" lon="-1.59952">
        <ele>4.44</ele>
        <time>2020-05-30T15:34:18Z</time>
      </trkpt>
      <trkpt lat="47.23304" lon="-1.59966">
        <ele>4.57</ele>
        <time>2020-05-30T15:34:20Z</time>
      </trkpt>
      <trkpt lat="47.23309" lon="-1.5998">
        <ele>6.38</ele>
        <time>2020-05-30T15:34:22Z</time>
      </trkpt>
      <trkpt lat="47.23312" lon="-1.59998">
        <ele>7.84</ele>
        <time>2020-05-30T15:34:24Z</time>
      </trkpt>
      <trkpt lat="47.23313" lon="-1.60015">
        <ele>8.17</ele>
        <time>2020-05-30T15:34:26Z</time>
      </trkpt>
      <trkpt lat="47.23313" lon="-1.60031">
        <ele>8.72</ele>
        <time>2020-05-30T15:34:28Z</time>
      </trkpt>
      <trkpt lat="47.23313" lon="-1.60049">
        <ele>8.77</ele>
        <time>2020-05-30T15:34:30Z</time>
      </trkpt>
      <trkpt lat="47.23313" lon="-1.60066">
        <ele>8.52</ele>
        <time>2020-05-30T15:34:32Z</time>
      </trkpt>
      <trkpt lat="47.23312" lon="-1.60082">
        <ele>9.44</ele>
        <time>2020-05-30T15:34:34Z</time>
      </trkpt>
      <trkpt lat="47.23313" lon="-1.601">
        <ele>8.94</ele>
        <time>2020-05-30T15:34:36Z</time>
      </trkpt>
      <trkpt lat="47.23314" lon="-1.6012">
        <ele>7.78</ele>
        <time>2020-05-30T15:34:38Z</time>
      </trkpt>
      <trkpt lat="47.23319" lon="-1.60137">
        <ele>7.07</ele>
        <time>2020-05-30T15:34:40Z</time>
      </trkpt>
      <trkpt lat="47.23329" lon="-1.60152">
        <ele>8.64</ele>
        <time>2020-05-30T15:34:42Z</time>
      </trkpt>
      <trkpt lat="47.23338" lon="-1.60168">
        <ele>10.61</ele>
        <time>2020-05-30T15:34:44Z</time>
      </trkpt>
      <trkpt lat="47.23347" lon="-1.60181">
        <ele>12.3</ele>
        <time>2020-05-30T15:34:46Z</time>
      </trkpt>
      <trkpt lat="47.23357" lon="-1.60194">
        <ele>12.73</ele>
        <time>2020-05-30T15:34:48Z</time>
      </trkpt>
      <trkpt lat="47.23365" lon="-1.60208">
        <ele>13.1</ele>
        <time>2020-05-30T15:34:50Z</time>
      </trkpt>
      <trkpt lat="47.23374" lon="-1.60224">
        <ele>13.28</ele>
        <time>2020-05-30T15:34:52Z</time>
      </trkpt>
      <trkpt lat="47.23383" lon="-1.60236">
        <ele>13.06</ele>
        <time>2020-05-30T15:34:54Z</time>
      </trkpt>
      <trkpt lat="47.23393" lon="-1.60248">
        <ele>12.55</ele>
        <time>2020-05-30T15:34:56Z</time>
      </trkpt>
      <trkpt lat="47.23405" lon="-1.60262">
        <ele>11.06</ele>
        <time>2020-05-30T15:34:58Z</time>
      </trkpt>
      <trkpt lat="47.23416" lon="-1.60277">
        <ele>9.25</ele>
        <time>2020-05-30T15:35:00Z</time>
      </trkpt>
      <trkpt lat="47.23425" lon="-1.6029">
        <ele>8.72</ele>
        <time>2020-05-30T15:35:02Z</time>
      </trkpt>
      <trkpt lat="47.23434" lon="-1.60301">
        <ele>8.86</ele>
        <time>2020-05-30T15:35:04Z</time>
      </trkpt>
      <trkpt lat="47.23445" lon="-1.60314">
        <ele>7.62</ele>
        <time>2020-05-30T15:35:06Z</time>
      </trkpt>
      <trkpt lat="47.23454" lon="-1.60323">
        <ele>8.06</ele>
        <time>2020-05-30T15:35:08Z</time>
      </trkpt>
      <trkpt lat="47.23464" lon="-1.60333">
        <ele>8.48</ele>
        <time>2020-05-30T15:35:10Z</time>
      </trkpt>
      <trkpt lat="47.23474" lon="-1.60342">
        <ele>8.86</ele>
        <time>2020-05-30T15:35:12Z</time>
      </trkpt>
      <trkpt lat="47.23482" lon="-1.6035">
        <ele>9.6</ele>
        <time>2020-05-30T15:35:15Z</time>
      </trkpt>
      <trkpt lat="47.2349" lon="-1.60364">
        <ele>9.66</ele>
        <time>2020-05-30T15:35:17Z</time>
      </trkpt>
      <trkpt lat="47.23499" lon="-1.60381">
        <ele>9.81</ele>
        <time>2020-05-30T15:35:19Z</time>
      </trkpt>
      <trkpt lat="47.23506" lon="-1.604">
        <ele>10.62</ele>
        <time>2020-05-30T15:35:21Z</time>
      </trkpt>
      <trkpt lat="47.23508" lon="-1.60418">
        <ele>12.06</ele>
        <time>2020-05-30T15:35:23Z</time>
      </trkpt>
      <trkpt lat="47.2351" lon="-1.60436">
        <ele>12.8</ele>
        <time>2020-05-30T15:35:25Z</time>
      </trkpt>
      <trkpt lat="47.23511" lon="-1.60453">
        <ele>11.31</ele>
        <time>2020-05-30T15:35:27Z</time>
      </trkpt>
      <trkpt lat="47.23513" lon="-1.60472">
        <ele>9.96</ele>
        <time>2020-05-30T15:35:29Z</time>
      </trkpt>
      <trkpt lat="47.23515" lon="-1.60492">
        <ele>9.15</ele>
        <time>2020-05-30T15:35:31Z</time>
      </trkpt>
      <trkpt lat="47.23515" lon="-1.60511">
        <ele>10.03</ele>
        <time>2020-05-30T15:35:33Z</time>
      </trkpt>
      <trkpt lat="47.23515" lon="-1.60534">
        <ele>10.61</ele>
        <time>2020-05-30T15:35:35Z</time>
      </trkpt>
      <trkpt lat="47.23515" lon="-1.60554">
        <ele>10.84</ele>
        <time>2020-05-30T15:35:37Z</time>
      </trkpt>
      <trkpt lat="47.23515" lon="-1.60575">
        <ele>11.1</ele>
        <time>2020-05-30T15:35:39Z</time>
      </trkpt>
      <trkpt lat="47.23516" lon="-1.60595">
        <ele>12.22</ele>
        <time>2020-05-30T15:35:41Z</time>
      </trkpt>
      <trkpt lat="47.23517" lon="-1.60613">
        <ele>13.1</ele>
        <time>2020-05-30T15:35:43Z</time>
      </trkpt>
      <trkpt lat="47.23518" lon="-1.60632">
        <ele>13.3</ele>
        <time>2020-05-30T15:35:46Z</time>
      </trkpt>
      <trkpt lat="47.23519" lon="-1.60651">
        <ele>15.03</ele>
        <time>2020-05-30T15:35:49Z</time>
      </trkpt>
      <trkpt lat="47.23522" lon="-1.60669">
        <ele>15.99</ele>
        <time>2020-05-30T15:35:52Z</time>
      </trkpt>
      <trkpt lat="47.23524" lon="-1.60683">
        <ele>16.18</ele>
        <time>2020-05-30T15:35:54Z</time>
      </trkpt>
      <trkpt lat="47.23529" lon="-1.60696">
        <ele>15.65</ele>
        <time>2020-05-30T15:35:56Z</time>
      </trkpt>
      <trkpt lat="47.23535" lon="-1.60708">
        <ele>15.14</ele>
        <time>2020-05-30T15:35:58Z</time>
      </trkpt>
      <trkpt lat="47.23541" lon="-1.6072">
        <ele>15.18</ele>
        <time>2020-05-30T15:36:00Z</time>
      </trkpt>
      <trkpt lat="47.23546" lon="-1.60732">
        <ele>15.77</ele>
        <time>2020-05-30T15:36:02Z</time>
      </trkpt>
      <trkpt lat="47.23551" lon="-1.60745">
        <ele>15.75</ele>
        <time>2020-05-30T15:36:04Z</time>
      </trkpt>
      <trkpt lat="47.23558" lon="-1.60759">
        <ele>16.79</ele>
        <time>2020-05-30T15:36:06Z</time>
      </trkpt>
      <trkpt lat="47.23566" lon="-1.60775">
        <ele>16.89</ele>
        <time>2020-05-30T15:36:09Z</time>
      </trkpt>
      <trkpt lat="47.23572" lon="-1.60787">
        <ele>15.6</ele>
        <time>2020-05-30T15:36:12Z</time>
      </trkpt>
      <trkpt lat="47.23583" lon="-1.60799">
        <ele>16.96</ele>
        <time>2020-05-30T15:36:15Z</time>
      </trkpt>
      <trkpt lat="47.23594" lon="-1.60808">
        <ele>17.69</ele>
        <time>2020-05-30T15:36:17Z</time>
      </trkpt>
      <trkpt lat="47.23603" lon="-1.60815">
        <ele>18.94</ele>
        <time>2020-05-30T15:36:19Z</time>
      </trkpt>
      <trkpt lat="47.23615" lon="-1.60823">
        <ele>20.9</ele>
        <time>2020-05-30T15:36:22Z</time>
      </trkpt>
      <trkpt lat="47.2362" lon="-1.60835">
        <ele>21.04</ele>
        <time>2020-05-30T15:36:24Z</time>
      </trkpt>
      <trkpt lat="47.23622" lon="-1.60849">
        <ele>21.25</ele>
        <time>2020-05-30T15:36:26Z</time>
      </trkpt>
      <trkpt lat="47.23624" lon="-1.60865">
        <ele>21.46</ele>
        <time>2020-05-30T15:36:29Z</time>
      </trkpt>
      <trkpt lat="47.23626" lon="-1.60878">
        <ele>21.34</ele>
        <time>2020-05-30T15:36:31Z</time>
      </trkpt>
      <trkpt lat="47.2363" lon="-1.60893">
        <ele>20.36</ele>
        <time>2020-05-30T15:36:33Z</time>
      </trkpt>
      <trkpt lat="47.23639" lon="-1.60905">
        <ele>19.42</ele>
        <time>2020-05-30T15:36:35Z</time>
      </trkpt>
      <trkpt lat="47.23647" lon="-1.60914">
        <ele>19.01</ele>
        <time>2020-05-30T15:36:37Z</time>
      </trkpt>
      <trkpt lat="47.23654" lon="-1.60923">
        <ele>18.53</ele>
        <time>2020-05-30T15:36:39Z</time>
      </trkpt>
      <trkpt lat="47.23663" lon="-1.60935">
        <ele>17.57</ele>
        <time>2020-05-30T15:36:42Z</time>
      </trkpt>
      <trkpt lat="47.23664" lon="-1.60949">
        <ele>18.44</ele>
        <time>2020-05-30T15:36:45Z</time>
      </trkpt>
      <trkpt lat="47.23663" lon="-1.60964">
        <ele>15.8</ele>
        <time>2020-05-30T15:36:47Z</time>
      </trkpt>
      <trkpt lat="47.23663" lon="-1.6098">
        <ele>14.19</ele>
        <time>2020-05-30T15:36:49Z</time>
      </trkpt>
      <trkpt lat="47.23665" lon="-1.60996">
        <ele>13.97</ele>
        <time>2020-05-30T15:36:51Z</time>
      </trkpt>
      <trkpt lat="47.23667" lon="-1.61013">
        <ele>13.31</ele>
        <time>2020-05-30T15:36:54Z</time>
      </trkpt>
      <trkpt lat="47.23666" lon="-1.61029">
        <ele>13.54</ele>
        <time>2020-05-30T15:36:57Z</time>
      </trkpt>
      <trkpt lat="47.23664" lon="-1.61042">
        <ele>15.42</ele>
        <time>2020-05-30T15:36:59Z</time>
      </trkpt>
      <trkpt lat="47.23662" lon="-1.61058">
        <ele>17.01</ele>
        <time>2020-05-30T15:37:01Z</time>
      </trkpt>
      <trkpt lat="47.23659" lon="-1.61073">
        <ele>18.6</ele>
        <time>2020-05-30T15:37:03Z</time>
      </trkpt>
      <trkpt lat="47.23654" lon="-1.61086">
        <ele>19.78</ele>
        <time>2020-05-30T15:37:05Z</time>
      </trkpt>
      <trkpt lat="47.23647" lon="-1.61099">
        <ele>20.09</ele>
        <time>2020-05-30T15:37:07Z</time>
      </trkpt>
      <trkpt lat="47.23643" lon="-1.61113">
        <ele>19.14</ele>
        <time>2020-05-30T15:37:09Z</time>
      </trkpt>
      <trkpt lat="47.23643" lon="-1.61127">
        <ele>17.98</ele>
        <time>2020-05-30T15:37:11Z</time>
      </trkpt>
      <trkpt lat="47.23646" lon="-1.61143">
        <ele>18.32</ele>
        <time>2020-05-30T15:37:13Z</time>
      </trkpt>
      <trkpt lat="47.23651" lon="-1.61157">
        <ele>18.42</ele>
        <time>2020-05-30T15:37:15Z</time>
      </trkpt>
      <trkpt lat="47.23657" lon="-1.61169">
        <ele>18.32</ele>
        <time>2020-05-30T15:37:17Z</time>
      </trkpt>
      <trkpt lat="47.23664" lon="-1.61181">
        <ele>18.12</ele>
        <time>2020-05-30T15:37:19Z</time>
      </trkpt>
      <trkpt lat="47.23671" lon="-1.61197">
        <ele>17.45</ele>
        <time>2020-05-30T15:37:22Z</time>
      </trkpt>
      <trkpt lat="47.23679" lon="-1.61212">
        <ele>16.62</ele>
        <time>2020-05-30T15:37:25Z</time>
      </trkpt>
      <trkpt lat="47.23684" lon="-1.61226">
        <ele>14.28</ele>
        <time>2020-05-30T15:37:27Z</time>
      </trkpt>
      <trkpt lat="47.23687" lon="-1.61241">
        <ele>12.7</ele>
        <time>2020-05-30T15:37:29Z</time>
      </trkpt>
      <trkpt lat="47.23691" lon="-1.6126">
        <ele>12.23</ele>
        <time>2020-05-30T15:37:31Z</time>
      </trkpt>
      <trkpt lat="47.23695" lon="-1.61277">
        <ele>11.59</ele>
        <time>2020-05-30T15:37:33Z</time>
      </trkpt>
      <trkpt lat="47.23702" lon="-1.61292">
        <ele>10.95</ele>
        <time>2020-05-30T15:37:36Z</time>
      </trkpt>
      <trkpt lat="47.2371" lon="-1.61304">
        <ele>10.33</ele>
        <time>2020-05-30T15:37:39Z</time>
      </trkpt>
      <trkpt lat="47.23719" lon="-1.61312">
        <ele>10.34</ele>
        <time>2020-05-30T15:37:42Z</time>
      </trkpt>
      <trkpt lat="47.2373" lon="-1.6131">
        <ele>10.56</ele>
        <time>2020-05-30T15:37:45Z</time>
      </trkpt>
      <trkpt lat="47.2374" lon="-1.61311">
        <ele>10.87</ele>
        <time>2020-05-30T15:37:48Z</time>
      </trkpt>
      <trkpt lat="47.2375" lon="-1.61319">
        <ele>11.2</ele>
        <time>2020-05-30T15:37:51Z</time>
      </trkpt>
      <trkpt lat="47.23757" lon="-1.61327">
        <ele>12.89</ele>
        <time>2020-05-30T15:37:53Z</time>
      </trkpt>
      <trkpt lat="47.23764" lon="-1.61338">
        <ele>15.27</ele>
        <time>2020-05-30T15:37:55Z</time>
      </trkpt>
      <trkpt lat="47.23771" lon="-1.61351">
        <ele>16.32</ele>
        <time>2020-05-30T15:37:57Z</time>
      </trkpt>
      <trkpt lat="47.23777" lon="-1.61364">
        <ele>16.6</ele>
        <time>2020-05-30T15:37:59Z</time>
      </trkpt>
      <trkpt lat="47.23783" lon="-1.61374">
        <ele>16.75</ele>
        <time>2020-05-30T15:38:01Z</time>
      </trkpt>
      <trkpt lat="47.23787" lon="-1.61388">
        <ele>16.92</ele>
        <time>2020-05-30T15:38:04Z</time>
      </trkpt>
      <trkpt lat="47.23789" lon="-1.61403">
        <ele>17.09</ele>
        <time>2020-05-30T15:38:07Z</time>
      </trkpt>
      <trkpt lat="47.23785" lon="-1.61421">
        <ele>16.99</ele>
        <time>2020-05-30T15:38:10Z</time>
      </trkpt>
      <trkpt lat="47.23783" lon="-1.6144">
        <ele>17.09</ele>
        <time>2020-05-30T15:38:12Z</time>
      </trkpt>
      <trkpt lat="47.23782" lon="-1.61458">
        <ele>18.17</ele>
        <time>2020-05-30T15:38:14Z</time>
      </trkpt>
      <trkpt lat="47.23778" lon="-1.61477">
        <ele>17.76</ele>
        <time>2020-05-30T15:38:17Z</time>
      </trkpt>
      <trkpt lat="47.23773" lon="-1.61488">
        <ele>17.41</ele>
        <time>2020-05-30T15:38:19Z</time>
      </trkpt>
      <trkpt lat="47.23766" lon="-1.61499">
        <ele>17.36</ele>
        <time>2020-05-30T15:38:21Z</time>
      </trkpt>
      <trkpt lat="47.23764" lon="-1.61512">
        <ele>17.49</ele>
        <time>2020-05-30T15:38:23Z</time>
      </trkpt>
      <trkpt lat="47.23761" lon="-1.61526">
        <ele>18.06</ele>
        <time>2020-05-30T15:38:25Z</time>
      </trkpt>
      <trkpt lat="47.23757" lon="-1.6154">
        <ele>18.57</ele>
        <time>2020-05-30T15:38:27Z</time>
      </trkpt>
      <trkpt lat="47.23762" lon="-1.61551">
        <ele>18.12</ele>
        <time>2020-05-30T15:38:30Z</time>
      </trkpt>
      <trkpt lat="47.23773" lon="-1.61558">
        <ele>17.38</ele>
        <time>2020-05-30T15:38:33Z</time>
      </trkpt>
      <trkpt lat="47.23773" lon="-1.61574">
        <ele>17.64</ele>
        <time>2020-05-30T15:38:38Z</time>
      </trkpt>
      <trkpt lat="47.23768" lon="-1.61592">
        <ele>17.71</ele>
        <time>2020-05-30T15:38:41Z</time>
      </trkpt>
      <trkpt lat="47.23765" lon="-1.61605">
        <ele>17.85</ele>
        <time>2020-05-30T15:38:43Z</time>
      </trkpt>
      <trkpt lat="47.23761" lon="-1.61622">
        <ele>17.66</ele>
        <time>2020-05-30T15:38:46Z</time>
      </trkpt>
      <trkpt lat="47.23758" lon="-1.61638">
        <ele>17.27</ele>
        <time>2020-05-30T15:38:49Z</time>
      </trkpt>
      <trkpt lat="47.23754" lon="-1.61659">
        <ele>16.12</ele>
        <time>2020-05-30T15:38:52Z</time>
      </trkpt>
      <trkpt lat="47.23752" lon="-1.61675">
        <ele>13.88</ele>
        <time>2020-05-30T15:38:54Z</time>
      </trkpt>
      <trkpt lat="47.23752" lon="-1.61692">
        <ele>13.17</ele>
        <time>2020-05-30T15:38:56Z</time>
      </trkpt>
      <trkpt lat="47.23752" lon="-1.61708">
        <ele>13.04</ele>
        <time>2020-05-30T15:38:58Z</time>
      </trkpt>
      <trkpt lat="47.23753" lon="-1.61729">
        <ele>13.27</ele>
        <time>2020-05-30T15:39:00Z</time>
      </trkpt>
      <trkpt lat="47.23758" lon="-1.61748">
        <ele>13.73</ele>
        <time>2020-05-30T15:39:02Z</time>
      </trkpt>
      <trkpt lat="47.23763" lon="-1.61763">
        <ele>12.09</ele>
        <time>2020-05-30T15:39:04Z</time>
      </trkpt>
      <trkpt lat="47.23767" lon="-1.61777">
        <ele>12.35</ele>
        <time>2020-05-30T15:39:06Z</time>
      </trkpt>
      <trkpt lat="47.23771" lon="-1.61792">
        <ele>13.48</ele>
        <time>2020-05-30T15:39:08Z</time>
      </trkpt>
      <trkpt lat="47.23778" lon="-1.61809">
        <ele>13.54</ele>
        <time>2020-05-30T15:39:10Z</time>
      </trkpt>
      <trkpt lat="47.23786" lon="-1.61824">
        <ele>13.47</ele>
        <time>2020-05-30T15:39:12Z</time>
      </trkpt>
      <trkpt lat="47.23792" lon="-1.61839">
        <ele>13.77</ele>
        <time>2020-05-30T15:39:14Z</time>
      </trkpt>
      <trkpt lat="47.23798" lon="-1.61854">
        <ele>13.52</ele>
        <time>2020-05-30T15:39:16Z</time>
      </trkpt>
      <trkpt lat="47.23805" lon="-1.61866">
        <ele>12.47</ele>
        <time>2020-05-30T15:39:18Z</time>
      </trkpt>
      <trkpt lat="47.23812" lon="-1.61878">
        <ele>11.85</ele>
        <time>2020-05-30T15:39:20Z</time>
      </trkpt>
      <trkpt lat="47.23818" lon="-1.61891">
        <ele>11.38</ele>
        <time>2020-05-30T15:39:22Z</time>
      </trkpt>
      <trkpt lat="47.23826" lon="-1.61903">
        <ele>12.05</ele>
        <time>2020-05-30T15:39:24Z</time>
      </trkpt>
      <trkpt lat="47.23833" lon="-1.61912">
        <ele>12.65</ele>
        <time>2020-05-30T15:39:26Z</time>
      </trkpt>
      <trkpt lat="47.23841" lon="-1.61923">
        <ele>13.6</ele>
        <time>2020-05-30T15:39:28Z</time>
      </trkpt>
      <trkpt lat="47.23849" lon="-1.61932">
        <ele>14.84</ele>
        <time>2020-05-30T15:39:30Z</time>
      </trkpt>
      <trkpt lat="47.23857" lon="-1.61941">
        <ele>15.11</ele>
        <time>2020-05-30T15:39:32Z</time>
      </trkpt>
      <trkpt lat="47.23868" lon="-1.6195">
        <ele>15.19</ele>
        <time>2020-05-30T15:39:35Z</time>
      </trkpt>
      <trkpt lat="47.23878" lon="-1.61954">
        <ele>15.43</ele>
        <time>2020-05-30T15:39:37Z</time>
      </trkpt>
      <trkpt lat="47.23887" lon="-1.61959">
        <ele>15.4</ele>
        <time>2020-05-30T15:39:39Z</time>
      </trkpt>
      <trkpt lat="47.23896" lon="-1.61962">
        <ele>14.5</ele>
        <time>2020-05-30T15:39:41Z</time>
      </trkpt>
      <trkpt lat="47.23906" lon="-1.61964">
        <ele>14.17</ele>
        <time>2020-05-30T15:39:43Z</time>
      </trkpt>
      <trkpt lat="47.23915" lon="-1.61961">
        <ele>14.16</ele>
        <time>2020-05-30T15:39:48Z</time>
      </trkpt>
      <trkpt lat="47.23926" lon="-1.61961">
        <ele>14.13</ele>
        <time>2020-05-30T15:39:51Z</time>
      </trkpt>
      <trkpt lat="47.23937" lon="-1.61963">
        <ele>14.2</ele>
        <time>2020-05-30T15:39:55Z</time>
      </trkpt>
      <trkpt lat="47.23948" lon="-1.61966">
        <ele>14.28</ele>
        <time>2020-05-30T15:39:59Z</time>
      </trkpt>
      <trkpt lat="47.2396" lon="-1.61977">
        <ele>15.07</ele>
        <time>2020-05-30T15:40:02Z</time>
      </trkpt>
      <trkpt lat="47.2397" lon="-1.61986">
        <ele>16.3</ele>
        <time>2020-05-30T15:40:04Z</time>
      </trkpt>
      <trkpt lat="47.23979" lon="-1.61995">
        <ele>16.71</ele>
        <time>2020-05-30T15:40:06Z</time>
      </trkpt>
      <trkpt lat="47.23986" lon="-1.62005">
        <ele>17.44</ele>
        <time>2020-05-30T15:40:08Z</time>
      </trkpt>
      <trkpt lat="47.23994" lon="-1.62013">
        <ele>17.69</ele>
        <time>2020-05-30T15:40:10Z</time>
      </trkpt>
      <trkpt lat="47.24002" lon="-1.62023">
        <ele>18.57</ele>
        <time>2020-05-30T15:40:13Z</time>
      </trkpt>
      <trkpt lat="47.24008" lon="-1.62034">
        <ele>19.91</ele>
        <time>2020-05-30T15:40:15Z</time>
      </trkpt>
      <trkpt lat="47.24014" lon="-1.6205">
        <ele>19.92</ele>
        <time>2020-05-30T15:40:18Z</time>
      </trkpt>
      <trkpt lat="47.24016" lon="-1.62065">
        <ele>19.17</ele>
        <time>2020-05-30T15:40:20Z</time>
      </trkpt>
      <trkpt lat="47.24014" lon="-1.62083">
        <ele>18.73</ele>
        <time>2020-05-30T15:40:24Z</time>
      </trkpt>
      <trkpt lat="47.24015" lon="-1.62101">
        <ele>18.33</ele>
        <time>2020-05-30T15:40:27Z</time>
      </trkpt>
      <trkpt lat="47.24014" lon="-1.62121">
        <ele>17.74</ele>
        <time>2020-05-30T15:40:30Z</time>
      </trkpt>
      <trkpt lat="47.24015" lon="-1.62135">
        <ele>17.46</ele>
        <time>2020-05-30T15:40:32Z</time>
      </trkpt>
      <trkpt lat="47.24017" lon="-1.62149">
        <ele>17.16</ele>
        <time>2020-05-30T15:40:34Z</time>
      </trkpt>
      <trkpt lat="47.2402" lon="-1.62163">
        <ele>16.87</ele>
        <time>2020-05-30T15:40:37Z</time>
      </trkpt>
      <trkpt lat="47.24021" lon="-1.62178">
        <ele>16.45</ele>
        <time>2020-05-30T15:40:41Z</time>
      </trkpt>
      <trkpt lat="47.24021" lon="-1.62192">
        <ele>16.25</ele>
        <time>2020-05-30T15:40:44Z</time>
      </trkpt>
      <trkpt lat="47.2402" lon="-1.62207">
        <ele>16.2</ele>
        <time>2020-05-30T15:40:47Z</time>
      </trkpt>
      <trkpt lat="47.24019" lon="-1.62224">
        <ele>16.12</ele>
        <time>2020-05-30T15:40:51Z</time>
      </trkpt>
      <trkpt lat="47.2402" lon="-1.6224">
        <ele>16.03</ele>
        <time>2020-05-30T15:40:55Z</time>
      </trkpt>
      <trkpt lat="47.24019" lon="-1.62253">
        <ele>15.88</ele>
        <time>2020-05-30T15:40:58Z</time>
      </trkpt>
      <trkpt lat="47.24018" lon="-1.62269">
        <ele>15.79</ele>
        <time>2020-05-30T15:41:01Z</time>
      </trkpt>
      <trkpt lat="47.24019" lon="-1.62289">
        <ele>15.87</ele>
        <time>2020-05-30T15:41:04Z</time>
      </trkpt>
      <trkpt lat="47.24017" lon="-1.62305">
        <ele>16.39</ele>
        <time>2020-05-30T15:41:06Z</time>
      </trkpt>
      <trkpt lat="47.24015" lon="-1.62322">
        <ele>16.17</ele>
        <time>2020-05-30T15:41:08Z</time>
      </trkpt>
      <trkpt lat="47.24015" lon="-1.62339">
        <ele>15.76</ele>
        <time>2020-05-30T15:41:10Z</time>
      </trkpt>
      <trkpt lat="47.24015" lon="-1.62356">
        <ele>12.72</ele>
        <time>2020-05-30T15:41:12Z</time>
      </trkpt>
      <trkpt lat="47.24017" lon="-1.62374">
        <ele>10.09</ele>
        <time>2020-05-30T15:41:14Z</time>
      </trkpt>
      <trkpt lat="47.24019" lon="-1.62391">
        <ele>9.82</ele>
        <time>2020-05-30T15:41:17Z</time>
      </trkpt>
      <trkpt lat="47.24022" lon="-1.62411">
        <ele>10.94</ele>
        <time>2020-05-30T15:41:20Z</time>
      </trkpt>
      <trkpt lat="47.24019" lon="-1.62428">
        <ele>11.16</ele>
        <time>2020-05-30T15:41:23Z</time>
      </trkpt>
      <trkpt lat="47.24017" lon="-1.62442">
        <ele>11.23</ele>
        <time>2020-05-30T15:41:26Z</time>
      </trkpt>
      <trkpt lat="47.24018" lon="-1.62457">
        <ele>11.42</ele>
        <time>2020-05-30T15:41:30Z</time>
      </trkpt>
      <trkpt lat="47.24024" lon="-1.62469">
        <ele>12.27</ele>
        <time>2020-05-30T15:41:36Z</time>
      </trkpt>
      <trkpt lat="47.24031" lon="-1.62481">
        <ele>12.74</ele>
        <time>2020-05-30T15:41:40Z</time>
      </trkpt>
      <trkpt lat="47.24037" lon="-1.62495">
        <ele>13.51</ele>
        <time>2020-05-30T15:41:45Z</time>
      </trkpt>
      <trkpt lat="47.24045" lon="-1.62508">
        <ele>16.26</ele>
        <time>2020-05-30T15:41:47Z</time>
      </trkpt>
      <trkpt lat="47.24054" lon="-1.62522">
        <ele>17.66</ele>
        <time>2020-05-30T15:41:49Z</time>
      </trkpt>
      <trkpt lat="47.24063" lon="-1.62535">
        <ele>18.93</ele>
        <time>2020-05-30T15:41:51Z</time>
      </trkpt>
      <trkpt lat="47.2407" lon="-1.62546">
        <ele>19.44</ele>
        <time>2020-05-30T15:41:53Z</time>
      </trkpt>
      <trkpt lat="47.24081" lon="-1.62549">
        <ele>20.51</ele>
        <time>2020-05-30T15:41:55Z</time>
      </trkpt>
      <trkpt lat="47.24091" lon="-1.62554">
        <ele>22.04</ele>
        <time>2020-05-30T15:41:57Z</time>
      </trkpt>
      <trkpt lat="47.24099" lon="-1.62567">
        <ele>22.84</ele>
        <time>2020-05-30T15:42:00Z</time>
      </trkpt>
      <trkpt lat="47.24098" lon="-1.62583">
        <ele>22.62</ele>
        <time>2020-05-30T15:42:03Z</time>
      </trkpt>
      <trkpt lat="47.24092" lon="-1.62597">
        <ele>21.84</ele>
        <time>2020-05-30T15:42:05Z</time>
      </trkpt>
      <trkpt lat="47.24086" lon="-1.6261">
        <ele>21</ele>
        <time>2020-05-30T15:42:07Z</time>
      </trkpt>
      <trkpt lat="47.24083" lon="-1.62624">
        <ele>20.59</ele>
        <time>2020-05-30T15:42:11Z</time>
      </trkpt>
      <trkpt lat="47.24076" lon="-1.62636">
        <ele>20.04</ele>
        <time>2020-05-30T15:42:16Z</time>
      </trkpt>
      <trkpt lat="47.24071" lon="-1.62648">
        <ele>19.9</ele>
        <time>2020-05-30T15:42:21Z</time>
      </trkpt>
      <trkpt lat="47.24064" lon="-1.62661">
        <ele>19.78</ele>
        <time>2020-05-30T15:42:25Z</time>
      </trkpt>
      <trkpt lat="47.24065" lon="-1.62677">
        <ele>20.15</ele>
        <time>2020-05-30T15:42:31Z</time>
      </trkpt>
      <trkpt lat="47.24061" lon="-1.62693">
        <ele>20.29</ele>
        <time>2020-05-30T15:42:35Z</time>
      </trkpt>
      <trkpt lat="47.24052" lon="-1.62705">
        <ele>20.32</ele>
        <time>2020-05-30T15:42:38Z</time>
      </trkpt>
      <trkpt lat="47.24045" lon="-1.62714">
        <ele>20.3</ele>
        <time>2020-05-30T15:42:41Z</time>
      </trkpt>
      <trkpt lat="47.24037" lon="-1.62724">
        <ele>20.23</ele>
        <time>2020-05-30T15:42:44Z</time>
      </trkpt>
      <trkpt lat="47.24048" lon="-1.62722">
        <ele>21.33</ele>
        <time>2020-05-30T15:42:55Z</time>
      </trkpt>
      <trkpt lat="47.24057" lon="-1.62708">
        <ele>22.36</ele>
        <time>2020-05-30T15:42:58Z</time>
      </trkpt>
      <trkpt lat="47.24067" lon="-1.62694">
        <ele>20.7</ele>
        <time>2020-05-30T15:43:01Z</time>
      </trkpt>
      <trkpt lat="47.24077" lon="-1.62681">
        <ele>19.17</ele>
        <time>2020-05-30T15:43:04Z</time>
      </trkpt>
      <trkpt lat="47.24088" lon="-1.62669">
        <ele>19.53</ele>
        <time>2020-05-30T15:43:07Z</time>
      </trkpt>
      <trkpt lat="47.24096" lon="-1.6266">
        <ele>20.04</ele>
        <time>2020-05-30T15:43:09Z</time>
      </trkpt>
      <trkpt lat="47.24103" lon="-1.62648">
        <ele>19.99</ele>
        <time>2020-05-30T15:43:11Z</time>
      </trkpt>
      <trkpt lat="47.2411" lon="-1.62636">
        <ele>19.65</ele>
        <time>2020-05-30T15:43:13Z</time>
      </trkpt>
      <trkpt lat="47.24116" lon="-1.62647">
        <ele>19.38</ele>
        <time>2020-05-30T15:43:16Z</time>
      </trkpt>
      <trkpt lat="47.24117" lon="-1.62664">
        <ele>18.85</ele>
        <time>2020-05-30T15:43:18Z</time>
      </trkpt>
      <trkpt lat="47.24114" lon="-1.62682">
        <ele>18.07</ele>
        <time>2020-05-30T15:43:20Z</time>
      </trkpt>
      <trkpt lat="47.24109" lon="-1.627">
        <ele>17</ele>
        <time>2020-05-30T15:43:22Z</time>
      </trkpt>
      <trkpt lat="47.24105" lon="-1.62713">
        <ele>16.98</ele>
        <time>2020-05-30T15:43:24Z</time>
      </trkpt>
      <trkpt lat="47.24103" lon="-1.62727">
        <ele>17.01</ele>
        <time>2020-05-30T15:43:26Z</time>
      </trkpt>
      <trkpt lat="47.24106" lon="-1.62742">
        <ele>16.97</ele>
        <time>2020-05-30T15:43:29Z</time>
      </trkpt>
      <trkpt lat="47.2411" lon="-1.62758">
        <ele>17.15</ele>
        <time>2020-05-30T15:43:32Z</time>
      </trkpt>
      <trkpt lat="47.24116" lon="-1.62774">
        <ele>17.38</ele>
        <time>2020-05-30T15:43:35Z</time>
      </trkpt>
      <trkpt lat="47.24122" lon="-1.62784">
        <ele>17.28</ele>
        <time>2020-05-30T15:43:37Z</time>
      </trkpt>
      <trkpt lat="47.2413" lon="-1.62799">
        <ele>16.15</ele>
        <time>2020-05-30T15:43:39Z</time>
      </trkpt>
      <trkpt lat="47.24134" lon="-1.62813">
        <ele>15.64</ele>
        <time>2020-05-30T15:43:41Z</time>
      </trkpt>
      <trkpt lat="47.2414" lon="-1.62826">
        <ele>16.48</ele>
        <time>2020-05-30T15:43:43Z</time>
      </trkpt>
      <trkpt lat="47.24146" lon="-1.62837">
        <ele>16.29</ele>
        <time>2020-05-30T15:43:45Z</time>
      </trkpt>
      <trkpt lat="47.2415" lon="-1.62854">
        <ele>16.26</ele>
        <time>2020-05-30T15:43:48Z</time>
      </trkpt>
      <trkpt lat="47.24157" lon="-1.62864">
        <ele>15.55</ele>
        <time>2020-05-30T15:43:50Z</time>
      </trkpt>
      <trkpt lat="47.2416" lon="-1.62878">
        <ele>15.36</ele>
        <time>2020-05-30T15:43:52Z</time>
      </trkpt>
      <trkpt lat="47.24165" lon="-1.62891">
        <ele>15.17</ele>
        <time>2020-05-30T15:43:54Z</time>
      </trkpt>
      <trkpt lat="47.2417" lon="-1.62904">
        <ele>15.02</ele>
        <time>2020-05-30T15:43:56Z</time>
      </trkpt>
      <trkpt lat="47.24176" lon="-1.62916">
        <ele>14.48</ele>
        <time>2020-05-30T15:43:58Z</time>
      </trkpt>
      <trkpt lat="47.24182" lon="-1.62929">
        <ele>13.83</ele>
        <time>2020-05-30T15:44:00Z</time>
      </trkpt>
      <trkpt lat="47.24187" lon="-1.62946">
        <ele>14.04</ele>
        <time>2020-05-30T15:44:02Z</time>
      </trkpt>
      <trkpt lat="47.2419" lon="-1.6296">
        <ele>14.65</ele>
        <time>2020-05-30T15:44:04Z</time>
      </trkpt>
      <trkpt lat="47.24194" lon="-1.62974">
        <ele>14.75</ele>
        <time>2020-05-30T15:44:06Z</time>
      </trkpt>
      <trkpt lat="47.24199" lon="-1.6299">
        <ele>15.62</ele>
        <time>2020-05-30T15:44:09Z</time>
      </trkpt>
      <trkpt lat="47.24204" lon="-1.63004">
        <ele>15.94</ele>
        <time>2020-05-30T15:44:12Z</time>
      </trkpt>
      <trkpt lat="47.24206" lon="-1.63018">
        <ele>16.55</ele>
        <time>2020-05-30T15:44:14Z</time>
      </trkpt>
      <trkpt lat="47.24205" lon="-1.63032">
        <ele>17</ele>
        <time>2020-05-30T15:44:16Z</time>
      </trkpt>
      <trkpt lat="47.24205" lon="-1.63046">
        <ele>16.99</ele>
        <time>2020-05-30T15:44:18Z</time>
      </trkpt>
      <trkpt lat="47.24205" lon="-1.63061">
        <ele>17.68</ele>
        <time>2020-05-30T15:44:20Z</time>
      </trkpt>
      <trkpt lat="47.24206" lon="-1.63078">
        <ele>19.69</ele>
        <time>2020-05-30T15:44:22Z</time>
      </trkpt>
      <trkpt lat="47.24209" lon="-1.63093">
        <ele>21.35</ele>
        <time>2020-05-30T15:44:24Z</time>
      </trkpt>
      <trkpt lat="47.24214" lon="-1.6311">
        <ele>20.97</ele>
        <time>2020-05-30T15:44:27Z</time>
      </trkpt>
      <trkpt lat="47.24218" lon="-1.63123">
        <ele>20.73</ele>
        <time>2020-05-30T15:44:29Z</time>
      </trkpt>
      <trkpt lat="47.24221" lon="-1.63136">
        <ele>20.55</ele>
        <time>2020-05-30T15:44:31Z</time>
      </trkpt>
      <trkpt lat="47.24228" lon="-1.6315">
        <ele>20.3</ele>
        <time>2020-05-30T15:44:33Z</time>
      </trkpt>
      <trkpt lat="47.24234" lon="-1.6316">
        <ele>19.84</ele>
        <time>2020-05-30T15:44:35Z</time>
      </trkpt>
      <trkpt lat="47.24242" lon="-1.63173">
        <ele>18.18</ele>
        <time>2020-05-30T15:44:37Z</time>
      </trkpt>
      <trkpt lat="47.24249" lon="-1.63185">
        <ele>17.27</ele>
        <time>2020-05-30T15:44:39Z</time>
      </trkpt>
      <trkpt lat="47.24256" lon="-1.63195">
        <ele>16.64</ele>
        <time>2020-05-30T15:44:41Z</time>
      </trkpt>
      <trkpt lat="47.24265" lon="-1.63202">
        <ele>16.65</ele>
        <time>2020-05-30T15:44:43Z</time>
      </trkpt>
      <trkpt lat="47.24275" lon="-1.63208">
        <ele>16.68</ele>
        <time>2020-05-30T15:44:46Z</time>
      </trkpt>
      <trkpt lat="47.24284" lon="-1.63218">
        <ele>16.73</ele>
        <time>2020-05-30T15:44:49Z</time>
      </trkpt>
      <trkpt lat="47.24293" lon="-1.63228">
        <ele>17.09</ele>
        <time>2020-05-30T15:44:51Z</time>
      </trkpt>
      <trkpt lat="47.243" lon="-1.63236">
        <ele>17.8</ele>
        <time>2020-05-30T15:44:53Z</time>
      </trkpt>
      <trkpt lat="47.2431" lon="-1.63251">
        <ele>19.57</ele>
        <time>2020-05-30T15:44:56Z</time>
      </trkpt>
      <trkpt lat="47.24317" lon="-1.6326">
        <ele>21.41</ele>
        <time>2020-05-30T15:44:58Z</time>
      </trkpt>
      <trkpt lat="47.24326" lon="-1.63273">
        <ele>22.44</ele>
        <time>2020-05-30T15:45:01Z</time>
      </trkpt>
      <trkpt lat="47.24334" lon="-1.63285">
        <ele>23.04</ele>
        <time>2020-05-30T15:45:04Z</time>
      </trkpt>
      <trkpt lat="47.24344" lon="-1.63294">
        <ele>23.67</ele>
        <time>2020-05-30T15:45:07Z</time>
      </trkpt>
      <trkpt lat="47.24355" lon="-1.63305">
        <ele>25.82</ele>
        <time>2020-05-30T15:45:10Z</time>
      </trkpt>
      <trkpt lat="47.24361" lon="-1.63315">
        <ele>27.87</ele>
        <time>2020-05-30T15:45:12Z</time>
      </trkpt>
      <trkpt lat="47.24368" lon="-1.63328">
        <ele>28.63</ele>
        <time>2020-05-30T15:45:14Z</time>
      </trkpt>
      <trkpt lat="47.24375" lon="-1.63346">
        <ele>27.87</ele>
        <time>2020-05-30T15:45:17Z</time>
      </trkpt>
      <trkpt lat="47.24377" lon="-1.63363">
        <ele>26.79</ele>
        <time>2020-05-30T15:45:19Z</time>
      </trkpt>
      <trkpt lat="47.24376" lon="-1.63378">
        <ele>25.2</ele>
        <time>2020-05-30T15:45:21Z</time>
      </trkpt>
      <trkpt lat="47.24374" lon="-1.63393">
        <ele>23.18</ele>
        <time>2020-05-30T15:45:23Z</time>
      </trkpt>
      <trkpt lat="47.24367" lon="-1.63407">
        <ele>22.48</ele>
        <time>2020-05-30T15:45:26Z</time>
      </trkpt>
      <trkpt lat="47.24373" lon="-1.63417">
        <ele>20.7</ele>
        <time>2020-05-30T15:45:45Z</time>
      </trkpt>
      <trkpt lat="47.24381" lon="-1.63424">
        <ele>20.56</ele>
        <time>2020-05-30T15:45:57Z</time>
      </trkpt>
      <trkpt lat="47.24388" lon="-1.63437">
        <ele>20.87</ele>
        <time>2020-05-30T15:46:00Z</time>
      </trkpt>
      <trkpt lat="47.24393" lon="-1.6345">
        <ele>21.28</ele>
        <time>2020-05-30T15:46:03Z</time>
      </trkpt>
      <trkpt lat="47.24396" lon="-1.63464">
        <ele>21.42</ele>
        <time>2020-05-30T15:46:06Z</time>
      </trkpt>
      <trkpt lat="47.24398" lon="-1.63482">
        <ele>21.42</ele>
        <time>2020-05-30T15:46:08Z</time>
      </trkpt>
      <trkpt lat="47.24397" lon="-1.63501">
        <ele>21.64</ele>
        <time>2020-05-30T15:46:11Z</time>
      </trkpt>
      <trkpt lat="47.2439" lon="-1.63519">
        <ele>21.13</ele>
        <time>2020-05-30T15:46:14Z</time>
      </trkpt>
      <trkpt lat="47.24387" lon="-1.63539">
        <ele>20.15</ele>
        <time>2020-05-30T15:46:16Z</time>
      </trkpt>
      <trkpt lat="47.24387" lon="-1.63559">
        <ele>19.37</ele>
        <time>2020-05-30T15:46:18Z</time>
      </trkpt>
      <trkpt lat="47.24386" lon="-1.63574">
        <ele>19.36</ele>
        <time>2020-05-30T15:46:20Z</time>
      </trkpt>
      <trkpt lat="47.24387" lon="-1.63591">
        <ele>21.17</ele>
        <time>2020-05-30T15:46:23Z</time>
      </trkpt>
      <trkpt lat="47.24391" lon="-1.63606">
        <ele>21.27</ele>
        <time>2020-05-30T15:46:26Z</time>
      </trkpt>
      <trkpt lat="47.24398" lon="-1.63628">
        <ele>21.24</ele>
        <time>2020-05-30T15:46:27Z</time>
      </trkpt>
      <trkpt lat="47.24404" lon="-1.63644">
        <ele>23.68</ele>
        <time>2020-05-30T15:46:29Z</time>
      </trkpt>
      <trkpt lat="47.24406" lon="-1.63658">
        <ele>25.85</ele>
        <time>2020-05-30T15:46:34Z</time>
      </trkpt>
      <trkpt lat="47.24406" lon="-1.63672">
        <ele>25.67</ele>
        <time>2020-05-30T15:46:36Z</time>
      </trkpt>
      <trkpt lat="47.24405" lon="-1.6369">
        <ele>26.02</ele>
        <time>2020-05-30T15:46:39Z</time>
      </trkpt>
      <trkpt lat="47.24404" lon="-1.63704">
        <ele>26.71</ele>
        <time>2020-05-30T15:46:41Z</time>
      </trkpt>
      <trkpt lat="47.24401" lon="-1.63721">
        <ele>26.94</ele>
        <time>2020-05-30T15:46:44Z</time>
      </trkpt>
      <trkpt lat="47.24398" lon="-1.63736">
        <ele>27.06</ele>
        <time>2020-05-30T15:46:46Z</time>
      </trkpt>
      <trkpt lat="47.24396" lon="-1.63749">
        <ele>27.08</ele>
        <time>2020-05-30T15:46:48Z</time>
      </trkpt>
      <trkpt lat="47.24406" lon="-1.63747">
        <ele>26.79</ele>
        <time>2020-05-30T15:46:54Z</time>
      </trkpt>
      <trkpt lat="47.24415" lon="-1.6374">
        <ele>26.77</ele>
        <time>2020-05-30T15:46:57Z</time>
      </trkpt>
      <trkpt lat="47.24427" lon="-1.63745">
        <ele>26.68</ele>
        <time>2020-05-30T15:47:00Z</time>
      </trkpt>
      <trkpt lat="47.2444" lon="-1.63752">
        <ele>27.72</ele>
        <time>2020-05-30T15:47:03Z</time>
      </trkpt>
      <trkpt lat="47.24451" lon="-1.6376">
        <ele>29.35</ele>
        <time>2020-05-30T15:47:06Z</time>
      </trkpt>
      <trkpt lat="47.2446" lon="-1.63766">
        <ele>29.26</ele>
        <time>2020-05-30T15:47:08Z</time>
      </trkpt>
      <trkpt lat="47.2447" lon="-1.63774">
        <ele>28.71</ele>
        <time>2020-05-30T15:47:10Z</time>
      </trkpt>
      <trkpt lat="47.2448" lon="-1.6378">
        <ele>27.82</ele>
        <time>2020-05-30T15:47:12Z</time>
      </trkpt>
      <trkpt lat="47.24488" lon="-1.63784">
        <ele>27.58</ele>
        <time>2020-05-30T15:47:14Z</time>
      </trkpt>
      <trkpt lat="47.24501" lon="-1.6379">
        <ele>27.84</ele>
        <time>2020-05-30T15:47:17Z</time>
      </trkpt>
      <trkpt lat="47.24511" lon="-1.63795">
        <ele>26.95</ele>
        <time>2020-05-30T15:47:19Z</time>
      </trkpt>
      <trkpt lat="47.2452" lon="-1.63799">
        <ele>26.89</ele>
        <time>2020-05-30T15:47:21Z</time>
      </trkpt>
      <trkpt lat="47.24532" lon="-1.63805">
        <ele>26.84</ele>
        <time>2020-05-30T15:47:24Z</time>
      </trkpt>
      <trkpt lat="47.24542" lon="-1.63808">
        <ele>26.51</ele>
        <time>2020-05-30T15:47:26Z</time>
      </trkpt>
      <trkpt lat="47.24554" lon="-1.63806">
        <ele>28.82</ele>
        <time>2020-05-30T15:47:29Z</time>
      </trkpt>
      <trkpt lat="47.24568" lon="-1.63798">
        <ele>31.48</ele>
        <time>2020-05-30T15:47:32Z</time>
      </trkpt>
      <trkpt lat="47.24577" lon="-1.6379">
        <ele>32.48</ele>
        <time>2020-05-30T15:47:34Z</time>
      </trkpt>
      <trkpt lat="47.24587" lon="-1.63781">
        <ele>33.86</ele>
        <time>2020-05-30T15:47:37Z</time>
      </trkpt>
      <trkpt lat="47.24598" lon="-1.63775">
        <ele>35.27</ele>
        <time>2020-05-30T15:47:40Z</time>
      </trkpt>
      <trkpt lat="47.2461" lon="-1.6377">
        <ele>35.77</ele>
        <time>2020-05-30T15:47:43Z</time>
      </trkpt>
      <trkpt lat="47.24619" lon="-1.63765">
        <ele>36.14</ele>
        <time>2020-05-30T15:47:45Z</time>
      </trkpt>
      <trkpt lat="47.24631" lon="-1.63769">
        <ele>35.37</ele>
        <time>2020-05-30T15:47:48Z</time>
      </trkpt>
      <trkpt lat="47.24639" lon="-1.63777">
        <ele>36.04</ele>
        <time>2020-05-30T15:47:50Z</time>
      </trkpt>
      <trkpt lat="47.24647" lon="-1.63784">
        <ele>36.12</ele>
        <time>2020-05-30T15:47:52Z</time>
      </trkpt>
      <trkpt lat="47.24656" lon="-1.6379">
        <ele>36.48</ele>
        <time>2020-05-30T15:47:54Z</time>
      </trkpt>
      <trkpt lat="47.24664" lon="-1.63796">
        <ele>36.45</ele>
        <time>2020-05-30T15:47:56Z</time>
      </trkpt>
      <trkpt lat="47.24674" lon="-1.638">
        <ele>35.49</ele>
        <time>2020-05-30T15:47:58Z</time>
      </trkpt>
      <trkpt lat="47.24683" lon="-1.63799">
        <ele>35.33</ele>
        <time>2020-05-30T15:48:00Z</time>
      </trkpt>
      <trkpt lat="47.24695" lon="-1.63791">
        <ele>37.02</ele>
        <time>2020-05-30T15:48:03Z</time>
      </trkpt>
      <trkpt lat="47.24702" lon="-1.6378">
        <ele>39.04</ele>
        <time>2020-05-30T15:48:06Z</time>
      </trkpt>
      <trkpt lat="47.24711" lon="-1.63767">
        <ele>39.39</ele>
        <time>2020-05-30T15:48:10Z</time>
      </trkpt>
      <trkpt lat="47.24718" lon="-1.63755">
        <ele>39.6</ele>
        <time>2020-05-30T15:48:13Z</time>
      </trkpt>
      <trkpt lat="47.24725" lon="-1.63742">
        <ele>39.76</ele>
        <time>2020-05-30T15:48:17Z</time>
      </trkpt>
      <trkpt lat="47.2473" lon="-1.63727">
        <ele>40.05</ele>
        <time>2020-05-30T15:48:20Z</time>
      </trkpt>
      <trkpt lat="47.24733" lon="-1.63713">
        <ele>40.37</ele>
        <time>2020-05-30T15:48:23Z</time>
      </trkpt>
      <trkpt lat="47.24739" lon="-1.63697">
        <ele>40.62</ele>
        <time>2020-05-30T15:48:26Z</time>
      </trkpt>
      <trkpt lat="47.24744" lon="-1.63685">
        <ele>40.75</ele>
        <time>2020-05-30T15:48:29Z</time>
      </trkpt>
      <trkpt lat="47.24751" lon="-1.63672">
        <ele>40.9</ele>
        <time>2020-05-30T15:48:32Z</time>
      </trkpt>
      <trkpt lat="47.24757" lon="-1.6366">
        <ele>41.36</ele>
        <time>2020-05-30T15:48:35Z</time>
      </trkpt>
      <trkpt lat="47.24763" lon="-1.63645">
        <ele>41.79</ele>
        <time>2020-05-30T15:48:38Z</time>
      </trkpt>
      <trkpt lat="47.24769" lon="-1.63633">
        <ele>42.3</ele>
        <time>2020-05-30T15:48:41Z</time>
      </trkpt>
      <trkpt lat="47.24775" lon="-1.63616">
        <ele>42.6</ele>
        <time>2020-05-30T15:48:44Z</time>
      </trkpt>
      <trkpt lat="47.24781" lon="-1.63601">
        <ele>42.74</ele>
        <time>2020-05-30T15:48:48Z</time>
      </trkpt>
      <trkpt lat="47.24785" lon="-1.63588">
        <ele>42.82</ele>
        <time>2020-05-30T15:48:50Z</time>
      </trkpt>
      <trkpt lat="47.24789" lon="-1.63575">
        <ele>42.84</ele>
        <time>2020-05-30T15:48:53Z</time>
      </trkpt>
      <trkpt lat="47.24795" lon="-1.63559">
        <ele>43</ele>
        <time>2020-05-30T15:48:56Z</time>
      </trkpt>
      <trkpt lat="47.248" lon="-1.63546">
        <ele>43.23</ele>
        <time>2020-05-30T15:48:59Z</time>
      </trkpt>
      <trkpt lat="47.24809" lon="-1.63535">
        <ele>44.94</ele>
        <time>2020-05-30T15:49:02Z</time>
      </trkpt>
      <trkpt lat="47.2482" lon="-1.63535">
        <ele>46.83</ele>
        <time>2020-05-30T15:49:05Z</time>
      </trkpt>
      <trkpt lat="47.2483" lon="-1.63543">
        <ele>47.56</ele>
        <time>2020-05-30T15:49:08Z</time>
      </trkpt>
      <trkpt lat="47.2484" lon="-1.63552">
        <ele>47.98</ele>
        <time>2020-05-30T15:49:11Z</time>
      </trkpt>
      <trkpt lat="47.24851" lon="-1.63551">
        <ele>48.96</ele>
        <time>2020-05-30T15:49:13Z</time>
      </trkpt>
      <trkpt lat="47.2486" lon="-1.63547">
        <ele>50.3</ele>
        <time>2020-05-30T15:49:15Z</time>
      </trkpt>
      <trkpt lat="47.24868" lon="-1.63541">
        <ele>51.11</ele>
        <time>2020-05-30T15:49:17Z</time>
      </trkpt>
      <trkpt lat="47.24879" lon="-1.63533">
        <ele>51.7</ele>
        <time>2020-05-30T15:49:20Z</time>
      </trkpt>
      <trkpt lat="47.24888" lon="-1.63522">
        <ele>52.7</ele>
        <time>2020-05-30T15:49:21Z</time>
      </trkpt>
      <trkpt lat="47.24896" lon="-1.63515">
        <ele>53.08</ele>
        <time>2020-05-30T15:49:23Z</time>
      </trkpt>
      <trkpt lat="47.24903" lon="-1.63505">
        <ele>53.26</ele>
        <time>2020-05-30T15:49:25Z</time>
      </trkpt>
      <trkpt lat="47.24903" lon="-1.63489">
        <ele>53.37</ele>
        <time>2020-05-30T15:49:28Z</time>
      </trkpt>
      <trkpt lat="47.24901" lon="-1.63475">
        <ele>53.62</ele>
        <time>2020-05-30T15:49:31Z</time>
      </trkpt>
      <trkpt lat="47.24909" lon="-1.63463">
        <ele>53.9</ele>
        <time>2020-05-30T15:49:34Z</time>
      </trkpt>
      <trkpt lat="47.24917" lon="-1.63456">
        <ele>55.11</ele>
        <time>2020-05-30T15:49:36Z</time>
      </trkpt>
      <trkpt lat="47.24926" lon="-1.63451">
        <ele>56.84</ele>
        <time>2020-05-30T15:49:38Z</time>
      </trkpt>
      <trkpt lat="47.24934" lon="-1.63444">
        <ele>57.23</ele>
        <time>2020-05-30T15:49:40Z</time>
      </trkpt>
      <trkpt lat="47.24942" lon="-1.63436">
        <ele>56.62</ele>
        <time>2020-05-30T15:49:42Z</time>
      </trkpt>
      <trkpt lat="47.24949" lon="-1.63425">
        <ele>56.75</ele>
        <time>2020-05-30T15:49:44Z</time>
      </trkpt>
      <trkpt lat="47.24957" lon="-1.63416">
        <ele>56.57</ele>
        <time>2020-05-30T15:49:46Z</time>
      </trkpt>
      <trkpt lat="47.24967" lon="-1.63408">
        <ele>56.62</ele>
        <time>2020-05-30T15:49:48Z</time>
      </trkpt>
      <trkpt lat="47.2498" lon="-1.63398">
        <ele>56.57</ele>
        <time>2020-05-30T15:49:51Z</time>
      </trkpt>
      <trkpt lat="47.24989" lon="-1.6339">
        <ele>56.53</ele>
        <time>2020-05-30T15:49:53Z</time>
      </trkpt>
      <trkpt lat="47.24998" lon="-1.63383">
        <ele>56.08</ele>
        <time>2020-05-30T15:49:55Z</time>
      </trkpt>
      <trkpt lat="47.25006" lon="-1.63375">
        <ele>56.12</ele>
        <time>2020-05-30T15:49:57Z</time>
      </trkpt>
      <trkpt lat="47.25013" lon="-1.63365">
        <ele>57.18</ele>
        <time>2020-05-30T15:49:59Z</time>
      </trkpt>
      <trkpt lat="47.25018" lon="-1.63351">
        <ele>56.98</ele>
        <time>2020-05-30T15:50:01Z</time>
      </trkpt>
      <trkpt lat="47.25027" lon="-1.6334">
        <ele>57.05</ele>
        <time>2020-05-30T15:50:04Z</time>
      </trkpt>
      <trkpt lat="47.25036" lon="-1.63333">
        <ele>56.44</ele>
        <time>2020-05-30T15:50:06Z</time>
      </trkpt>
      <trkpt lat="47.25044" lon="-1.63326">
        <ele>55.38</ele>
        <time>2020-05-30T15:50:08Z</time>
      </trkpt>
      <trkpt lat="47.25052" lon="-1.63319">
        <ele>54.53</ele>
        <time>2020-05-30T15:50:10Z</time>
      </trkpt>
      <trkpt lat="47.25061" lon="-1.63311">
        <ele>54.84</ele>
        <time>2020-05-30T15:50:12Z</time>
      </trkpt>
      <trkpt lat="47.25071" lon="-1.63303">
        <ele>55.54</ele>
        <time>2020-05-30T15:50:14Z</time>
      </trkpt>
      <trkpt lat="47.25083" lon="-1.63295">
        <ele>55.69</ele>
        <time>2020-05-30T15:50:16Z</time>
      </trkpt>
      <trkpt lat="47.25093" lon="-1.63288">
        <ele>56.61</ele>
        <time>2020-05-30T15:50:18Z</time>
      </trkpt>
      <trkpt lat="47.25102" lon="-1.63281">
        <ele>56.41</ele>
        <time>2020-05-30T15:50:20Z</time>
      </trkpt>
      <trkpt lat="47.25111" lon="-1.63274">
        <ele>55.45</ele>
        <time>2020-05-30T15:50:22Z</time>
      </trkpt>
      <trkpt lat="47.2512" lon="-1.63268">
        <ele>54.37</ele>
        <time>2020-05-30T15:50:24Z</time>
      </trkpt>
      <trkpt lat="47.25131" lon="-1.63265">
        <ele>53.99</ele>
        <time>2020-05-30T15:50:27Z</time>
      </trkpt>
      <trkpt lat="47.25138" lon="-1.63257">
        <ele>54.35</ele>
        <time>2020-05-30T15:50:30Z</time>
      </trkpt>
      <trkpt lat="47.25149" lon="-1.63244">
        <ele>55.82</ele>
        <time>2020-05-30T15:50:34Z</time>
      </trkpt>
      <trkpt lat="47.25159" lon="-1.63235">
        <ele>56.31</ele>
        <time>2020-05-30T15:50:36Z</time>
      </trkpt>
      <trkpt lat="47.25167" lon="-1.63227">
        <ele>56.45</ele>
        <time>2020-05-30T15:50:38Z</time>
      </trkpt>
      <trkpt lat="47.25177" lon="-1.63219">
        <ele>56.18</ele>
        <time>2020-05-30T15:50:40Z</time>
      </trkpt>
      <trkpt lat="47.25185" lon="-1.63211">
        <ele>56.76</ele>
        <time>2020-05-30T15:50:42Z</time>
      </trkpt>
      <trkpt lat="47.25196" lon="-1.63201">
        <ele>56.44</ele>
        <time>2020-05-30T15:50:44Z</time>
      </trkpt>
      <trkpt lat="47.25206" lon="-1.63193">
        <ele>56.73</ele>
        <time>2020-05-30T15:50:46Z</time>
      </trkpt>
      <trkpt lat="47.25215" lon="-1.63185">
        <ele>57.52</ele>
        <time>2020-05-30T15:50:48Z</time>
      </trkpt>
      <trkpt lat="47.25225" lon="-1.63177">
        <ele>57.43</ele>
        <time>2020-05-30T15:50:50Z</time>
      </trkpt>
      <trkpt lat="47.25236" lon="-1.63169">
        <ele>56.46</ele>
        <time>2020-05-30T15:50:52Z</time>
      </trkpt>
      <trkpt lat="47.25246" lon="-1.6316">
        <ele>55.03</ele>
        <time>2020-05-30T15:50:54Z</time>
      </trkpt>
      <trkpt lat="47.25257" lon="-1.63152">
        <ele>54.69</ele>
        <time>2020-05-30T15:50:56Z</time>
      </trkpt>
      <trkpt lat="47.25267" lon="-1.63143">
        <ele>54.49</ele>
        <time>2020-05-30T15:50:58Z</time>
      </trkpt>
      <trkpt lat="47.25278" lon="-1.63134">
        <ele>55.01</ele>
        <time>2020-05-30T15:51:00Z</time>
      </trkpt>
      <trkpt lat="47.25288" lon="-1.63126">
        <ele>55.9</ele>
        <time>2020-05-30T15:51:02Z</time>
      </trkpt>
      <trkpt lat="47.25299" lon="-1.63115">
        <ele>56.51</ele>
        <time>2020-05-30T15:51:04Z</time>
      </trkpt>
      <trkpt lat="47.25309" lon="-1.63107">
        <ele>56.15</ele>
        <time>2020-05-30T15:51:06Z</time>
      </trkpt>
      <trkpt lat="47.25319" lon="-1.63097">
        <ele>55.25</ele>
        <time>2020-05-30T15:51:08Z</time>
      </trkpt>
      <trkpt lat="47.25329" lon="-1.63088">
        <ele>55.38</ele>
        <time>2020-05-30T15:51:10Z</time>
      </trkpt>
      <trkpt lat="47.25338" lon="-1.6308">
        <ele>55.34</ele>
        <time>2020-05-30T15:51:12Z</time>
      </trkpt>
      <trkpt lat="47.25347" lon="-1.63071">
        <ele>55.73</ele>
        <time>2020-05-30T15:51:14Z</time>
      </trkpt>
      <trkpt lat="47.25358" lon="-1.63062">
        <ele>56.6</ele>
        <time>2020-05-30T15:51:16Z</time>
      </trkpt>
      <trkpt lat="47.25367" lon="-1.63053">
        <ele>57.43</ele>
        <time>2020-05-30T15:51:18Z</time>
      </trkpt>
      <trkpt lat="47.25375" lon="-1.63045">
        <ele>58.11</ele>
        <time>2020-05-30T15:51:20Z</time>
      </trkpt>
      <trkpt lat="47.25384" lon="-1.63038">
        <ele>58.12</ele>
        <time>2020-05-30T15:51:22Z</time>
      </trkpt>
      <trkpt lat="47.25392" lon="-1.63031">
        <ele>58.79</ele>
        <time>2020-05-30T15:51:24Z</time>
      </trkpt>
      <trkpt lat="47.25399" lon="-1.63023">
        <ele>58.98</ele>
        <time>2020-05-30T15:51:26Z</time>
      </trkpt>
      <trkpt lat="47.2541" lon="-1.63014">
        <ele>59.08</ele>
        <time>2020-05-30T15:51:28Z</time>
      </trkpt>
      <trkpt lat="47.25419" lon="-1.63005">
        <ele>58.55</ele>
        <time>2020-05-30T15:51:30Z</time>
      </trkpt>
      <trkpt lat="47.25428" lon="-1.62997">
        <ele>57.61</ele>
        <time>2020-05-30T15:51:32Z</time>
      </trkpt>
      <trkpt lat="47.25439" lon="-1.62985">
        <ele>57.47</ele>
        <time>2020-05-30T15:51:35Z</time>
      </trkpt>
      <trkpt lat="47.25435" lon="-1.6297">
        <ele>57.56</ele>
        <time>2020-05-30T15:51:40Z</time>
      </trkpt>
      <trkpt lat="47.25428" lon="-1.6296">
        <ele>58.12</ele>
        <time>2020-05-30T15:51:42Z</time>
      </trkpt>
      <trkpt lat="47.25422" lon="-1.62943">
        <ele>59.83</ele>
        <time>2020-05-30T15:51:45Z</time>
      </trkpt>
      <trkpt lat="47.25424" lon="-1.62923">
        <ele>61.49</ele>
        <time>2020-05-30T15:51:47Z</time>
      </trkpt>
      <trkpt lat="47.25427" lon="-1.62907">
        <ele>62.56</ele>
        <time>2020-05-30T15:51:49Z</time>
      </trkpt>
      <trkpt lat="47.25435" lon="-1.62892">
        <ele>62.75</ele>
        <time>2020-05-30T15:51:51Z</time>
      </trkpt>
      <trkpt lat="47.25447" lon="-1.62887">
        <ele>62.54</ele>
        <time>2020-05-30T15:51:53Z</time>
      </trkpt>
      <trkpt lat="47.25459" lon="-1.62887">
        <ele>62.21</ele>
        <time>2020-05-30T15:51:55Z</time>
      </trkpt>
      <trkpt lat="47.25472" lon="-1.62888">
        <ele>62.09</ele>
        <time>2020-05-30T15:51:57Z</time>
      </trkpt>
      <trkpt lat="47.25484" lon="-1.62885">
        <ele>62.19</ele>
        <time>2020-05-30T15:51:59Z</time>
      </trkpt>
      <trkpt lat="47.25496" lon="-1.62879">
        <ele>61.85</ele>
        <time>2020-05-30T15:52:01Z</time>
      </trkpt>
      <trkpt lat="47.25506" lon="-1.62872">
        <ele>62.35</ele>
        <time>2020-05-30T15:52:03Z</time>
      </trkpt>
      <trkpt lat="47.25518" lon="-1.62867">
        <ele>62.3</ele>
        <time>2020-05-30T15:52:05Z</time>
      </trkpt>
      <trkpt lat="47.25529" lon="-1.62862">
        <ele>62.92</ele>
        <time>2020-05-30T15:52:07Z</time>
      </trkpt>
      <trkpt lat="47.25541" lon="-1.62855">
        <ele>63.3</ele>
        <time>2020-05-30T15:52:09Z</time>
      </trkpt>
      <trkpt lat="47.25552" lon="-1.62847">
        <ele>63.85</ele>
        <time>2020-05-30T15:52:11Z</time>
      </trkpt>
      <trkpt lat="47.25561" lon="-1.6284">
        <ele>63.99</ele>
        <time>2020-05-30T15:52:13Z</time>
      </trkpt>
      <trkpt lat="47.25571" lon="-1.62833">
        <ele>64.31</ele>
        <time>2020-05-30T15:52:15Z</time>
      </trkpt>
      <trkpt lat="47.25581" lon="-1.62824">
        <ele>65.04</ele>
        <time>2020-05-30T15:52:17Z</time>
      </trkpt>
      <trkpt lat="47.2559" lon="-1.62817">
        <ele>65.25</ele>
        <time>2020-05-30T15:52:19Z</time>
      </trkpt>
      <trkpt lat="47.256" lon="-1.62807">
        <ele>65.71</ele>
        <time>2020-05-30T15:52:21Z</time>
      </trkpt>
      <trkpt lat="47.2561" lon="-1.62799">
        <ele>65.73</ele>
        <time>2020-05-30T15:52:23Z</time>
      </trkpt>
      <trkpt lat="47.25619" lon="-1.6279">
        <ele>65.63</ele>
        <time>2020-05-30T15:52:25Z</time>
      </trkpt>
      <trkpt lat="47.25628" lon="-1.6278">
        <ele>64.72</ele>
        <time>2020-05-30T15:52:27Z</time>
      </trkpt>
      <trkpt lat="47.25636" lon="-1.6277">
        <ele>63.76</ele>
        <time>2020-05-30T15:52:29Z</time>
      </trkpt>
      <trkpt lat="47.25646" lon="-1.62758">
        <ele>63.78</ele>
        <time>2020-05-30T15:52:31Z</time>
      </trkpt>
      <trkpt lat="47.25654" lon="-1.62745">
        <ele>63.2</ele>
        <time>2020-05-30T15:52:33Z</time>
      </trkpt>
      <trkpt lat="47.25663" lon="-1.62731">
        <ele>62.17</ele>
        <time>2020-05-30T15:52:35Z</time>
      </trkpt>
      <trkpt lat="47.2567" lon="-1.62716">
        <ele>61.11</ele>
        <time>2020-05-30T15:52:37Z</time>
      </trkpt>
      <trkpt lat="47.25677" lon="-1.62704">
        <ele>60.91</ele>
        <time>2020-05-30T15:52:39Z</time>
      </trkpt>
      <trkpt lat="47.25683" lon="-1.62692">
        <ele>61.05</ele>
        <time>2020-05-30T15:52:41Z</time>
      </trkpt>
      <trkpt lat="47.25691" lon="-1.62678">
        <ele>59.89</ele>
        <time>2020-05-30T15:52:43Z</time>
      </trkpt>
      <trkpt lat="47.25699" lon="-1.62663">
        <ele>59.27</ele>
        <time>2020-05-30T15:52:45Z</time>
      </trkpt>
      <trkpt lat="47.25706" lon="-1.62648">
        <ele>59.22</ele>
        <time>2020-05-30T15:52:47Z</time>
      </trkpt>
      <trkpt lat="47.25713" lon="-1.62634">
        <ele>59.23</ele>
        <time>2020-05-30T15:52:49Z</time>
      </trkpt>
      <trkpt lat="47.25719" lon="-1.62622">
        <ele>59.05</ele>
        <time>2020-05-30T15:52:51Z</time>
      </trkpt>
      <trkpt lat="47.25728" lon="-1.62606">
        <ele>58.92</ele>
        <time>2020-05-30T15:52:53Z</time>
      </trkpt>
      <trkpt lat="47.25736" lon="-1.62593">
        <ele>58.8</ele>
        <time>2020-05-30T15:52:55Z</time>
      </trkpt>
      <trkpt lat="47.25745" lon="-1.62577">
        <ele>58.95</ele>
        <time>2020-05-30T15:52:57Z</time>
      </trkpt>
      <trkpt lat="47.25751" lon="-1.62565">
        <ele>59.27</ele>
        <time>2020-05-30T15:52:59Z</time>
      </trkpt>
      <trkpt lat="47.25759" lon="-1.62551">
        <ele>59.76</ele>
        <time>2020-05-30T15:53:01Z</time>
      </trkpt>
      <trkpt lat="47.25766" lon="-1.62537">
        <ele>59.66</ele>
        <time>2020-05-30T15:53:03Z</time>
      </trkpt>
      <trkpt lat="47.25774" lon="-1.62523">
        <ele>59.65</ele>
        <time>2020-05-30T15:53:05Z</time>
      </trkpt>
      <trkpt lat="47.2578" lon="-1.62511">
        <ele>59.91</ele>
        <time>2020-05-30T15:53:07Z</time>
      </trkpt>
      <trkpt lat="47.25787" lon="-1.62498">
        <ele>59.62</ele>
        <time>2020-05-30T15:53:09Z</time>
      </trkpt>
      <trkpt lat="47.25793" lon="-1.62487">
        <ele>59.47</ele>
        <time>2020-05-30T15:53:11Z</time>
      </trkpt>
      <trkpt lat="47.25799" lon="-1.62474">
        <ele>58.51</ele>
        <time>2020-05-30T15:53:13Z</time>
      </trkpt>
      <trkpt lat="47.25803" lon="-1.6246">
        <ele>58.6</ele>
        <time>2020-05-30T15:53:15Z</time>
      </trkpt>
      <trkpt lat="47.25806" lon="-1.62445">
        <ele>58.4</ele>
        <time>2020-05-30T15:53:17Z</time>
      </trkpt>
      <trkpt lat="47.25808" lon="-1.62432">
        <ele>58.45</ele>
        <time>2020-05-30T15:53:19Z</time>
      </trkpt>
      <trkpt lat="47.25809" lon="-1.62417">
        <ele>58.87</ele>
        <time>2020-05-30T15:53:21Z</time>
      </trkpt>
      <trkpt lat="47.2581" lon="-1.62401">
        <ele>59.5</ele>
        <time>2020-05-30T15:53:23Z</time>
      </trkpt>
      <trkpt lat="47.25808" lon="-1.62385">
        <ele>60.64</ele>
        <time>2020-05-30T15:53:25Z</time>
      </trkpt>
      <trkpt lat="47.25804" lon="-1.62373">
        <ele>61.36</ele>
        <time>2020-05-30T15:53:27Z</time>
      </trkpt>
      <trkpt lat="47.25798" lon="-1.62358">
        <ele>61.74</ele>
        <time>2020-05-30T15:53:29Z</time>
      </trkpt>
      <trkpt lat="47.25793" lon="-1.62343">
        <ele>61.9</ele>
        <time>2020-05-30T15:53:31Z</time>
      </trkpt>
      <trkpt lat="47.25787" lon="-1.6233">
        <ele>60.97</ele>
        <time>2020-05-30T15:53:33Z</time>
      </trkpt>
      <trkpt lat="47.25776" lon="-1.62318">
        <ele>60.06</ele>
        <time>2020-05-30T15:53:35Z</time>
      </trkpt>
      <trkpt lat="47.25766" lon="-1.62308">
        <ele>59.54</ele>
        <time>2020-05-30T15:53:37Z</time>
      </trkpt>
      <trkpt lat="47.25761" lon="-1.62295">
        <ele>59.02</ele>
        <time>2020-05-30T15:53:39Z</time>
      </trkpt>
      <trkpt lat="47.25759" lon="-1.62277">
        <ele>59.34</ele>
        <time>2020-05-30T15:53:41Z</time>
      </trkpt>
      <trkpt lat="47.25752" lon="-1.62263">
        <ele>59.71</ele>
        <time>2020-05-30T15:53:43Z</time>
      </trkpt>
      <trkpt lat="47.25746" lon="-1.62246">
        <ele>59.72</ele>
        <time>2020-05-30T15:53:45Z</time>
      </trkpt>
      <trkpt lat="47.25738" lon="-1.6223">
        <ele>59.55</ele>
        <time>2020-05-30T15:53:47Z</time>
      </trkpt>
      <trkpt lat="47.25731" lon="-1.62215">
        <ele>58.72</ele>
        <time>2020-05-30T15:53:49Z</time>
      </trkpt>
      <trkpt lat="47.25722" lon="-1.62199">
        <ele>57.4</ele>
        <time>2020-05-30T15:53:51Z</time>
      </trkpt>
      <trkpt lat="47.25714" lon="-1.62184">
        <ele>56.66</ele>
        <time>2020-05-30T15:53:53Z</time>
      </trkpt>
      <trkpt lat="47.25706" lon="-1.62168">
        <ele>56.63</ele>
        <time>2020-05-30T15:53:55Z</time>
      </trkpt>
      <trkpt lat="47.25699" lon="-1.62154">
        <ele>56.15</ele>
        <time>2020-05-30T15:53:57Z</time>
      </trkpt>
      <trkpt lat="47.25691" lon="-1.62138">
        <ele>55.47</ele>
        <time>2020-05-30T15:53:59Z</time>
      </trkpt>
      <trkpt lat="47.25683" lon="-1.62121">
        <ele>55.26</ele>
        <time>2020-05-30T15:54:01Z</time>
      </trkpt>
      <trkpt lat="47.25674" lon="-1.62102">
        <ele>54.65</ele>
        <time>2020-05-30T15:54:03Z</time>
      </trkpt>
      <trkpt lat="47.25666" lon="-1.62086">
        <ele>53.55</ele>
        <time>2020-05-30T15:54:05Z</time>
      </trkpt>
      <trkpt lat="47.25656" lon="-1.6207">
        <ele>53.05</ele>
        <time>2020-05-30T15:54:07Z</time>
      </trkpt>
      <trkpt lat="47.25648" lon="-1.62062">
        <ele>52.63</ele>
        <time>2020-05-30T15:54:08Z</time>
      </trkpt>
      <trkpt lat="47.2564" lon="-1.62054">
        <ele>52.39</ele>
        <time>2020-05-30T15:54:09Z</time>
      </trkpt>
      <trkpt lat="47.25625" lon="-1.62051">
        <ele>51.32</ele>
        <time>2020-05-30T15:54:11Z</time>
      </trkpt>
      <trkpt lat="47.25609" lon="-1.62049">
        <ele>49.96</ele>
        <time>2020-05-30T15:54:13Z</time>
      </trkpt>
      <trkpt lat="47.25594" lon="-1.62044">
        <ele>48.91</ele>
        <time>2020-05-30T15:54:15Z</time>
      </trkpt>
      <trkpt lat="47.25584" lon="-1.6203">
        <ele>48.17</ele>
        <time>2020-05-30T15:54:17Z</time>
      </trkpt>
      <trkpt lat="47.25581" lon="-1.62017">
        <ele>47.64</ele>
        <time>2020-05-30T15:54:19Z</time>
      </trkpt>
      <trkpt lat="47.25582" lon="-1.61998">
        <ele>48.54</ele>
        <time>2020-05-30T15:54:24Z</time>
      </trkpt>
      <trkpt lat="47.25583" lon="-1.61982">
        <ele>49.34</ele>
        <time>2020-05-30T15:54:26Z</time>
      </trkpt>
      <trkpt lat="47.25586" lon="-1.61964">
        <ele>49.52</ele>
        <time>2020-05-30T15:54:28Z</time>
      </trkpt>
      <trkpt lat="47.25586" lon="-1.61949">
        <ele>49.35</ele>
        <time>2020-05-30T15:54:30Z</time>
      </trkpt>
      <trkpt lat="47.25581" lon="-1.61931">
        <ele>48.73</ele>
        <time>2020-05-30T15:54:32Z</time>
      </trkpt>
      <trkpt lat="47.25574" lon="-1.61915">
        <ele>48.97</ele>
        <time>2020-05-30T15:54:34Z</time>
      </trkpt>
      <trkpt lat="47.25567" lon="-1.61902">
        <ele>48.08</ele>
        <time>2020-05-30T15:54:36Z</time>
      </trkpt>
      <trkpt lat="47.25559" lon="-1.61892">
        <ele>47.06</ele>
        <time>2020-05-30T15:54:39Z</time>
      </trkpt>
      <trkpt lat="47.25549" lon="-1.61878">
        <ele>46.16</ele>
        <time>2020-05-30T15:54:41Z</time>
      </trkpt>
      <trkpt lat="47.25541" lon="-1.61864">
        <ele>46.31</ele>
        <time>2020-05-30T15:54:43Z</time>
      </trkpt>
      <trkpt lat="47.25531" lon="-1.61848">
        <ele>46.16</ele>
        <time>2020-05-30T15:54:45Z</time>
      </trkpt>
      <trkpt lat="47.25522" lon="-1.6183">
        <ele>45.96</ele>
        <time>2020-05-30T15:54:47Z</time>
      </trkpt>
      <trkpt lat="47.25514" lon="-1.61814">
        <ele>46.06</ele>
        <time>2020-05-30T15:54:49Z</time>
      </trkpt>
      <trkpt lat="47.25505" lon="-1.61795">
        <ele>45.95</ele>
        <time>2020-05-30T15:54:51Z</time>
      </trkpt>
      <trkpt lat="47.25497" lon="-1.61777">
        <ele>45.23</ele>
        <time>2020-05-30T15:54:53Z</time>
      </trkpt>
      <trkpt lat="47.2549" lon="-1.61763">
        <ele>44.59</ele>
        <time>2020-05-30T15:54:55Z</time>
      </trkpt>
      <trkpt lat="47.25484" lon="-1.61744">
        <ele>43.43</ele>
        <time>2020-05-30T15:54:57Z</time>
      </trkpt>
      <trkpt lat="47.25478" lon="-1.61726">
        <ele>43.75</ele>
        <time>2020-05-30T15:54:59Z</time>
      </trkpt>
      <trkpt lat="47.25471" lon="-1.61707">
        <ele>43.83</ele>
        <time>2020-05-30T15:55:01Z</time>
      </trkpt>
      <trkpt lat="47.25467" lon="-1.61693">
        <ele>43.45</ele>
        <time>2020-05-30T15:55:02Z</time>
      </trkpt>
      <trkpt lat="47.2546" lon="-1.6167">
        <ele>41.9</ele>
        <time>2020-05-30T15:55:04Z</time>
      </trkpt>
      <trkpt lat="47.25456" lon="-1.61651">
        <ele>39.43</ele>
        <time>2020-05-30T15:55:06Z</time>
      </trkpt>
      <trkpt lat="47.25451" lon="-1.61634">
        <ele>37.32</ele>
        <time>2020-05-30T15:55:08Z</time>
      </trkpt>
      <trkpt lat="47.25445" lon="-1.61617">
        <ele>37.17</ele>
        <time>2020-05-30T15:55:10Z</time>
      </trkpt>
      <trkpt lat="47.2544" lon="-1.61597">
        <ele>36.9</ele>
        <time>2020-05-30T15:55:12Z</time>
      </trkpt>
      <trkpt lat="47.25436" lon="-1.61581">
        <ele>36.84</ele>
        <time>2020-05-30T15:55:14Z</time>
      </trkpt>
      <trkpt lat="47.25432" lon="-1.61565">
        <ele>36.62</ele>
        <time>2020-05-30T15:55:16Z</time>
      </trkpt>
      <trkpt lat="47.25427" lon="-1.61551">
        <ele>36.87</ele>
        <time>2020-05-30T15:55:20Z</time>
      </trkpt>
      <trkpt lat="47.2542" lon="-1.61541">
        <ele>38.39</ele>
        <time>2020-05-30T15:55:22Z</time>
      </trkpt>
      <trkpt lat="47.25414" lon="-1.6153">
        <ele>39.68</ele>
        <time>2020-05-30T15:55:24Z</time>
      </trkpt>
      <trkpt lat="47.25406" lon="-1.61516">
        <ele>41.22</ele>
        <time>2020-05-30T15:55:26Z</time>
      </trkpt>
      <trkpt lat="47.25401" lon="-1.615">
        <ele>42.39</ele>
        <time>2020-05-30T15:55:28Z</time>
      </trkpt>
      <trkpt lat="47.25409" lon="-1.61483">
        <ele>42.98</ele>
        <time>2020-05-30T15:55:30Z</time>
      </trkpt>
      <trkpt lat="47.25421" lon="-1.61473">
        <ele>42.33</ele>
        <time>2020-05-30T15:55:32Z</time>
      </trkpt>
      <trkpt lat="47.25433" lon="-1.61463">
        <ele>41.88</ele>
        <time>2020-05-30T15:55:34Z</time>
      </trkpt>
      <trkpt lat="47.25442" lon="-1.61452">
        <ele>41.56</ele>
        <time>2020-05-30T15:55:36Z</time>
      </trkpt>
      <trkpt lat="47.2545" lon="-1.61438">
        <ele>40.95</ele>
        <time>2020-05-30T15:55:38Z</time>
      </trkpt>
      <trkpt lat="47.25457" lon="-1.61425">
        <ele>41.2</ele>
        <time>2020-05-30T15:55:40Z</time>
      </trkpt>
      <trkpt lat="47.25463" lon="-1.6141">
        <ele>40.62</ele>
        <time>2020-05-30T15:55:42Z</time>
      </trkpt>
      <trkpt lat="47.2547" lon="-1.61392">
        <ele>40.09</ele>
        <time>2020-05-30T15:55:44Z</time>
      </trkpt>
      <trkpt lat="47.25477" lon="-1.61372">
        <ele>39.41</ele>
        <time>2020-05-30T15:55:46Z</time>
      </trkpt>
      <trkpt lat="47.25482" lon="-1.61354">
        <ele>39.3</ele>
        <time>2020-05-30T15:55:48Z</time>
      </trkpt>
      <trkpt lat="47.25487" lon="-1.61333">
        <ele>39.02</ele>
        <time>2020-05-30T15:55:50Z</time>
      </trkpt>
      <trkpt lat="47.25491" lon="-1.61313">
        <ele>38.37</ele>
        <time>2020-05-30T15:55:52Z</time>
      </trkpt>
      <trkpt lat="47.25495" lon="-1.61292">
        <ele>37.36</ele>
        <time>2020-05-30T15:55:54Z</time>
      </trkpt>
      <trkpt lat="47.25499" lon="-1.6127">
        <ele>35.9</ele>
        <time>2020-05-30T15:55:56Z</time>
      </trkpt>
      <trkpt lat="47.25502" lon="-1.61249">
        <ele>34.23</ele>
        <time>2020-05-30T15:55:58Z</time>
      </trkpt>
      <trkpt lat="47.25506" lon="-1.61226">
        <ele>32.77</ele>
        <time>2020-05-30T15:56:00Z</time>
      </trkpt>
      <trkpt lat="47.2551" lon="-1.61204">
        <ele>31.91</ele>
        <time>2020-05-30T15:56:02Z</time>
      </trkpt>
      <trkpt lat="47.25515" lon="-1.61188">
        <ele>32.47</ele>
        <time>2020-05-30T15:56:04Z</time>
      </trkpt>
      <trkpt lat="47.2552" lon="-1.6117">
        <ele>32.51</ele>
        <time>2020-05-30T15:56:06Z</time>
      </trkpt>
      <trkpt lat="47.25526" lon="-1.61152">
        <ele>32.23</ele>
        <time>2020-05-30T15:56:08Z</time>
      </trkpt>
      <trkpt lat="47.25534" lon="-1.61136">
        <ele>32.5</ele>
        <time>2020-05-30T15:56:10Z</time>
      </trkpt>
      <trkpt lat="47.2554" lon="-1.61121">
        <ele>33.09</ele>
        <time>2020-05-30T15:56:12Z</time>
      </trkpt>
      <trkpt lat="47.25546" lon="-1.61105">
        <ele>33.68</ele>
        <time>2020-05-30T15:56:14Z</time>
      </trkpt>
      <trkpt lat="47.25553" lon="-1.61093">
        <ele>34.86</ele>
        <time>2020-05-30T15:56:16Z</time>
      </trkpt>
      <trkpt lat="47.25561" lon="-1.61079">
        <ele>36.99</ele>
        <time>2020-05-30T15:56:18Z</time>
      </trkpt>
      <trkpt lat="47.25569" lon="-1.61062">
        <ele>38.14</ele>
        <time>2020-05-30T15:56:20Z</time>
      </trkpt>
      <trkpt lat="47.25577" lon="-1.61047">
        <ele>38.58</ele>
        <time>2020-05-30T15:56:22Z</time>
      </trkpt>
      <trkpt lat="47.25585" lon="-1.6103">
        <ele>38.83</ele>
        <time>2020-05-30T15:56:24Z</time>
      </trkpt>
      <trkpt lat="47.25592" lon="-1.61016">
        <ele>39.07</ele>
        <time>2020-05-30T15:56:26Z</time>
      </trkpt>
      <trkpt lat="47.25599" lon="-1.61">
        <ele>39.48</ele>
        <time>2020-05-30T15:56:28Z</time>
      </trkpt>
      <trkpt lat="47.25604" lon="-1.60983">
        <ele>39.86</ele>
        <time>2020-05-30T15:56:30Z</time>
      </trkpt>
      <trkpt lat="47.25611" lon="-1.60965">
        <ele>40.39</ele>
        <time>2020-05-30T15:56:32Z</time>
      </trkpt>
      <trkpt lat="47.25619" lon="-1.60948">
        <ele>41.05</ele>
        <time>2020-05-30T15:56:34Z</time>
      </trkpt>
      <trkpt lat="47.25625" lon="-1.60932">
        <ele>41.39</ele>
        <time>2020-05-30T15:56:36Z</time>
      </trkpt>
      <trkpt lat="47.25629" lon="-1.60913">
        <ele>41.99</ele>
        <time>2020-05-30T15:56:38Z</time>
      </trkpt>
      <trkpt lat="47.25631" lon="-1.60897">
        <ele>42.13</ele>
        <time>2020-05-30T15:56:40Z</time>
      </trkpt>
      <trkpt lat="47.25633" lon="-1.60879">
        <ele>41.57</ele>
        <time>2020-05-30T15:56:42Z</time>
      </trkpt>
      <trkpt lat="47.25634" lon="-1.60864">
        <ele>40.63</ele>
        <time>2020-05-30T15:56:44Z</time>
      </trkpt>
      <trkpt lat="47.25635" lon="-1.60846">
        <ele>39.71</ele>
        <time>2020-05-30T15:56:46Z</time>
      </trkpt>
      <trkpt lat="47.25634" lon="-1.6083">
        <ele>39.86</ele>
        <time>2020-05-30T15:56:48Z</time>
      </trkpt>
      <trkpt lat="47.25634" lon="-1.60809">
        <ele>39.7</ele>
        <time>2020-05-30T15:56:50Z</time>
      </trkpt>
      <trkpt lat="47.25633" lon="-1.60792">
        <ele>40.36</ele>
        <time>2020-05-30T15:56:52Z</time>
      </trkpt>
      <trkpt lat="47.25631" lon="-1.60777">
        <ele>40.87</ele>
        <time>2020-05-30T15:56:54Z</time>
      </trkpt>
      <trkpt lat="47.25628" lon="-1.60763">
        <ele>41.65</ele>
        <time>2020-05-30T15:56:56Z</time>
      </trkpt>
      <trkpt lat="47.25622" lon="-1.60746">
        <ele>41.73</ele>
        <time>2020-05-30T15:56:58Z</time>
      </trkpt>
      <trkpt lat="47.25616" lon="-1.60733">
        <ele>41.24</ele>
        <time>2020-05-30T15:57:00Z</time>
      </trkpt>
      <trkpt lat="47.25619" lon="-1.60719">
        <ele>41.63</ele>
        <time>2020-05-30T15:57:02Z</time>
      </trkpt>
      <trkpt lat="47.25625" lon="-1.60709">
        <ele>42.45</ele>
        <time>2020-05-30T15:57:04Z</time>
      </trkpt>
      <trkpt lat="47.25635" lon="-1.60698">
        <ele>42.62</ele>
        <time>2020-05-30T15:57:06Z</time>
      </trkpt>
      <trkpt lat="47.25644" lon="-1.60685">
        <ele>42.31</ele>
        <time>2020-05-30T15:57:08Z</time>
      </trkpt>
      <trkpt lat="47.25654" lon="-1.60671">
        <ele>41.4</ele>
        <time>2020-05-30T15:57:10Z</time>
      </trkpt>
      <trkpt lat="47.25663" lon="-1.60656">
        <ele>41.19</ele>
        <time>2020-05-30T15:57:12Z</time>
      </trkpt>
      <trkpt lat="47.25672" lon="-1.60643">
        <ele>40.94</ele>
        <time>2020-05-30T15:57:14Z</time>
      </trkpt>
      <trkpt lat="47.25682" lon="-1.60631">
        <ele>41.35</ele>
        <time>2020-05-30T15:57:16Z</time>
      </trkpt>
      <trkpt lat="47.25692" lon="-1.60621">
        <ele>41.16</ele>
        <time>2020-05-30T15:57:18Z</time>
      </trkpt>
      <trkpt lat="47.25702" lon="-1.60611">
        <ele>41.14</ele>
        <time>2020-05-30T15:57:20Z</time>
      </trkpt>
      <trkpt lat="47.25713" lon="-1.60601">
        <ele>42</ele>
        <time>2020-05-30T15:57:22Z</time>
      </trkpt>
      <trkpt lat="47.25724" lon="-1.60594">
        <ele>42.19</ele>
        <time>2020-05-30T15:57:24Z</time>
      </trkpt>
      <trkpt lat="47.25736" lon="-1.60586">
        <ele>42.27</ele>
        <time>2020-05-30T15:57:26Z</time>
      </trkpt>
      <trkpt lat="47.25747" lon="-1.60579">
        <ele>41.26</ele>
        <time>2020-05-30T15:57:28Z</time>
      </trkpt>
      <trkpt lat="47.25758" lon="-1.60571">
        <ele>40.05</ele>
        <time>2020-05-30T15:57:30Z</time>
      </trkpt>
      <trkpt lat="47.25769" lon="-1.60561">
        <ele>39.95</ele>
        <time>2020-05-30T15:57:32Z</time>
      </trkpt>
      <trkpt lat="47.2578" lon="-1.60547">
        <ele>39.78</ele>
        <time>2020-05-30T15:57:34Z</time>
      </trkpt>
      <trkpt lat="47.25789" lon="-1.60535">
        <ele>40.13</ele>
        <time>2020-05-30T15:57:36Z</time>
      </trkpt>
      <trkpt lat="47.25799" lon="-1.60523">
        <ele>39.92</ele>
        <time>2020-05-30T15:57:38Z</time>
      </trkpt>
      <trkpt lat="47.25811" lon="-1.60508">
        <ele>39.46</ele>
        <time>2020-05-30T15:57:40Z</time>
      </trkpt>
      <trkpt lat="47.25822" lon="-1.60492">
        <ele>40.33</ele>
        <time>2020-05-30T15:57:42Z</time>
      </trkpt>
      <trkpt lat="47.25832" lon="-1.60476">
        <ele>40.31</ele>
        <time>2020-05-30T15:57:44Z</time>
      </trkpt>
      <trkpt lat="47.25843" lon="-1.60459">
        <ele>39.5</ele>
        <time>2020-05-30T15:57:46Z</time>
      </trkpt>
      <trkpt lat="47.25855" lon="-1.60444">
        <ele>38.84</ele>
        <time>2020-05-30T15:57:48Z</time>
      </trkpt>
      <trkpt lat="47.25869" lon="-1.60429">
        <ele>37.92</ele>
        <time>2020-05-30T15:57:50Z</time>
      </trkpt>
      <trkpt lat="47.25884" lon="-1.60417">
        <ele>36.98</ele>
        <time>2020-05-30T15:57:52Z</time>
      </trkpt>
      <trkpt lat="47.25898" lon="-1.60408">
        <ele>35.5</ele>
        <time>2020-05-30T15:57:54Z</time>
      </trkpt>
      <trkpt lat="47.25911" lon="-1.604">
        <ele>34.81</ele>
        <time>2020-05-30T15:57:56Z</time>
      </trkpt>
      <trkpt lat="47.25924" lon="-1.60393">
        <ele>34.16</ele>
        <time>2020-05-30T15:57:58Z</time>
      </trkpt>
      <trkpt lat="47.25936" lon="-1.60387">
        <ele>34.53</ele>
        <time>2020-05-30T15:58:00Z</time>
      </trkpt>
      <trkpt lat="47.25948" lon="-1.60382">
        <ele>35.69</ele>
        <time>2020-05-30T15:58:02Z</time>
      </trkpt>
      <trkpt lat="47.2596" lon="-1.60377">
        <ele>36.23</ele>
        <time>2020-05-30T15:58:04Z</time>
      </trkpt>
      <trkpt lat="47.25973" lon="-1.60371">
        <ele>36.55</ele>
        <time>2020-05-30T15:58:06Z</time>
      </trkpt>
      <trkpt lat="47.25984" lon="-1.60366">
        <ele>37.07</ele>
        <time>2020-05-30T15:58:08Z</time>
      </trkpt>
      <trkpt lat="47.25997" lon="-1.6036">
        <ele>37.87</ele>
        <time>2020-05-30T15:58:10Z</time>
      </trkpt>
      <trkpt lat="47.26007" lon="-1.60349">
        <ele>38.46</ele>
        <time>2020-05-30T15:58:12Z</time>
      </trkpt>
      <trkpt lat="47.26017" lon="-1.60337">
        <ele>38.58</ele>
        <time>2020-05-30T15:58:14Z</time>
      </trkpt>
      <trkpt lat="47.26027" lon="-1.60326">
        <ele>38.44</ele>
        <time>2020-05-30T15:58:16Z</time>
      </trkpt>
      <trkpt lat="47.26034" lon="-1.60319">
        <ele>38.21</ele>
        <time>2020-05-30T15:58:18Z</time>
      </trkpt>
      <trkpt lat="47.26045" lon="-1.60306">
        <ele>37.49</ele>
        <time>2020-05-30T15:58:20Z</time>
      </trkpt>
      <trkpt lat="47.26056" lon="-1.6029">
        <ele>36.8</ele>
        <time>2020-05-30T15:58:22Z</time>
      </trkpt>
      <trkpt lat="47.26067" lon="-1.60272">
        <ele>36.45</ele>
        <time>2020-05-30T15:58:24Z</time>
      </trkpt>
      <trkpt lat="47.26079" lon="-1.60255">
        <ele>36.63</ele>
        <time>2020-05-30T15:58:26Z</time>
      </trkpt>
      <trkpt lat="47.26085" lon="-1.60245">
        <ele>36.65</ele>
        <time>2020-05-30T15:58:27Z</time>
      </trkpt>
      <trkpt lat="47.26092" lon="-1.60235">
        <ele>36.55</ele>
        <time>2020-05-30T15:58:28Z</time>
      </trkpt>
      <trkpt lat="47.26099" lon="-1.60224">
        <ele>36.3</ele>
        <time>2020-05-30T15:58:29Z</time>
      </trkpt>
      <trkpt lat="47.26106" lon="-1.60214">
        <ele>36.04</ele>
        <time>2020-05-30T15:58:30Z</time>
      </trkpt>
      <trkpt lat="47.26113" lon="-1.60203">
        <ele>35.82</ele>
        <time>2020-05-30T15:58:31Z</time>
      </trkpt>
      <trkpt lat="47.26121" lon="-1.60192">
        <ele>35.35</ele>
        <time>2020-05-30T15:58:32Z</time>
      </trkpt>
      <trkpt lat="47.26129" lon="-1.60181">
        <ele>34.67</ele>
        <time>2020-05-30T15:58:33Z</time>
      </trkpt>
      <trkpt lat="47.26137" lon="-1.6017">
        <ele>33.5</ele>
        <time>2020-05-30T15:58:34Z</time>
      </trkpt>
      <trkpt lat="47.26146" lon="-1.60159">
        <ele>32.02</ele>
        <time>2020-05-30T15:58:35Z</time>
      </trkpt>
      <trkpt lat="47.26154" lon="-1.60147">
        <ele>31</ele>
        <time>2020-05-30T15:58:36Z</time>
      </trkpt>
      <trkpt lat="47.26163" lon="-1.60136">
        <ele>29.81</ele>
        <time>2020-05-30T15:58:37Z</time>
      </trkpt>
      <trkpt lat="47.26171" lon="-1.60124">
        <ele>28.51</ele>
        <time>2020-05-30T15:58:38Z</time>
      </trkpt>
      <trkpt lat="47.2618" lon="-1.60112">
        <ele>27.4</ele>
        <time>2020-05-30T15:58:39Z</time>
      </trkpt>
      <trkpt lat="47.26189" lon="-1.601">
        <ele>26.49</ele>
        <time>2020-05-30T15:58:40Z</time>
      </trkpt>
      <trkpt lat="47.26198" lon="-1.60089">
        <ele>25.67</ele>
        <time>2020-05-30T15:58:41Z</time>
      </trkpt>
      <trkpt lat="47.26208" lon="-1.60076">
        <ele>24.91</ele>
        <time>2020-05-30T15:58:42Z</time>
      </trkpt>
      <trkpt lat="47.26217" lon="-1.60064">
        <ele>24.12</ele>
        <time>2020-05-30T15:58:43Z</time>
      </trkpt>
      <trkpt lat="47.26226" lon="-1.60053">
        <ele>23.4</ele>
        <time>2020-05-30T15:58:44Z</time>
      </trkpt>
      <trkpt lat="47.26235" lon="-1.60042">
        <ele>23.05</ele>
        <time>2020-05-30T15:58:45Z</time>
      </trkpt>
      <trkpt lat="47.26242" lon="-1.60032">
        <ele>22.91</ele>
        <time>2020-05-30T15:58:46Z</time>
      </trkpt>
      <trkpt lat="47.2625" lon="-1.60019">
        <ele>22.34</ele>
        <time>2020-05-30T15:58:47Z</time>
      </trkpt>
      <trkpt lat="47.26257" lon="-1.60007">
        <ele>21.45</ele>
        <time>2020-05-30T15:58:48Z</time>
      </trkpt>
      <trkpt lat="47.26263" lon="-1.59994">
        <ele>20.24</ele>
        <time>2020-05-30T15:58:49Z</time>
      </trkpt>
      <trkpt lat="47.26272" lon="-1.59973">
        <ele>18.36</ele>
        <time>2020-05-30T15:58:51Z</time>
      </trkpt>
      <trkpt lat="47.26271" lon="-1.59957">
        <ele>16.95</ele>
        <time>2020-05-30T15:58:53Z</time>
      </trkpt>
      <trkpt lat="47.26263" lon="-1.59944">
        <ele>15.27</ele>
        <time>2020-05-30T15:58:55Z</time>
      </trkpt>
      <trkpt lat="47.26257" lon="-1.59929">
        <ele>13.78</ele>
        <time>2020-05-30T15:58:58Z</time>
      </trkpt>
      <trkpt lat="47.26254" lon="-1.59911">
        <ele>12.04</ele>
        <time>2020-05-30T15:58:59Z</time>
      </trkpt>
      <trkpt lat="47.26254" lon="-1.5989">
        <ele>11.06</ele>
        <time>2020-05-30T15:59:01Z</time>
      </trkpt>
      <trkpt lat="47.26255" lon="-1.5987">
        <ele>10.49</ele>
        <time>2020-05-30T15:59:03Z</time>
      </trkpt>
      <trkpt lat="47.26256" lon="-1.59853">
        <ele>10.1</ele>
        <time>2020-05-30T15:59:06Z</time>
      </trkpt>
      <trkpt lat="47.26256" lon="-1.59835">
        <ele>9.41</ele>
        <time>2020-05-30T15:59:08Z</time>
      </trkpt>
      <trkpt lat="47.26259" lon="-1.59817">
        <ele>9.21</ele>
        <time>2020-05-30T15:59:11Z</time>
      </trkpt>
      <trkpt lat="47.26253" lon="-1.59806">
        <ele>9.06</ele>
        <time>2020-05-30T15:59:15Z</time>
      </trkpt>
      <trkpt lat="47.26247" lon="-1.5979">
        <ele>9.02</ele>
        <time>2020-05-30T15:59:19Z</time>
      </trkpt>
      <trkpt lat="47.26242" lon="-1.59779">
        <ele>9.14</ele>
        <time>2020-05-30T15:59:21Z</time>
      </trkpt>
      <trkpt lat="47.26234" lon="-1.59769">
        <ele>9.42</ele>
        <time>2020-05-30T15:59:23Z</time>
      </trkpt>
      <trkpt lat="47.26226" lon="-1.59757">
        <ele>8.71</ele>
        <time>2020-05-30T15:59:25Z</time>
      </trkpt>
      <trkpt lat="47.26217" lon="-1.59744">
        <ele>8.35</ele>
        <time>2020-05-30T15:59:27Z</time>
      </trkpt>
      <trkpt lat="47.26205" lon="-1.59731">
        <ele>9.01</ele>
        <time>2020-05-30T15:59:29Z</time>
      </trkpt>
      <trkpt lat="47.26195" lon="-1.59723">
        <ele>10.35</ele>
        <time>2020-05-30T15:59:31Z</time>
      </trkpt>
      <trkpt lat="47.26183" lon="-1.5972">
        <ele>10.85</ele>
        <time>2020-05-30T15:59:33Z</time>
      </trkpt>
      <trkpt lat="47.26171" lon="-1.59719">
        <ele>10.68</ele>
        <time>2020-05-30T15:59:35Z</time>
      </trkpt>
      <trkpt lat="47.26159" lon="-1.59717">
        <ele>10.62</ele>
        <time>2020-05-30T15:59:37Z</time>
      </trkpt>
      <trkpt lat="47.26146" lon="-1.59714">
        <ele>10.22</ele>
        <time>2020-05-30T15:59:39Z</time>
      </trkpt>
      <trkpt lat="47.26134" lon="-1.59712">
        <ele>9.89</ele>
        <time>2020-05-30T15:59:41Z</time>
      </trkpt>
      <trkpt lat="47.26121" lon="-1.59708">
        <ele>9.5</ele>
        <time>2020-05-30T15:59:43Z</time>
      </trkpt>
      <trkpt lat="47.26107" lon="-1.59705">
        <ele>9.36</ele>
        <time>2020-05-30T15:59:45Z</time>
      </trkpt>
      <trkpt lat="47.26096" lon="-1.59703">
        <ele>9.57</ele>
        <time>2020-05-30T15:59:47Z</time>
      </trkpt>
      <trkpt lat="47.26082" lon="-1.597">
        <ele>10.58</ele>
        <time>2020-05-30T15:59:49Z</time>
      </trkpt>
      <trkpt lat="47.26069" lon="-1.59694">
        <ele>10.78</ele>
        <time>2020-05-30T15:59:51Z</time>
      </trkpt>
      <trkpt lat="47.26057" lon="-1.59685">
        <ele>11.53</ele>
        <time>2020-05-30T15:59:53Z</time>
      </trkpt>
      <trkpt lat="47.26047" lon="-1.59676">
        <ele>11.71</ele>
        <time>2020-05-30T15:59:55Z</time>
      </trkpt>
      <trkpt lat="47.26037" lon="-1.59667">
        <ele>11.5</ele>
        <time>2020-05-30T15:59:57Z</time>
      </trkpt>
      <trkpt lat="47.26026" lon="-1.59658">
        <ele>10.7</ele>
        <time>2020-05-30T15:59:59Z</time>
      </trkpt>
      <trkpt lat="47.26016" lon="-1.5965">
        <ele>9.77</ele>
        <time>2020-05-30T16:00:01Z</time>
      </trkpt>
      <trkpt lat="47.26005" lon="-1.59639">
        <ele>8.83</ele>
        <time>2020-05-30T16:00:03Z</time>
      </trkpt>
      <trkpt lat="47.25996" lon="-1.59625">
        <ele>7.99</ele>
        <time>2020-05-30T16:00:05Z</time>
      </trkpt>
      <trkpt lat="47.25988" lon="-1.59612">
        <ele>7.65</ele>
        <time>2020-05-30T16:00:07Z</time>
      </trkpt>
      <trkpt lat="47.25981" lon="-1.59597">
        <ele>7.04</ele>
        <time>2020-05-30T16:00:09Z</time>
      </trkpt>
      <trkpt lat="47.25975" lon="-1.5958">
        <ele>6.07</ele>
        <time>2020-05-30T16:00:11Z</time>
      </trkpt>
      <trkpt lat="47.25971" lon="-1.59563">
        <ele>5.01</ele>
        <time>2020-05-30T16:00:13Z</time>
      </trkpt>
      <trkpt lat="47.2597" lon="-1.59544">
        <ele>4.86</ele>
        <time>2020-05-30T16:00:15Z</time>
      </trkpt>
      <trkpt lat="47.25974" lon="-1.59528">
        <ele>4.56</ele>
        <time>2020-05-30T16:00:17Z</time>
      </trkpt>
      <trkpt lat="47.25979" lon="-1.59514">
        <ele>5.08</ele>
        <time>2020-05-30T16:00:19Z</time>
      </trkpt>
      <trkpt lat="47.2598" lon="-1.59499">
        <ele>5.27</ele>
        <time>2020-05-30T16:00:21Z</time>
      </trkpt>
      <trkpt lat="47.25978" lon="-1.59486">
        <ele>4.83</ele>
        <time>2020-05-30T16:00:23Z</time>
      </trkpt>
      <trkpt lat="47.25973" lon="-1.59467">
        <ele>4.93</ele>
        <time>2020-05-30T16:00:26Z</time>
      </trkpt>
      <trkpt lat="47.25969" lon="-1.59449">
        <ele>5.91</ele>
        <time>2020-05-30T16:00:29Z</time>
      </trkpt>
      <trkpt lat="47.25972" lon="-1.59434">
        <ele>6.13</ele>
        <time>2020-05-30T16:00:32Z</time>
      </trkpt>
      <trkpt lat="47.2598" lon="-1.59423">
        <ele>7.25</ele>
        <time>2020-05-30T16:00:34Z</time>
      </trkpt>
      <trkpt lat="47.25989" lon="-1.59411">
        <ele>8.67</ele>
        <time>2020-05-30T16:00:36Z</time>
      </trkpt>
      <trkpt lat="47.25998" lon="-1.59396">
        <ele>9.11</ele>
        <time>2020-05-30T16:00:38Z</time>
      </trkpt>
      <trkpt lat="47.26004" lon="-1.59385">
        <ele>8.77</ele>
        <time>2020-05-30T16:00:40Z</time>
      </trkpt>
      <trkpt lat="47.2601" lon="-1.59371">
        <ele>8.11</ele>
        <time>2020-05-30T16:00:42Z</time>
      </trkpt>
      <trkpt lat="47.26016" lon="-1.59358">
        <ele>7.61</ele>
        <time>2020-05-30T16:00:44Z</time>
      </trkpt>
      <trkpt lat="47.26023" lon="-1.59342">
        <ele>7.03</ele>
        <time>2020-05-30T16:00:46Z</time>
      </trkpt>
      <trkpt lat="47.26029" lon="-1.59327">
        <ele>6.58</ele>
        <time>2020-05-30T16:00:48Z</time>
      </trkpt>
      <trkpt lat="47.2603" lon="-1.59309">
        <ele>6.17</ele>
        <time>2020-05-30T16:00:51Z</time>
      </trkpt>
      <trkpt lat="47.26027" lon="-1.59293">
        <ele>5.72</ele>
        <time>2020-05-30T16:00:53Z</time>
      </trkpt>
      <trkpt lat="47.26022" lon="-1.59277">
        <ele>4.87</ele>
        <time>2020-05-30T16:00:55Z</time>
      </trkpt>
      <trkpt lat="47.26019" lon="-1.59261">
        <ele>4.09</ele>
        <time>2020-05-30T16:00:57Z</time>
      </trkpt>
      <trkpt lat="47.26016" lon="-1.59245">
        <ele>4.3</ele>
        <time>2020-05-30T16:00:59Z</time>
      </trkpt>
      <trkpt lat="47.26012" lon="-1.59231">
        <ele>4.47</ele>
        <time>2020-05-30T16:01:01Z</time>
      </trkpt>
      <trkpt lat="47.26003" lon="-1.59219">
        <ele>4.66</ele>
        <time>2020-05-30T16:01:03Z</time>
      </trkpt>
      <trkpt lat="47.25994" lon="-1.59216">
        <ele>5.48</ele>
        <time>2020-05-30T16:01:05Z</time>
      </trkpt>
      <trkpt lat="47.25982" lon="-1.5921">
        <ele>6.81</ele>
        <time>2020-05-30T16:01:08Z</time>
      </trkpt>
      <trkpt lat="47.25971" lon="-1.59207">
        <ele>6.29</ele>
        <time>2020-05-30T16:01:10Z</time>
      </trkpt>
      <trkpt lat="47.25962" lon="-1.59202">
        <ele>5.57</ele>
        <time>2020-05-30T16:01:12Z</time>
      </trkpt>
      <trkpt lat="47.25952" lon="-1.592">
        <ele>4.81</ele>
        <time>2020-05-30T16:01:14Z</time>
      </trkpt>
      <trkpt lat="47.2594" lon="-1.59198">
        <ele>4.37</ele>
        <time>2020-05-30T16:01:16Z</time>
      </trkpt>
      <trkpt lat="47.25929" lon="-1.592">
        <ele>4.67</ele>
        <time>2020-05-30T16:01:18Z</time>
      </trkpt>
      <trkpt lat="47.2592" lon="-1.59209">
        <ele>4.64</ele>
        <time>2020-05-30T16:01:20Z</time>
      </trkpt>
      <trkpt lat="47.25913" lon="-1.59222">
        <ele>5.13</ele>
        <time>2020-05-30T16:01:22Z</time>
      </trkpt>
      <trkpt lat="47.25906" lon="-1.59236">
        <ele>6.02</ele>
        <time>2020-05-30T16:01:24Z</time>
      </trkpt>
      <trkpt lat="47.259" lon="-1.59249">
        <ele>6.92</ele>
        <time>2020-05-30T16:01:26Z</time>
      </trkpt>
      <trkpt lat="47.25892" lon="-1.5926">
        <ele>7.33</ele>
        <time>2020-05-30T16:01:28Z</time>
      </trkpt>
      <trkpt lat="47.25883" lon="-1.59268">
        <ele>8.03</ele>
        <time>2020-05-30T16:01:30Z</time>
      </trkpt>
      <trkpt lat="47.25873" lon="-1.59271">
        <ele>8.39</ele>
        <time>2020-05-30T16:01:32Z</time>
      </trkpt>
      <trkpt lat="47.25862" lon="-1.59273">
        <ele>8.33</ele>
        <time>2020-05-30T16:01:34Z</time>
      </trkpt>
      <trkpt lat="47.25851" lon="-1.59268">
        <ele>7.88</ele>
        <time>2020-05-30T16:01:37Z</time>
      </trkpt>
      <trkpt lat="47.25843" lon="-1.59259">
        <ele>7.53</ele>
        <time>2020-05-30T16:01:39Z</time>
      </trkpt>
      <trkpt lat="47.25833" lon="-1.59249">
        <ele>7.57</ele>
        <time>2020-05-30T16:01:41Z</time>
      </trkpt>
      <trkpt lat="47.25824" lon="-1.59241">
        <ele>7.52</ele>
        <time>2020-05-30T16:01:43Z</time>
      </trkpt>
      <trkpt lat="47.25815" lon="-1.59229">
        <ele>8.51</ele>
        <time>2020-05-30T16:01:45Z</time>
      </trkpt>
      <trkpt lat="47.25806" lon="-1.59217">
        <ele>9.43</ele>
        <time>2020-05-30T16:01:47Z</time>
      </trkpt>
      <trkpt lat="47.25797" lon="-1.59205">
        <ele>9.1</ele>
        <time>2020-05-30T16:01:49Z</time>
      </trkpt>
      <trkpt lat="47.25788" lon="-1.59193">
        <ele>8.27</ele>
        <time>2020-05-30T16:01:51Z</time>
      </trkpt>
      <trkpt lat="47.25778" lon="-1.59179">
        <ele>7.46</ele>
        <time>2020-05-30T16:01:53Z</time>
      </trkpt>
      <trkpt lat="47.2577" lon="-1.59167">
        <ele>7.03</ele>
        <time>2020-05-30T16:01:55Z</time>
      </trkpt>
      <trkpt lat="47.25759" lon="-1.59155">
        <ele>6.52</ele>
        <time>2020-05-30T16:01:58Z</time>
      </trkpt>
      <trkpt lat="47.25751" lon="-1.59146">
        <ele>5.76</ele>
        <time>2020-05-30T16:02:00Z</time>
      </trkpt>
      <trkpt lat="47.25741" lon="-1.59134">
        <ele>5.75</ele>
        <time>2020-05-30T16:02:03Z</time>
      </trkpt>
      <trkpt lat="47.25732" lon="-1.59125">
        <ele>5.87</ele>
        <time>2020-05-30T16:02:06Z</time>
      </trkpt>
      <trkpt lat="47.25725" lon="-1.59114">
        <ele>6.24</ele>
        <time>2020-05-30T16:02:10Z</time>
      </trkpt>
      <trkpt lat="47.25729" lon="-1.591">
        <ele>6.81</ele>
        <time>2020-05-30T16:02:14Z</time>
      </trkpt>
      <trkpt lat="47.25729" lon="-1.59085">
        <ele>6.97</ele>
        <time>2020-05-30T16:02:17Z</time>
      </trkpt>
      <trkpt lat="47.25725" lon="-1.59069">
        <ele>6.99</ele>
        <time>2020-05-30T16:02:20Z</time>
      </trkpt>
      <trkpt lat="47.25713" lon="-1.59066">
        <ele>7.08</ele>
        <time>2020-05-30T16:02:24Z</time>
      </trkpt>
      <trkpt lat="47.25702" lon="-1.59058">
        <ele>7.25</ele>
        <time>2020-05-30T16:02:27Z</time>
      </trkpt>
      <trkpt lat="47.25691" lon="-1.59049">
        <ele>7.51</ele>
        <time>2020-05-30T16:02:30Z</time>
      </trkpt>
      <trkpt lat="47.25682" lon="-1.59037">
        <ele>9.76</ele>
        <time>2020-05-30T16:02:33Z</time>
      </trkpt>
      <trkpt lat="47.25674" lon="-1.59021">
        <ele>11.32</ele>
        <time>2020-05-30T16:02:36Z</time>
      </trkpt>
      <trkpt lat="47.25669" lon="-1.59003">
        <ele>13.22</ele>
        <time>2020-05-30T16:02:39Z</time>
      </trkpt>
      <trkpt lat="47.25665" lon="-1.58989">
        <ele>13.75</ele>
        <time>2020-05-30T16:02:41Z</time>
      </trkpt>
      <trkpt lat="47.25661" lon="-1.58972">
        <ele>13.6</ele>
        <time>2020-05-30T16:02:44Z</time>
      </trkpt>
      <trkpt lat="47.25656" lon="-1.58958">
        <ele>12.15</ele>
        <time>2020-05-30T16:02:46Z</time>
      </trkpt>
      <trkpt lat="47.25647" lon="-1.58944">
        <ele>11.48</ele>
        <time>2020-05-30T16:02:49Z</time>
      </trkpt>
      <trkpt lat="47.25641" lon="-1.58932">
        <ele>11.53</ele>
        <time>2020-05-30T16:02:52Z</time>
      </trkpt>
      <trkpt lat="47.2565" lon="-1.58917">
        <ele>10.87</ele>
        <time>2020-05-30T16:02:56Z</time>
      </trkpt>
      <trkpt lat="47.25657" lon="-1.58909">
        <ele>10.51</ele>
        <time>2020-05-30T16:02:59Z</time>
      </trkpt>
      <trkpt lat="47.25668" lon="-1.58903">
        <ele>10.25</ele>
        <time>2020-05-30T16:03:03Z</time>
      </trkpt>
      <trkpt lat="47.2567" lon="-1.58886">
        <ele>10.35</ele>
        <time>2020-05-30T16:03:06Z</time>
      </trkpt>
      <trkpt lat="47.25661" lon="-1.58874">
        <ele>9.72</ele>
        <time>2020-05-30T16:03:09Z</time>
      </trkpt>
      <trkpt lat="47.25652" lon="-1.58859">
        <ele>9.92</ele>
        <time>2020-05-30T16:03:12Z</time>
      </trkpt>
      <trkpt lat="47.25647" lon="-1.58848">
        <ele>9.97</ele>
        <time>2020-05-30T16:03:14Z</time>
      </trkpt>
      <trkpt lat="47.2564" lon="-1.58837">
        <ele>10.52</ele>
        <time>2020-05-30T16:03:17Z</time>
      </trkpt>
      <trkpt lat="47.25632" lon="-1.58822">
        <ele>10.93</ele>
        <time>2020-05-30T16:03:20Z</time>
      </trkpt>
      <trkpt lat="47.25623" lon="-1.58815">
        <ele>10.99</ele>
        <time>2020-05-30T16:03:23Z</time>
      </trkpt>
      <trkpt lat="47.25616" lon="-1.58826">
        <ele>11.12</ele>
        <time>2020-05-30T16:03:27Z</time>
      </trkpt>
      <trkpt lat="47.25607" lon="-1.58828">
        <ele>11.19</ele>
        <time>2020-05-30T16:03:29Z</time>
      </trkpt>
      <trkpt lat="47.25598" lon="-1.58827">
        <ele>10.97</ele>
        <time>2020-05-30T16:03:31Z</time>
      </trkpt>
      <trkpt lat="47.25586" lon="-1.58823">
        <ele>9.94</ele>
        <time>2020-05-30T16:03:34Z</time>
      </trkpt>
      <trkpt lat="47.25575" lon="-1.58825">
        <ele>9.57</ele>
        <time>2020-05-30T16:03:37Z</time>
      </trkpt>
      <trkpt lat="47.25563" lon="-1.58827">
        <ele>9.29</ele>
        <time>2020-05-30T16:03:40Z</time>
      </trkpt>
      <trkpt lat="47.25555" lon="-1.58836">
        <ele>9.24</ele>
        <time>2020-05-30T16:03:43Z</time>
      </trkpt>
      <trkpt lat="47.25552" lon="-1.58851">
        <ele>9.37</ele>
        <time>2020-05-30T16:03:47Z</time>
      </trkpt>
      <trkpt lat="47.25545" lon="-1.58867">
        <ele>11.25</ele>
        <time>2020-05-30T16:03:50Z</time>
      </trkpt>
      <trkpt lat="47.25541" lon="-1.58881">
        <ele>12.11</ele>
        <time>2020-05-30T16:03:52Z</time>
      </trkpt>
      <trkpt lat="47.25538" lon="-1.58898">
        <ele>11.66</ele>
        <time>2020-05-30T16:03:54Z</time>
      </trkpt>
      <trkpt lat="47.25535" lon="-1.58914">
        <ele>11.15</ele>
        <time>2020-05-30T16:03:56Z</time>
      </trkpt>
      <trkpt lat="47.25532" lon="-1.58933">
        <ele>10.72</ele>
        <time>2020-05-30T16:03:58Z</time>
      </trkpt>
      <trkpt lat="47.2553" lon="-1.58949">
        <ele>8.78</ele>
        <time>2020-05-30T16:04:00Z</time>
      </trkpt>
      <trkpt lat="47.25529" lon="-1.58964">
        <ele>6.6</ele>
        <time>2020-05-30T16:04:02Z</time>
      </trkpt>
      <trkpt lat="47.25526" lon="-1.58979">
        <ele>5.71</ele>
        <time>2020-05-30T16:04:04Z</time>
      </trkpt>
      <trkpt lat="47.25524" lon="-1.58992">
        <ele>5.62</ele>
        <time>2020-05-30T16:04:06Z</time>
      </trkpt>
      <trkpt lat="47.25513" lon="-1.59003">
        <ele>5.21</ele>
        <time>2020-05-30T16:04:09Z</time>
      </trkpt>
      <trkpt lat="47.25504" lon="-1.59007">
        <ele>5.66</ele>
        <time>2020-05-30T16:04:11Z</time>
      </trkpt>
      <trkpt lat="47.25495" lon="-1.59013">
        <ele>6.05</ele>
        <time>2020-05-30T16:04:13Z</time>
      </trkpt>
      <trkpt lat="47.25484" lon="-1.59018">
        <ele>6.6</ele>
        <time>2020-05-30T16:04:15Z</time>
      </trkpt>
      <trkpt lat="47.25474" lon="-1.59025">
        <ele>6.63</ele>
        <time>2020-05-30T16:04:17Z</time>
      </trkpt>
      <trkpt lat="47.25466" lon="-1.59036">
        <ele>5.73</ele>
        <time>2020-05-30T16:04:19Z</time>
      </trkpt>
      <trkpt lat="47.25458" lon="-1.59046">
        <ele>5.42</ele>
        <time>2020-05-30T16:04:21Z</time>
      </trkpt>
      <trkpt lat="47.2545" lon="-1.59057">
        <ele>5.8</ele>
        <time>2020-05-30T16:04:23Z</time>
      </trkpt>
      <trkpt lat="47.25443" lon="-1.59066">
        <ele>7.11</ele>
        <time>2020-05-30T16:04:25Z</time>
      </trkpt>
      <trkpt lat="47.2543" lon="-1.59074">
        <ele>8.87</ele>
        <time>2020-05-30T16:04:28Z</time>
      </trkpt>
      <trkpt lat="47.25421" lon="-1.59075">
        <ele>9.53</ele>
        <time>2020-05-30T16:04:30Z</time>
      </trkpt>
      <trkpt lat="47.25412" lon="-1.59074">
        <ele>10.31</ele>
        <time>2020-05-30T16:04:32Z</time>
      </trkpt>
      <trkpt lat="47.25402" lon="-1.59073">
        <ele>10.86</ele>
        <time>2020-05-30T16:04:34Z</time>
      </trkpt>
      <trkpt lat="47.25392" lon="-1.59069">
        <ele>12.8</ele>
        <time>2020-05-30T16:04:36Z</time>
      </trkpt>
      <trkpt lat="47.25382" lon="-1.59067">
        <ele>14.77</ele>
        <time>2020-05-30T16:04:38Z</time>
      </trkpt>
      <trkpt lat="47.2537" lon="-1.59062">
        <ele>16.02</ele>
        <time>2020-05-30T16:04:41Z</time>
      </trkpt>
      <trkpt lat="47.25361" lon="-1.59054">
        <ele>16.22</ele>
        <time>2020-05-30T16:04:44Z</time>
      </trkpt>
      <trkpt lat="47.25352" lon="-1.5904">
        <ele>16.12</ele>
        <time>2020-05-30T16:04:48Z</time>
      </trkpt>
      <trkpt lat="47.25345" lon="-1.59027">
        <ele>15.1</ele>
        <time>2020-05-30T16:04:50Z</time>
      </trkpt>
      <trkpt lat="47.25337" lon="-1.59014">
        <ele>13.85</ele>
        <time>2020-05-30T16:04:52Z</time>
      </trkpt>
      <trkpt lat="47.25329" lon="-1.59004">
        <ele>13.64</ele>
        <time>2020-05-30T16:04:54Z</time>
      </trkpt>
      <trkpt lat="47.25319" lon="-1.58994">
        <ele>13.12</ele>
        <time>2020-05-30T16:04:56Z</time>
      </trkpt>
      <trkpt lat="47.25309" lon="-1.58982">
        <ele>12.3</ele>
        <time>2020-05-30T16:04:58Z</time>
      </trkpt>
      <trkpt lat="47.25301" lon="-1.58971">
        <ele>11.83</ele>
        <time>2020-05-30T16:05:00Z</time>
      </trkpt>
      <trkpt lat="47.25292" lon="-1.58962">
        <ele>11.32</ele>
        <time>2020-05-30T16:05:02Z</time>
      </trkpt>
      <trkpt lat="47.25282" lon="-1.58952">
        <ele>10.31</ele>
        <time>2020-05-30T16:05:04Z</time>
      </trkpt>
      <trkpt lat="47.25274" lon="-1.58943">
        <ele>10.09</ele>
        <time>2020-05-30T16:05:06Z</time>
      </trkpt>
      <trkpt lat="47.25266" lon="-1.5893">
        <ele>10.01</ele>
        <time>2020-05-30T16:05:08Z</time>
      </trkpt>
      <trkpt lat="47.25258" lon="-1.58921">
        <ele>10.43</ele>
        <time>2020-05-30T16:05:10Z</time>
      </trkpt>
      <trkpt lat="47.2525" lon="-1.58912">
        <ele>11.39</ele>
        <time>2020-05-30T16:05:12Z</time>
      </trkpt>
      <trkpt lat="47.25242" lon="-1.58904">
        <ele>12.41</ele>
        <time>2020-05-30T16:05:14Z</time>
      </trkpt>
      <trkpt lat="47.25232" lon="-1.58894">
        <ele>13.56</ele>
        <time>2020-05-30T16:05:17Z</time>
      </trkpt>
      <trkpt lat="47.25224" lon="-1.58884">
        <ele>14.94</ele>
        <time>2020-05-30T16:05:20Z</time>
      </trkpt>
      <trkpt lat="47.25231" lon="-1.58866">
        <ele>14.83</ele>
        <time>2020-05-30T16:05:23Z</time>
      </trkpt>
      <trkpt lat="47.25241" lon="-1.58853">
        <ele>14.07</ele>
        <time>2020-05-30T16:05:25Z</time>
      </trkpt>
      <trkpt lat="47.2525" lon="-1.58835">
        <ele>12.14</ele>
        <time>2020-05-30T16:05:27Z</time>
      </trkpt>
      <trkpt lat="47.25258" lon="-1.58825">
        <ele>10.78</ele>
        <time>2020-05-30T16:05:29Z</time>
      </trkpt>
      <trkpt lat="47.2527" lon="-1.58831">
        <ele>8.81</ele>
        <time>2020-05-30T16:05:32Z</time>
      </trkpt>
      <trkpt lat="47.2528" lon="-1.58838">
        <ele>7.4</ele>
        <time>2020-05-30T16:05:34Z</time>
      </trkpt>
      <trkpt lat="47.25291" lon="-1.58841">
        <ele>6.97</ele>
        <time>2020-05-30T16:05:37Z</time>
      </trkpt>
      <trkpt lat="47.25301" lon="-1.58839">
        <ele>6.67</ele>
        <time>2020-05-30T16:05:40Z</time>
      </trkpt>
      <trkpt lat="47.253" lon="-1.58824">
        <ele>6.66</ele>
        <time>2020-05-30T16:05:47Z</time>
      </trkpt>
      <trkpt lat="47.25294" lon="-1.58813">
        <ele>6.89</ele>
        <time>2020-05-30T16:05:50Z</time>
      </trkpt>
      <trkpt lat="47.25292" lon="-1.58794">
        <ele>8.7</ele>
        <time>2020-05-30T16:05:53Z</time>
      </trkpt>
      <trkpt lat="47.25293" lon="-1.5878">
        <ele>10.28</ele>
        <time>2020-05-30T16:05:55Z</time>
      </trkpt>
      <trkpt lat="47.25293" lon="-1.58765">
        <ele>9.99</ele>
        <time>2020-05-30T16:05:57Z</time>
      </trkpt>
      <trkpt lat="47.25296" lon="-1.58749">
        <ele>9.93</ele>
        <time>2020-05-30T16:05:59Z</time>
      </trkpt>
      <trkpt lat="47.25303" lon="-1.58734">
        <ele>9.9</ele>
        <time>2020-05-30T16:06:01Z</time>
      </trkpt>
      <trkpt lat="47.25309" lon="-1.58718">
        <ele>9.01</ele>
        <time>2020-05-30T16:06:03Z</time>
      </trkpt>
      <trkpt lat="47.25314" lon="-1.58703">
        <ele>8.31</ele>
        <time>2020-05-30T16:06:05Z</time>
      </trkpt>
      <trkpt lat="47.25318" lon="-1.58687">
        <ele>7.34</ele>
        <time>2020-05-30T16:06:07Z</time>
      </trkpt>
      <trkpt lat="47.25321" lon="-1.58672">
        <ele>6.45</ele>
        <time>2020-05-30T16:06:09Z</time>
      </trkpt>
      <trkpt lat="47.25323" lon="-1.58659">
        <ele>6.66</ele>
        <time>2020-05-30T16:06:11Z</time>
      </trkpt>
      <trkpt lat="47.25325" lon="-1.58641">
        <ele>6.41</ele>
        <time>2020-05-30T16:06:13Z</time>
      </trkpt>
      <trkpt lat="47.25326" lon="-1.58627">
        <ele>6.38</ele>
        <time>2020-05-30T16:06:15Z</time>
      </trkpt>
      <trkpt lat="47.25328" lon="-1.58613">
        <ele>6.06</ele>
        <time>2020-05-30T16:06:17Z</time>
      </trkpt>
      <trkpt lat="47.25327" lon="-1.58598">
        <ele>5.96</ele>
        <time>2020-05-30T16:06:19Z</time>
      </trkpt>
      <trkpt lat="47.25319" lon="-1.58583">
        <ele>5.95</ele>
        <time>2020-05-30T16:06:21Z</time>
      </trkpt>
      <trkpt lat="47.25308" lon="-1.58575">
        <ele>6.05</ele>
        <time>2020-05-30T16:06:23Z</time>
      </trkpt>
      <trkpt lat="47.25298" lon="-1.58569">
        <ele>6.06</ele>
        <time>2020-05-30T16:06:25Z</time>
      </trkpt>
      <trkpt lat="47.25286" lon="-1.58563">
        <ele>5.13</ele>
        <time>2020-05-30T16:06:27Z</time>
      </trkpt>
      <trkpt lat="47.25275" lon="-1.58559">
        <ele>4.18</ele>
        <time>2020-05-30T16:06:29Z</time>
      </trkpt>
      <trkpt lat="47.25264" lon="-1.58554">
        <ele>4.42</ele>
        <time>2020-05-30T16:06:31Z</time>
      </trkpt>
      <trkpt lat="47.25253" lon="-1.58552">
        <ele>5.12</ele>
        <time>2020-05-30T16:06:33Z</time>
      </trkpt>
      <trkpt lat="47.25242" lon="-1.58549">
        <ele>5.32</ele>
        <time>2020-05-30T16:06:35Z</time>
      </trkpt>
      <trkpt lat="47.25228" lon="-1.58549">
        <ele>5.82</ele>
        <time>2020-05-30T16:06:38Z</time>
      </trkpt>
      <trkpt lat="47.25218" lon="-1.58553">
        <ele>7.05</ele>
        <time>2020-05-30T16:06:40Z</time>
      </trkpt>
      <trkpt lat="47.25205" lon="-1.58555">
        <ele>8.71</ele>
        <time>2020-05-30T16:06:42Z</time>
      </trkpt>
      <trkpt lat="47.25194" lon="-1.58555">
        <ele>9</ele>
        <time>2020-05-30T16:06:44Z</time>
      </trkpt>
      <trkpt lat="47.25184" lon="-1.58553">
        <ele>8.49</ele>
        <time>2020-05-30T16:06:46Z</time>
      </trkpt>
      <trkpt lat="47.25176" lon="-1.58544">
        <ele>8.6</ele>
        <time>2020-05-30T16:06:48Z</time>
      </trkpt>
      <trkpt lat="47.25165" lon="-1.58532">
        <ele>9.33</ele>
        <time>2020-05-30T16:06:50Z</time>
      </trkpt>
      <trkpt lat="47.25155" lon="-1.58524">
        <ele>9.03</ele>
        <time>2020-05-30T16:06:52Z</time>
      </trkpt>
      <trkpt lat="47.25146" lon="-1.58516">
        <ele>9</ele>
        <time>2020-05-30T16:06:55Z</time>
      </trkpt>
      <trkpt lat="47.25134" lon="-1.58507">
        <ele>9.64</ele>
        <time>2020-05-30T16:06:58Z</time>
      </trkpt>
      <trkpt lat="47.25122" lon="-1.58496">
        <ele>11.05</ele>
        <time>2020-05-30T16:07:00Z</time>
      </trkpt>
      <trkpt lat="47.25116" lon="-1.58483">
        <ele>11.17</ele>
        <time>2020-05-30T16:07:02Z</time>
      </trkpt>
      <trkpt lat="47.2511" lon="-1.58469">
        <ele>10.07</ele>
        <time>2020-05-30T16:07:04Z</time>
      </trkpt>
      <trkpt lat="47.25105" lon="-1.58456">
        <ele>8.63</ele>
        <time>2020-05-30T16:07:06Z</time>
      </trkpt>
      <trkpt lat="47.251" lon="-1.58442">
        <ele>7.73</ele>
        <time>2020-05-30T16:07:09Z</time>
      </trkpt>
      <trkpt lat="47.25097" lon="-1.58426">
        <ele>7.65</ele>
        <time>2020-05-30T16:07:14Z</time>
      </trkpt>
      <trkpt lat="47.25094" lon="-1.58413">
        <ele>7.81</ele>
        <time>2020-05-30T16:07:18Z</time>
      </trkpt>
      <trkpt lat="47.2509" lon="-1.58402">
        <ele>7.74</ele>
        <time>2020-05-30T16:07:22Z</time>
      </trkpt>
      <trkpt lat="47.25089" lon="-1.58387">
        <ele>7.45</ele>
        <time>2020-05-30T16:07:25Z</time>
      </trkpt>
      <trkpt lat="47.2509" lon="-1.58367">
        <ele>6.16</ele>
        <time>2020-05-30T16:07:28Z</time>
      </trkpt>
      <trkpt lat="47.25092" lon="-1.5835">
        <ele>6.13</ele>
        <time>2020-05-30T16:07:30Z</time>
      </trkpt>
      <trkpt lat="47.25095" lon="-1.58332">
        <ele>6.01</ele>
        <time>2020-05-30T16:07:32Z</time>
      </trkpt>
      <trkpt lat="47.25099" lon="-1.58316">
        <ele>6.25</ele>
        <time>2020-05-30T16:07:34Z</time>
      </trkpt>
      <trkpt lat="47.251" lon="-1.58302">
        <ele>6.56</ele>
        <time>2020-05-30T16:07:36Z</time>
      </trkpt>
      <trkpt lat="47.25102" lon="-1.58279">
        <ele>6.3</ele>
        <time>2020-05-30T16:07:38Z</time>
      </trkpt>
      <trkpt lat="47.25104" lon="-1.5826">
        <ele>6.27</ele>
        <time>2020-05-30T16:07:40Z</time>
      </trkpt>
      <trkpt lat="47.25104" lon="-1.58241">
        <ele>6.48</ele>
        <time>2020-05-30T16:07:42Z</time>
      </trkpt>
      <trkpt lat="47.25104" lon="-1.58226">
        <ele>6.73</ele>
        <time>2020-05-30T16:07:44Z</time>
      </trkpt>
      <trkpt lat="47.25102" lon="-1.58208">
        <ele>6.3</ele>
        <time>2020-05-30T16:07:46Z</time>
      </trkpt>
      <trkpt lat="47.25096" lon="-1.5819">
        <ele>4.85</ele>
        <time>2020-05-30T16:07:49Z</time>
      </trkpt>
      <trkpt lat="47.2509" lon="-1.58171">
        <ele>5.09</ele>
        <time>2020-05-30T16:07:51Z</time>
      </trkpt>
      <trkpt lat="47.25086" lon="-1.58157">
        <ele>5.67</ele>
        <time>2020-05-30T16:07:53Z</time>
      </trkpt>
      <trkpt lat="47.25083" lon="-1.5814">
        <ele>5.23</ele>
        <time>2020-05-30T16:07:55Z</time>
      </trkpt>
      <trkpt lat="47.2508" lon="-1.58122">
        <ele>4.28</ele>
        <time>2020-05-30T16:07:57Z</time>
      </trkpt>
      <trkpt lat="47.25083" lon="-1.58106">
        <ele>2.71</ele>
        <time>2020-05-30T16:07:59Z</time>
      </trkpt>
      <trkpt lat="47.25084" lon="-1.58088">
        <ele>1.49</ele>
        <time>2020-05-30T16:08:01Z</time>
      </trkpt>
      <trkpt lat="47.25082" lon="-1.58072">
        <ele>1.08</ele>
        <time>2020-05-30T16:08:03Z</time>
      </trkpt>
      <trkpt lat="47.25077" lon="-1.58057">
        <ele>1.23</ele>
        <time>2020-05-30T16:08:05Z</time>
      </trkpt>
      <trkpt lat="47.25071" lon="-1.58045">
        <ele>2</ele>
        <time>2020-05-30T16:08:07Z</time>
      </trkpt>
      <trkpt lat="47.25062" lon="-1.58033">
        <ele>2.23</ele>
        <time>2020-05-30T16:08:09Z</time>
      </trkpt>
      <trkpt lat="47.2505" lon="-1.58027">
        <ele>3.76</ele>
        <time>2020-05-30T16:08:11Z</time>
      </trkpt>
      <trkpt lat="47.25038" lon="-1.58022">
        <ele>5.65</ele>
        <time>2020-05-30T16:08:13Z</time>
      </trkpt>
      <trkpt lat="47.25027" lon="-1.58016">
        <ele>7.09</ele>
        <time>2020-05-30T16:08:15Z</time>
      </trkpt>
      <trkpt lat="47.25017" lon="-1.58007">
        <ele>8.43</ele>
        <time>2020-05-30T16:08:17Z</time>
      </trkpt>
      <trkpt lat="47.25008" lon="-1.57999">
        <ele>9.02</ele>
        <time>2020-05-30T16:08:19Z</time>
      </trkpt>
      <trkpt lat="47.25" lon="-1.57988">
        <ele>8.29</ele>
        <time>2020-05-30T16:08:21Z</time>
      </trkpt>
      <trkpt lat="47.24992" lon="-1.57974">
        <ele>8.69</ele>
        <time>2020-05-30T16:08:22Z</time>
      </trkpt>
      <trkpt lat="47.24985" lon="-1.57961">
        <ele>8.37</ele>
        <time>2020-05-30T16:08:24Z</time>
      </trkpt>
      <trkpt lat="47.24977" lon="-1.57949">
        <ele>7.89</ele>
        <time>2020-05-30T16:08:26Z</time>
      </trkpt>
      <trkpt lat="47.24969" lon="-1.57938">
        <ele>7.57</ele>
        <time>2020-05-30T16:08:28Z</time>
      </trkpt>
      <trkpt lat="47.24962" lon="-1.57927">
        <ele>7.85</ele>
        <time>2020-05-30T16:08:30Z</time>
      </trkpt>
      <trkpt lat="47.24958" lon="-1.57911">
        <ele>8.33</ele>
        <time>2020-05-30T16:08:32Z</time>
      </trkpt>
      <trkpt lat="47.24953" lon="-1.57898">
        <ele>7.07</ele>
        <time>2020-05-30T16:08:34Z</time>
      </trkpt>
      <trkpt lat="47.24946" lon="-1.57886">
        <ele>5.74</ele>
        <time>2020-05-30T16:08:36Z</time>
      </trkpt>
      <trkpt lat="47.24934" lon="-1.57878">
        <ele>5.79</ele>
        <time>2020-05-30T16:08:39Z</time>
      </trkpt>
      <trkpt lat="47.24926" lon="-1.57889">
        <ele>6.72</ele>
        <time>2020-05-30T16:08:42Z</time>
      </trkpt>
      <trkpt lat="47.24917" lon="-1.57902">
        <ele>7</ele>
        <time>2020-05-30T16:08:45Z</time>
      </trkpt>
      <trkpt lat="47.24909" lon="-1.5791">
        <ele>6.76</ele>
        <time>2020-05-30T16:08:47Z</time>
      </trkpt>
      <trkpt lat="47.24901" lon="-1.5792">
        <ele>6.58</ele>
        <time>2020-05-30T16:08:50Z</time>
      </trkpt>
      <trkpt lat="47.2489" lon="-1.57922">
        <ele>6.06</ele>
        <time>2020-05-30T16:08:58Z</time>
      </trkpt>
      <trkpt lat="47.2488" lon="-1.57919">
        <ele>5.58</ele>
        <time>2020-05-30T16:09:00Z</time>
      </trkpt>
      <trkpt lat="47.24874" lon="-1.57903">
        <ele>4.75</ele>
        <time>2020-05-30T16:09:02Z</time>
      </trkpt>
      <trkpt lat="47.24865" lon="-1.57885">
        <ele>4.57</ele>
        <time>2020-05-30T16:09:04Z</time>
      </trkpt>
      <trkpt lat="47.24856" lon="-1.57871">
        <ele>4.94</ele>
        <time>2020-05-30T16:09:06Z</time>
      </trkpt>
      <trkpt lat="47.24847" lon="-1.57858">
        <ele>4.84</ele>
        <time>2020-05-30T16:09:08Z</time>
      </trkpt>
      <trkpt lat="47.24837" lon="-1.57846">
        <ele>4.32</ele>
        <time>2020-05-30T16:09:10Z</time>
      </trkpt>
      <trkpt lat="47.24829" lon="-1.57835">
        <ele>3.9</ele>
        <time>2020-05-30T16:09:12Z</time>
      </trkpt>
      <trkpt lat="47.2482" lon="-1.57824">
        <ele>3.44</ele>
        <time>2020-05-30T16:09:14Z</time>
      </trkpt>
      <trkpt lat="47.24812" lon="-1.57814">
        <ele>3.32</ele>
        <time>2020-05-30T16:09:16Z</time>
      </trkpt>
      <trkpt lat="47.24803" lon="-1.57804">
        <ele>3.51</ele>
        <time>2020-05-30T16:09:18Z</time>
      </trkpt>
      <trkpt lat="47.24795" lon="-1.57793">
        <ele>3.48</ele>
        <time>2020-05-30T16:09:20Z</time>
      </trkpt>
      <trkpt lat="47.24787" lon="-1.57784">
        <ele>3.77</ele>
        <time>2020-05-30T16:09:22Z</time>
      </trkpt>
      <trkpt lat="47.2478" lon="-1.57775">
        <ele>3.52</ele>
        <time>2020-05-30T16:09:24Z</time>
      </trkpt>
      <trkpt lat="47.24772" lon="-1.57762">
        <ele>3.37</ele>
        <time>2020-05-30T16:09:27Z</time>
      </trkpt>
      <trkpt lat="47.24767" lon="-1.5775">
        <ele>3.28</ele>
        <time>2020-05-30T16:09:29Z</time>
      </trkpt>
      <trkpt lat="47.24764" lon="-1.57733">
        <ele>3.54</ele>
        <time>2020-05-30T16:09:31Z</time>
      </trkpt>
      <trkpt lat="47.24764" lon="-1.57718">
        <ele>4.35</ele>
        <time>2020-05-30T16:09:33Z</time>
      </trkpt>
      <trkpt lat="47.24762" lon="-1.57699">
        <ele>5.41</ele>
        <time>2020-05-30T16:09:35Z</time>
      </trkpt>
      <trkpt lat="47.24762" lon="-1.57684">
        <ele>5.93</ele>
        <time>2020-05-30T16:09:37Z</time>
      </trkpt>
      <trkpt lat="47.24761" lon="-1.57669">
        <ele>6.71</ele>
        <time>2020-05-30T16:09:39Z</time>
      </trkpt>
      <trkpt lat="47.2476" lon="-1.57652">
        <ele>6.76</ele>
        <time>2020-05-30T16:09:41Z</time>
      </trkpt>
      <trkpt lat="47.24758" lon="-1.57636">
        <ele>6.23</ele>
        <time>2020-05-30T16:09:43Z</time>
      </trkpt>
      <trkpt lat="47.24753" lon="-1.57621">
        <ele>5.27</ele>
        <time>2020-05-30T16:09:45Z</time>
      </trkpt>
      <trkpt lat="47.24747" lon="-1.57606">
        <ele>4.52</ele>
        <time>2020-05-30T16:09:47Z</time>
      </trkpt>
      <trkpt lat="47.24741" lon="-1.57592">
        <ele>3.4</ele>
        <time>2020-05-30T16:09:49Z</time>
      </trkpt>
      <trkpt lat="47.24735" lon="-1.57581">
        <ele>4.11</ele>
        <time>2020-05-30T16:09:51Z</time>
      </trkpt>
      <trkpt lat="47.24729" lon="-1.57568">
        <ele>4.93</ele>
        <time>2020-05-30T16:09:53Z</time>
      </trkpt>
      <trkpt lat="47.24721" lon="-1.5756">
        <ele>6.31</ele>
        <time>2020-05-30T16:09:55Z</time>
      </trkpt>
      <trkpt lat="47.24709" lon="-1.57557">
        <ele>6.74</ele>
        <time>2020-05-30T16:09:58Z</time>
      </trkpt>
      <trkpt lat="47.247" lon="-1.57559">
        <ele>8.07</ele>
        <time>2020-05-30T16:10:00Z</time>
      </trkpt>
      <trkpt lat="47.24687" lon="-1.57555">
        <ele>9.43</ele>
        <time>2020-05-30T16:10:02Z</time>
      </trkpt>
      <trkpt lat="47.24672" lon="-1.57552">
        <ele>10.54</ele>
        <time>2020-05-30T16:10:04Z</time>
      </trkpt>
      <trkpt lat="47.24658" lon="-1.57547">
        <ele>10.36</ele>
        <time>2020-05-30T16:10:06Z</time>
      </trkpt>
      <trkpt lat="47.24646" lon="-1.57544">
        <ele>10.08</ele>
        <time>2020-05-30T16:10:08Z</time>
      </trkpt>
      <trkpt lat="47.24635" lon="-1.57537">
        <ele>9.83</ele>
        <time>2020-05-30T16:10:10Z</time>
      </trkpt>
      <trkpt lat="47.24626" lon="-1.57528">
        <ele>9.83</ele>
        <time>2020-05-30T16:10:12Z</time>
      </trkpt>
      <trkpt lat="47.24617" lon="-1.57518">
        <ele>9.65</ele>
        <time>2020-05-30T16:10:14Z</time>
      </trkpt>
      <trkpt lat="47.24608" lon="-1.5751">
        <ele>9.65</ele>
        <time>2020-05-30T16:10:17Z</time>
      </trkpt>
      <trkpt lat="47.24596" lon="-1.57503">
        <ele>9.93</ele>
        <time>2020-05-30T16:10:21Z</time>
      </trkpt>
      <trkpt lat="47.24587" lon="-1.57496">
        <ele>9.79</ele>
        <time>2020-05-30T16:10:23Z</time>
      </trkpt>
      <trkpt lat="47.24577" lon="-1.5748">
        <ele>10.4</ele>
        <time>2020-05-30T16:10:25Z</time>
      </trkpt>
      <trkpt lat="47.24569" lon="-1.57466">
        <ele>10.81</ele>
        <time>2020-05-30T16:10:27Z</time>
      </trkpt>
      <trkpt lat="47.24561" lon="-1.57451">
        <ele>11</ele>
        <time>2020-05-30T16:10:29Z</time>
      </trkpt>
      <trkpt lat="47.24555" lon="-1.57433">
        <ele>9.89</ele>
        <time>2020-05-30T16:10:31Z</time>
      </trkpt>
      <trkpt lat="47.2455" lon="-1.57416">
        <ele>9.38</ele>
        <time>2020-05-30T16:10:33Z</time>
      </trkpt>
      <trkpt lat="47.24545" lon="-1.57398">
        <ele>7.66</ele>
        <time>2020-05-30T16:10:35Z</time>
      </trkpt>
      <trkpt lat="47.24543" lon="-1.5738">
        <ele>5.57</ele>
        <time>2020-05-30T16:10:37Z</time>
      </trkpt>
      <trkpt lat="47.24541" lon="-1.57364">
        <ele>4.43</ele>
        <time>2020-05-30T16:10:39Z</time>
      </trkpt>
      <trkpt lat="47.24537" lon="-1.57347">
        <ele>3.13</ele>
        <time>2020-05-30T16:10:41Z</time>
      </trkpt>
      <trkpt lat="47.24534" lon="-1.57328">
        <ele>2.05</ele>
        <time>2020-05-30T16:10:43Z</time>
      </trkpt>
      <trkpt lat="47.24531" lon="-1.57314">
        <ele>1.05</ele>
        <time>2020-05-30T16:10:45Z</time>
      </trkpt>
      <trkpt lat="47.24529" lon="-1.57301">
        <ele>0.61</ele>
        <time>2020-05-30T16:10:47Z</time>
      </trkpt>
      <trkpt lat="47.24531" lon="-1.57286">
        <ele>0.54</ele>
        <time>2020-05-30T16:10:50Z</time>
      </trkpt>
      <trkpt lat="47.24534" lon="-1.57272">
        <ele>0.58</ele>
        <time>2020-05-30T16:10:53Z</time>
      </trkpt>
      <trkpt lat="47.24536" lon="-1.57257">
        <ele>0.63</ele>
        <time>2020-05-30T16:10:56Z</time>
      </trkpt>
      <trkpt lat="47.24541" lon="-1.57242">
        <ele>0.91</ele>
        <time>2020-05-30T16:11:00Z</time>
      </trkpt>
      <trkpt lat="47.24545" lon="-1.57226">
        <ele>1.44</ele>
        <time>2020-05-30T16:11:05Z</time>
      </trkpt>
      <trkpt lat="47.24548" lon="-1.57212">
        <ele>1.95</ele>
        <time>2020-05-30T16:11:09Z</time>
      </trkpt>
      <trkpt lat="47.24549" lon="-1.57198">
        <ele>2.36</ele>
        <time>2020-05-30T16:11:12Z</time>
      </trkpt>
      <trkpt lat="47.2455" lon="-1.57177">
        <ele>3.99</ele>
        <time>2020-05-30T16:11:14Z</time>
      </trkpt>
      <trkpt lat="47.24547" lon="-1.5716">
        <ele>4.98</ele>
        <time>2020-05-30T16:11:16Z</time>
      </trkpt>
      <trkpt lat="47.24548" lon="-1.5714">
        <ele>5.79</ele>
        <time>2020-05-30T16:11:18Z</time>
      </trkpt>
      <trkpt lat="47.24546" lon="-1.57122">
        <ele>5.86</ele>
        <time>2020-05-30T16:11:20Z</time>
      </trkpt>
      <trkpt lat="47.24542" lon="-1.57106">
        <ele>5.35</ele>
        <time>2020-05-30T16:11:22Z</time>
      </trkpt>
      <trkpt lat="47.24541" lon="-1.5709">
        <ele>3.77</ele>
        <time>2020-05-30T16:11:24Z</time>
      </trkpt>
      <trkpt lat="47.24539" lon="-1.57074">
        <ele>2.3</ele>
        <time>2020-05-30T16:11:26Z</time>
      </trkpt>
      <trkpt lat="47.24537" lon="-1.57055">
        <ele>1.95</ele>
        <time>2020-05-30T16:11:28Z</time>
      </trkpt>
      <trkpt lat="47.24532" lon="-1.5704">
        <ele>1.93</ele>
        <time>2020-05-30T16:11:30Z</time>
      </trkpt>
      <trkpt lat="47.24524" lon="-1.57029">
        <ele>2.71</ele>
        <time>2020-05-30T16:11:32Z</time>
      </trkpt>
      <trkpt lat="47.24517" lon="-1.5702">
        <ele>4.04</ele>
        <time>2020-05-30T16:11:34Z</time>
      </trkpt>
      <trkpt lat="47.2451" lon="-1.57012">
        <ele>4.68</ele>
        <time>2020-05-30T16:11:36Z</time>
      </trkpt>
      <trkpt lat="47.24501" lon="-1.57006">
        <ele>5.01</ele>
        <time>2020-05-30T16:11:38Z</time>
      </trkpt>
      <trkpt lat="47.24489" lon="-1.57002">
        <ele>5.92</ele>
        <time>2020-05-30T16:11:41Z</time>
      </trkpt>
      <trkpt lat="47.24479" lon="-1.56992">
        <ele>7.16</ele>
        <time>2020-05-30T16:11:44Z</time>
      </trkpt>
      <trkpt lat="47.2447" lon="-1.5698">
        <ele>7.82</ele>
        <time>2020-05-30T16:11:46Z</time>
      </trkpt>
      <trkpt lat="47.2446" lon="-1.56969">
        <ele>8.37</ele>
        <time>2020-05-30T16:11:48Z</time>
      </trkpt>
      <trkpt lat="47.24451" lon="-1.56963">
        <ele>8.25</ele>
        <time>2020-05-30T16:11:50Z</time>
      </trkpt>
      <trkpt lat="47.24444" lon="-1.56954">
        <ele>8.14</ele>
        <time>2020-05-30T16:11:52Z</time>
      </trkpt>
      <trkpt lat="47.24438" lon="-1.56942">
        <ele>7.43</ele>
        <time>2020-05-30T16:11:54Z</time>
      </trkpt>
      <trkpt lat="47.24433" lon="-1.56932">
        <ele>6.8</ele>
        <time>2020-05-30T16:11:56Z</time>
      </trkpt>
      <trkpt lat="47.24428" lon="-1.56921">
        <ele>6.49</ele>
        <time>2020-05-30T16:11:58Z</time>
      </trkpt>
      <trkpt lat="47.24418" lon="-1.56907">
        <ele>6.38</ele>
        <time>2020-05-30T16:12:01Z</time>
      </trkpt>
      <trkpt lat="47.24409" lon="-1.56893">
        <ele>6.09</ele>
        <time>2020-05-30T16:12:04Z</time>
      </trkpt>
      <trkpt lat="47.24406" lon="-1.56878">
        <ele>5.33</ele>
        <time>2020-05-30T16:12:06Z</time>
      </trkpt>
      <trkpt lat="47.24403" lon="-1.56864">
        <ele>5.45</ele>
        <time>2020-05-30T16:12:08Z</time>
      </trkpt>
      <trkpt lat="47.24399" lon="-1.56851">
        <ele>5.96</ele>
        <time>2020-05-30T16:12:10Z</time>
      </trkpt>
      <trkpt lat="47.24394" lon="-1.5684">
        <ele>5.61</ele>
        <time>2020-05-30T16:12:12Z</time>
      </trkpt>
      <trkpt lat="47.24387" lon="-1.56825">
        <ele>5.6</ele>
        <time>2020-05-30T16:12:14Z</time>
      </trkpt>
      <trkpt lat="47.24382" lon="-1.56814">
        <ele>5.72</ele>
        <time>2020-05-30T16:12:16Z</time>
      </trkpt>
      <trkpt lat="47.2438" lon="-1.56798">
        <ele>5.54</ele>
        <time>2020-05-30T16:12:19Z</time>
      </trkpt>
      <trkpt lat="47.24384" lon="-1.56785">
        <ele>5.7</ele>
        <time>2020-05-30T16:12:21Z</time>
      </trkpt>
      <trkpt lat="47.2439" lon="-1.56772">
        <ele>6.92</ele>
        <time>2020-05-30T16:12:23Z</time>
      </trkpt>
      <trkpt lat="47.24392" lon="-1.56758">
        <ele>8.61</ele>
        <time>2020-05-30T16:12:25Z</time>
      </trkpt>
      <trkpt lat="47.24393" lon="-1.56742">
        <ele>9.58</ele>
        <time>2020-05-30T16:12:27Z</time>
      </trkpt>
      <trkpt lat="47.24392" lon="-1.56727">
        <ele>10.45</ele>
        <time>2020-05-30T16:12:29Z</time>
      </trkpt>
      <trkpt lat="47.24389" lon="-1.56712">
        <ele>10.46</ele>
        <time>2020-05-30T16:12:31Z</time>
      </trkpt>
      <trkpt lat="47.24387" lon="-1.56694">
        <ele>10.02</ele>
        <time>2020-05-30T16:12:33Z</time>
      </trkpt>
      <trkpt lat="47.24385" lon="-1.56677">
        <ele>9.37</ele>
        <time>2020-05-30T16:12:35Z</time>
      </trkpt>
      <trkpt lat="47.24382" lon="-1.5666">
        <ele>9.52</ele>
        <time>2020-05-30T16:12:37Z</time>
      </trkpt>
      <trkpt lat="47.2438" lon="-1.56643">
        <ele>9.07</ele>
        <time>2020-05-30T16:12:39Z</time>
      </trkpt>
      <trkpt lat="47.24377" lon="-1.56627">
        <ele>8.5</ele>
        <time>2020-05-30T16:12:41Z</time>
      </trkpt>
      <trkpt lat="47.24374" lon="-1.56611">
        <ele>8.48</ele>
        <time>2020-05-30T16:12:43Z</time>
      </trkpt>
      <trkpt lat="47.24373" lon="-1.56594">
        <ele>7.86</ele>
        <time>2020-05-30T16:12:45Z</time>
      </trkpt>
      <trkpt lat="47.24374" lon="-1.56576">
        <ele>6.36</ele>
        <time>2020-05-30T16:12:47Z</time>
      </trkpt>
      <trkpt lat="47.24376" lon="-1.56557">
        <ele>5.25</ele>
        <time>2020-05-30T16:12:49Z</time>
      </trkpt>
      <trkpt lat="47.24378" lon="-1.56541">
        <ele>4.81</ele>
        <time>2020-05-30T16:12:51Z</time>
      </trkpt>
      <trkpt lat="47.24383" lon="-1.56526">
        <ele>5.19</ele>
        <time>2020-05-30T16:12:54Z</time>
      </trkpt>
      <trkpt lat="47.2439" lon="-1.56511">
        <ele>5.25</ele>
        <time>2020-05-30T16:12:56Z</time>
      </trkpt>
      <trkpt lat="47.24397" lon="-1.56499">
        <ele>5.13</ele>
        <time>2020-05-30T16:12:58Z</time>
      </trkpt>
      <trkpt lat="47.24406" lon="-1.5649">
        <ele>5.39</ele>
        <time>2020-05-30T16:13:00Z</time>
      </trkpt>
      <trkpt lat="47.24414" lon="-1.56482">
        <ele>5.57</ele>
        <time>2020-05-30T16:13:02Z</time>
      </trkpt>
      <trkpt lat="47.24406" lon="-1.56492">
        <ele>5.57</ele>
        <time>2020-05-30T16:13:10Z</time>
      </trkpt>
      <trkpt lat="47.24396" lon="-1.56507">
        <ele>5.41</ele>
        <time>2020-05-30T16:13:13Z</time>
      </trkpt>
      <trkpt lat="47.24384" lon="-1.56512">
        <ele>5.65</ele>
        <time>2020-05-30T16:13:15Z</time>
      </trkpt>
      <trkpt lat="47.24374" lon="-1.56514">
        <ele>6.46</ele>
        <time>2020-05-30T16:13:17Z</time>
      </trkpt>
      <trkpt lat="47.24363" lon="-1.56513">
        <ele>6.82</ele>
        <time>2020-05-30T16:13:20Z</time>
      </trkpt>
      <trkpt lat="47.24364" lon="-1.56496">
        <ele>6.84</ele>
        <time>2020-05-30T16:13:25Z</time>
      </trkpt>
      <trkpt lat="47.24363" lon="-1.56483">
        <ele>7.07</ele>
        <time>2020-05-30T16:13:28Z</time>
      </trkpt>
      <trkpt lat="47.24364" lon="-1.56465">
        <ele>6.98</ele>
        <time>2020-05-30T16:13:32Z</time>
      </trkpt>
      <trkpt lat="47.24365" lon="-1.56449">
        <ele>6.73</ele>
        <time>2020-05-30T16:13:36Z</time>
      </trkpt>
      <trkpt lat="47.24372" lon="-1.56437">
        <ele>6.73</ele>
        <time>2020-05-30T16:13:40Z</time>
      </trkpt>
      <trkpt lat="47.24373" lon="-1.56423">
        <ele>6.41</ele>
        <time>2020-05-30T16:13:44Z</time>
      </trkpt>
      <trkpt lat="47.24369" lon="-1.56407">
        <ele>6.25</ele>
        <time>2020-05-30T16:13:47Z</time>
      </trkpt>
      <trkpt lat="47.24369" lon="-1.56391">
        <ele>6.16</ele>
        <time>2020-05-30T16:13:49Z</time>
      </trkpt>
      <trkpt lat="47.24368" lon="-1.56375">
        <ele>6.11</ele>
        <time>2020-05-30T16:13:51Z</time>
      </trkpt>
      <trkpt lat="47.24366" lon="-1.56359">
        <ele>5.82</ele>
        <time>2020-05-30T16:13:53Z</time>
      </trkpt>
      <trkpt lat="47.2437" lon="-1.5634">
        <ele>6.81</ele>
        <time>2020-05-30T16:13:56Z</time>
      </trkpt>
      <trkpt lat="47.24374" lon="-1.56326">
        <ele>7.09</ele>
        <time>2020-05-30T16:13:58Z</time>
      </trkpt>
      <trkpt lat="47.24377" lon="-1.56311">
        <ele>7.2</ele>
        <time>2020-05-30T16:14:00Z</time>
      </trkpt>
      <trkpt lat="47.2438" lon="-1.56294">
        <ele>6.36</ele>
        <time>2020-05-30T16:14:03Z</time>
      </trkpt>
      <trkpt lat="47.24383" lon="-1.56276">
        <ele>6.66</ele>
        <time>2020-05-30T16:14:05Z</time>
      </trkpt>
      <trkpt lat="47.24384" lon="-1.56258">
        <ele>6.52</ele>
        <time>2020-05-30T16:14:07Z</time>
      </trkpt>
      <trkpt lat="47.24382" lon="-1.56242">
        <ele>4.62</ele>
        <time>2020-05-30T16:14:09Z</time>
      </trkpt>
      <trkpt lat="47.24376" lon="-1.56225">
        <ele>2.62</ele>
        <time>2020-05-30T16:14:12Z</time>
      </trkpt>
      <trkpt lat="47.24368" lon="-1.56213">
        <ele>1.94</ele>
        <time>2020-05-30T16:14:14Z</time>
      </trkpt>
      <trkpt lat="47.2436" lon="-1.56204">
        <ele>0.92</ele>
        <time>2020-05-30T16:14:16Z</time>
      </trkpt>
      <trkpt lat="47.24352" lon="-1.56195">
        <ele>0.75</ele>
        <time>2020-05-30T16:14:20Z</time>
      </trkpt>
      <trkpt lat="47.24343" lon="-1.56187">
        <ele>0.98</ele>
        <time>2020-05-30T16:14:28Z</time>
      </trkpt>
      <trkpt lat="47.24336" lon="-1.56175">
        <ele>0.98</ele>
        <time>2020-05-30T16:14:30Z</time>
      </trkpt>
      <trkpt lat="47.2433" lon="-1.56163">
        <ele>0.32</ele>
        <time>2020-05-30T16:14:32Z</time>
      </trkpt>
      <trkpt lat="47.24323" lon="-1.56152">
        <ele>-0.53</ele>
        <time>2020-05-30T16:14:34Z</time>
      </trkpt>
      <trkpt lat="47.24316" lon="-1.56144">
        <ele>-1.04</ele>
        <time>2020-05-30T16:14:36Z</time>
      </trkpt>
      <trkpt lat="47.24308" lon="-1.56134">
        <ele>-0.84</ele>
        <time>2020-05-30T16:14:38Z</time>
      </trkpt>
      <trkpt lat="47.24299" lon="-1.56123">
        <ele>-0.25</ele>
        <time>2020-05-30T16:14:40Z</time>
      </trkpt>
      <trkpt lat="47.24291" lon="-1.56114">
        <ele>1.32</ele>
        <time>2020-05-30T16:14:42Z</time>
      </trkpt>
      <trkpt lat="47.24284" lon="-1.56104">
        <ele>2.35</ele>
        <time>2020-05-30T16:14:44Z</time>
      </trkpt>
      <trkpt lat="47.24278" lon="-1.56091">
        <ele>2.74</ele>
        <time>2020-05-30T16:14:46Z</time>
      </trkpt>
      <trkpt lat="47.24272" lon="-1.56079">
        <ele>2.76</ele>
        <time>2020-05-30T16:14:48Z</time>
      </trkpt>
      <trkpt lat="47.24266" lon="-1.56061">
        <ele>2.51</ele>
        <time>2020-05-30T16:14:51Z</time>
      </trkpt>
      <trkpt lat="47.24271" lon="-1.5605">
        <ele>2.12</ele>
        <time>2020-05-30T16:14:55Z</time>
      </trkpt>
      <trkpt lat="47.24279" lon="-1.56042">
        <ele>1.89</ele>
        <time>2020-05-30T16:14:58Z</time>
      </trkpt>
      <trkpt lat="47.24275" lon="-1.56029">
        <ele>1.91</ele>
        <time>2020-05-30T16:15:00Z</time>
      </trkpt>
      <trkpt lat="47.24271" lon="-1.56016">
        <ele>1.93</ele>
        <time>2020-05-30T16:15:02Z</time>
      </trkpt>
      <trkpt lat="47.24266" lon="-1.56003">
        <ele>2.06</ele>
        <time>2020-05-30T16:15:04Z</time>
      </trkpt>
      <trkpt lat="47.24261" lon="-1.55991">
        <ele>2.67</ele>
        <time>2020-05-30T16:15:06Z</time>
      </trkpt>
      <trkpt lat="47.24257" lon="-1.55978">
        <ele>2.4</ele>
        <time>2020-05-30T16:15:08Z</time>
      </trkpt>
      <trkpt lat="47.24252" lon="-1.55959">
        <ele>1.36</ele>
        <time>2020-05-30T16:15:11Z</time>
      </trkpt>
      <trkpt lat="47.2425" lon="-1.55946">
        <ele>0.91</ele>
        <time>2020-05-30T16:15:13Z</time>
      </trkpt>
      <trkpt lat="47.24248" lon="-1.55927">
        <ele>0.77</ele>
        <time>2020-05-30T16:15:16Z</time>
      </trkpt>
      <trkpt lat="47.24246" lon="-1.55911">
        <ele>0.76</ele>
        <time>2020-05-30T16:15:19Z</time>
      </trkpt>
      <trkpt lat="47.24248" lon="-1.55898">
        <ele>0.66</ele>
        <time>2020-05-30T16:15:23Z</time>
      </trkpt>
      <trkpt lat="47.24247" lon="-1.55883">
        <ele>0.67</ele>
        <time>2020-05-30T16:15:27Z</time>
      </trkpt>
      <trkpt lat="47.24246" lon="-1.55868">
        <ele>-0.57</ele>
        <time>2020-05-30T16:15:29Z</time>
      </trkpt>
      <trkpt lat="47.24241" lon="-1.55853">
        <ele>-1.75</ele>
        <time>2020-05-30T16:15:31Z</time>
      </trkpt>
      <trkpt lat="47.24239" lon="-1.55836">
        <ele>-2.56</ele>
        <time>2020-05-30T16:15:33Z</time>
      </trkpt>
      <trkpt lat="47.24238" lon="-1.55822">
        <ele>-2.76</ele>
        <time>2020-05-30T16:15:35Z</time>
      </trkpt>
      <trkpt lat="47.24236" lon="-1.55804">
        <ele>-2.22</ele>
        <time>2020-05-30T16:15:38Z</time>
      </trkpt>
      <trkpt lat="47.24236" lon="-1.5579">
        <ele>-1.02</ele>
        <time>2020-05-30T16:15:40Z</time>
      </trkpt>
      <trkpt lat="47.24238" lon="-1.55772">
        <ele>0.92</ele>
        <time>2020-05-30T16:15:43Z</time>
      </trkpt>
      <trkpt lat="47.24236" lon="-1.55758">
        <ele>0.79</ele>
        <time>2020-05-30T16:15:45Z</time>
      </trkpt>
      <trkpt lat="47.24232" lon="-1.55742">
        <ele>0.54</ele>
        <time>2020-05-30T16:15:47Z</time>
      </trkpt>
      <trkpt lat="47.24229" lon="-1.55728">
        <ele>0.58</ele>
        <time>2020-05-30T16:15:49Z</time>
      </trkpt>
      <trkpt lat="47.24231" lon="-1.55714">
        <ele>0.51</ele>
        <time>2020-05-30T16:15:52Z</time>
      </trkpt>
      <trkpt lat="47.24233" lon="-1.55698">
        <ele>1.62</ele>
        <time>2020-05-30T16:15:55Z</time>
      </trkpt>
      <trkpt lat="47.2423" lon="-1.55681">
        <ele>2.22</ele>
        <time>2020-05-30T16:15:58Z</time>
      </trkpt>
      <trkpt lat="47.24228" lon="-1.55665">
        <ele>2.48</ele>
        <time>2020-05-30T16:16:01Z</time>
      </trkpt>
      <trkpt lat="47.24224" lon="-1.55652">
        <ele>2.67</ele>
        <time>2020-05-30T16:16:04Z</time>
      </trkpt>
      <trkpt lat="47.24227" lon="-1.55639">
        <ele>2.87</ele>
        <time>2020-05-30T16:16:09Z</time>
      </trkpt>
      <trkpt lat="47.24236" lon="-1.55637">
        <ele>4.13</ele>
        <time>2020-05-30T16:16:11Z</time>
      </trkpt>
      <trkpt lat="47.2425" lon="-1.55635">
        <ele>4.82</ele>
        <time>2020-05-30T16:16:13Z</time>
      </trkpt>
      <trkpt lat="47.24263" lon="-1.55634">
        <ele>4.71</ele>
        <time>2020-05-30T16:16:15Z</time>
      </trkpt>
      <trkpt lat="47.24274" lon="-1.55634">
        <ele>5.14</ele>
        <time>2020-05-30T16:16:17Z</time>
      </trkpt>
      <trkpt lat="47.24285" lon="-1.55631">
        <ele>5.52</ele>
        <time>2020-05-30T16:16:19Z</time>
      </trkpt>
      <trkpt lat="47.24296" lon="-1.55625">
        <ele>5.94</ele>
        <time>2020-05-30T16:16:21Z</time>
      </trkpt>
      <trkpt lat="47.24309" lon="-1.55616">
        <ele>4.93</ele>
        <time>2020-05-30T16:16:23Z</time>
      </trkpt>
      <trkpt lat="47.2432" lon="-1.55605">
        <ele>4.38</ele>
        <time>2020-05-30T16:16:25Z</time>
      </trkpt>
      <trkpt lat="47.24327" lon="-1.55593">
        <ele>3.37</ele>
        <time>2020-05-30T16:16:27Z</time>
      </trkpt>
      <trkpt lat="47.24329" lon="-1.55575">
        <ele>2.67</ele>
        <time>2020-05-30T16:16:30Z</time>
      </trkpt>
      <trkpt lat="47.24328" lon="-1.55557">
        <ele>1.81</ele>
        <time>2020-05-30T16:16:32Z</time>
      </trkpt>
      <trkpt lat="47.24327" lon="-1.55541">
        <ele>1.45</ele>
        <time>2020-05-30T16:16:34Z</time>
      </trkpt>
      <trkpt lat="47.24323" lon="-1.55524">
        <ele>0.59</ele>
        <time>2020-05-30T16:16:36Z</time>
      </trkpt>
      <trkpt lat="47.24319" lon="-1.555">
        <ele>-0.47</ele>
        <time>2020-05-30T16:16:38Z</time>
      </trkpt>
      <trkpt lat="47.24316" lon="-1.5548">
        <ele>-0.21</ele>
        <time>2020-05-30T16:16:40Z</time>
      </trkpt>
      <trkpt lat="47.24313" lon="-1.55464">
        <ele>0.15</ele>
        <time>2020-05-30T16:16:42Z</time>
      </trkpt>
      <trkpt lat="47.24309" lon="-1.5545">
        <ele>0.79</ele>
        <time>2020-05-30T16:16:44Z</time>
      </trkpt>
      <trkpt lat="47.24307" lon="-1.55435">
        <ele>0.43</ele>
        <time>2020-05-30T16:16:46Z</time>
      </trkpt>
      <trkpt lat="47.24305" lon="-1.55419">
        <ele>-0.2</ele>
        <time>2020-05-30T16:16:48Z</time>
      </trkpt>
      <trkpt lat="47.24303" lon="-1.55405">
        <ele>-1.23</ele>
        <time>2020-05-30T16:16:50Z</time>
      </trkpt>
      <trkpt lat="47.24301" lon="-1.5539">
        <ele>-2.97</ele>
        <time>2020-05-30T16:16:52Z</time>
      </trkpt>
      <trkpt lat="47.24303" lon="-1.55373">
        <ele>-3.46</ele>
        <time>2020-05-30T16:16:54Z</time>
      </trkpt>
      <trkpt lat="47.24306" lon="-1.55353">
        <ele>-2.75</ele>
        <time>2020-05-30T16:16:56Z</time>
      </trkpt>
      <trkpt lat="47.24312" lon="-1.55336">
        <ele>-1.47</ele>
        <time>2020-05-30T16:16:58Z</time>
      </trkpt>
      <trkpt lat="47.24317" lon="-1.55321">
        <ele>0.09</ele>
        <time>2020-05-30T16:17:00Z</time>
      </trkpt>
      <trkpt lat="47.24323" lon="-1.55307">
        <ele>1.94</ele>
        <time>2020-05-30T16:17:02Z</time>
      </trkpt>
      <trkpt lat="47.24328" lon="-1.55294">
        <ele>3.23</ele>
        <time>2020-05-30T16:17:04Z</time>
      </trkpt>
      <trkpt lat="47.24332" lon="-1.55281">
        <ele>3.72</ele>
        <time>2020-05-30T16:17:07Z</time>
      </trkpt>
      <trkpt lat="47.24336" lon="-1.55269">
        <ele>3.73</ele>
        <time>2020-05-30T16:17:08Z</time>
      </trkpt>
      <trkpt lat="47.2434" lon="-1.55254">
        <ele>3.7</ele>
        <time>2020-05-30T16:17:11Z</time>
      </trkpt>
      <trkpt lat="47.24344" lon="-1.5524">
        <ele>4.88</ele>
        <time>2020-05-30T16:17:13Z</time>
      </trkpt>
      <trkpt lat="47.24346" lon="-1.55224">
        <ele>5.05</ele>
        <time>2020-05-30T16:17:15Z</time>
      </trkpt>
      <trkpt lat="47.24347" lon="-1.5521">
        <ele>5.26</ele>
        <time>2020-05-30T16:17:17Z</time>
      </trkpt>
      <trkpt lat="47.24346" lon="-1.55195">
        <ele>6.31</ele>
        <time>2020-05-30T16:17:20Z</time>
      </trkpt>
      <trkpt lat="47.24348" lon="-1.55174">
        <ele>8.43</ele>
        <time>2020-05-30T16:17:23Z</time>
      </trkpt>
      <trkpt lat="47.24348" lon="-1.55159">
        <ele>8.21</ele>
        <time>2020-05-30T16:17:25Z</time>
      </trkpt>
      <trkpt lat="47.24347" lon="-1.55145">
        <ele>7.82</ele>
        <time>2020-05-30T16:17:27Z</time>
      </trkpt>
      <trkpt lat="47.24346" lon="-1.55127">
        <ele>7.47</ele>
        <time>2020-05-30T16:17:29Z</time>
      </trkpt>
      <trkpt lat="47.24346" lon="-1.5511">
        <ele>7.46</ele>
        <time>2020-05-30T16:17:31Z</time>
      </trkpt>
      <trkpt lat="47.24345" lon="-1.55094">
        <ele>7.65</ele>
        <time>2020-05-30T16:17:33Z</time>
      </trkpt>
      <trkpt lat="47.24345" lon="-1.55079">
        <ele>8.28</ele>
        <time>2020-05-30T16:17:35Z</time>
      </trkpt>
      <trkpt lat="47.24345" lon="-1.55062">
        <ele>7.93</ele>
        <time>2020-05-30T16:17:37Z</time>
      </trkpt>
      <trkpt lat="47.24345" lon="-1.55044">
        <ele>7.91</ele>
        <time>2020-05-30T16:17:39Z</time>
      </trkpt>
      <trkpt lat="47.24345" lon="-1.55022">
        <ele>7.74</ele>
        <time>2020-05-30T16:17:41Z</time>
      </trkpt>
      <trkpt lat="47.24346" lon="-1.55003">
        <ele>6.48</ele>
        <time>2020-05-30T16:17:43Z</time>
      </trkpt>
      <trkpt lat="47.24347" lon="-1.54985">
        <ele>4.98</ele>
        <time>2020-05-30T16:17:45Z</time>
      </trkpt>
      <trkpt lat="47.24348" lon="-1.54968">
        <ele>3.39</ele>
        <time>2020-05-30T16:17:47Z</time>
      </trkpt>
      <trkpt lat="47.24351" lon="-1.5495">
        <ele>1.5</ele>
        <time>2020-05-30T16:17:49Z</time>
      </trkpt>
      <trkpt lat="47.24353" lon="-1.54936">
        <ele>1.15</ele>
        <time>2020-05-30T16:17:51Z</time>
      </trkpt>
      <trkpt lat="47.24354" lon="-1.54923">
        <ele>1.04</ele>
        <time>2020-05-30T16:17:53Z</time>
      </trkpt>
      <trkpt lat="47.24352" lon="-1.54909">
        <ele>1.8</ele>
        <time>2020-05-30T16:17:55Z</time>
      </trkpt>
      <trkpt lat="47.24352" lon="-1.54893">
        <ele>2.29</ele>
        <time>2020-05-30T16:17:57Z</time>
      </trkpt>
      <trkpt lat="47.24348" lon="-1.54874">
        <ele>1.64</ele>
        <time>2020-05-30T16:17:59Z</time>
      </trkpt>
      <trkpt lat="47.24341" lon="-1.54854">
        <ele>0.5</ele>
        <time>2020-05-30T16:18:01Z</time>
      </trkpt>
      <trkpt lat="47.24335" lon="-1.54835">
        <ele>-0.38</ele>
        <time>2020-05-30T16:18:03Z</time>
      </trkpt>
      <trkpt lat="47.24329" lon="-1.54816">
        <ele>-0.12</ele>
        <time>2020-05-30T16:18:05Z</time>
      </trkpt>
      <trkpt lat="47.24323" lon="-1.548">
        <ele>0.98</ele>
        <time>2020-05-30T16:18:07Z</time>
      </trkpt>
      <trkpt lat="47.24324" lon="-1.54782">
        <ele>2.35</ele>
        <time>2020-05-30T16:18:10Z</time>
      </trkpt>
      <trkpt lat="47.24335" lon="-1.54768">
        <ele>2.08</ele>
        <time>2020-05-30T16:18:12Z</time>
      </trkpt>
      <trkpt lat="47.24347" lon="-1.54755">
        <ele>1.57</ele>
        <time>2020-05-30T16:18:14Z</time>
      </trkpt>
      <trkpt lat="47.24358" lon="-1.54746">
        <ele>1.53</ele>
        <time>2020-05-30T16:18:16Z</time>
      </trkpt>
      <trkpt lat="47.24369" lon="-1.5474">
        <ele>2.28</ele>
        <time>2020-05-30T16:18:18Z</time>
      </trkpt>
      <trkpt lat="47.24378" lon="-1.54733">
        <ele>2.05</ele>
        <time>2020-05-30T16:18:20Z</time>
      </trkpt>
      <trkpt lat="47.24389" lon="-1.54726">
        <ele>2.46</ele>
        <time>2020-05-30T16:18:22Z</time>
      </trkpt>
      <trkpt lat="47.24403" lon="-1.54718">
        <ele>3.43</ele>
        <time>2020-05-30T16:18:24Z</time>
      </trkpt>
      <trkpt lat="47.24412" lon="-1.54712">
        <ele>4.21</ele>
        <time>2020-05-30T16:18:26Z</time>
      </trkpt>
      <trkpt lat="47.24423" lon="-1.54707">
        <ele>5.2</ele>
        <time>2020-05-30T16:18:28Z</time>
      </trkpt>
      <trkpt lat="47.24434" lon="-1.54701">
        <ele>5.25</ele>
        <time>2020-05-30T16:18:30Z</time>
      </trkpt>
      <trkpt lat="47.24444" lon="-1.54695">
        <ele>4.2</ele>
        <time>2020-05-30T16:18:32Z</time>
      </trkpt>
      <trkpt lat="47.24454" lon="-1.54687">
        <ele>2.72</ele>
        <time>2020-05-30T16:18:34Z</time>
      </trkpt>
      <trkpt lat="47.24465" lon="-1.54678">
        <ele>2.99</ele>
        <time>2020-05-30T16:18:37Z</time>
      </trkpt>
      <trkpt lat="47.24474" lon="-1.54671">
        <ele>2.82</ele>
        <time>2020-05-30T16:18:39Z</time>
      </trkpt>
      <trkpt lat="47.24484" lon="-1.54663">
        <ele>0.63</ele>
        <time>2020-05-30T16:18:41Z</time>
      </trkpt>
      <trkpt lat="47.24497" lon="-1.54655">
        <ele>-0.92</ele>
        <time>2020-05-30T16:18:43Z</time>
      </trkpt>
      <trkpt lat="47.24507" lon="-1.54648">
        <ele>-1.07</ele>
        <time>2020-05-30T16:18:45Z</time>
      </trkpt>
      <trkpt lat="47.24518" lon="-1.54643">
        <ele>-1.37</ele>
        <time>2020-05-30T16:18:48Z</time>
      </trkpt>
      <trkpt lat="47.24528" lon="-1.54639">
        <ele>-1.19</ele>
        <time>2020-05-30T16:18:50Z</time>
      </trkpt>
      <trkpt lat="47.24538" lon="-1.54633">
        <ele>0.35</ele>
        <time>2020-05-30T16:18:52Z</time>
      </trkpt>
      <trkpt lat="47.24549" lon="-1.54627">
        <ele>0.97</ele>
        <time>2020-05-30T16:18:54Z</time>
      </trkpt>
      <trkpt lat="47.24561" lon="-1.54622">
        <ele>1.58</ele>
        <time>2020-05-30T16:18:56Z</time>
      </trkpt>
      <trkpt lat="47.24572" lon="-1.54616">
        <ele>3.03</ele>
        <time>2020-05-30T16:18:58Z</time>
      </trkpt>
      <trkpt lat="47.24583" lon="-1.54612">
        <ele>3.44</ele>
        <time>2020-05-30T16:19:00Z</time>
      </trkpt>
      <trkpt lat="47.24595" lon="-1.54613">
        <ele>3.93</ele>
        <time>2020-05-30T16:19:02Z</time>
      </trkpt>
      <trkpt lat="47.24608" lon="-1.54614">
        <ele>3.83</ele>
        <time>2020-05-30T16:19:04Z</time>
      </trkpt>
      <trkpt lat="47.2462" lon="-1.54613">
        <ele>2.93</ele>
        <time>2020-05-30T16:19:06Z</time>
      </trkpt>
      <trkpt lat="47.2463" lon="-1.54612">
        <ele>2.28</ele>
        <time>2020-05-30T16:19:08Z</time>
      </trkpt>
      <trkpt lat="47.2464" lon="-1.54606">
        <ele>1.84</ele>
        <time>2020-05-30T16:19:13Z</time>
      </trkpt>
      <trkpt lat="47.24651" lon="-1.54595">
        <ele>0.41</ele>
        <time>2020-05-30T16:19:16Z</time>
      </trkpt>
      <trkpt lat="47.24661" lon="-1.5459">
        <ele>-1.05</ele>
        <time>2020-05-30T16:19:18Z</time>
      </trkpt>
      <trkpt lat="47.24672" lon="-1.54584">
        <ele>-1.99</ele>
        <time>2020-05-30T16:19:20Z</time>
      </trkpt>
      <trkpt lat="47.24683" lon="-1.5458">
        <ele>-1.9</ele>
        <time>2020-05-30T16:19:22Z</time>
      </trkpt>
      <trkpt lat="47.24695" lon="-1.54576">
        <ele>-2.47</ele>
        <time>2020-05-30T16:19:24Z</time>
      </trkpt>
      <trkpt lat="47.24708" lon="-1.5457">
        <ele>-3.2</ele>
        <time>2020-05-30T16:19:27Z</time>
      </trkpt>
      <trkpt lat="47.24718" lon="-1.54561">
        <ele>-2.5</ele>
        <time>2020-05-30T16:19:30Z</time>
      </trkpt>
      <trkpt lat="47.24728" lon="-1.54554">
        <ele>-2.37</ele>
        <time>2020-05-30T16:19:33Z</time>
      </trkpt>
      <trkpt lat="47.24737" lon="-1.54549">
        <ele>-2.37</ele>
        <time>2020-05-30T16:19:35Z</time>
      </trkpt>
      <trkpt lat="47.24748" lon="-1.54539">
        <ele>-2.44</ele>
        <time>2020-05-30T16:19:38Z</time>
      </trkpt>
      <trkpt lat="47.24757" lon="-1.54527">
        <ele>-2.63</ele>
        <time>2020-05-30T16:19:41Z</time>
      </trkpt>
      <trkpt lat="47.24766" lon="-1.54522">
        <ele>-2.86</ele>
        <time>2020-05-30T16:19:44Z</time>
      </trkpt>
      <trkpt lat="47.2477" lon="-1.5451">
        <ele>-3.09</ele>
        <time>2020-05-30T16:19:47Z</time>
      </trkpt>
      <trkpt lat="47.24776" lon="-1.54497">
        <ele>-3.5</ele>
        <time>2020-05-30T16:19:49Z</time>
      </trkpt>
      <trkpt lat="47.24782" lon="-1.54487">
        <ele>-4.17</ele>
        <time>2020-05-30T16:19:51Z</time>
      </trkpt>
      <trkpt lat="47.24794" lon="-1.54479">
        <ele>-4.18</ele>
        <time>2020-05-30T16:19:54Z</time>
      </trkpt>
      <trkpt lat="47.24803" lon="-1.54472">
        <ele>-2.56</ele>
        <time>2020-05-30T16:19:56Z</time>
      </trkpt>
      <trkpt lat="47.24811" lon="-1.54462">
        <ele>-2.28</ele>
        <time>2020-05-30T16:19:58Z</time>
      </trkpt>
      <trkpt lat="47.24821" lon="-1.5445">
        <ele>-2.34</ele>
        <time>2020-05-30T16:20:00Z</time>
      </trkpt>
      <trkpt lat="47.24829" lon="-1.54439">
        <ele>-1.46</ele>
        <time>2020-05-30T16:20:02Z</time>
      </trkpt>
      <trkpt lat="47.24837" lon="-1.5443">
        <ele>-1.16</ele>
        <time>2020-05-30T16:20:04Z</time>
      </trkpt>
      <trkpt lat="47.24847" lon="-1.5442">
        <ele>-1.99</ele>
        <time>2020-05-30T16:20:06Z</time>
      </trkpt>
      <trkpt lat="47.24857" lon="-1.54411">
        <ele>-3.79</ele>
        <time>2020-05-30T16:20:08Z</time>
      </trkpt>
      <trkpt lat="47.24867" lon="-1.54401">
        <ele>-3.88</ele>
        <time>2020-05-30T16:20:10Z</time>
      </trkpt>
      <trkpt lat="47.24876" lon="-1.5439">
        <ele>-3.15</ele>
        <time>2020-05-30T16:20:12Z</time>
      </trkpt>
      <trkpt lat="47.24884" lon="-1.5438">
        <ele>-2.46</ele>
        <time>2020-05-30T16:20:14Z</time>
      </trkpt>
      <trkpt lat="47.24893" lon="-1.54371">
        <ele>-1.73</ele>
        <time>2020-05-30T16:20:16Z</time>
      </trkpt>
      <trkpt lat="47.24902" lon="-1.54361">
        <ele>-1.12</ele>
        <time>2020-05-30T16:20:18Z</time>
      </trkpt>
      <trkpt lat="47.24911" lon="-1.54352">
        <ele>-0.77</ele>
        <time>2020-05-30T16:20:20Z</time>
      </trkpt>
      <trkpt lat="47.2492" lon="-1.54343">
        <ele>-0.46</ele>
        <time>2020-05-30T16:20:22Z</time>
      </trkpt>
      <trkpt lat="47.2493" lon="-1.54334">
        <ele>0.21</ele>
        <time>2020-05-30T16:20:24Z</time>
      </trkpt>
      <trkpt lat="47.24937" lon="-1.54326">
        <ele>0.3</ele>
        <time>2020-05-30T16:20:26Z</time>
      </trkpt>
      <trkpt lat="47.24947" lon="-1.54314">
        <ele>0.41</ele>
        <time>2020-05-30T16:20:29Z</time>
      </trkpt>
      <trkpt lat="47.24955" lon="-1.54303">
        <ele>0.81</ele>
        <time>2020-05-30T16:20:31Z</time>
      </trkpt>
      <trkpt lat="47.24962" lon="-1.54292">
        <ele>0.91</ele>
        <time>2020-05-30T16:20:33Z</time>
      </trkpt>
      <trkpt lat="47.24971" lon="-1.54279">
        <ele>0.36</ele>
        <time>2020-05-30T16:20:35Z</time>
      </trkpt>
      <trkpt lat="47.2498" lon="-1.54267">
        <ele>0.17</ele>
        <time>2020-05-30T16:20:37Z</time>
      </trkpt>
      <trkpt lat="47.24992" lon="-1.54252">
        <ele>-0.05</ele>
        <time>2020-05-30T16:20:39Z</time>
      </trkpt>
      <trkpt lat="47.25002" lon="-1.54239">
        <ele>-1.33</ele>
        <time>2020-05-30T16:20:41Z</time>
      </trkpt>
      <trkpt lat="47.25009" lon="-1.5423">
        <ele>-1.61</ele>
        <time>2020-05-30T16:20:43Z</time>
      </trkpt>
      <trkpt lat="47.25019" lon="-1.54218">
        <ele>-1.6</ele>
        <time>2020-05-30T16:20:46Z</time>
      </trkpt>
      <trkpt lat="47.25027" lon="-1.54207">
        <ele>-0.48</ele>
        <time>2020-05-30T16:20:49Z</time>
      </trkpt>
      <trkpt lat="47.25036" lon="-1.54196">
        <ele>0.42</ele>
        <time>2020-05-30T16:20:52Z</time>
      </trkpt>
      <trkpt lat="47.25044" lon="-1.54187">
        <ele>0.75</ele>
        <time>2020-05-30T16:20:54Z</time>
      </trkpt>
      <trkpt lat="47.25051" lon="-1.54178">
        <ele>1.54</ele>
        <time>2020-05-30T16:20:57Z</time>
      </trkpt>
      <trkpt lat="47.25058" lon="-1.54166">
        <ele>1.26</ele>
        <time>2020-05-30T16:21:00Z</time>
      </trkpt>
      <trkpt lat="47.25067" lon="-1.54155">
        <ele>1.28</ele>
        <time>2020-05-30T16:21:03Z</time>
      </trkpt>
      <trkpt lat="47.25078" lon="-1.54145">
        <ele>0.63</ele>
        <time>2020-05-30T16:21:06Z</time>
      </trkpt>
      <trkpt lat="47.25088" lon="-1.54132">
        <ele>0.35</ele>
        <time>2020-05-30T16:21:09Z</time>
      </trkpt>
      <trkpt lat="47.25098" lon="-1.54124">
        <ele>-0.25</ele>
        <time>2020-05-30T16:21:11Z</time>
      </trkpt>
      <trkpt lat="47.25107" lon="-1.54118">
        <ele>-0.33</ele>
        <time>2020-05-30T16:21:13Z</time>
      </trkpt>
      <trkpt lat="47.25116" lon="-1.54112">
        <ele>-0.34</ele>
        <time>2020-05-30T16:21:15Z</time>
      </trkpt>
      <trkpt lat="47.25126" lon="-1.54106">
        <ele>-0.18</ele>
        <time>2020-05-30T16:21:17Z</time>
      </trkpt>
      <trkpt lat="47.25134" lon="-1.54099">
        <ele>0.22</ele>
        <time>2020-05-30T16:21:19Z</time>
      </trkpt>
      <trkpt lat="47.25144" lon="-1.541">
        <ele>0.38</ele>
        <time>2020-05-30T16:21:24Z</time>
      </trkpt>
      <trkpt lat="47.25155" lon="-1.54098">
        <ele>0.56</ele>
        <time>2020-05-30T16:21:27Z</time>
      </trkpt>
      <trkpt lat="47.25164" lon="-1.54095">
        <ele>0.55</ele>
        <time>2020-05-30T16:21:29Z</time>
      </trkpt>
      <trkpt lat="47.25175" lon="-1.54091">
        <ele>1.63</ele>
        <time>2020-05-30T16:21:32Z</time>
      </trkpt>
      <trkpt lat="47.25185" lon="-1.5409">
        <ele>4.23</ele>
        <time>2020-05-30T16:21:34Z</time>
      </trkpt>
      <trkpt lat="47.25197" lon="-1.54086">
        <ele>6.06</ele>
        <time>2020-05-30T16:21:36Z</time>
      </trkpt>
      <trkpt lat="47.2521" lon="-1.54082">
        <ele>6.75</ele>
        <time>2020-05-30T16:21:38Z</time>
      </trkpt>
      <trkpt lat="47.25222" lon="-1.54078">
        <ele>7.4</ele>
        <time>2020-05-30T16:21:40Z</time>
      </trkpt>
      <trkpt lat="47.25234" lon="-1.54074">
        <ele>8.46</ele>
        <time>2020-05-30T16:21:42Z</time>
      </trkpt>
      <trkpt lat="47.25247" lon="-1.5407">
        <ele>7.6</ele>
        <time>2020-05-30T16:21:44Z</time>
      </trkpt>
      <trkpt lat="47.25259" lon="-1.54066">
        <ele>6.55</ele>
        <time>2020-05-30T16:21:46Z</time>
      </trkpt>
      <trkpt lat="47.2527" lon="-1.54063">
        <ele>5.5</ele>
        <time>2020-05-30T16:21:48Z</time>
      </trkpt>
      <trkpt lat="47.25281" lon="-1.5406">
        <ele>4.33</ele>
        <time>2020-05-30T16:21:50Z</time>
      </trkpt>
      <trkpt lat="47.25292" lon="-1.54055">
        <ele>2.59</ele>
        <time>2020-05-30T16:21:52Z</time>
      </trkpt>
      <trkpt lat="47.25302" lon="-1.54052">
        <ele>1.83</ele>
        <time>2020-05-30T16:21:54Z</time>
      </trkpt>
      <trkpt lat="47.25315" lon="-1.5405">
        <ele>1.05</ele>
        <time>2020-05-30T16:21:56Z</time>
      </trkpt>
      <trkpt lat="47.25326" lon="-1.54047">
        <ele>0.56</ele>
        <time>2020-05-30T16:21:58Z</time>
      </trkpt>
      <trkpt lat="47.25336" lon="-1.54045">
        <ele>0.77</ele>
        <time>2020-05-30T16:22:00Z</time>
      </trkpt>
      <trkpt lat="47.25347" lon="-1.54043">
        <ele>1.74</ele>
        <time>2020-05-30T16:22:02Z</time>
      </trkpt>
      <trkpt lat="47.25358" lon="-1.54041">
        <ele>2.46</ele>
        <time>2020-05-30T16:22:04Z</time>
      </trkpt>
      <trkpt lat="47.25369" lon="-1.54039">
        <ele>3.28</ele>
        <time>2020-05-30T16:22:06Z</time>
      </trkpt>
      <trkpt lat="47.25382" lon="-1.54036">
        <ele>3.23</ele>
        <time>2020-05-30T16:22:08Z</time>
      </trkpt>
      <trkpt lat="47.25392" lon="-1.54034">
        <ele>3.15</ele>
        <time>2020-05-30T16:22:10Z</time>
      </trkpt>
      <trkpt lat="47.25402" lon="-1.54033">
        <ele>2.61</ele>
        <time>2020-05-30T16:22:12Z</time>
      </trkpt>
      <trkpt lat="47.25411" lon="-1.54032">
        <ele>2.84</ele>
        <time>2020-05-30T16:22:14Z</time>
      </trkpt>
      <trkpt lat="47.25421" lon="-1.5403">
        <ele>3.55</ele>
        <time>2020-05-30T16:22:16Z</time>
      </trkpt>
      <trkpt lat="47.25431" lon="-1.54028">
        <ele>4.98</ele>
        <time>2020-05-30T16:22:18Z</time>
      </trkpt>
      <trkpt lat="47.25443" lon="-1.54025">
        <ele>5.3</ele>
        <time>2020-05-30T16:22:20Z</time>
      </trkpt>
      <trkpt lat="47.25457" lon="-1.54023">
        <ele>4.74</ele>
        <time>2020-05-30T16:22:22Z</time>
      </trkpt>
      <trkpt lat="47.25469" lon="-1.54024">
        <ele>4.64</ele>
        <time>2020-05-30T16:22:24Z</time>
      </trkpt>
      <trkpt lat="47.2548" lon="-1.54024">
        <ele>3.84</ele>
        <time>2020-05-30T16:22:26Z</time>
      </trkpt>
      <trkpt lat="47.2549" lon="-1.54024">
        <ele>2.87</ele>
        <time>2020-05-30T16:22:28Z</time>
      </trkpt>
      <trkpt lat="47.25502" lon="-1.54023">
        <ele>2.49</ele>
        <time>2020-05-30T16:22:31Z</time>
      </trkpt>
      <trkpt lat="47.25513" lon="-1.54022">
        <ele>2.65</ele>
        <time>2020-05-30T16:22:33Z</time>
      </trkpt>
      <trkpt lat="47.25523" lon="-1.54018">
        <ele>3.2</ele>
        <time>2020-05-30T16:22:35Z</time>
      </trkpt>
      <trkpt lat="47.25534" lon="-1.54014">
        <ele>3.65</ele>
        <time>2020-05-30T16:22:37Z</time>
      </trkpt>
      <trkpt lat="47.25544" lon="-1.5401">
        <ele>4.21</ele>
        <time>2020-05-30T16:22:39Z</time>
      </trkpt>
      <trkpt lat="47.25555" lon="-1.54005">
        <ele>3.19</ele>
        <time>2020-05-30T16:22:41Z</time>
      </trkpt>
      <trkpt lat="47.25564" lon="-1.54001">
        <ele>1.34</ele>
        <time>2020-05-30T16:22:43Z</time>
      </trkpt>
      <trkpt lat="47.25574" lon="-1.53997">
        <ele>0.64</ele>
        <time>2020-05-30T16:22:45Z</time>
      </trkpt>
      <trkpt lat="47.25589" lon="-1.53991">
        <ele>-0.53</ele>
        <time>2020-05-30T16:22:48Z</time>
      </trkpt>
      <trkpt lat="47.256" lon="-1.53983">
        <ele>-2.32</ele>
        <time>2020-05-30T16:22:50Z</time>
      </trkpt>
      <trkpt lat="47.25611" lon="-1.53985">
        <ele>-3.14</ele>
        <time>2020-05-30T16:22:52Z</time>
      </trkpt>
      <trkpt lat="47.25604" lon="-1.53994">
        <ele>-2.92</ele>
        <time>2020-05-30T16:22:58Z</time>
      </trkpt>
      <trkpt lat="47.25593" lon="-1.53999">
        <ele>-0.52</ele>
        <time>2020-05-30T16:23:01Z</time>
      </trkpt>
      <trkpt lat="47.25584" lon="-1.54004">
        <ele>1.58</ele>
        <time>2020-05-30T16:23:03Z</time>
      </trkpt>
      <trkpt lat="47.25574" lon="-1.54008">
        <ele>2.66</ele>
        <time>2020-05-30T16:23:05Z</time>
      </trkpt>
      <trkpt lat="47.25564" lon="-1.54012">
        <ele>3.13</ele>
        <time>2020-05-30T16:23:07Z</time>
      </trkpt>
      <trkpt lat="47.2557" lon="-1.54023">
        <ele>4.05</ele>
        <time>2020-05-30T16:23:12Z</time>
      </trkpt>
      <trkpt lat="47.25582" lon="-1.54019">
        <ele>4.21</ele>
        <time>2020-05-30T16:23:15Z</time>
      </trkpt>
      <trkpt lat="47.25591" lon="-1.54013">
        <ele>4.38</ele>
        <time>2020-05-30T16:23:18Z</time>
      </trkpt>
      <trkpt lat="47.25601" lon="-1.5401">
        <ele>4.6</ele>
        <time>2020-05-30T16:23:22Z</time>
      </trkpt>
      <trkpt lat="47.25608" lon="-1.5402">
        <ele>4.57</ele>
        <time>2020-05-30T16:23:24Z</time>
      </trkpt>
      <trkpt lat="47.25617" lon="-1.54032">
        <ele>4.58</ele>
        <time>2020-05-30T16:23:26Z</time>
      </trkpt>
      <trkpt lat="47.25623" lon="-1.54047">
        <ele>4.72</ele>
        <time>2020-05-30T16:23:30Z</time>
      </trkpt>
      <trkpt lat="47.25614" lon="-1.54038">
        <ele>6.55</ele>
        <time>2020-05-30T16:23:36Z</time>
      </trkpt>
      <trkpt lat="47.2561" lon="-1.54026">
        <ele>8.68</ele>
        <time>2020-05-30T16:23:38Z</time>
      </trkpt>
      <trkpt lat="47.25607" lon="-1.54013">
        <ele>10.79</ele>
        <time>2020-05-30T16:23:40Z</time>
      </trkpt>
      <trkpt lat="47.25603" lon="-1.53998">
        <ele>12.12</ele>
        <time>2020-05-30T16:23:42Z</time>
      </trkpt>
      <trkpt lat="47.25598" lon="-1.53983">
        <ele>13.35</ele>
        <time>2020-05-30T16:23:44Z</time>
      </trkpt>
      <trkpt lat="47.25595" lon="-1.5397">
        <ele>14.8</ele>
        <time>2020-05-30T16:23:46Z</time>
      </trkpt>
      <trkpt lat="47.25591" lon="-1.53956">
        <ele>16.56</ele>
        <time>2020-05-30T16:23:48Z</time>
      </trkpt>
      <trkpt lat="47.25587" lon="-1.53941">
        <ele>17.9</ele>
        <time>2020-05-30T16:23:50Z</time>
      </trkpt>
      <trkpt lat="47.25584" lon="-1.53927">
        <ele>19.21</ele>
        <time>2020-05-30T16:23:52Z</time>
      </trkpt>
      <trkpt lat="47.25581" lon="-1.53913">
        <ele>19.84</ele>
        <time>2020-05-30T16:23:54Z</time>
      </trkpt>
      <trkpt lat="47.25577" lon="-1.539">
        <ele>19.48</ele>
        <time>2020-05-30T16:23:56Z</time>
      </trkpt>
      <trkpt lat="47.25573" lon="-1.53884">
        <ele>19.18</ele>
        <time>2020-05-30T16:23:58Z</time>
      </trkpt>
      <trkpt lat="47.25568" lon="-1.53869">
        <ele>18.99</ele>
        <time>2020-05-30T16:24:00Z</time>
      </trkpt>
      <trkpt lat="47.25564" lon="-1.53855">
        <ele>19.2</ele>
        <time>2020-05-30T16:24:02Z</time>
      </trkpt>
      <trkpt lat="47.25559" lon="-1.53839">
        <ele>19.32</ele>
        <time>2020-05-30T16:24:04Z</time>
      </trkpt>
      <trkpt lat="47.25555" lon="-1.53824">
        <ele>18.6</ele>
        <time>2020-05-30T16:24:06Z</time>
      </trkpt>
      <trkpt lat="47.25549" lon="-1.53806">
        <ele>17.82</ele>
        <time>2020-05-30T16:24:08Z</time>
      </trkpt>
      <trkpt lat="47.25545" lon="-1.53793">
        <ele>17</ele>
        <time>2020-05-30T16:24:10Z</time>
      </trkpt>
      <trkpt lat="47.25539" lon="-1.53773">
        <ele>16.5</ele>
        <time>2020-05-30T16:24:13Z</time>
      </trkpt>
      <trkpt lat="47.25535" lon="-1.53758">
        <ele>15.41</ele>
        <time>2020-05-30T16:24:15Z</time>
      </trkpt>
      <trkpt lat="47.25529" lon="-1.53739">
        <ele>15.54</ele>
        <time>2020-05-30T16:24:18Z</time>
      </trkpt>
      <trkpt lat="47.25524" lon="-1.53721">
        <ele>15.61</ele>
        <time>2020-05-30T16:24:20Z</time>
      </trkpt>
      <trkpt lat="47.2552" lon="-1.53706">
        <ele>15.6</ele>
        <time>2020-05-30T16:24:22Z</time>
      </trkpt>
      <trkpt lat="47.25515" lon="-1.53691">
        <ele>15.39</ele>
        <time>2020-05-30T16:24:24Z</time>
      </trkpt>
      <trkpt lat="47.25513" lon="-1.53672">
        <ele>15.82</ele>
        <time>2020-05-30T16:24:26Z</time>
      </trkpt>
      <trkpt lat="47.25513" lon="-1.53651">
        <ele>15.57</ele>
        <time>2020-05-30T16:24:28Z</time>
      </trkpt>
      <trkpt lat="47.25514" lon="-1.53629">
        <ele>14.89</ele>
        <time>2020-05-30T16:24:30Z</time>
      </trkpt>
      <trkpt lat="47.25515" lon="-1.53605">
        <ele>14.22</ele>
        <time>2020-05-30T16:24:32Z</time>
      </trkpt>
      <trkpt lat="47.25515" lon="-1.53587">
        <ele>13.54</ele>
        <time>2020-05-30T16:24:34Z</time>
      </trkpt>
      <trkpt lat="47.25513" lon="-1.53567">
        <ele>13.22</ele>
        <time>2020-05-30T16:24:36Z</time>
      </trkpt>
      <trkpt lat="47.25511" lon="-1.53548">
        <ele>13.08</ele>
        <time>2020-05-30T16:24:38Z</time>
      </trkpt>
      <trkpt lat="47.25509" lon="-1.5353">
        <ele>13.33</ele>
        <time>2020-05-30T16:24:40Z</time>
      </trkpt>
      <trkpt lat="47.25508" lon="-1.53512">
        <ele>13.01</ele>
        <time>2020-05-30T16:24:42Z</time>
      </trkpt>
      <trkpt lat="47.25507" lon="-1.53494">
        <ele>12.57</ele>
        <time>2020-05-30T16:24:44Z</time>
      </trkpt>
      <trkpt lat="47.25505" lon="-1.53477">
        <ele>12.88</ele>
        <time>2020-05-30T16:24:46Z</time>
      </trkpt>
      <trkpt lat="47.25504" lon="-1.53459">
        <ele>12.4</ele>
        <time>2020-05-30T16:24:48Z</time>
      </trkpt>
      <trkpt lat="47.25502" lon="-1.53439">
        <ele>12.02</ele>
        <time>2020-05-30T16:24:50Z</time>
      </trkpt>
      <trkpt lat="47.255" lon="-1.53422">
        <ele>11.96</ele>
        <time>2020-05-30T16:24:52Z</time>
      </trkpt>
      <trkpt lat="47.25498" lon="-1.53407">
        <ele>11.26</ele>
        <time>2020-05-30T16:24:54Z</time>
      </trkpt>
      <trkpt lat="47.25495" lon="-1.53389">
        <ele>10.34</ele>
        <time>2020-05-30T16:24:56Z</time>
      </trkpt>
      <trkpt lat="47.25493" lon="-1.53373">
        <ele>10.71</ele>
        <time>2020-05-30T16:24:58Z</time>
      </trkpt>
      <trkpt lat="47.25491" lon="-1.53355">
        <ele>11.31</ele>
        <time>2020-05-30T16:25:00Z</time>
      </trkpt>
      <trkpt lat="47.25489" lon="-1.53336">
        <ele>12.83</ele>
        <time>2020-05-30T16:25:02Z</time>
      </trkpt>
      <trkpt lat="47.25487" lon="-1.53318">
        <ele>13.28</ele>
        <time>2020-05-30T16:25:04Z</time>
      </trkpt>
      <trkpt lat="47.25486" lon="-1.533">
        <ele>13.65</ele>
        <time>2020-05-30T16:25:06Z</time>
      </trkpt>
      <trkpt lat="47.25483" lon="-1.53282">
        <ele>14.13</ele>
        <time>2020-05-30T16:25:08Z</time>
      </trkpt>
      <trkpt lat="47.25482" lon="-1.53264">
        <ele>13.54</ele>
        <time>2020-05-30T16:25:10Z</time>
      </trkpt>
      <trkpt lat="47.2548" lon="-1.53245">
        <ele>13.43</ele>
        <time>2020-05-30T16:25:12Z</time>
      </trkpt>
      <trkpt lat="47.25479" lon="-1.53229">
        <ele>13.12</ele>
        <time>2020-05-30T16:25:14Z</time>
      </trkpt>
      <trkpt lat="47.25478" lon="-1.53212">
        <ele>12.26</ele>
        <time>2020-05-30T16:25:16Z</time>
      </trkpt>
      <trkpt lat="47.25477" lon="-1.53196">
        <ele>11.85</ele>
        <time>2020-05-30T16:25:18Z</time>
      </trkpt>
      <trkpt lat="47.25476" lon="-1.5318">
        <ele>12.45</ele>
        <time>2020-05-30T16:25:20Z</time>
      </trkpt>
      <trkpt lat="47.25475" lon="-1.53165">
        <ele>13.06</ele>
        <time>2020-05-30T16:25:22Z</time>
      </trkpt>
      <trkpt lat="47.25474" lon="-1.53144">
        <ele>12.7</ele>
        <time>2020-05-30T16:25:25Z</time>
      </trkpt>
      <trkpt lat="47.25473" lon="-1.53129">
        <ele>13.69</ele>
        <time>2020-05-30T16:25:27Z</time>
      </trkpt>
      <trkpt lat="47.25473" lon="-1.53112">
        <ele>14.41</ele>
        <time>2020-05-30T16:25:29Z</time>
      </trkpt>
      <trkpt lat="47.25473" lon="-1.53096">
        <ele>14.4</ele>
        <time>2020-05-30T16:25:31Z</time>
      </trkpt>
      <trkpt lat="47.25473" lon="-1.53081">
        <ele>14.39</ele>
        <time>2020-05-30T16:25:33Z</time>
      </trkpt>
      <trkpt lat="47.25468" lon="-1.53069">
        <ele>14.88</ele>
        <time>2020-05-30T16:25:35Z</time>
      </trkpt>
      <trkpt lat="47.25468" lon="-1.53054">
        <ele>15.34</ele>
        <time>2020-05-30T16:25:37Z</time>
      </trkpt>
      <trkpt lat="47.25468" lon="-1.5304">
        <ele>16</ele>
        <time>2020-05-30T16:25:39Z</time>
      </trkpt>
      <trkpt lat="47.2547" lon="-1.53024">
        <ele>17.39</ele>
        <time>2020-05-30T16:25:42Z</time>
      </trkpt>
      <trkpt lat="47.25472" lon="-1.53008">
        <ele>18.1</ele>
        <time>2020-05-30T16:25:44Z</time>
      </trkpt>
      <trkpt lat="47.25474" lon="-1.52993">
        <ele>19.29</ele>
        <time>2020-05-30T16:25:46Z</time>
      </trkpt>
      <trkpt lat="47.25477" lon="-1.52978">
        <ele>20.02</ele>
        <time>2020-05-30T16:25:50Z</time>
      </trkpt>
      <trkpt lat="47.25485" lon="-1.52969">
        <ele>20.36</ele>
        <time>2020-05-30T16:25:53Z</time>
      </trkpt>
      <trkpt lat="47.25497" lon="-1.52967">
        <ele>20.19</ele>
        <time>2020-05-30T16:25:55Z</time>
      </trkpt>
      <trkpt lat="47.25512" lon="-1.52967">
        <ele>19.6</ele>
        <time>2020-05-30T16:25:57Z</time>
      </trkpt>
      <trkpt lat="47.25529" lon="-1.52965">
        <ele>18.79</ele>
        <time>2020-05-30T16:25:59Z</time>
      </trkpt>
      <trkpt lat="47.25543" lon="-1.52964">
        <ele>18.23</ele>
        <time>2020-05-30T16:26:00Z</time>
      </trkpt>
      <trkpt lat="47.25557" lon="-1.52962">
        <ele>18.26</ele>
        <time>2020-05-30T16:26:02Z</time>
      </trkpt>
      <trkpt lat="47.25571" lon="-1.52965">
        <ele>18.29</ele>
        <time>2020-05-30T16:26:04Z</time>
      </trkpt>
      <trkpt lat="47.25587" lon="-1.52968">
        <ele>18.81</ele>
        <time>2020-05-30T16:26:06Z</time>
      </trkpt>
      <trkpt lat="47.25604" lon="-1.52969">
        <ele>19.61</ele>
        <time>2020-05-30T16:26:08Z</time>
      </trkpt>
      <trkpt lat="47.25621" lon="-1.52966">
        <ele>18.94</ele>
        <time>2020-05-30T16:26:10Z</time>
      </trkpt>
      <trkpt lat="47.25638" lon="-1.52961">
        <ele>18.29</ele>
        <time>2020-05-30T16:26:12Z</time>
      </trkpt>
      <trkpt lat="47.25655" lon="-1.52954">
        <ele>17.17</ele>
        <time>2020-05-30T16:26:14Z</time>
      </trkpt>
      <trkpt lat="47.25672" lon="-1.52944">
        <ele>15.8</ele>
        <time>2020-05-30T16:26:16Z</time>
      </trkpt>
      <trkpt lat="47.25687" lon="-1.52933">
        <ele>14.91</ele>
        <time>2020-05-30T16:26:18Z</time>
      </trkpt>
      <trkpt lat="47.25701" lon="-1.5292">
        <ele>14.21</ele>
        <time>2020-05-30T16:26:20Z</time>
      </trkpt>
      <trkpt lat="47.25716" lon="-1.52907">
        <ele>14.08</ele>
        <time>2020-05-30T16:26:22Z</time>
      </trkpt>
      <trkpt lat="47.25724" lon="-1.529">
        <ele>13.88</ele>
        <time>2020-05-30T16:26:23Z</time>
      </trkpt>
      <trkpt lat="47.25739" lon="-1.52886">
        <ele>13.06</ele>
        <time>2020-05-30T16:26:25Z</time>
      </trkpt>
      <trkpt lat="47.25754" lon="-1.52874">
        <ele>12.66</ele>
        <time>2020-05-30T16:26:27Z</time>
      </trkpt>
      <trkpt lat="47.25767" lon="-1.52862">
        <ele>13.2</ele>
        <time>2020-05-30T16:26:29Z</time>
      </trkpt>
      <trkpt lat="47.25781" lon="-1.52851">
        <ele>13.82</ele>
        <time>2020-05-30T16:26:31Z</time>
      </trkpt>
      <trkpt lat="47.25793" lon="-1.5284">
        <ele>14.3</ele>
        <time>2020-05-30T16:26:33Z</time>
      </trkpt>
      <trkpt lat="47.25805" lon="-1.5283">
        <ele>14.62</ele>
        <time>2020-05-30T16:26:35Z</time>
      </trkpt>
      <trkpt lat="47.25818" lon="-1.5282">
        <ele>15.11</ele>
        <time>2020-05-30T16:26:37Z</time>
      </trkpt>
      <trkpt lat="47.25829" lon="-1.52812">
        <ele>16.37</ele>
        <time>2020-05-30T16:26:39Z</time>
      </trkpt>
      <trkpt lat="47.25841" lon="-1.52805">
        <ele>17.13</ele>
        <time>2020-05-30T16:26:41Z</time>
      </trkpt>
      <trkpt lat="47.25853" lon="-1.52797">
        <ele>17.54</ele>
        <time>2020-05-30T16:26:43Z</time>
      </trkpt>
      <trkpt lat="47.25867" lon="-1.52791">
        <ele>17.63</ele>
        <time>2020-05-30T16:26:45Z</time>
      </trkpt>
      <trkpt lat="47.2588" lon="-1.52784">
        <ele>17.12</ele>
        <time>2020-05-30T16:26:47Z</time>
      </trkpt>
      <trkpt lat="47.25889" lon="-1.52779">
        <ele>16.95</ele>
        <time>2020-05-30T16:26:49Z</time>
      </trkpt>
      <trkpt lat="47.25895" lon="-1.52765">
        <ele>17.62</ele>
        <time>2020-05-30T16:26:51Z</time>
      </trkpt>
      <trkpt lat="47.25896" lon="-1.52745">
        <ele>18.19</ele>
        <time>2020-05-30T16:26:53Z</time>
      </trkpt>
      <trkpt lat="47.25895" lon="-1.52724">
        <ele>17.68</ele>
        <time>2020-05-30T16:26:55Z</time>
      </trkpt>
      <trkpt lat="47.25894" lon="-1.52702">
        <ele>16.51</ele>
        <time>2020-05-30T16:26:57Z</time>
      </trkpt>
      <trkpt lat="47.25893" lon="-1.52683">
        <ele>15.41</ele>
        <time>2020-05-30T16:26:59Z</time>
      </trkpt>
      <trkpt lat="47.25891" lon="-1.52664">
        <ele>14.21</ele>
        <time>2020-05-30T16:27:01Z</time>
      </trkpt>
      <trkpt lat="47.2589" lon="-1.52645">
        <ele>13.58</ele>
        <time>2020-05-30T16:27:03Z</time>
      </trkpt>
      <trkpt lat="47.2589" lon="-1.52625">
        <ele>13.95</ele>
        <time>2020-05-30T16:27:05Z</time>
      </trkpt>
      <trkpt lat="47.25889" lon="-1.52605">
        <ele>14.56</ele>
        <time>2020-05-30T16:27:07Z</time>
      </trkpt>
      <trkpt lat="47.25889" lon="-1.52585">
        <ele>15.09</ele>
        <time>2020-05-30T16:27:09Z</time>
      </trkpt>
      <trkpt lat="47.25889" lon="-1.52569">
        <ele>15.25</ele>
        <time>2020-05-30T16:27:11Z</time>
      </trkpt>
      <trkpt lat="47.25889" lon="-1.52549">
        <ele>15.13</ele>
        <time>2020-05-30T16:27:13Z</time>
      </trkpt>
      <trkpt lat="47.25889" lon="-1.5253">
        <ele>15.29</ele>
        <time>2020-05-30T16:27:15Z</time>
      </trkpt>
      <trkpt lat="47.25889" lon="-1.52512">
        <ele>15.77</ele>
        <time>2020-05-30T16:27:17Z</time>
      </trkpt>
      <trkpt lat="47.25889" lon="-1.52494">
        <ele>16.34</ele>
        <time>2020-05-30T16:27:19Z</time>
      </trkpt>
      <trkpt lat="47.25889" lon="-1.52477">
        <ele>17.57</ele>
        <time>2020-05-30T16:27:21Z</time>
      </trkpt>
      <trkpt lat="47.25889" lon="-1.5246">
        <ele>18.46</ele>
        <time>2020-05-30T16:27:23Z</time>
      </trkpt>
      <trkpt lat="47.25889" lon="-1.52444">
        <ele>18.57</ele>
        <time>2020-05-30T16:27:25Z</time>
      </trkpt>
      <trkpt lat="47.25889" lon="-1.52427">
        <ele>18.4</ele>
        <time>2020-05-30T16:27:27Z</time>
      </trkpt>
      <trkpt lat="47.25888" lon="-1.52412">
        <ele>18.35</ele>
        <time>2020-05-30T16:27:29Z</time>
      </trkpt>
      <trkpt lat="47.25889" lon="-1.52397">
        <ele>19.47</ele>
        <time>2020-05-30T16:27:31Z</time>
      </trkpt>
      <trkpt lat="47.2589" lon="-1.52382">
        <ele>20.18</ele>
        <time>2020-05-30T16:27:33Z</time>
      </trkpt>
      <trkpt lat="47.2589" lon="-1.52368">
        <ele>22.12</ele>
        <time>2020-05-30T16:27:35Z</time>
      </trkpt>
      <trkpt lat="47.2589" lon="-1.52352">
        <ele>24.02</ele>
        <time>2020-05-30T16:27:37Z</time>
      </trkpt>
      <trkpt lat="47.2589" lon="-1.52337">
        <ele>24.49</ele>
        <time>2020-05-30T16:27:39Z</time>
      </trkpt>
      <trkpt lat="47.2589" lon="-1.52322">
        <ele>24.18</ele>
        <time>2020-05-30T16:27:41Z</time>
      </trkpt>
      <trkpt lat="47.2589" lon="-1.52308">
        <ele>23.41</ele>
        <time>2020-05-30T16:27:43Z</time>
      </trkpt>
      <trkpt lat="47.2589" lon="-1.52294">
        <ele>23.67</ele>
        <time>2020-05-30T16:27:45Z</time>
      </trkpt>
      <trkpt lat="47.25889" lon="-1.52278">
        <ele>24.17</ele>
        <time>2020-05-30T16:27:48Z</time>
      </trkpt>
      <trkpt lat="47.25889" lon="-1.52264">
        <ele>24.56</ele>
        <time>2020-05-30T16:27:50Z</time>
      </trkpt>
      <trkpt lat="47.25888" lon="-1.52245">
        <ele>24.55</ele>
        <time>2020-05-30T16:27:52Z</time>
      </trkpt>
      <trkpt lat="47.25887" lon="-1.5223">
        <ele>22.61</ele>
        <time>2020-05-30T16:27:54Z</time>
      </trkpt>
      <trkpt lat="47.25887" lon="-1.52214">
        <ele>21.06</ele>
        <time>2020-05-30T16:27:57Z</time>
      </trkpt>
      <trkpt lat="47.25886" lon="-1.522">
        <ele>20.72</ele>
        <time>2020-05-30T16:27:59Z</time>
      </trkpt>
      <trkpt lat="47.25885" lon="-1.52187">
        <ele>20.2</ele>
        <time>2020-05-30T16:28:01Z</time>
      </trkpt>
      <trkpt lat="47.25884" lon="-1.52172">
        <ele>20.97</ele>
        <time>2020-05-30T16:28:04Z</time>
      </trkpt>
      <trkpt lat="47.25884" lon="-1.52157">
        <ele>20.53</ele>
        <time>2020-05-30T16:28:06Z</time>
      </trkpt>
      <trkpt lat="47.25884" lon="-1.5214">
        <ele>20.31</ele>
        <time>2020-05-30T16:28:08Z</time>
      </trkpt>
      <trkpt lat="47.25883" lon="-1.52126">
        <ele>21.73</ele>
        <time>2020-05-30T16:28:10Z</time>
      </trkpt>
      <trkpt lat="47.25881" lon="-1.52106">
        <ele>20.91</ele>
        <time>2020-05-30T16:28:13Z</time>
      </trkpt>
      <trkpt lat="47.25879" lon="-1.52091">
        <ele>21.06</ele>
        <time>2020-05-30T16:28:16Z</time>
      </trkpt>
      <trkpt lat="47.25877" lon="-1.52073">
        <ele>20.94</ele>
        <time>2020-05-30T16:28:18Z</time>
      </trkpt>
      <trkpt lat="47.25873" lon="-1.52054">
        <ele>22.25</ele>
        <time>2020-05-30T16:28:21Z</time>
      </trkpt>
      <trkpt lat="47.25869" lon="-1.52036">
        <ele>23.4</ele>
        <time>2020-05-30T16:28:24Z</time>
      </trkpt>
      <trkpt lat="47.25866" lon="-1.52023">
        <ele>23.54</ele>
        <time>2020-05-30T16:28:26Z</time>
      </trkpt>
      <trkpt lat="47.25863" lon="-1.52007">
        <ele>23.45</ele>
        <time>2020-05-30T16:28:28Z</time>
      </trkpt>
      <trkpt lat="47.25859" lon="-1.51989">
        <ele>26</ele>
        <time>2020-05-30T16:28:31Z</time>
      </trkpt>
      <trkpt lat="47.25854" lon="-1.51975">
        <ele>26.78</ele>
        <time>2020-05-30T16:28:35Z</time>
      </trkpt>
      <trkpt lat="47.25851" lon="-1.51961">
        <ele>28.18</ele>
        <time>2020-05-30T16:28:38Z</time>
      </trkpt>
      <trkpt lat="47.2585" lon="-1.51944">
        <ele>30.32</ele>
        <time>2020-05-30T16:28:41Z</time>
      </trkpt>
      <trkpt lat="47.25849" lon="-1.51929">
        <ele>30.43</ele>
        <time>2020-05-30T16:28:43Z</time>
      </trkpt>
      <trkpt lat="47.25847" lon="-1.51909">
        <ele>31.59</ele>
        <time>2020-05-30T16:28:46Z</time>
      </trkpt>
      <trkpt lat="47.25845" lon="-1.51891">
        <ele>31.39</ele>
        <time>2020-05-30T16:28:48Z</time>
      </trkpt>
      <trkpt lat="47.25843" lon="-1.5187">
        <ele>30.12</ele>
        <time>2020-05-30T16:28:51Z</time>
      </trkpt>
      <trkpt lat="47.25841" lon="-1.51855">
        <ele>29.76</ele>
        <time>2020-05-30T16:28:53Z</time>
      </trkpt>
      <trkpt lat="47.25839" lon="-1.51838">
        <ele>29.65</ele>
        <time>2020-05-30T16:28:55Z</time>
      </trkpt>
      <trkpt lat="47.25837" lon="-1.5182">
        <ele>30.32</ele>
        <time>2020-05-30T16:28:58Z</time>
      </trkpt>
      <trkpt lat="47.25836" lon="-1.51806">
        <ele>30.9</ele>
        <time>2020-05-30T16:29:00Z</time>
      </trkpt>
      <trkpt lat="47.25834" lon="-1.51791">
        <ele>31.04</ele>
        <time>2020-05-30T16:29:02Z</time>
      </trkpt>
      <trkpt lat="47.25832" lon="-1.51774">
        <ele>30.92</ele>
        <time>2020-05-30T16:29:04Z</time>
      </trkpt>
      <trkpt lat="47.25831" lon="-1.51756">
        <ele>30.2</ele>
        <time>2020-05-30T16:29:06Z</time>
      </trkpt>
      <trkpt lat="47.2583" lon="-1.51742">
        <ele>29.89</ele>
        <time>2020-05-30T16:29:08Z</time>
      </trkpt>
      <trkpt lat="47.25828" lon="-1.51724">
        <ele>29.42</ele>
        <time>2020-05-30T16:29:10Z</time>
      </trkpt>
      <trkpt lat="47.25826" lon="-1.51708">
        <ele>28.31</ele>
        <time>2020-05-30T16:29:12Z</time>
      </trkpt>
      <trkpt lat="47.25825" lon="-1.51691">
        <ele>27.28</ele>
        <time>2020-05-30T16:29:14Z</time>
      </trkpt>
      <trkpt lat="47.25822" lon="-1.51672">
        <ele>26.91</ele>
        <time>2020-05-30T16:29:17Z</time>
      </trkpt>
      <trkpt lat="47.25821" lon="-1.51654">
        <ele>26.06</ele>
        <time>2020-05-30T16:29:19Z</time>
      </trkpt>
      <trkpt lat="47.2582" lon="-1.51635">
        <ele>26.98</ele>
        <time>2020-05-30T16:29:21Z</time>
      </trkpt>
      <trkpt lat="47.2582" lon="-1.51617">
        <ele>28.34</ele>
        <time>2020-05-30T16:29:23Z</time>
      </trkpt>
      <trkpt lat="47.2582" lon="-1.516">
        <ele>28.86</ele>
        <time>2020-05-30T16:29:25Z</time>
      </trkpt>
      <trkpt lat="47.2582" lon="-1.51583">
        <ele>28.42</ele>
        <time>2020-05-30T16:29:27Z</time>
      </trkpt>
      <trkpt lat="47.25821" lon="-1.51567">
        <ele>28.67</ele>
        <time>2020-05-30T16:29:30Z</time>
      </trkpt>
      <trkpt lat="47.25823" lon="-1.51552">
        <ele>28.78</ele>
        <time>2020-05-30T16:29:34Z</time>
      </trkpt>
      <trkpt lat="47.25821" lon="-1.51539">
        <ele>28.68</ele>
        <time>2020-05-30T16:29:42Z</time>
      </trkpt>
      <trkpt lat="47.25823" lon="-1.51523">
        <ele>28.49</ele>
        <time>2020-05-30T16:29:46Z</time>
      </trkpt>
      <trkpt lat="47.25826" lon="-1.5151">
        <ele>28.56</ele>
        <time>2020-05-30T16:29:48Z</time>
      </trkpt>
      <trkpt lat="47.25828" lon="-1.51492">
        <ele>28.73</ele>
        <time>2020-05-30T16:29:50Z</time>
      </trkpt>
      <trkpt lat="47.25828" lon="-1.51476">
        <ele>28.71</ele>
        <time>2020-05-30T16:29:52Z</time>
      </trkpt>
      <trkpt lat="47.2583" lon="-1.51459">
        <ele>28.32</ele>
        <time>2020-05-30T16:29:54Z</time>
      </trkpt>
      <trkpt lat="47.25832" lon="-1.51443">
        <ele>27.63</ele>
        <time>2020-05-30T16:29:56Z</time>
      </trkpt>
      <trkpt lat="47.25835" lon="-1.51422">
        <ele>27.05</ele>
        <time>2020-05-30T16:29:59Z</time>
      </trkpt>
      <trkpt lat="47.25837" lon="-1.51406">
        <ele>26.77</ele>
        <time>2020-05-30T16:30:01Z</time>
      </trkpt>
      <trkpt lat="47.2584" lon="-1.5139">
        <ele>27.08</ele>
        <time>2020-05-30T16:30:03Z</time>
      </trkpt>
      <trkpt lat="47.25844" lon="-1.51376">
        <ele>26.71</ele>
        <time>2020-05-30T16:30:05Z</time>
      </trkpt>
      <trkpt lat="47.25848" lon="-1.51359">
        <ele>26.97</ele>
        <time>2020-05-30T16:30:07Z</time>
      </trkpt>
      <trkpt lat="47.25853" lon="-1.51344">
        <ele>28.06</ele>
        <time>2020-05-30T16:30:09Z</time>
      </trkpt>
      <trkpt lat="47.25859" lon="-1.51328">
        <ele>28.26</ele>
        <time>2020-05-30T16:30:11Z</time>
      </trkpt>
      <trkpt lat="47.25863" lon="-1.51314">
        <ele>28.65</ele>
        <time>2020-05-30T16:30:13Z</time>
      </trkpt>
      <trkpt lat="47.25868" lon="-1.51299">
        <ele>29.12</ele>
        <time>2020-05-30T16:30:15Z</time>
      </trkpt>
      <trkpt lat="47.25873" lon="-1.51285">
        <ele>29.2</ele>
        <time>2020-05-30T16:30:17Z</time>
      </trkpt>
      <trkpt lat="47.25878" lon="-1.51272">
        <ele>28.5</ele>
        <time>2020-05-30T16:30:19Z</time>
      </trkpt>
      <trkpt lat="47.25882" lon="-1.51258">
        <ele>28.4</ele>
        <time>2020-05-30T16:30:21Z</time>
      </trkpt>
      <trkpt lat="47.25889" lon="-1.51245">
        <ele>28.03</ele>
        <time>2020-05-30T16:30:23Z</time>
      </trkpt>
      <trkpt lat="47.25896" lon="-1.51229">
        <ele>26.22</ele>
        <time>2020-05-30T16:30:25Z</time>
      </trkpt>
      <trkpt lat="47.25902" lon="-1.51217">
        <ele>25.07</ele>
        <time>2020-05-30T16:30:27Z</time>
      </trkpt>
      <trkpt lat="47.25908" lon="-1.51204">
        <ele>25.02</ele>
        <time>2020-05-30T16:30:29Z</time>
      </trkpt>
      <trkpt lat="47.25915" lon="-1.51189">
        <ele>25.08</ele>
        <time>2020-05-30T16:30:31Z</time>
      </trkpt>
      <trkpt lat="47.25922" lon="-1.51175">
        <ele>25.85</ele>
        <time>2020-05-30T16:30:33Z</time>
      </trkpt>
      <trkpt lat="47.25928" lon="-1.51163">
        <ele>26.47</ele>
        <time>2020-05-30T16:30:35Z</time>
      </trkpt>
      <trkpt lat="47.25933" lon="-1.51152">
        <ele>26.56</ele>
        <time>2020-05-30T16:30:37Z</time>
      </trkpt>
      <trkpt lat="47.25935" lon="-1.51131">
        <ele>26.34</ele>
        <time>2020-05-30T16:30:40Z</time>
      </trkpt>
      <trkpt lat="47.25933" lon="-1.51117">
        <ele>26.62</ele>
        <time>2020-05-30T16:30:42Z</time>
      </trkpt>
      <trkpt lat="47.25942" lon="-1.51101">
        <ele>26.42</ele>
        <time>2020-05-30T16:30:46Z</time>
      </trkpt>
      <trkpt lat="47.2595" lon="-1.51094">
        <ele>25.96</ele>
        <time>2020-05-30T16:30:48Z</time>
      </trkpt>
      <trkpt lat="47.25962" lon="-1.51091">
        <ele>26.71</ele>
        <time>2020-05-30T16:30:50Z</time>
      </trkpt>
      <trkpt lat="47.25971" lon="-1.51081">
        <ele>26.99</ele>
        <time>2020-05-30T16:30:52Z</time>
      </trkpt>
      <trkpt lat="47.25979" lon="-1.5107">
        <ele>26.52</ele>
        <time>2020-05-30T16:30:54Z</time>
      </trkpt>
      <trkpt lat="47.25986" lon="-1.51055">
        <ele>26.28</ele>
        <time>2020-05-30T16:30:56Z</time>
      </trkpt>
      <trkpt lat="47.25994" lon="-1.51041">
        <ele>26.45</ele>
        <time>2020-05-30T16:30:58Z</time>
      </trkpt>
      <trkpt lat="47.26001" lon="-1.51027">
        <ele>26.47</ele>
        <time>2020-05-30T16:31:00Z</time>
      </trkpt>
      <trkpt lat="47.2601" lon="-1.51011">
        <ele>25.87</ele>
        <time>2020-05-30T16:31:02Z</time>
      </trkpt>
      <trkpt lat="47.26018" lon="-1.50997">
        <ele>25.02</ele>
        <time>2020-05-30T16:31:04Z</time>
      </trkpt>
      <trkpt lat="47.26028" lon="-1.50982">
        <ele>25.24</ele>
        <time>2020-05-30T16:31:06Z</time>
      </trkpt>
      <trkpt lat="47.26038" lon="-1.50969">
        <ele>25.23</ele>
        <time>2020-05-30T16:31:08Z</time>
      </trkpt>
      <trkpt lat="47.26047" lon="-1.50956">
        <ele>26.32</ele>
        <time>2020-05-30T16:31:10Z</time>
      </trkpt>
      <trkpt lat="47.26057" lon="-1.50942">
        <ele>27.15</ele>
        <time>2020-05-30T16:31:12Z</time>
      </trkpt>
      <trkpt lat="47.26067" lon="-1.50928">
        <ele>26.96</ele>
        <time>2020-05-30T16:31:14Z</time>
      </trkpt>
      <trkpt lat="47.26077" lon="-1.50916">
        <ele>27.59</ele>
        <time>2020-05-30T16:31:16Z</time>
      </trkpt>
      <trkpt lat="47.26088" lon="-1.50902">
        <ele>26.52</ele>
        <time>2020-05-30T16:31:18Z</time>
      </trkpt>
      <trkpt lat="47.26099" lon="-1.50891">
        <ele>24.42</ele>
        <time>2020-05-30T16:31:20Z</time>
      </trkpt>
      <trkpt lat="47.2611" lon="-1.5088">
        <ele>23.1</ele>
        <time>2020-05-30T16:31:22Z</time>
      </trkpt>
      <trkpt lat="47.26121" lon="-1.50871">
        <ele>21.84</ele>
        <time>2020-05-30T16:31:24Z</time>
      </trkpt>
      <trkpt lat="47.26131" lon="-1.50863">
        <ele>21.35</ele>
        <time>2020-05-30T16:31:26Z</time>
      </trkpt>
      <trkpt lat="47.26142" lon="-1.50856">
        <ele>21.25</ele>
        <time>2020-05-30T16:31:28Z</time>
      </trkpt>
      <trkpt lat="47.26155" lon="-1.50848">
        <ele>21.61</ele>
        <time>2020-05-30T16:31:30Z</time>
      </trkpt>
      <trkpt lat="47.26166" lon="-1.50841">
        <ele>21.9</ele>
        <time>2020-05-30T16:31:32Z</time>
      </trkpt>
      <trkpt lat="47.26177" lon="-1.50835">
        <ele>22.47</ele>
        <time>2020-05-30T16:31:34Z</time>
      </trkpt>
      <trkpt lat="47.26189" lon="-1.50826">
        <ele>22.88</ele>
        <time>2020-05-30T16:31:36Z</time>
      </trkpt>
      <trkpt lat="47.262" lon="-1.50819">
        <ele>22.95</ele>
        <time>2020-05-30T16:31:38Z</time>
      </trkpt>
      <trkpt lat="47.26211" lon="-1.50812">
        <ele>22.94</ele>
        <time>2020-05-30T16:31:40Z</time>
      </trkpt>
      <trkpt lat="47.26225" lon="-1.50803">
        <ele>23.58</ele>
        <time>2020-05-30T16:31:42Z</time>
      </trkpt>
      <trkpt lat="47.26235" lon="-1.50797">
        <ele>22.79</ele>
        <time>2020-05-30T16:31:44Z</time>
      </trkpt>
      <trkpt lat="47.26244" lon="-1.50792">
        <ele>20.85</ele>
        <time>2020-05-30T16:31:46Z</time>
      </trkpt>
      <trkpt lat="47.26254" lon="-1.50787">
        <ele>19.53</ele>
        <time>2020-05-30T16:31:48Z</time>
      </trkpt>
      <trkpt lat="47.26264" lon="-1.5078">
        <ele>19.05</ele>
        <time>2020-05-30T16:31:50Z</time>
      </trkpt>
      <trkpt lat="47.26275" lon="-1.50773">
        <ele>18.92</ele>
        <time>2020-05-30T16:31:52Z</time>
      </trkpt>
      <trkpt lat="47.26286" lon="-1.50766">
        <ele>17.74</ele>
        <time>2020-05-30T16:31:54Z</time>
      </trkpt>
      <trkpt lat="47.26298" lon="-1.50759">
        <ele>17.41</ele>
        <time>2020-05-30T16:31:56Z</time>
      </trkpt>
      <trkpt lat="47.26309" lon="-1.50753">
        <ele>17.89</ele>
        <time>2020-05-30T16:31:58Z</time>
      </trkpt>
      <trkpt lat="47.2632" lon="-1.50745">
        <ele>17.63</ele>
        <time>2020-05-30T16:32:00Z</time>
      </trkpt>
      <trkpt lat="47.26331" lon="-1.50738">
        <ele>17.36</ele>
        <time>2020-05-30T16:32:02Z</time>
      </trkpt>
      <trkpt lat="47.26339" lon="-1.50724">
        <ele>17.21</ele>
        <time>2020-05-30T16:32:04Z</time>
      </trkpt>
      <trkpt lat="47.26346" lon="-1.50711">
        <ele>18.04</ele>
        <time>2020-05-30T16:32:06Z</time>
      </trkpt>
      <trkpt lat="47.26355" lon="-1.50704">
        <ele>18.3</ele>
        <time>2020-05-30T16:32:08Z</time>
      </trkpt>
      <trkpt lat="47.26367" lon="-1.50705">
        <ele>18.13</ele>
        <time>2020-05-30T16:32:10Z</time>
      </trkpt>
      <trkpt lat="47.26379" lon="-1.50704">
        <ele>18.97</ele>
        <time>2020-05-30T16:32:12Z</time>
      </trkpt>
      <trkpt lat="47.26392" lon="-1.50697">
        <ele>19.7</ele>
        <time>2020-05-30T16:32:14Z</time>
      </trkpt>
      <trkpt lat="47.26403" lon="-1.50689">
        <ele>20.11</ele>
        <time>2020-05-30T16:32:16Z</time>
      </trkpt>
      <trkpt lat="47.26413" lon="-1.50679">
        <ele>20.37</ele>
        <time>2020-05-30T16:32:18Z</time>
      </trkpt>
      <trkpt lat="47.26422" lon="-1.50668">
        <ele>21.18</ele>
        <time>2020-05-30T16:32:20Z</time>
      </trkpt>
      <trkpt lat="47.2643" lon="-1.50654">
        <ele>22.67</ele>
        <time>2020-05-30T16:32:22Z</time>
      </trkpt>
      <trkpt lat="47.26439" lon="-1.5064">
        <ele>23.47</ele>
        <time>2020-05-30T16:32:24Z</time>
      </trkpt>
      <trkpt lat="47.26447" lon="-1.50627">
        <ele>23.92</ele>
        <time>2020-05-30T16:32:26Z</time>
      </trkpt>
      <trkpt lat="47.26454" lon="-1.50616">
        <ele>24.61</ele>
        <time>2020-05-30T16:32:28Z</time>
      </trkpt>
      <trkpt lat="47.26463" lon="-1.50603">
        <ele>25.34</ele>
        <time>2020-05-30T16:32:30Z</time>
      </trkpt>
      <trkpt lat="47.2647" lon="-1.50591">
        <ele>25.59</ele>
        <time>2020-05-30T16:32:32Z</time>
      </trkpt>
      <trkpt lat="47.26478" lon="-1.50579">
        <ele>25.1</ele>
        <time>2020-05-30T16:32:34Z</time>
      </trkpt>
      <trkpt lat="47.26488" lon="-1.50565">
        <ele>24.08</ele>
        <time>2020-05-30T16:32:36Z</time>
      </trkpt>
      <trkpt lat="47.26496" lon="-1.50553">
        <ele>22.43</ele>
        <time>2020-05-30T16:32:38Z</time>
      </trkpt>
      <trkpt lat="47.26504" lon="-1.50541">
        <ele>21.29</ele>
        <time>2020-05-30T16:32:40Z</time>
      </trkpt>
      <trkpt lat="47.26513" lon="-1.50527">
        <ele>20.65</ele>
        <time>2020-05-30T16:32:42Z</time>
      </trkpt>
      <trkpt lat="47.26521" lon="-1.50515">
        <ele>20.46</ele>
        <time>2020-05-30T16:32:44Z</time>
      </trkpt>
      <trkpt lat="47.2653" lon="-1.505">
        <ele>20.31</ele>
        <time>2020-05-30T16:32:46Z</time>
      </trkpt>
      <trkpt lat="47.2654" lon="-1.50486">
        <ele>20.01</ele>
        <time>2020-05-30T16:32:48Z</time>
      </trkpt>
      <trkpt lat="47.26549" lon="-1.50473">
        <ele>19.25</ele>
        <time>2020-05-30T16:32:50Z</time>
      </trkpt>
      <trkpt lat="47.26558" lon="-1.50461">
        <ele>18</ele>
        <time>2020-05-30T16:32:52Z</time>
      </trkpt>
      <trkpt lat="47.26566" lon="-1.50448">
        <ele>17.54</ele>
        <time>2020-05-30T16:32:54Z</time>
      </trkpt>
      <trkpt lat="47.26576" lon="-1.50435">
        <ele>18.06</ele>
        <time>2020-05-30T16:32:56Z</time>
      </trkpt>
      <trkpt lat="47.26586" lon="-1.50422">
        <ele>18.23</ele>
        <time>2020-05-30T16:32:58Z</time>
      </trkpt>
      <trkpt lat="47.26595" lon="-1.50408">
        <ele>17.51</ele>
        <time>2020-05-30T16:33:00Z</time>
      </trkpt>
      <trkpt lat="47.26603" lon="-1.50395">
        <ele>18.01</ele>
        <time>2020-05-30T16:33:02Z</time>
      </trkpt>
      <trkpt lat="47.26611" lon="-1.50383">
        <ele>19.44</ele>
        <time>2020-05-30T16:33:04Z</time>
      </trkpt>
      <trkpt lat="47.2662" lon="-1.5037">
        <ele>21.12</ele>
        <time>2020-05-30T16:33:06Z</time>
      </trkpt>
      <trkpt lat="47.26629" lon="-1.50357">
        <ele>21.24</ele>
        <time>2020-05-30T16:33:08Z</time>
      </trkpt>
      <trkpt lat="47.26639" lon="-1.50344">
        <ele>21.79</ele>
        <time>2020-05-30T16:33:10Z</time>
      </trkpt>
      <trkpt lat="47.2665" lon="-1.50332">
        <ele>23.14</ele>
        <time>2020-05-30T16:33:12Z</time>
      </trkpt>
      <trkpt lat="47.26659" lon="-1.50319">
        <ele>23.69</ele>
        <time>2020-05-30T16:33:14Z</time>
      </trkpt>
      <trkpt lat="47.2667" lon="-1.50309">
        <ele>23.77</ele>
        <time>2020-05-30T16:33:16Z</time>
      </trkpt>
      <trkpt lat="47.26682" lon="-1.50302">
        <ele>25.25</ele>
        <time>2020-05-30T16:33:18Z</time>
      </trkpt>
      <trkpt lat="47.26694" lon="-1.50295">
        <ele>26.27</ele>
        <time>2020-05-30T16:33:20Z</time>
      </trkpt>
      <trkpt lat="47.26705" lon="-1.50286">
        <ele>26.22</ele>
        <time>2020-05-30T16:33:22Z</time>
      </trkpt>
      <trkpt lat="47.26716" lon="-1.50277">
        <ele>26.12</ele>
        <time>2020-05-30T16:33:24Z</time>
      </trkpt>
      <trkpt lat="47.26728" lon="-1.50268">
        <ele>25.98</ele>
        <time>2020-05-30T16:33:26Z</time>
      </trkpt>
      <trkpt lat="47.26741" lon="-1.50262">
        <ele>25.55</ele>
        <time>2020-05-30T16:33:28Z</time>
      </trkpt>
      <trkpt lat="47.26753" lon="-1.50256">
        <ele>24.58</ele>
        <time>2020-05-30T16:33:30Z</time>
      </trkpt>
      <trkpt lat="47.26765" lon="-1.50251">
        <ele>24.15</ele>
        <time>2020-05-30T16:33:32Z</time>
      </trkpt>
      <trkpt lat="47.26778" lon="-1.50244">
        <ele>23.91</ele>
        <time>2020-05-30T16:33:34Z</time>
      </trkpt>
      <trkpt lat="47.2679" lon="-1.50238">
        <ele>23.92</ele>
        <time>2020-05-30T16:33:36Z</time>
      </trkpt>
      <trkpt lat="47.26803" lon="-1.50231">
        <ele>25.07</ele>
        <time>2020-05-30T16:33:38Z</time>
      </trkpt>
      <trkpt lat="47.26815" lon="-1.50225">
        <ele>25.6</ele>
        <time>2020-05-30T16:33:40Z</time>
      </trkpt>
      <trkpt lat="47.26828" lon="-1.50219">
        <ele>25.45</ele>
        <time>2020-05-30T16:33:42Z</time>
      </trkpt>
      <trkpt lat="47.26839" lon="-1.50213">
        <ele>24.9</ele>
        <time>2020-05-30T16:33:44Z</time>
      </trkpt>
      <trkpt lat="47.26851" lon="-1.50207">
        <ele>24.2</ele>
        <time>2020-05-30T16:33:46Z</time>
      </trkpt>
      <trkpt lat="47.26862" lon="-1.50201">
        <ele>23.32</ele>
        <time>2020-05-30T16:33:48Z</time>
      </trkpt>
      <trkpt lat="47.26875" lon="-1.50195">
        <ele>22.22</ele>
        <time>2020-05-30T16:33:50Z</time>
      </trkpt>
      <trkpt lat="47.26886" lon="-1.50191">
        <ele>21.76</ele>
        <time>2020-05-30T16:33:52Z</time>
      </trkpt>
      <trkpt lat="47.26895" lon="-1.50186">
        <ele>21.36</ele>
        <time>2020-05-30T16:33:54Z</time>
      </trkpt>
      <trkpt lat="47.26907" lon="-1.50181">
        <ele>20.85</ele>
        <time>2020-05-30T16:33:56Z</time>
      </trkpt>
      <trkpt lat="47.2692" lon="-1.50174">
        <ele>19.71</ele>
        <time>2020-05-30T16:33:58Z</time>
      </trkpt>
      <trkpt lat="47.26929" lon="-1.50161">
        <ele>18.71</ele>
        <time>2020-05-30T16:34:00Z</time>
      </trkpt>
      <trkpt lat="47.26939" lon="-1.50155">
        <ele>18.25</ele>
        <time>2020-05-30T16:34:02Z</time>
      </trkpt>
      <trkpt lat="47.2695" lon="-1.50156">
        <ele>17.71</ele>
        <time>2020-05-30T16:34:04Z</time>
      </trkpt>
      <trkpt lat="47.26962" lon="-1.50151">
        <ele>17.77</ele>
        <time>2020-05-30T16:34:06Z</time>
      </trkpt>
      <trkpt lat="47.26975" lon="-1.50146">
        <ele>17.78</ele>
        <time>2020-05-30T16:34:08Z</time>
      </trkpt>
      <trkpt lat="47.26988" lon="-1.50137">
        <ele>17.48</ele>
        <time>2020-05-30T16:34:10Z</time>
      </trkpt>
      <trkpt lat="47.27" lon="-1.50129">
        <ele>18.53</ele>
        <time>2020-05-30T16:34:12Z</time>
      </trkpt>
      <trkpt lat="47.27011" lon="-1.5012">
        <ele>19.9</ele>
        <time>2020-05-30T16:34:14Z</time>
      </trkpt>
      <trkpt lat="47.27022" lon="-1.50111">
        <ele>20.69</ele>
        <time>2020-05-30T16:34:16Z</time>
      </trkpt>
      <trkpt lat="47.27032" lon="-1.50101">
        <ele>20.77</ele>
        <time>2020-05-30T16:34:18Z</time>
      </trkpt>
      <trkpt lat="47.27041" lon="-1.50092">
        <ele>21.19</ele>
        <time>2020-05-30T16:34:20Z</time>
      </trkpt>
      <trkpt lat="47.27052" lon="-1.50083">
        <ele>20.86</ele>
        <time>2020-05-30T16:34:22Z</time>
      </trkpt>
      <trkpt lat="47.27063" lon="-1.50073">
        <ele>20.16</ele>
        <time>2020-05-30T16:34:24Z</time>
      </trkpt>
      <trkpt lat="47.27074" lon="-1.50064">
        <ele>19.38</ele>
        <time>2020-05-30T16:34:26Z</time>
      </trkpt>
      <trkpt lat="47.27084" lon="-1.50056">
        <ele>19.22</ele>
        <time>2020-05-30T16:34:28Z</time>
      </trkpt>
      <trkpt lat="47.27096" lon="-1.50045">
        <ele>18.37</ele>
        <time>2020-05-30T16:34:30Z</time>
      </trkpt>
      <trkpt lat="47.27108" lon="-1.50036">
        <ele>19.04</ele>
        <time>2020-05-30T16:34:32Z</time>
      </trkpt>
      <trkpt lat="47.27118" lon="-1.50026">
        <ele>19.87</ele>
        <time>2020-05-30T16:34:34Z</time>
      </trkpt>
      <trkpt lat="47.27131" lon="-1.50016">
        <ele>19.71</ele>
        <time>2020-05-30T16:34:36Z</time>
      </trkpt>
      <trkpt lat="47.27142" lon="-1.50007">
        <ele>19.49</ele>
        <time>2020-05-30T16:34:38Z</time>
      </trkpt>
      <trkpt lat="47.27153" lon="-1.49997">
        <ele>20.96</ele>
        <time>2020-05-30T16:34:40Z</time>
      </trkpt>
      <trkpt lat="47.27165" lon="-1.49988">
        <ele>21.09</ele>
        <time>2020-05-30T16:34:42Z</time>
      </trkpt>
      <trkpt lat="47.27178" lon="-1.49978">
        <ele>21.12</ele>
        <time>2020-05-30T16:34:44Z</time>
      </trkpt>
      <trkpt lat="47.27189" lon="-1.49969">
        <ele>21.97</ele>
        <time>2020-05-30T16:34:46Z</time>
      </trkpt>
      <trkpt lat="47.272" lon="-1.4996">
        <ele>21.55</ele>
        <time>2020-05-30T16:34:48Z</time>
      </trkpt>
      <trkpt lat="47.27212" lon="-1.4995">
        <ele>20.44</ele>
        <time>2020-05-30T16:34:50Z</time>
      </trkpt>
      <trkpt lat="47.27224" lon="-1.49941">
        <ele>19.38</ele>
        <time>2020-05-30T16:34:52Z</time>
      </trkpt>
      <trkpt lat="47.27236" lon="-1.49932">
        <ele>17.96</ele>
        <time>2020-05-30T16:34:54Z</time>
      </trkpt>
      <trkpt lat="47.27248" lon="-1.49925">
        <ele>16.4</ele>
        <time>2020-05-30T16:34:56Z</time>
      </trkpt>
      <trkpt lat="47.2726" lon="-1.49918">
        <ele>15.94</ele>
        <time>2020-05-30T16:34:58Z</time>
      </trkpt>
      <trkpt lat="47.27275" lon="-1.49911">
        <ele>16.86</ele>
        <time>2020-05-30T16:35:00Z</time>
      </trkpt>
      <trkpt lat="47.27288" lon="-1.49906">
        <ele>17.82</ele>
        <time>2020-05-30T16:35:02Z</time>
      </trkpt>
      <trkpt lat="47.27301" lon="-1.49901">
        <ele>18.39</ele>
        <time>2020-05-30T16:35:04Z</time>
      </trkpt>
      <trkpt lat="47.27314" lon="-1.49895">
        <ele>19</ele>
        <time>2020-05-30T16:35:07Z</time>
      </trkpt>
      <trkpt lat="47.27326" lon="-1.49889">
        <ele>19.12</ele>
        <time>2020-05-30T16:35:08Z</time>
      </trkpt>
      <trkpt lat="47.27338" lon="-1.49883">
        <ele>18.77</ele>
        <time>2020-05-30T16:35:10Z</time>
      </trkpt>
      <trkpt lat="47.2735" lon="-1.49877">
        <ele>18.17</ele>
        <time>2020-05-30T16:35:12Z</time>
      </trkpt>
      <trkpt lat="47.27361" lon="-1.49872">
        <ele>16.81</ele>
        <time>2020-05-30T16:35:14Z</time>
      </trkpt>
      <trkpt lat="47.27373" lon="-1.49866">
        <ele>15.9</ele>
        <time>2020-05-30T16:35:16Z</time>
      </trkpt>
      <trkpt lat="47.27386" lon="-1.4986">
        <ele>15.33</ele>
        <time>2020-05-30T16:35:18Z</time>
      </trkpt>
      <trkpt lat="47.27398" lon="-1.49854">
        <ele>15.05</ele>
        <time>2020-05-30T16:35:21Z</time>
      </trkpt>
      <trkpt lat="47.2741" lon="-1.4985">
        <ele>15.14</ele>
        <time>2020-05-30T16:35:23Z</time>
      </trkpt>
      <trkpt lat="47.27422" lon="-1.49844">
        <ele>15.55</ele>
        <time>2020-05-30T16:35:25Z</time>
      </trkpt>
      <trkpt lat="47.27434" lon="-1.49839">
        <ele>16.09</ele>
        <time>2020-05-30T16:35:27Z</time>
      </trkpt>
      <trkpt lat="47.27448" lon="-1.49832">
        <ele>15.97</ele>
        <time>2020-05-30T16:35:29Z</time>
      </trkpt>
      <trkpt lat="47.27459" lon="-1.49827">
        <ele>16.23</ele>
        <time>2020-05-30T16:35:31Z</time>
      </trkpt>
      <trkpt lat="47.27471" lon="-1.49822">
        <ele>15.86</ele>
        <time>2020-05-30T16:35:33Z</time>
      </trkpt>
      <trkpt lat="47.27481" lon="-1.49818">
        <ele>16.09</ele>
        <time>2020-05-30T16:35:35Z</time>
      </trkpt>
      <trkpt lat="47.27492" lon="-1.49812">
        <ele>16.11</ele>
        <time>2020-05-30T16:35:37Z</time>
      </trkpt>
      <trkpt lat="47.27503" lon="-1.49805">
        <ele>15.29</ele>
        <time>2020-05-30T16:35:39Z</time>
      </trkpt>
      <trkpt lat="47.27514" lon="-1.49796">
        <ele>14.96</ele>
        <time>2020-05-30T16:35:41Z</time>
      </trkpt>
      <trkpt lat="47.27527" lon="-1.49785">
        <ele>14.65</ele>
        <time>2020-05-30T16:35:43Z</time>
      </trkpt>
      <trkpt lat="47.27539" lon="-1.49772">
        <ele>14.11</ele>
        <time>2020-05-30T16:35:45Z</time>
      </trkpt>
      <trkpt lat="47.27549" lon="-1.49759">
        <ele>14.85</ele>
        <time>2020-05-30T16:35:47Z</time>
      </trkpt>
      <trkpt lat="47.27558" lon="-1.49748">
        <ele>15.89</ele>
        <time>2020-05-30T16:35:49Z</time>
      </trkpt>
      <trkpt lat="47.27566" lon="-1.49737">
        <ele>16.72</ele>
        <time>2020-05-30T16:35:51Z</time>
      </trkpt>
      <trkpt lat="47.27576" lon="-1.49724">
        <ele>17.02</ele>
        <time>2020-05-30T16:35:53Z</time>
      </trkpt>
      <trkpt lat="47.27585" lon="-1.49712">
        <ele>16.03</ele>
        <time>2020-05-30T16:35:55Z</time>
      </trkpt>
      <trkpt lat="47.27593" lon="-1.497">
        <ele>16.57</ele>
        <time>2020-05-30T16:35:57Z</time>
      </trkpt>
      <trkpt lat="47.27601" lon="-1.49689">
        <ele>16.76</ele>
        <time>2020-05-30T16:35:59Z</time>
      </trkpt>
      <trkpt lat="47.27611" lon="-1.49677">
        <ele>17.26</ele>
        <time>2020-05-30T16:36:01Z</time>
      </trkpt>
      <trkpt lat="47.2762" lon="-1.49665">
        <ele>17.92</ele>
        <time>2020-05-30T16:36:03Z</time>
      </trkpt>
      <trkpt lat="47.27628" lon="-1.49653">
        <ele>18.58</ele>
        <time>2020-05-30T16:36:05Z</time>
      </trkpt>
      <trkpt lat="47.27636" lon="-1.49641">
        <ele>19.58</ele>
        <time>2020-05-30T16:36:07Z</time>
      </trkpt>
      <trkpt lat="47.27645" lon="-1.49628">
        <ele>20.44</ele>
        <time>2020-05-30T16:36:09Z</time>
      </trkpt>
      <trkpt lat="47.27654" lon="-1.49614">
        <ele>20.54</ele>
        <time>2020-05-30T16:36:11Z</time>
      </trkpt>
      <trkpt lat="47.27663" lon="-1.49601">
        <ele>20.79</ele>
        <time>2020-05-30T16:36:13Z</time>
      </trkpt>
      <trkpt lat="47.27672" lon="-1.49589">
        <ele>21.46</ele>
        <time>2020-05-30T16:36:15Z</time>
      </trkpt>
      <trkpt lat="47.27681" lon="-1.49577">
        <ele>21.03</ele>
        <time>2020-05-30T16:36:17Z</time>
      </trkpt>
      <trkpt lat="47.27689" lon="-1.49566">
        <ele>20.82</ele>
        <time>2020-05-30T16:36:19Z</time>
      </trkpt>
      <trkpt lat="47.27696" lon="-1.49554">
        <ele>21.6</ele>
        <time>2020-05-30T16:36:21Z</time>
      </trkpt>
      <trkpt lat="47.27705" lon="-1.49541">
        <ele>21.16</ele>
        <time>2020-05-30T16:36:23Z</time>
      </trkpt>
      <trkpt lat="47.27713" lon="-1.49528">
        <ele>20.8</ele>
        <time>2020-05-30T16:36:25Z</time>
      </trkpt>
      <trkpt lat="47.2772" lon="-1.49516">
        <ele>21.14</ele>
        <time>2020-05-30T16:36:27Z</time>
      </trkpt>
      <trkpt lat="47.27729" lon="-1.49503">
        <ele>21.24</ele>
        <time>2020-05-30T16:36:29Z</time>
      </trkpt>
      <trkpt lat="47.27737" lon="-1.49491">
        <ele>21.69</ele>
        <time>2020-05-30T16:36:31Z</time>
      </trkpt>
      <trkpt lat="47.27746" lon="-1.4948">
        <ele>22.26</ele>
        <time>2020-05-30T16:36:33Z</time>
      </trkpt>
      <trkpt lat="47.27756" lon="-1.49467">
        <ele>23.49</ele>
        <time>2020-05-30T16:36:35Z</time>
      </trkpt>
      <trkpt lat="47.27764" lon="-1.49457">
        <ele>24.23</ele>
        <time>2020-05-30T16:36:37Z</time>
      </trkpt>
      <trkpt lat="47.27773" lon="-1.49446">
        <ele>23.89</ele>
        <time>2020-05-30T16:36:39Z</time>
      </trkpt>
      <trkpt lat="47.27781" lon="-1.49435">
        <ele>23.8</ele>
        <time>2020-05-30T16:36:41Z</time>
      </trkpt>
      <trkpt lat="47.27791" lon="-1.49423">
        <ele>24.05</ele>
        <time>2020-05-30T16:36:43Z</time>
      </trkpt>
      <trkpt lat="47.27801" lon="-1.49412">
        <ele>23.87</ele>
        <time>2020-05-30T16:36:45Z</time>
      </trkpt>
      <trkpt lat="47.2781" lon="-1.494">
        <ele>23.37</ele>
        <time>2020-05-30T16:36:47Z</time>
      </trkpt>
      <trkpt lat="47.27818" lon="-1.49387">
        <ele>22.56</ele>
        <time>2020-05-30T16:36:49Z</time>
      </trkpt>
      <trkpt lat="47.27824" lon="-1.49374">
        <ele>22.24</ele>
        <time>2020-05-30T16:36:51Z</time>
      </trkpt>
      <trkpt lat="47.27832" lon="-1.49363">
        <ele>22.34</ele>
        <time>2020-05-30T16:36:53Z</time>
      </trkpt>
      <trkpt lat="47.27842" lon="-1.49351">
        <ele>20.76</ele>
        <time>2020-05-30T16:36:56Z</time>
      </trkpt>
      <trkpt lat="47.27852" lon="-1.49341">
        <ele>17.47</ele>
        <time>2020-05-30T16:36:58Z</time>
      </trkpt>
      <trkpt lat="47.27862" lon="-1.4933">
        <ele>13.91</ele>
        <time>2020-05-30T16:37:00Z</time>
      </trkpt>
      <trkpt lat="47.27871" lon="-1.4932">
        <ele>10.72</ele>
        <time>2020-05-30T16:37:02Z</time>
      </trkpt>
      <trkpt lat="47.27881" lon="-1.49309">
        <ele>8.83</ele>
        <time>2020-05-30T16:37:04Z</time>
      </trkpt>
      <trkpt lat="47.2789" lon="-1.49297">
        <ele>7.88</ele>
        <time>2020-05-30T16:37:06Z</time>
      </trkpt>
      <trkpt lat="47.279" lon="-1.49285">
        <ele>7.29</ele>
        <time>2020-05-30T16:37:08Z</time>
      </trkpt>
      <trkpt lat="47.27909" lon="-1.49275">
        <ele>7.42</ele>
        <time>2020-05-30T16:37:10Z</time>
      </trkpt>
      <trkpt lat="47.27918" lon="-1.49265">
        <ele>6.49</ele>
        <time>2020-05-30T16:37:12Z</time>
      </trkpt>
      <trkpt lat="47.27926" lon="-1.49255">
        <ele>5.29</ele>
        <time>2020-05-30T16:37:14Z</time>
      </trkpt>
      <trkpt lat="47.27936" lon="-1.49243">
        <ele>3.67</ele>
        <time>2020-05-30T16:37:16Z</time>
      </trkpt>
      <trkpt lat="47.27946" lon="-1.49232">
        <ele>2.06</ele>
        <time>2020-05-30T16:37:18Z</time>
      </trkpt>
      <trkpt lat="47.27955" lon="-1.49222">
        <ele>-0.01</ele>
        <time>2020-05-30T16:37:20Z</time>
      </trkpt>
      <trkpt lat="47.27965" lon="-1.4921">
        <ele>-0.96</ele>
        <time>2020-05-30T16:37:22Z</time>
      </trkpt>
      <trkpt lat="47.27975" lon="-1.49198">
        <ele>-0.83</ele>
        <time>2020-05-30T16:37:24Z</time>
      </trkpt>
      <trkpt lat="47.27982" lon="-1.49187">
        <ele>-1.47</ele>
        <time>2020-05-30T16:37:26Z</time>
      </trkpt>
      <trkpt lat="47.27991" lon="-1.49175">
        <ele>-0.88</ele>
        <time>2020-05-30T16:37:28Z</time>
      </trkpt>
      <trkpt lat="47.28001" lon="-1.49163">
        <ele>-0.5</ele>
        <time>2020-05-30T16:37:30Z</time>
      </trkpt>
      <trkpt lat="47.28011" lon="-1.49151">
        <ele>0.09</ele>
        <time>2020-05-30T16:37:32Z</time>
      </trkpt>
      <trkpt lat="47.2802" lon="-1.49137">
        <ele>0.96</ele>
        <time>2020-05-30T16:37:34Z</time>
      </trkpt>
      <trkpt lat="47.28029" lon="-1.49124">
        <ele>2.09</ele>
        <time>2020-05-30T16:37:36Z</time>
      </trkpt>
      <trkpt lat="47.28038" lon="-1.49115">
        <ele>3.8</ele>
        <time>2020-05-30T16:37:38Z</time>
      </trkpt>
      <trkpt lat="47.28049" lon="-1.49104">
        <ele>4.6</ele>
        <time>2020-05-30T16:37:40Z</time>
      </trkpt>
      <trkpt lat="47.28059" lon="-1.49089">
        <ele>5.12</ele>
        <time>2020-05-30T16:37:42Z</time>
      </trkpt>
      <trkpt lat="47.28068" lon="-1.49076">
        <ele>6.58</ele>
        <time>2020-05-30T16:37:44Z</time>
      </trkpt>
      <trkpt lat="47.28078" lon="-1.49061">
        <ele>8.14</ele>
        <time>2020-05-30T16:37:46Z</time>
      </trkpt>
      <trkpt lat="47.28087" lon="-1.49047">
        <ele>10.02</ele>
        <time>2020-05-30T16:37:48Z</time>
      </trkpt>
      <trkpt lat="47.28096" lon="-1.49035">
        <ele>11.55</ele>
        <time>2020-05-30T16:37:50Z</time>
      </trkpt>
      <trkpt lat="47.28107" lon="-1.49021">
        <ele>13.72</ele>
        <time>2020-05-30T16:37:52Z</time>
      </trkpt>
      <trkpt lat="47.28118" lon="-1.49007">
        <ele>15.45</ele>
        <time>2020-05-30T16:37:54Z</time>
      </trkpt>
      <trkpt lat="47.28128" lon="-1.48993">
        <ele>16.52</ele>
        <time>2020-05-30T16:37:56Z</time>
      </trkpt>
      <trkpt lat="47.28138" lon="-1.48981">
        <ele>16.64</ele>
        <time>2020-05-30T16:37:58Z</time>
      </trkpt>
      <trkpt lat="47.28147" lon="-1.4897">
        <ele>16.89</ele>
        <time>2020-05-30T16:38:00Z</time>
      </trkpt>
      <trkpt lat="47.28156" lon="-1.48958">
        <ele>15.85</ele>
        <time>2020-05-30T16:38:02Z</time>
      </trkpt>
      <trkpt lat="47.28165" lon="-1.48947">
        <ele>15.63</ele>
        <time>2020-05-30T16:38:04Z</time>
      </trkpt>
      <trkpt lat="47.28175" lon="-1.48936">
        <ele>14.61</ele>
        <time>2020-05-30T16:38:06Z</time>
      </trkpt>
      <trkpt lat="47.28185" lon="-1.48927">
        <ele>13.8</ele>
        <time>2020-05-30T16:38:08Z</time>
      </trkpt>
      <trkpt lat="47.28196" lon="-1.48911">
        <ele>14.04</ele>
        <time>2020-05-30T16:38:10Z</time>
      </trkpt>
      <trkpt lat="47.28207" lon="-1.48896">
        <ele>14.18</ele>
        <time>2020-05-30T16:38:12Z</time>
      </trkpt>
      <trkpt lat="47.28218" lon="-1.48883">
        <ele>15.38</ele>
        <time>2020-05-30T16:38:14Z</time>
      </trkpt>
      <trkpt lat="47.28228" lon="-1.4887">
        <ele>16.42</ele>
        <time>2020-05-30T16:38:16Z</time>
      </trkpt>
      <trkpt lat="47.28236" lon="-1.48861">
        <ele>17.38</ele>
        <time>2020-05-30T16:38:18Z</time>
      </trkpt>
      <trkpt lat="47.28243" lon="-1.48852">
        <ele>17.77</ele>
        <time>2020-05-30T16:38:20Z</time>
      </trkpt>
      <trkpt lat="47.28253" lon="-1.4884">
        <ele>17.6</ele>
        <time>2020-05-30T16:38:22Z</time>
      </trkpt>
      <trkpt lat="47.28263" lon="-1.48827">
        <ele>16.77</ele>
        <time>2020-05-30T16:38:24Z</time>
      </trkpt>
      <trkpt lat="47.28272" lon="-1.48816">
        <ele>15.25</ele>
        <time>2020-05-30T16:38:26Z</time>
      </trkpt>
      <trkpt lat="47.28282" lon="-1.48803">
        <ele>16.52</ele>
        <time>2020-05-30T16:38:28Z</time>
      </trkpt>
      <trkpt lat="47.28292" lon="-1.48788">
        <ele>17.97</ele>
        <time>2020-05-30T16:38:30Z</time>
      </trkpt>
      <trkpt lat="47.283" lon="-1.48772">
        <ele>18.03</ele>
        <time>2020-05-30T16:38:32Z</time>
      </trkpt>
      <trkpt lat="47.28307" lon="-1.48755">
        <ele>17.83</ele>
        <time>2020-05-30T16:38:34Z</time>
      </trkpt>
      <trkpt lat="47.28312" lon="-1.48739">
        <ele>16.73</ele>
        <time>2020-05-30T16:38:36Z</time>
      </trkpt>
      <trkpt lat="47.28316" lon="-1.48721">
        <ele>15.41</ele>
        <time>2020-05-30T16:38:38Z</time>
      </trkpt>
      <trkpt lat="47.28319" lon="-1.48705">
        <ele>14.66</ele>
        <time>2020-05-30T16:38:40Z</time>
      </trkpt>
      <trkpt lat="47.28322" lon="-1.48685">
        <ele>15.17</ele>
        <time>2020-05-30T16:38:42Z</time>
      </trkpt>
      <trkpt lat="47.28322" lon="-1.48667">
        <ele>15.68</ele>
        <time>2020-05-30T16:38:44Z</time>
      </trkpt>
      <trkpt lat="47.28322" lon="-1.48648">
        <ele>16.3</ele>
        <time>2020-05-30T16:38:46Z</time>
      </trkpt>
      <trkpt lat="47.28317" lon="-1.48634">
        <ele>17.6</ele>
        <time>2020-05-30T16:38:48Z</time>
      </trkpt>
      <trkpt lat="47.28309" lon="-1.4862">
        <ele>18.77</ele>
        <time>2020-05-30T16:38:50Z</time>
      </trkpt>
      <trkpt lat="47.28295" lon="-1.48609">
        <ele>18.61</ele>
        <time>2020-05-30T16:38:52Z</time>
      </trkpt>
      <trkpt lat="47.28284" lon="-1.48595">
        <ele>18.23</ele>
        <time>2020-05-30T16:38:54Z</time>
      </trkpt>
      <trkpt lat="47.28274" lon="-1.48584">
        <ele>17.85</ele>
        <time>2020-05-30T16:38:56Z</time>
      </trkpt>
      <trkpt lat="47.28264" lon="-1.48573">
        <ele>17.82</ele>
        <time>2020-05-30T16:38:58Z</time>
      </trkpt>
      <trkpt lat="47.28252" lon="-1.48564">
        <ele>17.59</ele>
        <time>2020-05-30T16:39:00Z</time>
      </trkpt>
      <trkpt lat="47.2824" lon="-1.48563">
        <ele>16.55</ele>
        <time>2020-05-30T16:39:02Z</time>
      </trkpt>
      <trkpt lat="47.28227" lon="-1.48562">
        <ele>15.12</ele>
        <time>2020-05-30T16:39:04Z</time>
      </trkpt>
      <trkpt lat="47.28215" lon="-1.48562">
        <ele>14.47</ele>
        <time>2020-05-30T16:39:06Z</time>
      </trkpt>
      <trkpt lat="47.28203" lon="-1.48561">
        <ele>13.3</ele>
        <time>2020-05-30T16:39:08Z</time>
      </trkpt>
      <trkpt lat="47.2819" lon="-1.48561">
        <ele>12.19</ele>
        <time>2020-05-30T16:39:10Z</time>
      </trkpt>
      <trkpt lat="47.28178" lon="-1.48562">
        <ele>12.81</ele>
        <time>2020-05-30T16:39:12Z</time>
      </trkpt>
      <trkpt lat="47.28166" lon="-1.48562">
        <ele>11.75</ele>
        <time>2020-05-30T16:39:14Z</time>
      </trkpt>
      <trkpt lat="47.28154" lon="-1.4856">
        <ele>11.46</ele>
        <time>2020-05-30T16:39:16Z</time>
      </trkpt>
      <trkpt lat="47.28141" lon="-1.48556">
        <ele>11.23</ele>
        <time>2020-05-30T16:39:18Z</time>
      </trkpt>
      <trkpt lat="47.28129" lon="-1.48551">
        <ele>11.6</ele>
        <time>2020-05-30T16:39:20Z</time>
      </trkpt>
      <trkpt lat="47.28118" lon="-1.4855">
        <ele>11.96</ele>
        <time>2020-05-30T16:39:22Z</time>
      </trkpt>
      <trkpt lat="47.28106" lon="-1.4855">
        <ele>12.41</ele>
        <time>2020-05-30T16:39:24Z</time>
      </trkpt>
      <trkpt lat="47.28094" lon="-1.4855">
        <ele>13.25</ele>
        <time>2020-05-30T16:39:26Z</time>
      </trkpt>
      <trkpt lat="47.28084" lon="-1.48551">
        <ele>14.4</ele>
        <time>2020-05-30T16:39:28Z</time>
      </trkpt>
      <trkpt lat="47.28073" lon="-1.48552">
        <ele>15.05</ele>
        <time>2020-05-30T16:39:30Z</time>
      </trkpt>
      <trkpt lat="47.28063" lon="-1.48554">
        <ele>15.06</ele>
        <time>2020-05-30T16:39:32Z</time>
      </trkpt>
      <trkpt lat="47.28051" lon="-1.48554">
        <ele>15.41</ele>
        <time>2020-05-30T16:39:34Z</time>
      </trkpt>
      <trkpt lat="47.28039" lon="-1.48552">
        <ele>15.21</ele>
        <time>2020-05-30T16:39:36Z</time>
      </trkpt>
      <trkpt lat="47.28028" lon="-1.4855">
        <ele>15.37</ele>
        <time>2020-05-30T16:39:38Z</time>
      </trkpt>
      <trkpt lat="47.28018" lon="-1.48549">
        <ele>16.86</ele>
        <time>2020-05-30T16:39:40Z</time>
      </trkpt>
      <trkpt lat="47.28007" lon="-1.48545">
        <ele>17.68</ele>
        <time>2020-05-30T16:39:42Z</time>
      </trkpt>
      <trkpt lat="47.27997" lon="-1.48546">
        <ele>17.59</ele>
        <time>2020-05-30T16:39:44Z</time>
      </trkpt>
      <trkpt lat="47.27984" lon="-1.48545">
        <ele>18.84</ele>
        <time>2020-05-30T16:39:47Z</time>
      </trkpt>
      <trkpt lat="47.27977" lon="-1.48538">
        <ele>19.18</ele>
        <time>2020-05-30T16:39:49Z</time>
      </trkpt>
      <trkpt lat="47.27963" lon="-1.48529">
        <ele>19.35</ele>
        <time>2020-05-30T16:39:52Z</time>
      </trkpt>
      <trkpt lat="47.27951" lon="-1.48525">
        <ele>18.99</ele>
        <time>2020-05-30T16:39:54Z</time>
      </trkpt>
      <trkpt lat="47.27941" lon="-1.4852">
        <ele>18.2</ele>
        <time>2020-05-30T16:39:56Z</time>
      </trkpt>
      <trkpt lat="47.27931" lon="-1.48517">
        <ele>17.82</ele>
        <time>2020-05-30T16:39:58Z</time>
      </trkpt>
      <trkpt lat="47.27923" lon="-1.4851">
        <ele>17.61</ele>
        <time>2020-05-30T16:40:00Z</time>
      </trkpt>
      <trkpt lat="47.27913" lon="-1.48504">
        <ele>18.57</ele>
        <time>2020-05-30T16:40:02Z</time>
      </trkpt>
      <trkpt lat="47.27904" lon="-1.48499">
        <ele>19.67</ele>
        <time>2020-05-30T16:40:04Z</time>
      </trkpt>
      <trkpt lat="47.27894" lon="-1.48496">
        <ele>21.92</ele>
        <time>2020-05-30T16:40:06Z</time>
      </trkpt>
      <trkpt lat="47.27882" lon="-1.48491">
        <ele>23.9</ele>
        <time>2020-05-30T16:40:08Z</time>
      </trkpt>
      <trkpt lat="47.27873" lon="-1.48486">
        <ele>24</ele>
        <time>2020-05-30T16:40:10Z</time>
      </trkpt>
      <trkpt lat="47.27861" lon="-1.4848">
        <ele>24.82</ele>
        <time>2020-05-30T16:40:13Z</time>
      </trkpt>
      <trkpt lat="47.27848" lon="-1.48473">
        <ele>25.32</ele>
        <time>2020-05-30T16:40:16Z</time>
      </trkpt>
      <trkpt lat="47.27839" lon="-1.48469">
        <ele>24.27</ele>
        <time>2020-05-30T16:40:18Z</time>
      </trkpt>
      <trkpt lat="47.27829" lon="-1.48465">
        <ele>23.98</ele>
        <time>2020-05-30T16:40:20Z</time>
      </trkpt>
      <trkpt lat="47.27819" lon="-1.4846">
        <ele>23.91</ele>
        <time>2020-05-30T16:40:22Z</time>
      </trkpt>
      <trkpt lat="47.2781" lon="-1.48454">
        <ele>22.27</ele>
        <time>2020-05-30T16:40:24Z</time>
      </trkpt>
      <trkpt lat="47.27798" lon="-1.48452">
        <ele>22.16</ele>
        <time>2020-05-30T16:40:27Z</time>
      </trkpt>
      <trkpt lat="47.27788" lon="-1.48441">
        <ele>24.24</ele>
        <time>2020-05-30T16:40:30Z</time>
      </trkpt>
      <trkpt lat="47.2778" lon="-1.48432">
        <ele>24.66</ele>
        <time>2020-05-30T16:40:32Z</time>
      </trkpt>
      <trkpt lat="47.27772" lon="-1.48424">
        <ele>25</ele>
        <time>2020-05-30T16:40:34Z</time>
      </trkpt>
      <trkpt lat="47.27762" lon="-1.48413">
        <ele>25.3</ele>
        <time>2020-05-30T16:40:37Z</time>
      </trkpt>
      <trkpt lat="47.27753" lon="-1.48405">
        <ele>25.56</ele>
        <time>2020-05-30T16:40:39Z</time>
      </trkpt>
      <trkpt lat="47.27742" lon="-1.48393">
        <ele>26.1</ele>
        <time>2020-05-30T16:40:42Z</time>
      </trkpt>
      <trkpt lat="47.27733" lon="-1.48385">
        <ele>26.98</ele>
        <time>2020-05-30T16:40:44Z</time>
      </trkpt>
      <trkpt lat="47.27725" lon="-1.48378">
        <ele>26.3</ele>
        <time>2020-05-30T16:40:46Z</time>
      </trkpt>
      <trkpt lat="47.27715" lon="-1.4837">
        <ele>26.51</ele>
        <time>2020-05-30T16:40:48Z</time>
      </trkpt>
      <trkpt lat="47.27703" lon="-1.48363">
        <ele>26.64</ele>
        <time>2020-05-30T16:40:51Z</time>
      </trkpt>
      <trkpt lat="47.27693" lon="-1.48358">
        <ele>27.94</ele>
        <time>2020-05-30T16:40:53Z</time>
      </trkpt>
      <trkpt lat="47.27683" lon="-1.48355">
        <ele>28.36</ele>
        <time>2020-05-30T16:40:55Z</time>
      </trkpt>
      <trkpt lat="47.27673" lon="-1.48352">
        <ele>28.64</ele>
        <time>2020-05-30T16:40:57Z</time>
      </trkpt>
      <trkpt lat="47.27662" lon="-1.4835">
        <ele>28.12</ele>
        <time>2020-05-30T16:40:59Z</time>
      </trkpt>
      <trkpt lat="47.27649" lon="-1.48351">
        <ele>28.76</ele>
        <time>2020-05-30T16:41:02Z</time>
      </trkpt>
      <trkpt lat="47.27639" lon="-1.48353">
        <ele>29.75</ele>
        <time>2020-05-30T16:41:04Z</time>
      </trkpt>
      <trkpt lat="47.27629" lon="-1.48356">
        <ele>29.82</ele>
        <time>2020-05-30T16:41:06Z</time>
      </trkpt>
      <trkpt lat="47.27619" lon="-1.48358">
        <ele>29.5</ele>
        <time>2020-05-30T16:41:08Z</time>
      </trkpt>
      <trkpt lat="47.27609" lon="-1.48361">
        <ele>29.95</ele>
        <time>2020-05-30T16:41:10Z</time>
      </trkpt>
      <trkpt lat="47.276" lon="-1.48363">
        <ele>30.13</ele>
        <time>2020-05-30T16:41:12Z</time>
      </trkpt>
      <trkpt lat="47.27591" lon="-1.48372">
        <ele>30.22</ele>
        <time>2020-05-30T16:41:15Z</time>
      </trkpt>
      <trkpt lat="47.2758" lon="-1.48373">
        <ele>29.69</ele>
        <time>2020-05-30T16:41:18Z</time>
      </trkpt>
      <trkpt lat="47.2757" lon="-1.48374">
        <ele>29.9</ele>
        <time>2020-05-30T16:41:20Z</time>
      </trkpt>
      <trkpt lat="47.2756" lon="-1.48371">
        <ele>29.99</ele>
        <time>2020-05-30T16:41:22Z</time>
      </trkpt>
      <trkpt lat="47.2755" lon="-1.48367">
        <ele>31.15</ele>
        <time>2020-05-30T16:41:24Z</time>
      </trkpt>
      <trkpt lat="47.27537" lon="-1.48365">
        <ele>31.71</ele>
        <time>2020-05-30T16:41:26Z</time>
      </trkpt>
      <trkpt lat="47.27525" lon="-1.48363">
        <ele>32.48</ele>
        <time>2020-05-30T16:41:28Z</time>
      </trkpt>
      <trkpt lat="47.27513" lon="-1.48361">
        <ele>32.93</ele>
        <time>2020-05-30T16:41:30Z</time>
      </trkpt>
      <trkpt lat="47.27503" lon="-1.4836">
        <ele>33.5</ele>
        <time>2020-05-30T16:41:32Z</time>
      </trkpt>
      <trkpt lat="47.2749" lon="-1.48359">
        <ele>33.86</ele>
        <time>2020-05-30T16:41:34Z</time>
      </trkpt>
      <trkpt lat="47.27479" lon="-1.48357">
        <ele>33.12</ele>
        <time>2020-05-30T16:41:36Z</time>
      </trkpt>
      <trkpt lat="47.27467" lon="-1.48355">
        <ele>33.07</ele>
        <time>2020-05-30T16:41:38Z</time>
      </trkpt>
      <trkpt lat="47.27454" lon="-1.48357">
        <ele>33.07</ele>
        <time>2020-05-30T16:41:40Z</time>
      </trkpt>
      <trkpt lat="47.27444" lon="-1.48351">
        <ele>33.17</ele>
        <time>2020-05-30T16:41:42Z</time>
      </trkpt>
      <trkpt lat="47.27434" lon="-1.48344">
        <ele>33.67</ele>
        <time>2020-05-30T16:41:44Z</time>
      </trkpt>
      <trkpt lat="47.27421" lon="-1.48343">
        <ele>35.57</ele>
        <time>2020-05-30T16:41:46Z</time>
      </trkpt>
      <trkpt lat="47.27409" lon="-1.48341">
        <ele>37.03</ele>
        <time>2020-05-30T16:41:48Z</time>
      </trkpt>
      <trkpt lat="47.27396" lon="-1.48339">
        <ele>36.31</ele>
        <time>2020-05-30T16:41:50Z</time>
      </trkpt>
      <trkpt lat="47.27382" lon="-1.48338">
        <ele>35.9</ele>
        <time>2020-05-30T16:41:52Z</time>
      </trkpt>
      <trkpt lat="47.27369" lon="-1.48339">
        <ele>36.46</ele>
        <time>2020-05-30T16:41:54Z</time>
      </trkpt>
      <trkpt lat="47.27355" lon="-1.48342">
        <ele>36.19</ele>
        <time>2020-05-30T16:41:56Z</time>
      </trkpt>
      <trkpt lat="47.27342" lon="-1.48346">
        <ele>34.96</ele>
        <time>2020-05-30T16:41:58Z</time>
      </trkpt>
      <trkpt lat="47.27328" lon="-1.48351">
        <ele>34.36</ele>
        <time>2020-05-30T16:42:00Z</time>
      </trkpt>
      <trkpt lat="47.27315" lon="-1.48358">
        <ele>33.91</ele>
        <time>2020-05-30T16:42:02Z</time>
      </trkpt>
      <trkpt lat="47.27303" lon="-1.48366">
        <ele>32.98</ele>
        <time>2020-05-30T16:42:04Z</time>
      </trkpt>
      <trkpt lat="47.27292" lon="-1.48375">
        <ele>32.63</ele>
        <time>2020-05-30T16:42:06Z</time>
      </trkpt>
      <trkpt lat="47.27283" lon="-1.4839">
        <ele>33.25</ele>
        <time>2020-05-30T16:42:08Z</time>
      </trkpt>
      <trkpt lat="47.27273" lon="-1.48402">
        <ele>32.13</ele>
        <time>2020-05-30T16:42:10Z</time>
      </trkpt>
      <trkpt lat="47.27261" lon="-1.48413">
        <ele>30.69</ele>
        <time>2020-05-30T16:42:12Z</time>
      </trkpt>
      <trkpt lat="47.27249" lon="-1.48422">
        <ele>30.01</ele>
        <time>2020-05-30T16:42:14Z</time>
      </trkpt>
      <trkpt lat="47.27237" lon="-1.48424">
        <ele>29.6</ele>
        <time>2020-05-30T16:42:16Z</time>
      </trkpt>
      <trkpt lat="47.27224" lon="-1.48431">
        <ele>29.38</ele>
        <time>2020-05-30T16:42:18Z</time>
      </trkpt>
      <trkpt lat="47.27212" lon="-1.48441">
        <ele>28.96</ele>
        <time>2020-05-30T16:42:20Z</time>
      </trkpt>
      <trkpt lat="47.27201" lon="-1.4845">
        <ele>28.29</ele>
        <time>2020-05-30T16:42:22Z</time>
      </trkpt>
      <trkpt lat="47.27189" lon="-1.48459">
        <ele>28.72</ele>
        <time>2020-05-30T16:42:24Z</time>
      </trkpt>
      <trkpt lat="47.27177" lon="-1.48468">
        <ele>28.94</ele>
        <time>2020-05-30T16:42:26Z</time>
      </trkpt>
      <trkpt lat="47.27164" lon="-1.48478">
        <ele>28.29</ele>
        <time>2020-05-30T16:42:28Z</time>
      </trkpt>
      <trkpt lat="47.27153" lon="-1.48487">
        <ele>27.88</ele>
        <time>2020-05-30T16:42:30Z</time>
      </trkpt>
      <trkpt lat="47.27141" lon="-1.48498">
        <ele>28.32</ele>
        <time>2020-05-30T16:42:32Z</time>
      </trkpt>
      <trkpt lat="47.27131" lon="-1.48506">
        <ele>28.4</ele>
        <time>2020-05-30T16:42:34Z</time>
      </trkpt>
      <trkpt lat="47.27119" lon="-1.48515">
        <ele>28.41</ele>
        <time>2020-05-30T16:42:36Z</time>
      </trkpt>
      <trkpt lat="47.27107" lon="-1.48525">
        <ele>28.34</ele>
        <time>2020-05-30T16:42:38Z</time>
      </trkpt>
      <trkpt lat="47.27095" lon="-1.48535">
        <ele>28.45</ele>
        <time>2020-05-30T16:42:40Z</time>
      </trkpt>
      <trkpt lat="47.27084" lon="-1.48545">
        <ele>29.53</ele>
        <time>2020-05-30T16:42:42Z</time>
      </trkpt>
      <trkpt lat="47.27075" lon="-1.48556">
        <ele>30.57</ele>
        <time>2020-05-30T16:42:44Z</time>
      </trkpt>
      <trkpt lat="47.27064" lon="-1.48564">
        <ele>30.43</ele>
        <time>2020-05-30T16:42:46Z</time>
      </trkpt>
      <trkpt lat="47.27051" lon="-1.48567">
        <ele>30</ele>
        <time>2020-05-30T16:42:48Z</time>
      </trkpt>
      <trkpt lat="47.27037" lon="-1.48577">
        <ele>28.96</ele>
        <time>2020-05-30T16:42:50Z</time>
      </trkpt>
      <trkpt lat="47.27026" lon="-1.48587">
        <ele>27.99</ele>
        <time>2020-05-30T16:42:52Z</time>
      </trkpt>
      <trkpt lat="47.27014" lon="-1.48597">
        <ele>26.83</ele>
        <time>2020-05-30T16:42:54Z</time>
      </trkpt>
      <trkpt lat="47.27003" lon="-1.48605">
        <ele>26.37</ele>
        <time>2020-05-30T16:42:56Z</time>
      </trkpt>
      <trkpt lat="47.26992" lon="-1.48614">
        <ele>25.94</ele>
        <time>2020-05-30T16:42:58Z</time>
      </trkpt>
      <trkpt lat="47.2698" lon="-1.48622">
        <ele>26.2</ele>
        <time>2020-05-30T16:43:00Z</time>
      </trkpt>
      <trkpt lat="47.26969" lon="-1.4863">
        <ele>27.33</ele>
        <time>2020-05-30T16:43:02Z</time>
      </trkpt>
      <trkpt lat="47.26957" lon="-1.48638">
        <ele>28.01</ele>
        <time>2020-05-30T16:43:04Z</time>
      </trkpt>
      <trkpt lat="47.26946" lon="-1.48646">
        <ele>28.19</ele>
        <time>2020-05-30T16:43:06Z</time>
      </trkpt>
      <trkpt lat="47.26933" lon="-1.48656">
        <ele>28.51</ele>
        <time>2020-05-30T16:43:08Z</time>
      </trkpt>
      <trkpt lat="47.26923" lon="-1.48663">
        <ele>28.48</ele>
        <time>2020-05-30T16:43:10Z</time>
      </trkpt>
      <trkpt lat="47.26914" lon="-1.48671">
        <ele>28.66</ele>
        <time>2020-05-30T16:43:12Z</time>
      </trkpt>
      <trkpt lat="47.26902" lon="-1.48679">
        <ele>29.27</ele>
        <time>2020-05-30T16:43:14Z</time>
      </trkpt>
      <trkpt lat="47.2689" lon="-1.4869">
        <ele>29.51</ele>
        <time>2020-05-30T16:43:16Z</time>
      </trkpt>
      <trkpt lat="47.2688" lon="-1.48701">
        <ele>29.13</ele>
        <time>2020-05-30T16:43:18Z</time>
      </trkpt>
      <trkpt lat="47.2687" lon="-1.48713">
        <ele>28.81</ele>
        <time>2020-05-30T16:43:20Z</time>
      </trkpt>
      <trkpt lat="47.2686" lon="-1.48724">
        <ele>28.84</ele>
        <time>2020-05-30T16:43:22Z</time>
      </trkpt>
      <trkpt lat="47.26851" lon="-1.48735">
        <ele>28.91</ele>
        <time>2020-05-30T16:43:24Z</time>
      </trkpt>
      <trkpt lat="47.26841" lon="-1.4875">
        <ele>29.42</ele>
        <time>2020-05-30T16:43:26Z</time>
      </trkpt>
      <trkpt lat="47.2683" lon="-1.48765">
        <ele>29.3</ele>
        <time>2020-05-30T16:43:28Z</time>
      </trkpt>
      <trkpt lat="47.2682" lon="-1.48778">
        <ele>29.68</ele>
        <time>2020-05-30T16:43:30Z</time>
      </trkpt>
      <trkpt lat="47.26811" lon="-1.48792">
        <ele>29.23</ele>
        <time>2020-05-30T16:43:32Z</time>
      </trkpt>
      <trkpt lat="47.26801" lon="-1.48805">
        <ele>27.85</ele>
        <time>2020-05-30T16:43:34Z</time>
      </trkpt>
      <trkpt lat="47.2679" lon="-1.48821">
        <ele>26.94</ele>
        <time>2020-05-30T16:43:36Z</time>
      </trkpt>
      <trkpt lat="47.26779" lon="-1.48835">
        <ele>26.42</ele>
        <time>2020-05-30T16:43:38Z</time>
      </trkpt>
      <trkpt lat="47.2677" lon="-1.48849">
        <ele>26.66</ele>
        <time>2020-05-30T16:43:40Z</time>
      </trkpt>
      <trkpt lat="47.2676" lon="-1.48863">
        <ele>26.74</ele>
        <time>2020-05-30T16:43:42Z</time>
      </trkpt>
      <trkpt lat="47.26749" lon="-1.48877">
        <ele>27.04</ele>
        <time>2020-05-30T16:43:44Z</time>
      </trkpt>
      <trkpt lat="47.26738" lon="-1.4889">
        <ele>27.5</ele>
        <time>2020-05-30T16:43:46Z</time>
      </trkpt>
      <trkpt lat="47.26726" lon="-1.48904">
        <ele>26.54</ele>
        <time>2020-05-30T16:43:48Z</time>
      </trkpt>
      <trkpt lat="47.26713" lon="-1.48907">
        <ele>26.02</ele>
        <time>2020-05-30T16:43:50Z</time>
      </trkpt>
      <trkpt lat="47.26701" lon="-1.48894">
        <ele>25.06</ele>
        <time>2020-05-30T16:43:52Z</time>
      </trkpt>
      <trkpt lat="47.26697" lon="-1.48877">
        <ele>23.65</ele>
        <time>2020-05-30T16:43:54Z</time>
      </trkpt>
      <trkpt lat="47.26691" lon="-1.48857">
        <ele>22.29</ele>
        <time>2020-05-30T16:43:56Z</time>
      </trkpt>
      <trkpt lat="47.26682" lon="-1.48845">
        <ele>21.89</ele>
        <time>2020-05-30T16:43:58Z</time>
      </trkpt>
      <trkpt lat="47.26672" lon="-1.48832">
        <ele>22.19</ele>
        <time>2020-05-30T16:44:00Z</time>
      </trkpt>
      <trkpt lat="47.26662" lon="-1.48821">
        <ele>22.94</ele>
        <time>2020-05-30T16:44:02Z</time>
      </trkpt>
      <trkpt lat="47.26653" lon="-1.4881">
        <ele>24.34</ele>
        <time>2020-05-30T16:44:04Z</time>
      </trkpt>
      <trkpt lat="47.26642" lon="-1.488">
        <ele>24.38</ele>
        <time>2020-05-30T16:44:06Z</time>
      </trkpt>
      <trkpt lat="47.26632" lon="-1.4879">
        <ele>24.18</ele>
        <time>2020-05-30T16:44:08Z</time>
      </trkpt>
      <trkpt lat="47.26622" lon="-1.48785">
        <ele>24.74</ele>
        <time>2020-05-30T16:44:10Z</time>
      </trkpt>
      <trkpt lat="47.26607" lon="-1.4878">
        <ele>25.09</ele>
        <time>2020-05-30T16:44:12Z</time>
      </trkpt>
      <trkpt lat="47.26593" lon="-1.4877">
        <ele>25.03</ele>
        <time>2020-05-30T16:44:14Z</time>
      </trkpt>
      <trkpt lat="47.26582" lon="-1.48756">
        <ele>24.19</ele>
        <time>2020-05-30T16:44:16Z</time>
      </trkpt>
      <trkpt lat="47.26571" lon="-1.4874">
        <ele>23.26</ele>
        <time>2020-05-30T16:44:18Z</time>
      </trkpt>
      <trkpt lat="47.26557" lon="-1.48731">
        <ele>23.02</ele>
        <time>2020-05-30T16:44:20Z</time>
      </trkpt>
      <trkpt lat="47.26543" lon="-1.48724">
        <ele>23.16</ele>
        <time>2020-05-30T16:44:22Z</time>
      </trkpt>
      <trkpt lat="47.26528" lon="-1.48717">
        <ele>23.48</ele>
        <time>2020-05-30T16:44:24Z</time>
      </trkpt>
      <trkpt lat="47.26514" lon="-1.48711">
        <ele>23.73</ele>
        <time>2020-05-30T16:44:26Z</time>
      </trkpt>
      <trkpt lat="47.26502" lon="-1.48706">
        <ele>23.8</ele>
        <time>2020-05-30T16:44:28Z</time>
      </trkpt>
      <trkpt lat="47.26488" lon="-1.48702">
        <ele>24.19</ele>
        <time>2020-05-30T16:44:30Z</time>
      </trkpt>
      <trkpt lat="47.26474" lon="-1.48699">
        <ele>24.2</ele>
        <time>2020-05-30T16:44:32Z</time>
      </trkpt>
      <trkpt lat="47.2646" lon="-1.48697">
        <ele>23.76</ele>
        <time>2020-05-30T16:44:34Z</time>
      </trkpt>
      <trkpt lat="47.26444" lon="-1.48695">
        <ele>22.38</ele>
        <time>2020-05-30T16:44:36Z</time>
      </trkpt>
      <trkpt lat="47.2643" lon="-1.48694">
        <ele>21.65</ele>
        <time>2020-05-30T16:44:37Z</time>
      </trkpt>
      <trkpt lat="47.26415" lon="-1.48693">
        <ele>21.6</ele>
        <time>2020-05-30T16:44:39Z</time>
      </trkpt>
      <trkpt lat="47.26401" lon="-1.48691">
        <ele>22.09</ele>
        <time>2020-05-30T16:44:41Z</time>
      </trkpt>
      <trkpt lat="47.26386" lon="-1.48688">
        <ele>22.56</ele>
        <time>2020-05-30T16:44:43Z</time>
      </trkpt>
      <trkpt lat="47.2637" lon="-1.48686">
        <ele>22.4</ele>
        <time>2020-05-30T16:44:45Z</time>
      </trkpt>
      <trkpt lat="47.26356" lon="-1.48684">
        <ele>22.75</ele>
        <time>2020-05-30T16:44:47Z</time>
      </trkpt>
      <trkpt lat="47.2634" lon="-1.48681">
        <ele>22.95</ele>
        <time>2020-05-30T16:44:49Z</time>
      </trkpt>
      <trkpt lat="47.26326" lon="-1.48679">
        <ele>23.49</ele>
        <time>2020-05-30T16:44:51Z</time>
      </trkpt>
      <trkpt lat="47.26312" lon="-1.48677">
        <ele>24.5</ele>
        <time>2020-05-30T16:44:53Z</time>
      </trkpt>
      <trkpt lat="47.26298" lon="-1.48678">
        <ele>25.27</ele>
        <time>2020-05-30T16:44:55Z</time>
      </trkpt>
      <trkpt lat="47.26282" lon="-1.48678">
        <ele>25.16</ele>
        <time>2020-05-30T16:44:57Z</time>
      </trkpt>
      <trkpt lat="47.26267" lon="-1.4868">
        <ele>24.5</ele>
        <time>2020-05-30T16:44:59Z</time>
      </trkpt>
      <trkpt lat="47.26251" lon="-1.48683">
        <ele>23.39</ele>
        <time>2020-05-30T16:45:01Z</time>
      </trkpt>
      <trkpt lat="47.26237" lon="-1.48687">
        <ele>22.39</ele>
        <time>2020-05-30T16:45:03Z</time>
      </trkpt>
      <trkpt lat="47.26222" lon="-1.48692">
        <ele>21.05</ele>
        <time>2020-05-30T16:45:05Z</time>
      </trkpt>
      <trkpt lat="47.26208" lon="-1.48698">
        <ele>20.57</ele>
        <time>2020-05-30T16:45:07Z</time>
      </trkpt>
      <trkpt lat="47.26194" lon="-1.48705">
        <ele>19.69</ele>
        <time>2020-05-30T16:45:09Z</time>
      </trkpt>
      <trkpt lat="47.2618" lon="-1.48711">
        <ele>18.13</ele>
        <time>2020-05-30T16:45:11Z</time>
      </trkpt>
      <trkpt lat="47.26166" lon="-1.48719">
        <ele>17.15</ele>
        <time>2020-05-30T16:45:13Z</time>
      </trkpt>
      <trkpt lat="47.26151" lon="-1.48725">
        <ele>16.67</ele>
        <time>2020-05-30T16:45:15Z</time>
      </trkpt>
      <trkpt lat="47.26136" lon="-1.48732">
        <ele>16.46</ele>
        <time>2020-05-30T16:45:17Z</time>
      </trkpt>
      <trkpt lat="47.26122" lon="-1.48739">
        <ele>16.34</ele>
        <time>2020-05-30T16:45:19Z</time>
      </trkpt>
      <trkpt lat="47.26108" lon="-1.48745">
        <ele>16.31</ele>
        <time>2020-05-30T16:45:21Z</time>
      </trkpt>
      <trkpt lat="47.26094" lon="-1.4875">
        <ele>16.3</ele>
        <time>2020-05-30T16:45:23Z</time>
      </trkpt>
      <trkpt lat="47.26078" lon="-1.48754">
        <ele>15.91</ele>
        <time>2020-05-30T16:45:25Z</time>
      </trkpt>
      <trkpt lat="47.26065" lon="-1.48757">
        <ele>15.95</ele>
        <time>2020-05-30T16:45:27Z</time>
      </trkpt>
      <trkpt lat="47.26051" lon="-1.48761">
        <ele>16.76</ele>
        <time>2020-05-30T16:45:29Z</time>
      </trkpt>
      <trkpt lat="47.26037" lon="-1.48763">
        <ele>17.51</ele>
        <time>2020-05-30T16:45:31Z</time>
      </trkpt>
      <trkpt lat="47.26024" lon="-1.48767">
        <ele>17.22</ele>
        <time>2020-05-30T16:45:33Z</time>
      </trkpt>
      <trkpt lat="47.2601" lon="-1.48768">
        <ele>17.82</ele>
        <time>2020-05-30T16:45:35Z</time>
      </trkpt>
      <trkpt lat="47.25995" lon="-1.48766">
        <ele>18.21</ele>
        <time>2020-05-30T16:45:37Z</time>
      </trkpt>
      <trkpt lat="47.25981" lon="-1.48765">
        <ele>17.52</ele>
        <time>2020-05-30T16:45:39Z</time>
      </trkpt>
      <trkpt lat="47.25966" lon="-1.48765">
        <ele>16.88</ele>
        <time>2020-05-30T16:45:41Z</time>
      </trkpt>
      <trkpt lat="47.25952" lon="-1.48764">
        <ele>17.19</ele>
        <time>2020-05-30T16:45:43Z</time>
      </trkpt>
      <trkpt lat="47.25939" lon="-1.48763">
        <ele>17.81</ele>
        <time>2020-05-30T16:45:45Z</time>
      </trkpt>
      <trkpt lat="47.25925" lon="-1.48762">
        <ele>18.77</ele>
        <time>2020-05-30T16:45:47Z</time>
      </trkpt>
      <trkpt lat="47.25913" lon="-1.48761">
        <ele>19.07</ele>
        <time>2020-05-30T16:45:49Z</time>
      </trkpt>
      <trkpt lat="47.259" lon="-1.4876">
        <ele>19.12</ele>
        <time>2020-05-30T16:45:51Z</time>
      </trkpt>
      <trkpt lat="47.25887" lon="-1.48759">
        <ele>18.93</ele>
        <time>2020-05-30T16:45:53Z</time>
      </trkpt>
      <trkpt lat="47.25873" lon="-1.48757">
        <ele>18.63</ele>
        <time>2020-05-30T16:45:55Z</time>
      </trkpt>
      <trkpt lat="47.25859" lon="-1.48758">
        <ele>19.6</ele>
        <time>2020-05-30T16:45:57Z</time>
      </trkpt>
      <trkpt lat="47.25846" lon="-1.48757">
        <ele>20.16</ele>
        <time>2020-05-30T16:45:59Z</time>
      </trkpt>
      <trkpt lat="47.25831" lon="-1.48757">
        <ele>20.04</ele>
        <time>2020-05-30T16:46:01Z</time>
      </trkpt>
      <trkpt lat="47.25818" lon="-1.48757">
        <ele>20.16</ele>
        <time>2020-05-30T16:46:03Z</time>
      </trkpt>
      <trkpt lat="47.25802" lon="-1.48756">
        <ele>19.35</ele>
        <time>2020-05-30T16:46:05Z</time>
      </trkpt>
      <trkpt lat="47.25788" lon="-1.48757">
        <ele>18.49</ele>
        <time>2020-05-30T16:46:07Z</time>
      </trkpt>
      <trkpt lat="47.25774" lon="-1.48759">
        <ele>17.94</ele>
        <time>2020-05-30T16:46:09Z</time>
      </trkpt>
      <trkpt lat="47.2576" lon="-1.48762">
        <ele>18.26</ele>
        <time>2020-05-30T16:46:11Z</time>
      </trkpt>
      <trkpt lat="47.25747" lon="-1.48765">
        <ele>18.39</ele>
        <time>2020-05-30T16:46:13Z</time>
      </trkpt>
      <trkpt lat="47.25734" lon="-1.48769">
        <ele>18.29</ele>
        <time>2020-05-30T16:46:15Z</time>
      </trkpt>
      <trkpt lat="47.25721" lon="-1.48772">
        <ele>18.66</ele>
        <time>2020-05-30T16:46:17Z</time>
      </trkpt>
      <trkpt lat="47.25707" lon="-1.48774">
        <ele>18.57</ele>
        <time>2020-05-30T16:46:19Z</time>
      </trkpt>
      <trkpt lat="47.25695" lon="-1.48775">
        <ele>17.8</ele>
        <time>2020-05-30T16:46:21Z</time>
      </trkpt>
      <trkpt lat="47.25685" lon="-1.48774">
        <ele>17.04</ele>
        <time>2020-05-30T16:46:23Z</time>
      </trkpt>
      <trkpt lat="47.25673" lon="-1.48775">
        <ele>16.91</ele>
        <time>2020-05-30T16:46:26Z</time>
      </trkpt>
      <trkpt lat="47.25662" lon="-1.4877">
        <ele>17.02</ele>
        <time>2020-05-30T16:46:29Z</time>
      </trkpt>
      <trkpt lat="47.2565" lon="-1.48767">
        <ele>17.3</ele>
        <time>2020-05-30T16:46:31Z</time>
      </trkpt>
      <trkpt lat="47.25636" lon="-1.48764">
        <ele>17.83</ele>
        <time>2020-05-30T16:46:33Z</time>
      </trkpt>
      <trkpt lat="47.25623" lon="-1.48762">
        <ele>18.29</ele>
        <time>2020-05-30T16:46:35Z</time>
      </trkpt>
      <trkpt lat="47.2561" lon="-1.48761">
        <ele>19.3</ele>
        <time>2020-05-30T16:46:37Z</time>
      </trkpt>
      <trkpt lat="47.25594" lon="-1.4876">
        <ele>19.56</ele>
        <time>2020-05-30T16:46:39Z</time>
      </trkpt>
      <trkpt lat="47.25579" lon="-1.48761">
        <ele>18.83</ele>
        <time>2020-05-30T16:46:41Z</time>
      </trkpt>
      <trkpt lat="47.25565" lon="-1.48764">
        <ele>17.65</ele>
        <time>2020-05-30T16:46:43Z</time>
      </trkpt>
      <trkpt lat="47.25552" lon="-1.48768">
        <ele>16.89</ele>
        <time>2020-05-30T16:46:45Z</time>
      </trkpt>
      <trkpt lat="47.25538" lon="-1.48773">
        <ele>16.39</ele>
        <time>2020-05-30T16:46:47Z</time>
      </trkpt>
      <trkpt lat="47.25524" lon="-1.48777">
        <ele>16.07</ele>
        <time>2020-05-30T16:46:49Z</time>
      </trkpt>
      <trkpt lat="47.25509" lon="-1.48781">
        <ele>15.4</ele>
        <time>2020-05-30T16:46:51Z</time>
      </trkpt>
      <trkpt lat="47.25496" lon="-1.48785">
        <ele>14.79</ele>
        <time>2020-05-30T16:46:53Z</time>
      </trkpt>
      <trkpt lat="47.25482" lon="-1.48789">
        <ele>14.19</ele>
        <time>2020-05-30T16:46:55Z</time>
      </trkpt>
      <trkpt lat="47.25468" lon="-1.48792">
        <ele>13.4</ele>
        <time>2020-05-30T16:46:57Z</time>
      </trkpt>
      <trkpt lat="47.25453" lon="-1.48794">
        <ele>12.38</ele>
        <time>2020-05-30T16:46:59Z</time>
      </trkpt>
      <trkpt lat="47.25438" lon="-1.48795">
        <ele>11.07</ele>
        <time>2020-05-30T16:47:01Z</time>
      </trkpt>
      <trkpt lat="47.25422" lon="-1.48795">
        <ele>10.16</ele>
        <time>2020-05-30T16:47:03Z</time>
      </trkpt>
      <trkpt lat="47.25407" lon="-1.48794">
        <ele>9.33</ele>
        <time>2020-05-30T16:47:05Z</time>
      </trkpt>
      <trkpt lat="47.25391" lon="-1.48793">
        <ele>8.37</ele>
        <time>2020-05-30T16:47:07Z</time>
      </trkpt>
      <trkpt lat="47.25376" lon="-1.48789">
        <ele>7.56</ele>
        <time>2020-05-30T16:47:09Z</time>
      </trkpt>
      <trkpt lat="47.25361" lon="-1.48786">
        <ele>6.61</ele>
        <time>2020-05-30T16:47:11Z</time>
      </trkpt>
      <trkpt lat="47.25348" lon="-1.48783">
        <ele>5.32</ele>
        <time>2020-05-30T16:47:13Z</time>
      </trkpt>
      <trkpt lat="47.25334" lon="-1.48779">
        <ele>4.59</ele>
        <time>2020-05-30T16:47:15Z</time>
      </trkpt>
      <trkpt lat="47.25321" lon="-1.48774">
        <ele>3.85</ele>
        <time>2020-05-30T16:47:17Z</time>
      </trkpt>
      <trkpt lat="47.25308" lon="-1.48773">
        <ele>2.6</ele>
        <time>2020-05-30T16:47:19Z</time>
      </trkpt>
      <trkpt lat="47.25299" lon="-1.48772">
        <ele>2.46</ele>
        <time>2020-05-30T16:47:23Z</time>
      </trkpt>
      <trkpt lat="47.2529" lon="-1.48764">
        <ele>3.74</ele>
        <time>2020-05-30T16:47:26Z</time>
      </trkpt>
      <trkpt lat="47.2528" lon="-1.48753">
        <ele>5.48</ele>
        <time>2020-05-30T16:47:28Z</time>
      </trkpt>
      <trkpt lat="47.25267" lon="-1.48747">
        <ele>6.97</ele>
        <time>2020-05-30T16:47:30Z</time>
      </trkpt>
      <trkpt lat="47.25256" lon="-1.48745">
        <ele>8.43</ele>
        <time>2020-05-30T16:47:32Z</time>
      </trkpt>
      <trkpt lat="47.25242" lon="-1.48744">
        <ele>9.62</ele>
        <time>2020-05-30T16:47:34Z</time>
      </trkpt>
      <trkpt lat="47.25228" lon="-1.48744">
        <ele>11.11</ele>
        <time>2020-05-30T16:47:36Z</time>
      </trkpt>
      <trkpt lat="47.25211" lon="-1.48745">
        <ele>12.18</ele>
        <time>2020-05-30T16:47:38Z</time>
      </trkpt>
      <trkpt lat="47.25196" lon="-1.48748">
        <ele>12.4</ele>
        <time>2020-05-30T16:47:40Z</time>
      </trkpt>
      <trkpt lat="47.25182" lon="-1.48751">
        <ele>11.28</ele>
        <time>2020-05-30T16:47:42Z</time>
      </trkpt>
      <trkpt lat="47.25167" lon="-1.48754">
        <ele>10.34</ele>
        <time>2020-05-30T16:47:44Z</time>
      </trkpt>
      <trkpt lat="47.25152" lon="-1.48757">
        <ele>9.27</ele>
        <time>2020-05-30T16:47:46Z</time>
      </trkpt>
      <trkpt lat="47.25137" lon="-1.4876">
        <ele>9.18</ele>
        <time>2020-05-30T16:47:48Z</time>
      </trkpt>
      <trkpt lat="47.25124" lon="-1.48763">
        <ele>8.38</ele>
        <time>2020-05-30T16:47:50Z</time>
      </trkpt>
      <trkpt lat="47.25111" lon="-1.48764">
        <ele>8.23</ele>
        <time>2020-05-30T16:47:52Z</time>
      </trkpt>
      <trkpt lat="47.25097" lon="-1.48763">
        <ele>7.39</ele>
        <time>2020-05-30T16:47:54Z</time>
      </trkpt>
      <trkpt lat="47.25084" lon="-1.48762">
        <ele>6.71</ele>
        <time>2020-05-30T16:47:56Z</time>
      </trkpt>
      <trkpt lat="47.25069" lon="-1.48759">
        <ele>6.22</ele>
        <time>2020-05-30T16:47:58Z</time>
      </trkpt>
      <trkpt lat="47.25055" lon="-1.48755">
        <ele>5.96</ele>
        <time>2020-05-30T16:48:00Z</time>
      </trkpt>
      <trkpt lat="47.25043" lon="-1.4875">
        <ele>7.45</ele>
        <time>2020-05-30T16:48:02Z</time>
      </trkpt>
      <trkpt lat="47.25031" lon="-1.48745">
        <ele>9.22</ele>
        <time>2020-05-30T16:48:04Z</time>
      </trkpt>
      <trkpt lat="47.25017" lon="-1.48739">
        <ele>10.25</ele>
        <time>2020-05-30T16:48:06Z</time>
      </trkpt>
      <trkpt lat="47.25004" lon="-1.48732">
        <ele>11.81</ele>
        <time>2020-05-30T16:48:08Z</time>
      </trkpt>
      <trkpt lat="47.24991" lon="-1.48726">
        <ele>14.02</ele>
        <time>2020-05-30T16:48:10Z</time>
      </trkpt>
      <trkpt lat="47.24977" lon="-1.48719">
        <ele>15.74</ele>
        <time>2020-05-30T16:48:12Z</time>
      </trkpt>
      <trkpt lat="47.24965" lon="-1.48714">
        <ele>17.13</ele>
        <time>2020-05-30T16:48:14Z</time>
      </trkpt>
      <trkpt lat="47.24951" lon="-1.4871">
        <ele>15</ele>
        <time>2020-05-30T16:48:17Z</time>
      </trkpt>
      <trkpt lat="47.24939" lon="-1.487">
        <ele>13.33</ele>
        <time>2020-05-30T16:48:19Z</time>
      </trkpt>
      <trkpt lat="47.24926" lon="-1.4869">
        <ele>11.65</ele>
        <time>2020-05-30T16:48:21Z</time>
      </trkpt>
      <trkpt lat="47.24913" lon="-1.48682">
        <ele>11.4</ele>
        <time>2020-05-30T16:48:23Z</time>
      </trkpt>
      <trkpt lat="47.24899" lon="-1.48676">
        <ele>10.92</ele>
        <time>2020-05-30T16:48:25Z</time>
      </trkpt>
      <trkpt lat="47.24883" lon="-1.48672">
        <ele>10.54</ele>
        <time>2020-05-30T16:48:27Z</time>
      </trkpt>
      <trkpt lat="47.24869" lon="-1.48669">
        <ele>10.22</ele>
        <time>2020-05-30T16:48:29Z</time>
      </trkpt>
      <trkpt lat="47.24853" lon="-1.48666">
        <ele>10.61</ele>
        <time>2020-05-30T16:48:31Z</time>
      </trkpt>
      <trkpt lat="47.24838" lon="-1.4866">
        <ele>10.32</ele>
        <time>2020-05-30T16:48:33Z</time>
      </trkpt>
      <trkpt lat="47.24823" lon="-1.48658">
        <ele>10.29</ele>
        <time>2020-05-30T16:48:35Z</time>
      </trkpt>
      <trkpt lat="47.24807" lon="-1.48657">
        <ele>9.63</ele>
        <time>2020-05-30T16:48:37Z</time>
      </trkpt>
      <trkpt lat="47.24793" lon="-1.48657">
        <ele>8.68</ele>
        <time>2020-05-30T16:48:39Z</time>
      </trkpt>
      <trkpt lat="47.24779" lon="-1.48657">
        <ele>7.37</ele>
        <time>2020-05-30T16:48:41Z</time>
      </trkpt>
      <trkpt lat="47.24764" lon="-1.48655">
        <ele>6.44</ele>
        <time>2020-05-30T16:48:43Z</time>
      </trkpt>
      <trkpt lat="47.2475" lon="-1.48654">
        <ele>6.21</ele>
        <time>2020-05-30T16:48:45Z</time>
      </trkpt>
      <trkpt lat="47.24736" lon="-1.48649">
        <ele>4.9</ele>
        <time>2020-05-30T16:48:47Z</time>
      </trkpt>
      <trkpt lat="47.24721" lon="-1.4864">
        <ele>3.46</ele>
        <time>2020-05-30T16:48:49Z</time>
      </trkpt>
      <trkpt lat="47.24707" lon="-1.48629">
        <ele>2.39</ele>
        <time>2020-05-30T16:48:51Z</time>
      </trkpt>
      <trkpt lat="47.24692" lon="-1.48616">
        <ele>1.91</ele>
        <time>2020-05-30T16:48:53Z</time>
      </trkpt>
      <trkpt lat="47.24679" lon="-1.48604">
        <ele>1.89</ele>
        <time>2020-05-30T16:48:55Z</time>
      </trkpt>
      <trkpt lat="47.24666" lon="-1.48592">
        <ele>1.81</ele>
        <time>2020-05-30T16:48:57Z</time>
      </trkpt>
      <trkpt lat="47.24653" lon="-1.48578">
        <ele>1.7</ele>
        <time>2020-05-30T16:48:59Z</time>
      </trkpt>
      <trkpt lat="47.2464" lon="-1.48565">
        <ele>1.81</ele>
        <time>2020-05-30T16:49:01Z</time>
      </trkpt>
      <trkpt lat="47.24627" lon="-1.48551">
        <ele>1.32</ele>
        <time>2020-05-30T16:49:03Z</time>
      </trkpt>
      <trkpt lat="47.24614" lon="-1.48535">
        <ele>0.92</ele>
        <time>2020-05-30T16:49:05Z</time>
      </trkpt>
      <trkpt lat="47.24603" lon="-1.48522">
        <ele>-0.02</ele>
        <time>2020-05-30T16:49:07Z</time>
      </trkpt>
      <trkpt lat="47.24591" lon="-1.48508">
        <ele>-0.78</ele>
        <time>2020-05-30T16:49:09Z</time>
      </trkpt>
      <trkpt lat="47.2458" lon="-1.48495">
        <ele>-1.36</ele>
        <time>2020-05-30T16:49:11Z</time>
      </trkpt>
      <trkpt lat="47.24568" lon="-1.48479">
        <ele>-1.54</ele>
        <time>2020-05-30T16:49:13Z</time>
      </trkpt>
      <trkpt lat="47.24556" lon="-1.48464">
        <ele>-1.31</ele>
        <time>2020-05-30T16:49:15Z</time>
      </trkpt>
      <trkpt lat="47.24543" lon="-1.4845">
        <ele>-0.63</ele>
        <time>2020-05-30T16:49:17Z</time>
      </trkpt>
      <trkpt lat="47.2453" lon="-1.48435">
        <ele>0.16</ele>
        <time>2020-05-30T16:49:19Z</time>
      </trkpt>
      <trkpt lat="47.2452" lon="-1.48425">
        <ele>0.35</ele>
        <time>2020-05-30T16:49:21Z</time>
      </trkpt>
      <trkpt lat="47.24508" lon="-1.48414">
        <ele>0.09</ele>
        <time>2020-05-30T16:49:23Z</time>
      </trkpt>
      <trkpt lat="47.24495" lon="-1.48405">
        <ele>0.12</ele>
        <time>2020-05-30T16:49:25Z</time>
      </trkpt>
      <trkpt lat="47.24483" lon="-1.48398">
        <ele>0.14</ele>
        <time>2020-05-30T16:49:27Z</time>
      </trkpt>
      <trkpt lat="47.2447" lon="-1.4839">
        <ele>0.84</ele>
        <time>2020-05-30T16:49:29Z</time>
      </trkpt>
      <trkpt lat="47.24455" lon="-1.48384">
        <ele>1.33</ele>
        <time>2020-05-30T16:49:31Z</time>
      </trkpt>
      <trkpt lat="47.24442" lon="-1.48377">
        <ele>0.79</ele>
        <time>2020-05-30T16:49:33Z</time>
      </trkpt>
      <trkpt lat="47.2443" lon="-1.48372">
        <ele>-0.7</ele>
        <time>2020-05-30T16:49:35Z</time>
      </trkpt>
      <trkpt lat="47.24417" lon="-1.48365">
        <ele>-1.53</ele>
        <time>2020-05-30T16:49:37Z</time>
      </trkpt>
      <trkpt lat="47.24405" lon="-1.48356">
        <ele>-1.58</ele>
        <time>2020-05-30T16:49:39Z</time>
      </trkpt>
      <trkpt lat="47.24395" lon="-1.48343">
        <ele>-1.87</ele>
        <time>2020-05-30T16:49:41Z</time>
      </trkpt>
      <trkpt lat="47.24385" lon="-1.48331">
        <ele>-2.52</ele>
        <time>2020-05-30T16:49:43Z</time>
      </trkpt>
      <trkpt lat="47.24376" lon="-1.48317">
        <ele>-1.97</ele>
        <time>2020-05-30T16:49:45Z</time>
      </trkpt>
      <trkpt lat="47.24368" lon="-1.48306">
        <ele>-1.49</ele>
        <time>2020-05-30T16:49:47Z</time>
      </trkpt>
      <trkpt lat="47.24357" lon="-1.48293">
        <ele>-1.06</ele>
        <time>2020-05-30T16:49:49Z</time>
      </trkpt>
      <trkpt lat="47.24345" lon="-1.48289">
        <ele>-0.72</ele>
        <time>2020-05-30T16:49:51Z</time>
      </trkpt>
      <trkpt lat="47.24334" lon="-1.48279">
        <ele>-0.79</ele>
        <time>2020-05-30T16:49:53Z</time>
      </trkpt>
      <trkpt lat="47.24325" lon="-1.48263">
        <ele>-1.1</ele>
        <time>2020-05-30T16:49:55Z</time>
      </trkpt>
      <trkpt lat="47.24315" lon="-1.48246">
        <ele>0.14</ele>
        <time>2020-05-30T16:49:57Z</time>
      </trkpt>
      <trkpt lat="47.24304" lon="-1.48233">
        <ele>0.99</ele>
        <time>2020-05-30T16:49:59Z</time>
      </trkpt>
      <trkpt lat="47.24292" lon="-1.48222">
        <ele>1.88</ele>
        <time>2020-05-30T16:50:01Z</time>
      </trkpt>
      <trkpt lat="47.2428" lon="-1.48213">
        <ele>1.96</ele>
        <time>2020-05-30T16:50:03Z</time>
      </trkpt>
      <trkpt lat="47.24267" lon="-1.48205">
        <ele>1.17</ele>
        <time>2020-05-30T16:50:05Z</time>
      </trkpt>
      <trkpt lat="47.24254" lon="-1.48197">
        <ele>0.12</ele>
        <time>2020-05-30T16:50:07Z</time>
      </trkpt>
      <trkpt lat="47.24242" lon="-1.48189">
        <ele>-0.56</ele>
        <time>2020-05-30T16:50:09Z</time>
      </trkpt>
      <trkpt lat="47.24229" lon="-1.48181">
        <ele>-0.91</ele>
        <time>2020-05-30T16:50:11Z</time>
      </trkpt>
      <trkpt lat="47.24218" lon="-1.48175">
        <ele>-0.7</ele>
        <time>2020-05-30T16:50:13Z</time>
      </trkpt>
      <trkpt lat="47.24207" lon="-1.48168">
        <ele>-0.08</ele>
        <time>2020-05-30T16:50:15Z</time>
      </trkpt>
      <trkpt lat="47.24195" lon="-1.48158">
        <ele>0.36</ele>
        <time>2020-05-30T16:50:17Z</time>
      </trkpt>
      <trkpt lat="47.24184" lon="-1.4815">
        <ele>0.67</ele>
        <time>2020-05-30T16:50:19Z</time>
      </trkpt>
      <trkpt lat="47.24173" lon="-1.48141">
        <ele>0.07</ele>
        <time>2020-05-30T16:50:21Z</time>
      </trkpt>
      <trkpt lat="47.24162" lon="-1.4813">
        <ele>-1.57</ele>
        <time>2020-05-30T16:50:23Z</time>
      </trkpt>
      <trkpt lat="47.2415" lon="-1.48119">
        <ele>-2.59</ele>
        <time>2020-05-30T16:50:25Z</time>
      </trkpt>
      <trkpt lat="47.24141" lon="-1.48108">
        <ele>-3.31</ele>
        <time>2020-05-30T16:50:27Z</time>
      </trkpt>
      <trkpt lat="47.2413" lon="-1.48094">
        <ele>-3.37</ele>
        <time>2020-05-30T16:50:29Z</time>
      </trkpt>
      <trkpt lat="47.2412" lon="-1.4808">
        <ele>-3.47</ele>
        <time>2020-05-30T16:50:31Z</time>
      </trkpt>
      <trkpt lat="47.2411" lon="-1.48064">
        <ele>-4.7</ele>
        <time>2020-05-30T16:50:33Z</time>
      </trkpt>
      <trkpt lat="47.24101" lon="-1.48048">
        <ele>-6.64</ele>
        <time>2020-05-30T16:50:35Z</time>
      </trkpt>
      <trkpt lat="47.24095" lon="-1.48034">
        <ele>-6.45</ele>
        <time>2020-05-30T16:50:37Z</time>
      </trkpt>
      <trkpt lat="47.24089" lon="-1.48019">
        <ele>-4.72</ele>
        <time>2020-05-30T16:50:39Z</time>
      </trkpt>
      <trkpt lat="47.24083" lon="-1.48004">
        <ele>-2.69</ele>
        <time>2020-05-30T16:50:41Z</time>
      </trkpt>
      <trkpt lat="47.24076" lon="-1.47988">
        <ele>-0.92</ele>
        <time>2020-05-30T16:50:43Z</time>
      </trkpt>
      <trkpt lat="47.24071" lon="-1.47973">
        <ele>0.47</ele>
        <time>2020-05-30T16:50:45Z</time>
      </trkpt>
      <trkpt lat="47.24065" lon="-1.47958">
        <ele>-0.44</ele>
        <time>2020-05-30T16:50:47Z</time>
      </trkpt>
      <trkpt lat="47.2406" lon="-1.47941">
        <ele>-0.76</ele>
        <time>2020-05-30T16:50:49Z</time>
      </trkpt>
      <trkpt lat="47.24056" lon="-1.47927">
        <ele>-0.97</ele>
        <time>2020-05-30T16:50:51Z</time>
      </trkpt>
      <trkpt lat="47.24051" lon="-1.47911">
        <ele>-1.14</ele>
        <time>2020-05-30T16:50:53Z</time>
      </trkpt>
      <trkpt lat="47.24045" lon="-1.47896">
        <ele>-1.36</ele>
        <time>2020-05-30T16:50:55Z</time>
      </trkpt>
      <trkpt lat="47.2404" lon="-1.4788">
        <ele>-2.04</ele>
        <time>2020-05-30T16:50:57Z</time>
      </trkpt>
      <trkpt lat="47.24035" lon="-1.47867">
        <ele>-3.36</ele>
        <time>2020-05-30T16:50:59Z</time>
      </trkpt>
      <trkpt lat="47.24029" lon="-1.47848">
        <ele>-2.41</ele>
        <time>2020-05-30T16:51:02Z</time>
      </trkpt>
      <trkpt lat="47.24024" lon="-1.47832">
        <ele>0.01</ele>
        <time>2020-05-30T16:51:04Z</time>
      </trkpt>
      <trkpt lat="47.24018" lon="-1.47817">
        <ele>1.93</ele>
        <time>2020-05-30T16:51:06Z</time>
      </trkpt>
      <trkpt lat="47.24012" lon="-1.47801">
        <ele>3.18</ele>
        <time>2020-05-30T16:51:08Z</time>
      </trkpt>
      <trkpt lat="47.24006" lon="-1.47788">
        <ele>3.45</ele>
        <time>2020-05-30T16:51:10Z</time>
      </trkpt>
      <trkpt lat="47.24001" lon="-1.47776">
        <ele>3.11</ele>
        <time>2020-05-30T16:51:12Z</time>
      </trkpt>
      <trkpt lat="47.23995" lon="-1.47764">
        <ele>3.2</ele>
        <time>2020-05-30T16:51:14Z</time>
      </trkpt>
      <trkpt lat="47.23989" lon="-1.47752">
        <ele>3.38</ele>
        <time>2020-05-30T16:51:16Z</time>
      </trkpt>
      <trkpt lat="47.23983" lon="-1.47736">
        <ele>2.59</ele>
        <time>2020-05-30T16:51:18Z</time>
      </trkpt>
      <trkpt lat="47.23976" lon="-1.4772">
        <ele>0.68</ele>
        <time>2020-05-30T16:51:20Z</time>
      </trkpt>
      <trkpt lat="47.2397" lon="-1.47704">
        <ele>-1.29</ele>
        <time>2020-05-30T16:51:22Z</time>
      </trkpt>
      <trkpt lat="47.23963" lon="-1.47689">
        <ele>-2.09</ele>
        <time>2020-05-30T16:51:24Z</time>
      </trkpt>
      <trkpt lat="47.23956" lon="-1.47675">
        <ele>-2.68</ele>
        <time>2020-05-30T16:51:26Z</time>
      </trkpt>
      <trkpt lat="47.23947" lon="-1.47662">
        <ele>-2</ele>
        <time>2020-05-30T16:51:28Z</time>
      </trkpt>
      <trkpt lat="47.23936" lon="-1.47654">
        <ele>-1.23</ele>
        <time>2020-05-30T16:51:30Z</time>
      </trkpt>
      <trkpt lat="47.23924" lon="-1.47645">
        <ele>-0.41</ele>
        <time>2020-05-30T16:51:32Z</time>
      </trkpt>
      <trkpt lat="47.23909" lon="-1.47641">
        <ele>0.04</ele>
        <time>2020-05-30T16:51:34Z</time>
      </trkpt>
      <trkpt lat="47.23896" lon="-1.47639">
        <ele>-0.36</ele>
        <time>2020-05-30T16:51:36Z</time>
      </trkpt>
      <trkpt lat="47.23884" lon="-1.4764">
        <ele>-0.16</ele>
        <time>2020-05-30T16:51:38Z</time>
      </trkpt>
      <trkpt lat="47.2387" lon="-1.47644">
        <ele>0.2</ele>
        <time>2020-05-30T16:51:40Z</time>
      </trkpt>
      <trkpt lat="47.23856" lon="-1.4765">
        <ele>0.7</ele>
        <time>2020-05-30T16:51:42Z</time>
      </trkpt>
      <trkpt lat="47.23844" lon="-1.47659">
        <ele>0.55</ele>
        <time>2020-05-30T16:51:44Z</time>
      </trkpt>
      <trkpt lat="47.23833" lon="-1.47669">
        <ele>0.3</ele>
        <time>2020-05-30T16:51:46Z</time>
      </trkpt>
      <trkpt lat="47.23825" lon="-1.47685">
        <ele>-0.16</ele>
        <time>2020-05-30T16:51:48Z</time>
      </trkpt>
      <trkpt lat="47.23817" lon="-1.477">
        <ele>-1.3</ele>
        <time>2020-05-30T16:51:50Z</time>
      </trkpt>
      <trkpt lat="47.23806" lon="-1.47701">
        <ele>-2.16</ele>
        <time>2020-05-30T16:51:52Z</time>
      </trkpt>
      <trkpt lat="47.23794" lon="-1.47696">
        <ele>-2.39</ele>
        <time>2020-05-30T16:51:54Z</time>
      </trkpt>
      <trkpt lat="47.23781" lon="-1.47691">
        <ele>-2.05</ele>
        <time>2020-05-30T16:51:56Z</time>
      </trkpt>
      <trkpt lat="47.23769" lon="-1.47694">
        <ele>-2.48</ele>
        <time>2020-05-30T16:51:58Z</time>
      </trkpt>
      <trkpt lat="47.23759" lon="-1.47705">
        <ele>-2.31</ele>
        <time>2020-05-30T16:52:00Z</time>
      </trkpt>
      <trkpt lat="47.23749" lon="-1.47716">
        <ele>-1.68</ele>
        <time>2020-05-30T16:52:02Z</time>
      </trkpt>
      <trkpt lat="47.2374" lon="-1.47729">
        <ele>-1.23</ele>
        <time>2020-05-30T16:52:04Z</time>
      </trkpt>
      <trkpt lat="47.23731" lon="-1.4774">
        <ele>-1.26</ele>
        <time>2020-05-30T16:52:06Z</time>
      </trkpt>
      <trkpt lat="47.23721" lon="-1.47753">
        <ele>-1.68</ele>
        <time>2020-05-30T16:52:08Z</time>
      </trkpt>
      <trkpt lat="47.23709" lon="-1.47761">
        <ele>-1.87</ele>
        <time>2020-05-30T16:52:10Z</time>
      </trkpt>
      <trkpt lat="47.23696" lon="-1.47764">
        <ele>-1.93</ele>
        <time>2020-05-30T16:52:12Z</time>
      </trkpt>
      <trkpt lat="47.23682" lon="-1.47766">
        <ele>-2.82</ele>
        <time>2020-05-30T16:52:14Z</time>
      </trkpt>
      <trkpt lat="47.2367" lon="-1.47762">
        <ele>-3.74</ele>
        <time>2020-05-30T16:52:16Z</time>
      </trkpt>
      <trkpt lat="47.23658" lon="-1.47754">
        <ele>-3.94</ele>
        <time>2020-05-30T16:52:18Z</time>
      </trkpt>
      <trkpt lat="47.23647" lon="-1.47746">
        <ele>-4.2</ele>
        <time>2020-05-30T16:52:20Z</time>
      </trkpt>
      <trkpt lat="47.23636" lon="-1.47739">
        <ele>-5.56</ele>
        <time>2020-05-30T16:52:22Z</time>
      </trkpt>
      <trkpt lat="47.23624" lon="-1.47733">
        <ele>-6.34</ele>
        <time>2020-05-30T16:52:24Z</time>
      </trkpt>
      <trkpt lat="47.23611" lon="-1.47725">
        <ele>-5.57</ele>
        <time>2020-05-30T16:52:26Z</time>
      </trkpt>
      <trkpt lat="47.236" lon="-1.47718">
        <ele>-4.42</ele>
        <time>2020-05-30T16:52:28Z</time>
      </trkpt>
      <trkpt lat="47.23588" lon="-1.47711">
        <ele>-3.03</ele>
        <time>2020-05-30T16:52:30Z</time>
      </trkpt>
      <trkpt lat="47.23579" lon="-1.47704">
        <ele>-2.42</ele>
        <time>2020-05-30T16:52:32Z</time>
      </trkpt>
      <trkpt lat="47.2357" lon="-1.47696">
        <ele>-3.05</ele>
        <time>2020-05-30T16:52:34Z</time>
      </trkpt>
      <trkpt lat="47.2356" lon="-1.47683">
        <ele>-3.21</ele>
        <time>2020-05-30T16:52:36Z</time>
      </trkpt>
      <trkpt lat="47.23551" lon="-1.47669">
        <ele>-2.53</ele>
        <time>2020-05-30T16:52:38Z</time>
      </trkpt>
      <trkpt lat="47.23542" lon="-1.47654">
        <ele>-1.21</ele>
        <time>2020-05-30T16:52:40Z</time>
      </trkpt>
      <trkpt lat="47.23535" lon="-1.47641">
        <ele>-0.16</ele>
        <time>2020-05-30T16:52:42Z</time>
      </trkpt>
      <trkpt lat="47.23527" lon="-1.47627">
        <ele>0.51</ele>
        <time>2020-05-30T16:52:44Z</time>
      </trkpt>
      <trkpt lat="47.23518" lon="-1.47612">
        <ele>0.51</ele>
        <time>2020-05-30T16:52:46Z</time>
      </trkpt>
      <trkpt lat="47.2351" lon="-1.47598">
        <ele>0.57</ele>
        <time>2020-05-30T16:52:48Z</time>
      </trkpt>
      <trkpt lat="47.23501" lon="-1.47584">
        <ele>0.95</ele>
        <time>2020-05-30T16:52:50Z</time>
      </trkpt>
      <trkpt lat="47.23494" lon="-1.47572">
        <ele>0.51</ele>
        <time>2020-05-30T16:52:52Z</time>
      </trkpt>
      <trkpt lat="47.23486" lon="-1.47558">
        <ele>0.12</ele>
        <time>2020-05-30T16:52:54Z</time>
      </trkpt>
      <trkpt lat="47.23478" lon="-1.47546">
        <ele>0.8</ele>
        <time>2020-05-30T16:52:56Z</time>
      </trkpt>
      <trkpt lat="47.23469" lon="-1.47532">
        <ele>0.89</ele>
        <time>2020-05-30T16:52:58Z</time>
      </trkpt>
      <trkpt lat="47.23461" lon="-1.47518">
        <ele>1.05</ele>
        <time>2020-05-30T16:53:00Z</time>
      </trkpt>
      <trkpt lat="47.23453" lon="-1.47504">
        <ele>0.63</ele>
        <time>2020-05-30T16:53:02Z</time>
      </trkpt>
      <trkpt lat="47.23445" lon="-1.47493">
        <ele>0.54</ele>
        <time>2020-05-30T16:53:04Z</time>
      </trkpt>
      <trkpt lat="47.23437" lon="-1.47481">
        <ele>0.8</ele>
        <time>2020-05-30T16:53:06Z</time>
      </trkpt>
      <trkpt lat="47.23429" lon="-1.47468">
        <ele>0.59</ele>
        <time>2020-05-30T16:53:08Z</time>
      </trkpt>
      <trkpt lat="47.23421" lon="-1.47456">
        <ele>-0.36</ele>
        <time>2020-05-30T16:53:10Z</time>
      </trkpt>
      <trkpt lat="47.23414" lon="-1.47447">
        <ele>-1.39</ele>
        <time>2020-05-30T16:53:12Z</time>
      </trkpt>
      <trkpt lat="47.23403" lon="-1.4745">
        <ele>-1.15</ele>
        <time>2020-05-30T16:53:14Z</time>
      </trkpt>
      <trkpt lat="47.2339" lon="-1.47459">
        <ele>-1.73</ele>
        <time>2020-05-30T16:53:16Z</time>
      </trkpt>
      <trkpt lat="47.23379" lon="-1.47466">
        <ele>-2.38</ele>
        <time>2020-05-30T16:53:18Z</time>
      </trkpt>
      <trkpt lat="47.23367" lon="-1.47473">
        <ele>-2.5</ele>
        <time>2020-05-30T16:53:20Z</time>
      </trkpt>
      <trkpt lat="47.23356" lon="-1.47478">
        <ele>-2.59</ele>
        <time>2020-05-30T16:53:22Z</time>
      </trkpt>
      <trkpt lat="47.23343" lon="-1.47482">
        <ele>-2.85</ele>
        <time>2020-05-30T16:53:25Z</time>
      </trkpt>
      <trkpt lat="47.23332" lon="-1.47488">
        <ele>-3.95</ele>
        <time>2020-05-30T16:53:27Z</time>
      </trkpt>
      <trkpt lat="47.23318" lon="-1.47499">
        <ele>-4.99</ele>
        <time>2020-05-30T16:53:29Z</time>
      </trkpt>
      <trkpt lat="47.23307" lon="-1.47507">
        <ele>-5.32</ele>
        <time>2020-05-30T16:53:31Z</time>
      </trkpt>
      <trkpt lat="47.23297" lon="-1.47515">
        <ele>-5.05</ele>
        <time>2020-05-30T16:53:33Z</time>
      </trkpt>
      <trkpt lat="47.23285" lon="-1.47519">
        <ele>-3.92</ele>
        <time>2020-05-30T16:53:35Z</time>
      </trkpt>
      <trkpt lat="47.23273" lon="-1.47527">
        <ele>-3.36</ele>
        <time>2020-05-30T16:53:37Z</time>
      </trkpt>
      <trkpt lat="47.23262" lon="-1.47539">
        <ele>-3</ele>
        <time>2020-05-30T16:53:39Z</time>
      </trkpt>
      <trkpt lat="47.23253" lon="-1.4755">
        <ele>-2.33</ele>
        <time>2020-05-30T16:53:41Z</time>
      </trkpt>
      <trkpt lat="47.23246" lon="-1.47566">
        <ele>-2.21</ele>
        <time>2020-05-30T16:53:43Z</time>
      </trkpt>
      <trkpt lat="47.23238" lon="-1.47582">
        <ele>-2.29</ele>
        <time>2020-05-30T16:53:45Z</time>
      </trkpt>
      <trkpt lat="47.23229" lon="-1.47597">
        <ele>-2.15</ele>
        <time>2020-05-30T16:53:47Z</time>
      </trkpt>
      <trkpt lat="47.23221" lon="-1.47613">
        <ele>-1.87</ele>
        <time>2020-05-30T16:53:49Z</time>
      </trkpt>
      <trkpt lat="47.23214" lon="-1.47628">
        <ele>-1.61</ele>
        <time>2020-05-30T16:53:51Z</time>
      </trkpt>
      <trkpt lat="47.23209" lon="-1.47642">
        <ele>-1.82</ele>
        <time>2020-05-30T16:53:53Z</time>
      </trkpt>
      <trkpt lat="47.23203" lon="-1.47659">
        <ele>-1.54</ele>
        <time>2020-05-30T16:53:55Z</time>
      </trkpt>
      <trkpt lat="47.23198" lon="-1.47674">
        <ele>-2.15</ele>
        <time>2020-05-30T16:53:57Z</time>
      </trkpt>
      <trkpt lat="47.23191" lon="-1.47692">
        <ele>-2.92</ele>
        <time>2020-05-30T16:53:59Z</time>
      </trkpt>
      <trkpt lat="47.23183" lon="-1.4771">
        <ele>-3.79</ele>
        <time>2020-05-30T16:54:01Z</time>
      </trkpt>
      <trkpt lat="47.23175" lon="-1.47728">
        <ele>-3.23</ele>
        <time>2020-05-30T16:54:03Z</time>
      </trkpt>
      <trkpt lat="47.23168" lon="-1.47744">
        <ele>-2.62</ele>
        <time>2020-05-30T16:54:05Z</time>
      </trkpt>
      <trkpt lat="47.23161" lon="-1.4776">
        <ele>-2.16</ele>
        <time>2020-05-30T16:54:07Z</time>
      </trkpt>
      <trkpt lat="47.23153" lon="-1.47778">
        <ele>-2.13</ele>
        <time>2020-05-30T16:54:09Z</time>
      </trkpt>
      <trkpt lat="47.23146" lon="-1.47795">
        <ele>-1.69</ele>
        <time>2020-05-30T16:54:11Z</time>
      </trkpt>
      <trkpt lat="47.2314" lon="-1.47811">
        <ele>-1.37</ele>
        <time>2020-05-30T16:54:13Z</time>
      </trkpt>
      <trkpt lat="47.23135" lon="-1.47829">
        <ele>-2.26</ele>
        <time>2020-05-30T16:54:15Z</time>
      </trkpt>
      <trkpt lat="47.23128" lon="-1.47846">
        <ele>-2.59</ele>
        <time>2020-05-30T16:54:17Z</time>
      </trkpt>
      <trkpt lat="47.2312" lon="-1.47861">
        <ele>-3.53</ele>
        <time>2020-05-30T16:54:19Z</time>
      </trkpt>
      <trkpt lat="47.23112" lon="-1.47874">
        <ele>-4.06</ele>
        <time>2020-05-30T16:54:21Z</time>
      </trkpt>
      <trkpt lat="47.23103" lon="-1.47889">
        <ele>-3.96</ele>
        <time>2020-05-30T16:54:23Z</time>
      </trkpt>
      <trkpt lat="47.23094" lon="-1.47902">
        <ele>-3.52</ele>
        <time>2020-05-30T16:54:25Z</time>
      </trkpt>
      <trkpt lat="47.23084" lon="-1.47916">
        <ele>-3.09</ele>
        <time>2020-05-30T16:54:27Z</time>
      </trkpt>
      <trkpt lat="47.23074" lon="-1.47929">
        <ele>-2.79</ele>
        <time>2020-05-30T16:54:29Z</time>
      </trkpt>
      <trkpt lat="47.23064" lon="-1.47942">
        <ele>-3.66</ele>
        <time>2020-05-30T16:54:31Z</time>
      </trkpt>
      <trkpt lat="47.23054" lon="-1.47956">
        <ele>-3.72</ele>
        <time>2020-05-30T16:54:33Z</time>
      </trkpt>
      <trkpt lat="47.23043" lon="-1.47968">
        <ele>-2.15</ele>
        <time>2020-05-30T16:54:35Z</time>
      </trkpt>
      <trkpt lat="47.23034" lon="-1.4798">
        <ele>-1</ele>
        <time>2020-05-30T16:54:37Z</time>
      </trkpt>
      <trkpt lat="47.23025" lon="-1.47992">
        <ele>-0.44</ele>
        <time>2020-05-30T16:54:39Z</time>
      </trkpt>
      <trkpt lat="47.23015" lon="-1.48005">
        <ele>-0.53</ele>
        <time>2020-05-30T16:54:41Z</time>
      </trkpt>
      <trkpt lat="47.23007" lon="-1.48019">
        <ele>-1.47</ele>
        <time>2020-05-30T16:54:43Z</time>
      </trkpt>
      <trkpt lat="47.22998" lon="-1.48033">
        <ele>-2.32</ele>
        <time>2020-05-30T16:54:45Z</time>
      </trkpt>
      <trkpt lat="47.2299" lon="-1.48048">
        <ele>-2.11</ele>
        <time>2020-05-30T16:54:47Z</time>
      </trkpt>
      <trkpt lat="47.22982" lon="-1.48062">
        <ele>-1.36</ele>
        <time>2020-05-30T16:54:49Z</time>
      </trkpt>
      <trkpt lat="47.22975" lon="-1.48074">
        <ele>-1.06</ele>
        <time>2020-05-30T16:54:51Z</time>
      </trkpt>
      <trkpt lat="47.22968" lon="-1.48087">
        <ele>-1.3</ele>
        <time>2020-05-30T16:54:53Z</time>
      </trkpt>
      <trkpt lat="47.22961" lon="-1.48095">
        <ele>-0.97</ele>
        <time>2020-05-30T16:54:55Z</time>
      </trkpt>
      <trkpt lat="47.22955" lon="-1.4811">
        <ele>-0.02</ele>
        <time>2020-05-30T16:54:58Z</time>
      </trkpt>
      <trkpt lat="47.22944" lon="-1.48117">
        <ele>-0.98</ele>
        <time>2020-05-30T16:55:00Z</time>
      </trkpt>
      <trkpt lat="47.22929" lon="-1.48119">
        <ele>-3.08</ele>
        <time>2020-05-30T16:55:02Z</time>
      </trkpt>
      <trkpt lat="47.22916" lon="-1.48122">
        <ele>-3.55</ele>
        <time>2020-05-30T16:55:04Z</time>
      </trkpt>
      <trkpt lat="47.22904" lon="-1.48129">
        <ele>-2.95</ele>
        <time>2020-05-30T16:55:06Z</time>
      </trkpt>
      <trkpt lat="47.22894" lon="-1.48141">
        <ele>-2.1</ele>
        <time>2020-05-30T16:55:08Z</time>
      </trkpt>
      <trkpt lat="47.22885" lon="-1.48154">
        <ele>-1.13</ele>
        <time>2020-05-30T16:55:10Z</time>
      </trkpt>
      <trkpt lat="47.22877" lon="-1.48167">
        <ele>-1.09</ele>
        <time>2020-05-30T16:55:12Z</time>
      </trkpt>
      <trkpt lat="47.22868" lon="-1.48182">
        <ele>-1.66</ele>
        <time>2020-05-30T16:55:14Z</time>
      </trkpt>
      <trkpt lat="47.2286" lon="-1.48196">
        <ele>-0.76</ele>
        <time>2020-05-30T16:55:16Z</time>
      </trkpt>
      <trkpt lat="47.2285" lon="-1.48212">
        <ele>-0.69</ele>
        <time>2020-05-30T16:55:18Z</time>
      </trkpt>
      <trkpt lat="47.2284" lon="-1.48228">
        <ele>-1.03</ele>
        <time>2020-05-30T16:55:20Z</time>
      </trkpt>
      <trkpt lat="47.22832" lon="-1.4824">
        <ele>-1.04</ele>
        <time>2020-05-30T16:55:22Z</time>
      </trkpt>
      <trkpt lat="47.22822" lon="-1.48255">
        <ele>-0.6</ele>
        <time>2020-05-30T16:55:24Z</time>
      </trkpt>
      <trkpt lat="47.22812" lon="-1.4827">
        <ele>-1.11</ele>
        <time>2020-05-30T16:55:26Z</time>
      </trkpt>
      <trkpt lat="47.22803" lon="-1.48284">
        <ele>-1.72</ele>
        <time>2020-05-30T16:55:28Z</time>
      </trkpt>
      <trkpt lat="47.22794" lon="-1.48298">
        <ele>-1.65</ele>
        <time>2020-05-30T16:55:30Z</time>
      </trkpt>
      <trkpt lat="47.22783" lon="-1.48314">
        <ele>-0.75</ele>
        <time>2020-05-30T16:55:32Z</time>
      </trkpt>
      <trkpt lat="47.22772" lon="-1.48331">
        <ele>-0.45</ele>
        <time>2020-05-30T16:55:34Z</time>
      </trkpt>
      <trkpt lat="47.22763" lon="-1.48346">
        <ele>-0.22</ele>
        <time>2020-05-30T16:55:36Z</time>
      </trkpt>
      <trkpt lat="47.22751" lon="-1.48363">
        <ele>0.02</ele>
        <time>2020-05-30T16:55:38Z</time>
      </trkpt>
      <trkpt lat="47.22741" lon="-1.48377">
        <ele>0.21</ele>
        <time>2020-05-30T16:55:40Z</time>
      </trkpt>
      <trkpt lat="47.22731" lon="-1.48391">
        <ele>0.55</ele>
        <time>2020-05-30T16:55:42Z</time>
      </trkpt>
      <trkpt lat="47.2272" lon="-1.48405">
        <ele>0.84</ele>
        <time>2020-05-30T16:55:44Z</time>
      </trkpt>
      <trkpt lat="47.22709" lon="-1.4842">
        <ele>0.34</ele>
        <time>2020-05-30T16:55:46Z</time>
      </trkpt>
      <trkpt lat="47.22702" lon="-1.48438">
        <ele>-0.09</ele>
        <time>2020-05-30T16:55:48Z</time>
      </trkpt>
      <trkpt lat="47.22696" lon="-1.48455">
        <ele>-0.28</ele>
        <time>2020-05-30T16:55:50Z</time>
      </trkpt>
      <trkpt lat="47.2269" lon="-1.48472">
        <ele>-0.81</ele>
        <time>2020-05-30T16:55:52Z</time>
      </trkpt>
      <trkpt lat="47.22682" lon="-1.48491">
        <ele>-1.71</ele>
        <time>2020-05-30T16:55:54Z</time>
      </trkpt>
      <trkpt lat="47.22674" lon="-1.48512">
        <ele>-1.81</ele>
        <time>2020-05-30T16:55:56Z</time>
      </trkpt>
      <trkpt lat="47.22667" lon="-1.48533">
        <ele>-0.87</ele>
        <time>2020-05-30T16:55:58Z</time>
      </trkpt>
      <trkpt lat="47.22663" lon="-1.48545">
        <ele>-0.92</ele>
        <time>2020-05-30T16:55:59Z</time>
      </trkpt>
      <trkpt lat="47.22659" lon="-1.48558">
        <ele>-1.62</ele>
        <time>2020-05-30T16:56:00Z</time>
      </trkpt>
      <trkpt lat="47.22652" lon="-1.48581">
        <ele>-3.61</ele>
        <time>2020-05-30T16:56:02Z</time>
      </trkpt>
      <trkpt lat="47.22644" lon="-1.48604">
        <ele>-5.48</ele>
        <time>2020-05-30T16:56:04Z</time>
      </trkpt>
      <trkpt lat="47.22636" lon="-1.48626">
        <ele>-6.46</ele>
        <time>2020-05-30T16:56:06Z</time>
      </trkpt>
      <trkpt lat="47.22629" lon="-1.48647">
        <ele>-6.66</ele>
        <time>2020-05-30T16:56:08Z</time>
      </trkpt>
      <trkpt lat="47.22622" lon="-1.48669">
        <ele>-6.92</ele>
        <time>2020-05-30T16:56:10Z</time>
      </trkpt>
      <trkpt lat="47.22616" lon="-1.4869">
        <ele>-8.53</ele>
        <time>2020-05-30T16:56:12Z</time>
      </trkpt>
      <trkpt lat="47.22609" lon="-1.48712">
        <ele>-9.23</ele>
        <time>2020-05-30T16:56:14Z</time>
      </trkpt>
      <trkpt lat="47.22602" lon="-1.48735">
        <ele>-10.15</ele>
        <time>2020-05-30T16:56:16Z</time>
      </trkpt>
      <trkpt lat="47.22597" lon="-1.48755">
        <ele>-11.27</ele>
        <time>2020-05-30T16:56:18Z</time>
      </trkpt>
      <trkpt lat="47.22591" lon="-1.48777">
        <ele>-12.24</ele>
        <time>2020-05-30T16:56:20Z</time>
      </trkpt>
      <trkpt lat="47.22585" lon="-1.48798">
        <ele>-12.34</ele>
        <time>2020-05-30T16:56:22Z</time>
      </trkpt>
      <trkpt lat="47.22578" lon="-1.48821">
        <ele>-12.32</ele>
        <time>2020-05-30T16:56:24Z</time>
      </trkpt>
      <trkpt lat="47.2257" lon="-1.48841">
        <ele>-12.31</ele>
        <time>2020-05-30T16:56:26Z</time>
      </trkpt>
      <trkpt lat="47.22564" lon="-1.4886">
        <ele>-12.11</ele>
        <time>2020-05-30T16:56:28Z</time>
      </trkpt>
      <trkpt lat="47.22558" lon="-1.4888">
        <ele>-10.93</ele>
        <time>2020-05-30T16:56:30Z</time>
      </trkpt>
      <trkpt lat="47.22552" lon="-1.48901">
        <ele>-9.1</ele>
        <time>2020-05-30T16:56:32Z</time>
      </trkpt>
      <trkpt lat="47.22545" lon="-1.48924">
        <ele>-8.67</ele>
        <time>2020-05-30T16:56:34Z</time>
      </trkpt>
      <trkpt lat="47.2254" lon="-1.48945">
        <ele>-8.52</ele>
        <time>2020-05-30T16:56:36Z</time>
      </trkpt>
      <trkpt lat="47.22533" lon="-1.48966">
        <ele>-8.62</ele>
        <time>2020-05-30T16:56:38Z</time>
      </trkpt>
      <trkpt lat="47.22525" lon="-1.48985">
        <ele>-7.92</ele>
        <time>2020-05-30T16:56:40Z</time>
      </trkpt>
      <trkpt lat="47.22518" lon="-1.49006">
        <ele>-7.84</ele>
        <time>2020-05-30T16:56:42Z</time>
      </trkpt>
      <trkpt lat="47.22513" lon="-1.49024">
        <ele>-8.28</ele>
        <time>2020-05-30T16:56:44Z</time>
      </trkpt>
      <trkpt lat="47.22507" lon="-1.49042">
        <ele>-8.8</ele>
        <time>2020-05-30T16:56:46Z</time>
      </trkpt>
      <trkpt lat="47.22501" lon="-1.49062">
        <ele>-8.62</ele>
        <time>2020-05-30T16:56:48Z</time>
      </trkpt>
      <trkpt lat="47.22495" lon="-1.49081">
        <ele>-8.23</ele>
        <time>2020-05-30T16:56:50Z</time>
      </trkpt>
      <trkpt lat="47.22489" lon="-1.49103">
        <ele>-8.16</ele>
        <time>2020-05-30T16:56:52Z</time>
      </trkpt>
      <trkpt lat="47.22483" lon="-1.49123">
        <ele>-9.42</ele>
        <time>2020-05-30T16:56:54Z</time>
      </trkpt>
      <trkpt lat="47.22477" lon="-1.49145">
        <ele>-9.72</ele>
        <time>2020-05-30T16:56:56Z</time>
      </trkpt>
      <trkpt lat="47.2247" lon="-1.49166">
        <ele>-9.63</ele>
        <time>2020-05-30T16:56:58Z</time>
      </trkpt>
      <trkpt lat="47.22461" lon="-1.49186">
        <ele>-9.34</ele>
        <time>2020-05-30T16:57:00Z</time>
      </trkpt>
      <trkpt lat="47.22454" lon="-1.49204">
        <ele>-8.76</ele>
        <time>2020-05-30T16:57:02Z</time>
      </trkpt>
      <trkpt lat="47.22446" lon="-1.49224">
        <ele>-8.11</ele>
        <time>2020-05-30T16:57:04Z</time>
      </trkpt>
      <trkpt lat="47.22439" lon="-1.49244">
        <ele>-8.06</ele>
        <time>2020-05-30T16:57:06Z</time>
      </trkpt>
      <trkpt lat="47.22432" lon="-1.49263">
        <ele>-7.85</ele>
        <time>2020-05-30T16:57:08Z</time>
      </trkpt>
      <trkpt lat="47.22422" lon="-1.49284">
        <ele>-7.79</ele>
        <time>2020-05-30T16:57:10Z</time>
      </trkpt>
      <trkpt lat="47.22413" lon="-1.49304">
        <ele>-7.25</ele>
        <time>2020-05-30T16:57:12Z</time>
      </trkpt>
      <trkpt lat="47.22406" lon="-1.49322">
        <ele>-7.13</ele>
        <time>2020-05-30T16:57:14Z</time>
      </trkpt>
      <trkpt lat="47.22398" lon="-1.49342">
        <ele>-6.39</ele>
        <time>2020-05-30T16:57:16Z</time>
      </trkpt>
      <trkpt lat="47.22392" lon="-1.49359">
        <ele>-5.98</ele>
        <time>2020-05-30T16:57:18Z</time>
      </trkpt>
      <trkpt lat="47.22386" lon="-1.49375">
        <ele>-5.67</ele>
        <time>2020-05-30T16:57:20Z</time>
      </trkpt>
      <trkpt lat="47.22378" lon="-1.49393">
        <ele>-5.66</ele>
        <time>2020-05-30T16:57:22Z</time>
      </trkpt>
      <trkpt lat="47.22372" lon="-1.49409">
        <ele>-7.26</ele>
        <time>2020-05-30T16:57:24Z</time>
      </trkpt>
      <trkpt lat="47.22365" lon="-1.49425">
        <ele>-9.2</ele>
        <time>2020-05-30T16:57:26Z</time>
      </trkpt>
      <trkpt lat="47.22358" lon="-1.49445">
        <ele>-9.5</ele>
        <time>2020-05-30T16:57:28Z</time>
      </trkpt>
      <trkpt lat="47.2235" lon="-1.49464">
        <ele>-8.86</ele>
        <time>2020-05-30T16:57:30Z</time>
      </trkpt>
      <trkpt lat="47.22343" lon="-1.49485">
        <ele>-8.32</ele>
        <time>2020-05-30T16:57:32Z</time>
      </trkpt>
      <trkpt lat="47.22337" lon="-1.49504">
        <ele>-7.27</ele>
        <time>2020-05-30T16:57:34Z</time>
      </trkpt>
      <trkpt lat="47.22332" lon="-1.49523">
        <ele>-6.46</ele>
        <time>2020-05-30T16:57:36Z</time>
      </trkpt>
      <trkpt lat="47.22326" lon="-1.49542">
        <ele>-6.15</ele>
        <time>2020-05-30T16:57:38Z</time>
      </trkpt>
      <trkpt lat="47.22321" lon="-1.4956">
        <ele>-6.39</ele>
        <time>2020-05-30T16:57:40Z</time>
      </trkpt>
      <trkpt lat="47.22315" lon="-1.49578">
        <ele>-7.03</ele>
        <time>2020-05-30T16:57:42Z</time>
      </trkpt>
      <trkpt lat="47.22308" lon="-1.49598">
        <ele>-6.55</ele>
        <time>2020-05-30T16:57:44Z</time>
      </trkpt>
      <trkpt lat="47.22302" lon="-1.49618">
        <ele>-7.04</ele>
        <time>2020-05-30T16:57:46Z</time>
      </trkpt>
      <trkpt lat="47.22296" lon="-1.49638">
        <ele>-6.9</ele>
        <time>2020-05-30T16:57:48Z</time>
      </trkpt>
      <trkpt lat="47.22292" lon="-1.49655">
        <ele>-6.94</ele>
        <time>2020-05-30T16:57:50Z</time>
      </trkpt>
      <trkpt lat="47.22286" lon="-1.49676">
        <ele>-7.1</ele>
        <time>2020-05-30T16:57:52Z</time>
      </trkpt>
      <trkpt lat="47.2228" lon="-1.49695">
        <ele>-7.05</ele>
        <time>2020-05-30T16:57:54Z</time>
      </trkpt>
      <trkpt lat="47.22273" lon="-1.49715">
        <ele>-8.06</ele>
        <time>2020-05-30T16:57:56Z</time>
      </trkpt>
      <trkpt lat="47.22267" lon="-1.49734">
        <ele>-9.93</ele>
        <time>2020-05-30T16:57:58Z</time>
      </trkpt>
      <trkpt lat="47.22261" lon="-1.49755">
        <ele>-10.89</ele>
        <time>2020-05-30T16:58:00Z</time>
      </trkpt>
      <trkpt lat="47.22259" lon="-1.49773">
        <ele>-10.28</ele>
        <time>2020-05-30T16:58:02Z</time>
      </trkpt>
      <trkpt lat="47.22257" lon="-1.49793">
        <ele>-8.81</ele>
        <time>2020-05-30T16:58:04Z</time>
      </trkpt>
      <trkpt lat="47.22254" lon="-1.49813">
        <ele>-8.59</ele>
        <time>2020-05-30T16:58:06Z</time>
      </trkpt>
      <trkpt lat="47.22247" lon="-1.49837">
        <ele>-8.14</ele>
        <time>2020-05-30T16:58:08Z</time>
      </trkpt>
      <trkpt lat="47.22242" lon="-1.49855">
        <ele>-7.95</ele>
        <time>2020-05-30T16:58:10Z</time>
      </trkpt>
      <trkpt lat="47.22237" lon="-1.49875">
        <ele>-8</ele>
        <time>2020-05-30T16:58:12Z</time>
      </trkpt>
      <trkpt lat="47.22234" lon="-1.49894">
        <ele>-8.95</ele>
        <time>2020-05-30T16:58:14Z</time>
      </trkpt>
      <trkpt lat="47.22229" lon="-1.49916">
        <ele>-9.79</ele>
        <time>2020-05-30T16:58:16Z</time>
      </trkpt>
      <trkpt lat="47.22223" lon="-1.49937">
        <ele>-9.35</ele>
        <time>2020-05-30T16:58:18Z</time>
      </trkpt>
      <trkpt lat="47.22218" lon="-1.49956">
        <ele>-9.51</ele>
        <time>2020-05-30T16:58:20Z</time>
      </trkpt>
      <trkpt lat="47.22213" lon="-1.49974">
        <ele>-10.71</ele>
        <time>2020-05-30T16:58:22Z</time>
      </trkpt>
      <trkpt lat="47.22208" lon="-1.49996">
        <ele>-10.26</ele>
        <time>2020-05-30T16:58:24Z</time>
      </trkpt>
      <trkpt lat="47.22201" lon="-1.5002">
        <ele>-10.83</ele>
        <time>2020-05-30T16:58:26Z</time>
      </trkpt>
      <trkpt lat="47.22196" lon="-1.50041">
        <ele>-10.95</ele>
        <time>2020-05-30T16:58:28Z</time>
      </trkpt>
      <trkpt lat="47.22192" lon="-1.50059">
        <ele>-10.99</ele>
        <time>2020-05-30T16:58:30Z</time>
      </trkpt>
      <trkpt lat="47.22188" lon="-1.50081">
        <ele>-11.21</ele>
        <time>2020-05-30T16:58:32Z</time>
      </trkpt>
      <trkpt lat="47.22182" lon="-1.50102">
        <ele>-11.1</ele>
        <time>2020-05-30T16:58:34Z</time>
      </trkpt>
      <trkpt lat="47.22177" lon="-1.5012">
        <ele>-10.88</ele>
        <time>2020-05-30T16:58:36Z</time>
      </trkpt>
      <trkpt lat="47.22171" lon="-1.50138">
        <ele>-9.93</ele>
        <time>2020-05-30T16:58:38Z</time>
      </trkpt>
      <trkpt lat="47.22164" lon="-1.50157">
        <ele>-9.57</ele>
        <time>2020-05-30T16:58:40Z</time>
      </trkpt>
      <trkpt lat="47.22158" lon="-1.50175">
        <ele>-9.22</ele>
        <time>2020-05-30T16:58:42Z</time>
      </trkpt>
      <trkpt lat="47.22154" lon="-1.50195">
        <ele>-9.51</ele>
        <time>2020-05-30T16:58:44Z</time>
      </trkpt>
      <trkpt lat="47.22149" lon="-1.50215">
        <ele>-8.89</ele>
        <time>2020-05-30T16:58:46Z</time>
      </trkpt>
      <trkpt lat="47.22144" lon="-1.50233">
        <ele>-9.12</ele>
        <time>2020-05-30T16:58:48Z</time>
      </trkpt>
      <trkpt lat="47.22139" lon="-1.5025">
        <ele>-9.04</ele>
        <time>2020-05-30T16:58:50Z</time>
      </trkpt>
      <trkpt lat="47.22134" lon="-1.50269">
        <ele>-8.84</ele>
        <time>2020-05-30T16:58:52Z</time>
      </trkpt>
      <trkpt lat="47.22127" lon="-1.50289">
        <ele>-10.24</ele>
        <time>2020-05-30T16:58:54Z</time>
      </trkpt>
      <trkpt lat="47.22117" lon="-1.50304">
        <ele>-11.44</ele>
        <time>2020-05-30T16:58:56Z</time>
      </trkpt>
      <trkpt lat="47.22109" lon="-1.50319">
        <ele>-11.1</ele>
        <time>2020-05-30T16:58:58Z</time>
      </trkpt>
      <trkpt lat="47.221" lon="-1.50336">
        <ele>-10.8</ele>
        <time>2020-05-30T16:59:00Z</time>
      </trkpt>
      <trkpt lat="47.22094" lon="-1.50354">
        <ele>-11.56</ele>
        <time>2020-05-30T16:59:02Z</time>
      </trkpt>
      <trkpt lat="47.22089" lon="-1.50374">
        <ele>-11.99</ele>
        <time>2020-05-30T16:59:04Z</time>
      </trkpt>
      <trkpt lat="47.22084" lon="-1.50395">
        <ele>-12.22</ele>
        <time>2020-05-30T16:59:06Z</time>
      </trkpt>
      <trkpt lat="47.22079" lon="-1.50414">
        <ele>-12.74</ele>
        <time>2020-05-30T16:59:08Z</time>
      </trkpt>
      <trkpt lat="47.22074" lon="-1.50435">
        <ele>-13.25</ele>
        <time>2020-05-30T16:59:10Z</time>
      </trkpt>
      <trkpt lat="47.22071" lon="-1.50457">
        <ele>-14.27</ele>
        <time>2020-05-30T16:59:12Z</time>
      </trkpt>
      <trkpt lat="47.22068" lon="-1.50477">
        <ele>-14.78</ele>
        <time>2020-05-30T16:59:14Z</time>
      </trkpt>
      <trkpt lat="47.22065" lon="-1.50497">
        <ele>-15.02</ele>
        <time>2020-05-30T16:59:16Z</time>
      </trkpt>
      <trkpt lat="47.22065" lon="-1.50517">
        <ele>-14.41</ele>
        <time>2020-05-30T16:59:18Z</time>
      </trkpt>
      <trkpt lat="47.22066" lon="-1.50538">
        <ele>-13.18</ele>
        <time>2020-05-30T16:59:20Z</time>
      </trkpt>
      <trkpt lat="47.22065" lon="-1.50558">
        <ele>-12.31</ele>
        <time>2020-05-30T16:59:22Z</time>
      </trkpt>
      <trkpt lat="47.22064" lon="-1.50575">
        <ele>-12.3</ele>
        <time>2020-05-30T16:59:24Z</time>
      </trkpt>
      <trkpt lat="47.22063" lon="-1.50596">
        <ele>-12.29</ele>
        <time>2020-05-30T16:59:26Z</time>
      </trkpt>
      <trkpt lat="47.22062" lon="-1.50612">
        <ele>-12.45</ele>
        <time>2020-05-30T16:59:28Z</time>
      </trkpt>
      <trkpt lat="47.22062" lon="-1.50629">
        <ele>-11.73</ele>
        <time>2020-05-30T16:59:30Z</time>
      </trkpt>
      <trkpt lat="47.22062" lon="-1.50651">
        <ele>-11.68</ele>
        <time>2020-05-30T16:59:32Z</time>
      </trkpt>
      <trkpt lat="47.2206" lon="-1.50674">
        <ele>-12.46</ele>
        <time>2020-05-30T16:59:34Z</time>
      </trkpt>
      <trkpt lat="47.22058" lon="-1.50695">
        <ele>-14.3</ele>
        <time>2020-05-30T16:59:36Z</time>
      </trkpt>
      <trkpt lat="47.22057" lon="-1.50713">
        <ele>-16.62</ele>
        <time>2020-05-30T16:59:38Z</time>
      </trkpt>
      <trkpt lat="47.22054" lon="-1.50734">
        <ele>-18.34</ele>
        <time>2020-05-30T16:59:40Z</time>
      </trkpt>
      <trkpt lat="47.22051" lon="-1.50756">
        <ele>-18.09</ele>
        <time>2020-05-30T16:59:42Z</time>
      </trkpt>
      <trkpt lat="47.22048" lon="-1.50774">
        <ele>-17.11</ele>
        <time>2020-05-30T16:59:44Z</time>
      </trkpt>
      <trkpt lat="47.22043" lon="-1.50794">
        <ele>-15.37</ele>
        <time>2020-05-30T16:59:46Z</time>
      </trkpt>
      <trkpt lat="47.22038" lon="-1.50814">
        <ele>-13.77</ele>
        <time>2020-05-30T16:59:48Z</time>
      </trkpt>
      <trkpt lat="47.2203" lon="-1.50833">
        <ele>-12.91</ele>
        <time>2020-05-30T16:59:50Z</time>
      </trkpt>
      <trkpt lat="47.22023" lon="-1.5085">
        <ele>-12.14</ele>
        <time>2020-05-30T16:59:52Z</time>
      </trkpt>
      <trkpt lat="47.22016" lon="-1.50868">
        <ele>-12.87</ele>
        <time>2020-05-30T16:59:54Z</time>
      </trkpt>
      <trkpt lat="47.22007" lon="-1.50888">
        <ele>-12.94</ele>
        <time>2020-05-30T16:59:56Z</time>
      </trkpt>
      <trkpt lat="47.22" lon="-1.50908">
        <ele>-12.88</ele>
        <time>2020-05-30T16:59:58Z</time>
      </trkpt>
      <trkpt lat="47.21994" lon="-1.50926">
        <ele>-12.48</ele>
        <time>2020-05-30T17:00:00Z</time>
      </trkpt>
      <trkpt lat="47.21989" lon="-1.50943">
        <ele>-12.56</ele>
        <time>2020-05-30T17:00:02Z</time>
      </trkpt>
      <trkpt lat="47.21983" lon="-1.50963">
        <ele>-12.88</ele>
        <time>2020-05-30T17:00:04Z</time>
      </trkpt>
      <trkpt lat="47.21978" lon="-1.50981">
        <ele>-12.72</ele>
        <time>2020-05-30T17:00:06Z</time>
      </trkpt>
      <trkpt lat="47.21972" lon="-1.51">
        <ele>-12.18</ele>
        <time>2020-05-30T17:00:08Z</time>
      </trkpt>
      <trkpt lat="47.21966" lon="-1.5102">
        <ele>-12.85</ele>
        <time>2020-05-30T17:00:10Z</time>
      </trkpt>
      <trkpt lat="47.21961" lon="-1.51036">
        <ele>-13.25</ele>
        <time>2020-05-30T17:00:12Z</time>
      </trkpt>
      <trkpt lat="47.21957" lon="-1.51054">
        <ele>-13.5</ele>
        <time>2020-05-30T17:00:14Z</time>
      </trkpt>
      <trkpt lat="47.2195" lon="-1.51067">
        <ele>-13.39</ele>
        <time>2020-05-30T17:00:17Z</time>
      </trkpt>
      <trkpt lat="47.21942" lon="-1.51079">
        <ele>-12.09</ele>
        <time>2020-05-30T17:00:19Z</time>
      </trkpt>
      <trkpt lat="47.21934" lon="-1.51093">
        <ele>-10.72</ele>
        <time>2020-05-30T17:00:21Z</time>
      </trkpt>
      <trkpt lat="47.21927" lon="-1.51114">
        <ele>-10.53</ele>
        <time>2020-05-30T17:00:23Z</time>
      </trkpt>
      <trkpt lat="47.21921" lon="-1.51133">
        <ele>-9.87</ele>
        <time>2020-05-30T17:00:25Z</time>
      </trkpt>
      <trkpt lat="47.21914" lon="-1.51155">
        <ele>-9.34</ele>
        <time>2020-05-30T17:00:27Z</time>
      </trkpt>
      <trkpt lat="47.21908" lon="-1.51174">
        <ele>-8.78</ele>
        <time>2020-05-30T17:00:29Z</time>
      </trkpt>
      <trkpt lat="47.21901" lon="-1.51194">
        <ele>-8.54</ele>
        <time>2020-05-30T17:00:31Z</time>
      </trkpt>
      <trkpt lat="47.21894" lon="-1.51212">
        <ele>-9.48</ele>
        <time>2020-05-30T17:00:33Z</time>
      </trkpt>
      <trkpt lat="47.21887" lon="-1.51232">
        <ele>-10.21</ele>
        <time>2020-05-30T17:00:35Z</time>
      </trkpt>
      <trkpt lat="47.21881" lon="-1.51253">
        <ele>-10.78</ele>
        <time>2020-05-30T17:00:37Z</time>
      </trkpt>
      <trkpt lat="47.21875" lon="-1.51272">
        <ele>-11.05</ele>
        <time>2020-05-30T17:00:39Z</time>
      </trkpt>
      <trkpt lat="47.21868" lon="-1.51292">
        <ele>-10.37</ele>
        <time>2020-05-30T17:00:41Z</time>
      </trkpt>
      <trkpt lat="47.21861" lon="-1.51311">
        <ele>-9.42</ele>
        <time>2020-05-30T17:00:43Z</time>
      </trkpt>
      <trkpt lat="47.21855" lon="-1.51331">
        <ele>-8.86</ele>
        <time>2020-05-30T17:00:45Z</time>
      </trkpt>
      <trkpt lat="47.2185" lon="-1.5135">
        <ele>-7.79</ele>
        <time>2020-05-30T17:00:47Z</time>
      </trkpt>
      <trkpt lat="47.21845" lon="-1.51368">
        <ele>-5.85</ele>
        <time>2020-05-30T17:00:49Z</time>
      </trkpt>
      <trkpt lat="47.2184" lon="-1.51389">
        <ele>-4.28</ele>
        <time>2020-05-30T17:00:51Z</time>
      </trkpt>
      <trkpt lat="47.21835" lon="-1.5141">
        <ele>-4.43</ele>
        <time>2020-05-30T17:00:53Z</time>
      </trkpt>
      <trkpt lat="47.2183" lon="-1.5143">
        <ele>-4.92</ele>
        <time>2020-05-30T17:00:55Z</time>
      </trkpt>
      <trkpt lat="47.21826" lon="-1.5145">
        <ele>-6.6</ele>
        <time>2020-05-30T17:00:57Z</time>
      </trkpt>
      <trkpt lat="47.21823" lon="-1.5147">
        <ele>-7.86</ele>
        <time>2020-05-30T17:00:59Z</time>
      </trkpt>
      <trkpt lat="47.21818" lon="-1.5149">
        <ele>-8.91</ele>
        <time>2020-05-30T17:01:01Z</time>
      </trkpt>
      <trkpt lat="47.21813" lon="-1.5151">
        <ele>-9.7</ele>
        <time>2020-05-30T17:01:03Z</time>
      </trkpt>
      <trkpt lat="47.21806" lon="-1.51529">
        <ele>-9.13</ele>
        <time>2020-05-30T17:01:05Z</time>
      </trkpt>
      <trkpt lat="47.21799" lon="-1.51545">
        <ele>-8.4</ele>
        <time>2020-05-30T17:01:07Z</time>
      </trkpt>
      <trkpt lat="47.21793" lon="-1.5156">
        <ele>-7.3</ele>
        <time>2020-05-30T17:01:09Z</time>
      </trkpt>
      <trkpt lat="47.21785" lon="-1.51577">
        <ele>-6.89</ele>
        <time>2020-05-30T17:01:11Z</time>
      </trkpt>
      <trkpt lat="47.21776" lon="-1.51592">
        <ele>-7.5</ele>
        <time>2020-05-30T17:01:13Z</time>
      </trkpt>
      <trkpt lat="47.21767" lon="-1.51606">
        <ele>-8.03</ele>
        <time>2020-05-30T17:01:15Z</time>
      </trkpt>
      <trkpt lat="47.21756" lon="-1.51621">
        <ele>-7.87</ele>
        <time>2020-05-30T17:01:17Z</time>
      </trkpt>
      <trkpt lat="47.21746" lon="-1.51637">
        <ele>-6.88</ele>
        <time>2020-05-30T17:01:19Z</time>
      </trkpt>
      <trkpt lat="47.21737" lon="-1.51655">
        <ele>-7.18</ele>
        <time>2020-05-30T17:01:21Z</time>
      </trkpt>
      <trkpt lat="47.21728" lon="-1.51673">
        <ele>-7.26</ele>
        <time>2020-05-30T17:01:23Z</time>
      </trkpt>
      <trkpt lat="47.2172" lon="-1.51691">
        <ele>-7.39</ele>
        <time>2020-05-30T17:01:25Z</time>
      </trkpt>
      <trkpt lat="47.21712" lon="-1.51707">
        <ele>-8.11</ele>
        <time>2020-05-30T17:01:27Z</time>
      </trkpt>
      <trkpt lat="47.21706" lon="-1.51722">
        <ele>-8.85</ele>
        <time>2020-05-30T17:01:29Z</time>
      </trkpt>
      <trkpt lat="47.21698" lon="-1.51742">
        <ele>-8.32</ele>
        <time>2020-05-30T17:01:31Z</time>
      </trkpt>
      <trkpt lat="47.21691" lon="-1.51758">
        <ele>-8.36</ele>
        <time>2020-05-30T17:01:33Z</time>
      </trkpt>
      <trkpt lat="47.21684" lon="-1.51775">
        <ele>-8.1</ele>
        <time>2020-05-30T17:01:35Z</time>
      </trkpt>
      <trkpt lat="47.21677" lon="-1.51794">
        <ele>-8.45</ele>
        <time>2020-05-30T17:01:37Z</time>
      </trkpt>
      <trkpt lat="47.2167" lon="-1.5181">
        <ele>-9.03</ele>
        <time>2020-05-30T17:01:39Z</time>
      </trkpt>
      <trkpt lat="47.21663" lon="-1.51828">
        <ele>-9.69</ele>
        <time>2020-05-30T17:01:41Z</time>
      </trkpt>
      <trkpt lat="47.21655" lon="-1.51847">
        <ele>-9.64</ele>
        <time>2020-05-30T17:01:43Z</time>
      </trkpt>
      <trkpt lat="47.21648" lon="-1.51867">
        <ele>-9.33</ele>
        <time>2020-05-30T17:01:45Z</time>
      </trkpt>
      <trkpt lat="47.21645" lon="-1.51887">
        <ele>-9.46</ele>
        <time>2020-05-30T17:01:47Z</time>
      </trkpt>
      <trkpt lat="47.21639" lon="-1.51903">
        <ele>-8.86</ele>
        <time>2020-05-30T17:01:49Z</time>
      </trkpt>
      <trkpt lat="47.21632" lon="-1.5192">
        <ele>-7.65</ele>
        <time>2020-05-30T17:01:51Z</time>
      </trkpt>
      <trkpt lat="47.21627" lon="-1.51937">
        <ele>-6.86</ele>
        <time>2020-05-30T17:01:53Z</time>
      </trkpt>
      <trkpt lat="47.21624" lon="-1.51952">
        <ele>-7.39</ele>
        <time>2020-05-30T17:01:55Z</time>
      </trkpt>
      <trkpt lat="47.21623" lon="-1.51969">
        <ele>-7.03</ele>
        <time>2020-05-30T17:01:57Z</time>
      </trkpt>
      <trkpt lat="47.21613" lon="-1.51983">
        <ele>-6.45</ele>
        <time>2020-05-30T17:01:59Z</time>
      </trkpt>
      <trkpt lat="47.21607" lon="-1.52002">
        <ele>-6.73</ele>
        <time>2020-05-30T17:02:01Z</time>
      </trkpt>
      <trkpt lat="47.21601" lon="-1.52021">
        <ele>-6.34</ele>
        <time>2020-05-30T17:02:03Z</time>
      </trkpt>
      <trkpt lat="47.21595" lon="-1.52041">
        <ele>-6.69</ele>
        <time>2020-05-30T17:02:05Z</time>
      </trkpt>
      <trkpt lat="47.21589" lon="-1.5206">
        <ele>-7.41</ele>
        <time>2020-05-30T17:02:07Z</time>
      </trkpt>
      <trkpt lat="47.21583" lon="-1.5208">
        <ele>-8.75</ele>
        <time>2020-05-30T17:02:09Z</time>
      </trkpt>
      <trkpt lat="47.21575" lon="-1.52101">
        <ele>-8.89</ele>
        <time>2020-05-30T17:02:11Z</time>
      </trkpt>
      <trkpt lat="47.21568" lon="-1.5212">
        <ele>-8.14</ele>
        <time>2020-05-30T17:02:13Z</time>
      </trkpt>
      <trkpt lat="47.21561" lon="-1.5214">
        <ele>-7.6</ele>
        <time>2020-05-30T17:02:14Z</time>
      </trkpt>
      <trkpt lat="47.21554" lon="-1.5216">
        <ele>-8.95</ele>
        <time>2020-05-30T17:02:16Z</time>
      </trkpt>
      <trkpt lat="47.21548" lon="-1.5218">
        <ele>-8.73</ele>
        <time>2020-05-30T17:02:18Z</time>
      </trkpt>
      <trkpt lat="47.21542" lon="-1.52202">
        <ele>-8.26</ele>
        <time>2020-05-30T17:02:20Z</time>
      </trkpt>
      <trkpt lat="47.21536" lon="-1.52219">
        <ele>-8.71</ele>
        <time>2020-05-30T17:02:22Z</time>
      </trkpt>
      <trkpt lat="47.21529" lon="-1.52237">
        <ele>-9.15</ele>
        <time>2020-05-30T17:02:24Z</time>
      </trkpt>
      <trkpt lat="47.21523" lon="-1.52254">
        <ele>-9.54</ele>
        <time>2020-05-30T17:02:26Z</time>
      </trkpt>
      <trkpt lat="47.21516" lon="-1.52276">
        <ele>-10.41</ele>
        <time>2020-05-30T17:02:28Z</time>
      </trkpt>
      <trkpt lat="47.2151" lon="-1.52296">
        <ele>-9.84</ele>
        <time>2020-05-30T17:02:30Z</time>
      </trkpt>
      <trkpt lat="47.21504" lon="-1.52317">
        <ele>-9.74</ele>
        <time>2020-05-30T17:02:32Z</time>
      </trkpt>
      <trkpt lat="47.21498" lon="-1.52338">
        <ele>-9.35</ele>
        <time>2020-05-30T17:02:34Z</time>
      </trkpt>
      <trkpt lat="47.21492" lon="-1.52358">
        <ele>-8.73</ele>
        <time>2020-05-30T17:02:36Z</time>
      </trkpt>
      <trkpt lat="47.21485" lon="-1.52375">
        <ele>-7.22</ele>
        <time>2020-05-30T17:02:38Z</time>
      </trkpt>
      <trkpt lat="47.21479" lon="-1.52396">
        <ele>-6.61</ele>
        <time>2020-05-30T17:02:40Z</time>
      </trkpt>
      <trkpt lat="47.21472" lon="-1.52417">
        <ele>-5.78</ele>
        <time>2020-05-30T17:02:42Z</time>
      </trkpt>
      <trkpt lat="47.21466" lon="-1.52435">
        <ele>-5.36</ele>
        <time>2020-05-30T17:02:44Z</time>
      </trkpt>
      <trkpt lat="47.21461" lon="-1.52452">
        <ele>-6.52</ele>
        <time>2020-05-30T17:02:46Z</time>
      </trkpt>
      <trkpt lat="47.21455" lon="-1.52473">
        <ele>-8.75</ele>
        <time>2020-05-30T17:02:48Z</time>
      </trkpt>
      <trkpt lat="47.21449" lon="-1.52494">
        <ele>-10.12</ele>
        <time>2020-05-30T17:02:50Z</time>
      </trkpt>
      <trkpt lat="47.21443" lon="-1.52515">
        <ele>-10.73</ele>
        <time>2020-05-30T17:02:52Z</time>
      </trkpt>
      <trkpt lat="47.21438" lon="-1.52534">
        <ele>-10.34</ele>
        <time>2020-05-30T17:02:54Z</time>
      </trkpt>
      <trkpt lat="47.21432" lon="-1.52554">
        <ele>-10.2</ele>
        <time>2020-05-30T17:02:56Z</time>
      </trkpt>
      <trkpt lat="47.21426" lon="-1.52573">
        <ele>-10.56</ele>
        <time>2020-05-30T17:02:58Z</time>
      </trkpt>
      <trkpt lat="47.21418" lon="-1.52597">
        <ele>-10.58</ele>
        <time>2020-05-30T17:03:00Z</time>
      </trkpt>
      <trkpt lat="47.21413" lon="-1.52614">
        <ele>-10.57</ele>
        <time>2020-05-30T17:03:02Z</time>
      </trkpt>
      <trkpt lat="47.21406" lon="-1.52633">
        <ele>-10.6</ele>
        <time>2020-05-30T17:03:04Z</time>
      </trkpt>
      <trkpt lat="47.21401" lon="-1.52649">
        <ele>-11.17</ele>
        <time>2020-05-30T17:03:06Z</time>
      </trkpt>
      <trkpt lat="47.21395" lon="-1.52666">
        <ele>-11.59</ele>
        <time>2020-05-30T17:03:08Z</time>
      </trkpt>
      <trkpt lat="47.2139" lon="-1.52687">
        <ele>-12.11</ele>
        <time>2020-05-30T17:03:10Z</time>
      </trkpt>
      <trkpt lat="47.21384" lon="-1.52709">
        <ele>-10.75</ele>
        <time>2020-05-30T17:03:12Z</time>
      </trkpt>
      <trkpt lat="47.21381" lon="-1.52722">
        <ele>-9.73</ele>
        <time>2020-05-30T17:03:13Z</time>
      </trkpt>
      <trkpt lat="47.21377" lon="-1.52742">
        <ele>-7.87</ele>
        <time>2020-05-30T17:03:15Z</time>
      </trkpt>
      <trkpt lat="47.21373" lon="-1.52762">
        <ele>-7.49</ele>
        <time>2020-05-30T17:03:17Z</time>
      </trkpt>
      <trkpt lat="47.2137" lon="-1.52784">
        <ele>-7.46</ele>
        <time>2020-05-30T17:03:19Z</time>
      </trkpt>
      <trkpt lat="47.21366" lon="-1.52806">
        <ele>-7.27</ele>
        <time>2020-05-30T17:03:21Z</time>
      </trkpt>
      <trkpt lat="47.21364" lon="-1.52825">
        <ele>-6.61</ele>
        <time>2020-05-30T17:03:23Z</time>
      </trkpt>
      <trkpt lat="47.2136" lon="-1.52842">
        <ele>-6.23</ele>
        <time>2020-05-30T17:03:25Z</time>
      </trkpt>
      <trkpt lat="47.21355" lon="-1.52863">
        <ele>-5.29</ele>
        <time>2020-05-30T17:03:27Z</time>
      </trkpt>
      <trkpt lat="47.2135" lon="-1.52882">
        <ele>-5.67</ele>
        <time>2020-05-30T17:03:29Z</time>
      </trkpt>
      <trkpt lat="47.21346" lon="-1.52904">
        <ele>-6.14</ele>
        <time>2020-05-30T17:03:31Z</time>
      </trkpt>
      <trkpt lat="47.21343" lon="-1.52928">
        <ele>-7.8</ele>
        <time>2020-05-30T17:03:33Z</time>
      </trkpt>
      <trkpt lat="47.21341" lon="-1.52947">
        <ele>-9.33</ele>
        <time>2020-05-30T17:03:35Z</time>
      </trkpt>
      <trkpt lat="47.21342" lon="-1.52971">
        <ele>-12.75</ele>
        <time>2020-05-30T17:03:37Z</time>
      </trkpt>
      <trkpt lat="47.21342" lon="-1.52992">
        <ele>-13.97</ele>
        <time>2020-05-30T17:03:39Z</time>
      </trkpt>
      <trkpt lat="47.21341" lon="-1.53015">
        <ele>-14.01</ele>
        <time>2020-05-30T17:03:41Z</time>
      </trkpt>
      <trkpt lat="47.21338" lon="-1.53035">
        <ele>-13.24</ele>
        <time>2020-05-30T17:03:43Z</time>
      </trkpt>
      <trkpt lat="47.21336" lon="-1.53056">
        <ele>-11.8</ele>
        <time>2020-05-30T17:03:45Z</time>
      </trkpt>
      <trkpt lat="47.21333" lon="-1.53076">
        <ele>-10.9</ele>
        <time>2020-05-30T17:03:47Z</time>
      </trkpt>
      <trkpt lat="47.21331" lon="-1.53096">
        <ele>-10.33</ele>
        <time>2020-05-30T17:03:49Z</time>
      </trkpt>
      <trkpt lat="47.2133" lon="-1.53116">
        <ele>-10.32</ele>
        <time>2020-05-30T17:03:51Z</time>
      </trkpt>
      <trkpt lat="47.21327" lon="-1.53135">
        <ele>-9.33</ele>
        <time>2020-05-30T17:03:53Z</time>
      </trkpt>
      <trkpt lat="47.21323" lon="-1.53157">
        <ele>-8.69</ele>
        <time>2020-05-30T17:03:55Z</time>
      </trkpt>
      <trkpt lat="47.2132" lon="-1.53178">
        <ele>-10.46</ele>
        <time>2020-05-30T17:03:57Z</time>
      </trkpt>
      <trkpt lat="47.21318" lon="-1.53199">
        <ele>-11.39</ele>
        <time>2020-05-30T17:03:59Z</time>
      </trkpt>
      <trkpt lat="47.21315" lon="-1.53223">
        <ele>-11.47</ele>
        <time>2020-05-30T17:04:01Z</time>
      </trkpt>
      <trkpt lat="47.21313" lon="-1.53244">
        <ele>-11.16</ele>
        <time>2020-05-30T17:04:03Z</time>
      </trkpt>
      <trkpt lat="47.21312" lon="-1.53269">
        <ele>-10.11</ele>
        <time>2020-05-30T17:04:05Z</time>
      </trkpt>
      <trkpt lat="47.21312" lon="-1.53288">
        <ele>-8.63</ele>
        <time>2020-05-30T17:04:07Z</time>
      </trkpt>
      <trkpt lat="47.21312" lon="-1.53308">
        <ele>-7.76</ele>
        <time>2020-05-30T17:04:09Z</time>
      </trkpt>
      <trkpt lat="47.2131" lon="-1.5333">
        <ele>-7.69</ele>
        <time>2020-05-30T17:04:11Z</time>
      </trkpt>
      <trkpt lat="47.21307" lon="-1.5335">
        <ele>-6.32</ele>
        <time>2020-05-30T17:04:13Z</time>
      </trkpt>
      <trkpt lat="47.21303" lon="-1.53371">
        <ele>-4.76</ele>
        <time>2020-05-30T17:04:15Z</time>
      </trkpt>
      <trkpt lat="47.213" lon="-1.53389">
        <ele>-4.71</ele>
        <time>2020-05-30T17:04:17Z</time>
      </trkpt>
      <trkpt lat="47.21297" lon="-1.53407">
        <ele>-6.24</ele>
        <time>2020-05-30T17:04:19Z</time>
      </trkpt>
      <trkpt lat="47.21296" lon="-1.53424">
        <ele>-7.01</ele>
        <time>2020-05-30T17:04:21Z</time>
      </trkpt>
      <trkpt lat="47.21294" lon="-1.53443">
        <ele>-8.01</ele>
        <time>2020-05-30T17:04:23Z</time>
      </trkpt>
      <trkpt lat="47.21295" lon="-1.53458">
        <ele>-8.56</ele>
        <time>2020-05-30T17:04:25Z</time>
      </trkpt>
      <trkpt lat="47.21296" lon="-1.53473">
        <ele>-8.22</ele>
        <time>2020-05-30T17:04:27Z</time>
      </trkpt>
      <trkpt lat="47.21298" lon="-1.53487">
        <ele>-8.32</ele>
        <time>2020-05-30T17:04:29Z</time>
      </trkpt>
      <trkpt lat="47.21299" lon="-1.53502">
        <ele>-7.75</ele>
        <time>2020-05-30T17:04:31Z</time>
      </trkpt>
      <trkpt lat="47.21301" lon="-1.53522">
        <ele>-7.19</ele>
        <time>2020-05-30T17:04:33Z</time>
      </trkpt>
      <trkpt lat="47.21303" lon="-1.53546">
        <ele>-6.07</ele>
        <time>2020-05-30T17:04:35Z</time>
      </trkpt>
      <trkpt lat="47.21304" lon="-1.5357">
        <ele>-3.58</ele>
        <time>2020-05-30T17:04:37Z</time>
      </trkpt>
      <trkpt lat="47.21305" lon="-1.53592">
        <ele>-1.71</ele>
        <time>2020-05-30T17:04:39Z</time>
      </trkpt>
      <trkpt lat="47.21305" lon="-1.53612">
        <ele>-1.17</ele>
        <time>2020-05-30T17:04:41Z</time>
      </trkpt>
      <trkpt lat="47.21303" lon="-1.53634">
        <ele>-0.83</ele>
        <time>2020-05-30T17:04:43Z</time>
      </trkpt>
      <trkpt lat="47.21297" lon="-1.53644">
        <ele>-0.42</ele>
        <time>2020-05-30T17:04:45Z</time>
      </trkpt>
      <trkpt lat="47.21295" lon="-1.5366">
        <ele>-0.49</ele>
        <time>2020-05-30T17:04:48Z</time>
      </trkpt>
      <trkpt lat="47.21291" lon="-1.53675">
        <ele>-1.34</ele>
        <time>2020-05-30T17:04:51Z</time>
      </trkpt>
      <trkpt lat="47.21299" lon="-1.53688">
        <ele>-2.04</ele>
        <time>2020-05-30T17:04:54Z</time>
      </trkpt>
      <trkpt lat="47.21305" lon="-1.53704">
        <ele>-2.68</ele>
        <time>2020-05-30T17:04:56Z</time>
      </trkpt>
      <trkpt lat="47.21307" lon="-1.53724">
        <ele>-2.38</ele>
        <time>2020-05-30T17:04:58Z</time>
      </trkpt>
      <trkpt lat="47.21314" lon="-1.53744">
        <ele>-2.34</ele>
        <time>2020-05-30T17:05:00Z</time>
      </trkpt>
      <trkpt lat="47.21318" lon="-1.53766">
        <ele>-2.92</ele>
        <time>2020-05-30T17:05:02Z</time>
      </trkpt>
      <trkpt lat="47.2132" lon="-1.53788">
        <ele>-4.66</ele>
        <time>2020-05-30T17:05:04Z</time>
      </trkpt>
      <trkpt lat="47.21324" lon="-1.53806">
        <ele>-5.78</ele>
        <time>2020-05-30T17:05:06Z</time>
      </trkpt>
      <trkpt lat="47.21327" lon="-1.53826">
        <ele>-5.8</ele>
        <time>2020-05-30T17:05:08Z</time>
      </trkpt>
      <trkpt lat="47.21329" lon="-1.53845">
        <ele>-3.76</ele>
        <time>2020-05-30T17:05:10Z</time>
      </trkpt>
      <trkpt lat="47.21332" lon="-1.53865">
        <ele>-2.15</ele>
        <time>2020-05-30T17:05:12Z</time>
      </trkpt>
      <trkpt lat="47.21335" lon="-1.53885">
        <ele>0.23</ele>
        <time>2020-05-30T17:05:14Z</time>
      </trkpt>
      <trkpt lat="47.21336" lon="-1.53901">
        <ele>3.2</ele>
        <time>2020-05-30T17:05:16Z</time>
      </trkpt>
      <trkpt lat="47.21338" lon="-1.53915">
        <ele>5.5</ele>
        <time>2020-05-30T17:05:18Z</time>
      </trkpt>
      <trkpt lat="47.21339" lon="-1.5393">
        <ele>5.75</ele>
        <time>2020-05-30T17:05:20Z</time>
      </trkpt>
      <trkpt lat="47.2135" lon="-1.53935">
        <ele>5.61</ele>
        <time>2020-05-30T17:05:25Z</time>
      </trkpt>
      <trkpt lat="47.21361" lon="-1.53939">
        <ele>5.25</ele>
        <time>2020-05-30T17:05:29Z</time>
      </trkpt>
      <trkpt lat="47.21374" lon="-1.53942">
        <ele>2.27</ele>
        <time>2020-05-30T17:05:32Z</time>
      </trkpt>
      <trkpt lat="47.21383" lon="-1.53953">
        <ele>1.82</ele>
        <time>2020-05-30T17:05:34Z</time>
      </trkpt>
      <trkpt lat="47.21384" lon="-1.53973">
        <ele>1.67</ele>
        <time>2020-05-30T17:05:36Z</time>
      </trkpt>
      <trkpt lat="47.21384" lon="-1.53994">
        <ele>2.37</ele>
        <time>2020-05-30T17:05:38Z</time>
      </trkpt>
      <trkpt lat="47.21386" lon="-1.54012">
        <ele>2.65</ele>
        <time>2020-05-30T17:05:40Z</time>
      </trkpt>
      <trkpt lat="47.21394" lon="-1.54026">
        <ele>2.66</ele>
        <time>2020-05-30T17:05:42Z</time>
      </trkpt>
      <trkpt lat="47.21405" lon="-1.54042">
        <ele>2.79</ele>
        <time>2020-05-30T17:05:44Z</time>
      </trkpt>
      <trkpt lat="47.21416" lon="-1.54058">
        <ele>2.37</ele>
        <time>2020-05-30T17:05:46Z</time>
      </trkpt>
      <trkpt lat="47.21426" lon="-1.54073">
        <ele>1.81</ele>
        <time>2020-05-30T17:05:48Z</time>
      </trkpt>
      <trkpt lat="47.21436" lon="-1.54088">
        <ele>0.24</ele>
        <time>2020-05-30T17:05:50Z</time>
      </trkpt>
      <trkpt lat="47.21446" lon="-1.54103">
        <ele>-0.43</ele>
        <time>2020-05-30T17:05:52Z</time>
      </trkpt>
      <trkpt lat="47.21456" lon="-1.54117">
        <ele>-1.06</ele>
        <time>2020-05-30T17:05:54Z</time>
      </trkpt>
      <trkpt lat="47.21466" lon="-1.54132">
        <ele>-1.02</ele>
        <time>2020-05-30T17:05:56Z</time>
      </trkpt>
      <trkpt lat="47.21475" lon="-1.54146">
        <ele>-1.51</ele>
        <time>2020-05-30T17:05:58Z</time>
      </trkpt>
      <trkpt lat="47.21486" lon="-1.54161">
        <ele>-1.94</ele>
        <time>2020-05-30T17:06:00Z</time>
      </trkpt>
      <trkpt lat="47.21495" lon="-1.54174">
        <ele>-3.14</ele>
        <time>2020-05-30T17:06:02Z</time>
      </trkpt>
      <trkpt lat="47.21506" lon="-1.54187">
        <ele>-4.14</ele>
        <time>2020-05-30T17:06:04Z</time>
      </trkpt>
      <trkpt lat="47.21515" lon="-1.54202">
        <ele>-4.67</ele>
        <time>2020-05-30T17:06:06Z</time>
      </trkpt>
      <trkpt lat="47.21524" lon="-1.54218">
        <ele>-4.66</ele>
        <time>2020-05-30T17:06:08Z</time>
      </trkpt>
      <trkpt lat="47.21533" lon="-1.54232">
        <ele>-5.38</ele>
        <time>2020-05-30T17:06:10Z</time>
      </trkpt>
      <trkpt lat="47.21541" lon="-1.54245">
        <ele>-4.9</ele>
        <time>2020-05-30T17:06:12Z</time>
      </trkpt>
      <trkpt lat="47.21547" lon="-1.54255">
        <ele>-3.3</ele>
        <time>2020-05-30T17:06:14Z</time>
      </trkpt>
      <trkpt lat="47.21558" lon="-1.54259">
        <ele>-2.5</ele>
        <time>2020-05-30T17:06:18Z</time>
      </trkpt>
      <trkpt lat="47.21569" lon="-1.54258">
        <ele>-1.67</ele>
        <time>2020-05-30T17:06:21Z</time>
      </trkpt>
      <trkpt lat="47.21578" lon="-1.54269">
        <ele>-2.49</ele>
        <time>2020-05-30T17:06:24Z</time>
      </trkpt>
      <trkpt lat="47.21578" lon="-1.54284">
        <ele>-2.64</ele>
        <time>2020-05-30T17:06:26Z</time>
      </trkpt>
      <trkpt lat="47.21582" lon="-1.54302">
        <ele>-1.79</ele>
        <time>2020-05-30T17:06:28Z</time>
      </trkpt>
      <trkpt lat="47.21589" lon="-1.54321">
        <ele>-0.8</ele>
        <time>2020-05-30T17:06:30Z</time>
      </trkpt>
      <trkpt lat="47.21597" lon="-1.54338">
        <ele>-0.83</ele>
        <time>2020-05-30T17:06:32Z</time>
      </trkpt>
      <trkpt lat="47.21603" lon="-1.54356">
        <ele>-1.51</ele>
        <time>2020-05-30T17:06:34Z</time>
      </trkpt>
      <trkpt lat="47.2161" lon="-1.54376">
        <ele>-1.79</ele>
        <time>2020-05-30T17:06:36Z</time>
      </trkpt>
      <trkpt lat="47.21615" lon="-1.54394">
        <ele>-2.58</ele>
        <time>2020-05-30T17:06:38Z</time>
      </trkpt>
      <trkpt lat="47.21619" lon="-1.54414">
        <ele>-3.69</ele>
        <time>2020-05-30T17:06:40Z</time>
      </trkpt>
      <trkpt lat="47.2162" lon="-1.54434">
        <ele>-4.63</ele>
        <time>2020-05-30T17:06:42Z</time>
      </trkpt>
      <trkpt lat="47.21619" lon="-1.54454">
        <ele>-4.11</ele>
        <time>2020-05-30T17:06:44Z</time>
      </trkpt>
      <trkpt lat="47.21617" lon="-1.54474">
        <ele>-2.2</ele>
        <time>2020-05-30T17:06:46Z</time>
      </trkpt>
      <trkpt lat="47.21613" lon="-1.54494">
        <ele>0.07</ele>
        <time>2020-05-30T17:06:48Z</time>
      </trkpt>
      <trkpt lat="47.2161" lon="-1.54513">
        <ele>1.92</ele>
        <time>2020-05-30T17:06:50Z</time>
      </trkpt>
      <trkpt lat="47.21603" lon="-1.54534">
        <ele>3.52</ele>
        <time>2020-05-30T17:06:52Z</time>
      </trkpt>
      <trkpt lat="47.21596" lon="-1.54552">
        <ele>4.67</ele>
        <time>2020-05-30T17:06:54Z</time>
      </trkpt>
      <trkpt lat="47.21589" lon="-1.54568">
        <ele>6.07</ele>
        <time>2020-05-30T17:06:56Z</time>
      </trkpt>
      <trkpt lat="47.21582" lon="-1.54585">
        <ele>6.03</ele>
        <time>2020-05-30T17:06:58Z</time>
      </trkpt>
      <trkpt lat="47.21574" lon="-1.54602">
        <ele>5.23</ele>
        <time>2020-05-30T17:07:00Z</time>
      </trkpt>
      <trkpt lat="47.21566" lon="-1.5462">
        <ele>4.81</ele>
        <time>2020-05-30T17:07:02Z</time>
      </trkpt>
      <trkpt lat="47.21559" lon="-1.54637">
        <ele>4.5</ele>
        <time>2020-05-30T17:07:04Z</time>
      </trkpt>
      <trkpt lat="47.21552" lon="-1.54656">
        <ele>4.34</ele>
        <time>2020-05-30T17:07:06Z</time>
      </trkpt>
      <trkpt lat="47.21544" lon="-1.54671">
        <ele>4.51</ele>
        <time>2020-05-30T17:07:08Z</time>
      </trkpt>
      <trkpt lat="47.21539" lon="-1.5469">
        <ele>5.07</ele>
        <time>2020-05-30T17:07:10Z</time>
      </trkpt>
      <trkpt lat="47.21533" lon="-1.54707">
        <ele>2.76</ele>
        <time>2020-05-30T17:07:12Z</time>
      </trkpt>
      <trkpt lat="47.21526" lon="-1.54727">
        <ele>1.37</ele>
        <time>2020-05-30T17:07:14Z</time>
      </trkpt>
      <trkpt lat="47.2152" lon="-1.54745">
        <ele>1.06</ele>
        <time>2020-05-30T17:07:16Z</time>
      </trkpt>
      <trkpt lat="47.21513" lon="-1.54762">
        <ele>0.45</ele>
        <time>2020-05-30T17:07:18Z</time>
      </trkpt>
      <trkpt lat="47.21505" lon="-1.5478">
        <ele>0.04</ele>
        <time>2020-05-30T17:07:20Z</time>
      </trkpt>
      <trkpt lat="47.21496" lon="-1.54799">
        <ele>-0.19</ele>
        <time>2020-05-30T17:07:22Z</time>
      </trkpt>
      <trkpt lat="47.2149" lon="-1.54815">
        <ele>-0.38</ele>
        <time>2020-05-30T17:07:24Z</time>
      </trkpt>
      <trkpt lat="47.21483" lon="-1.5483">
        <ele>0.47</ele>
        <time>2020-05-30T17:07:26Z</time>
      </trkpt>
      <trkpt lat="47.21475" lon="-1.54848">
        <ele>1.14</ele>
        <time>2020-05-30T17:07:28Z</time>
      </trkpt>
      <trkpt lat="47.21467" lon="-1.54865">
        <ele>0.86</ele>
        <time>2020-05-30T17:07:30Z</time>
      </trkpt>
      <trkpt lat="47.21458" lon="-1.54881">
        <ele>0.58</ele>
        <time>2020-05-30T17:07:32Z</time>
      </trkpt>
      <trkpt lat="47.2145" lon="-1.54898">
        <ele>0.72</ele>
        <time>2020-05-30T17:07:34Z</time>
      </trkpt>
      <trkpt lat="47.21443" lon="-1.54914">
        <ele>0.55</ele>
        <time>2020-05-30T17:07:36Z</time>
      </trkpt>
      <trkpt lat="47.21433" lon="-1.54933">
        <ele>1.14</ele>
        <time>2020-05-30T17:07:38Z</time>
      </trkpt>
      <trkpt lat="47.21423" lon="-1.54952">
        <ele>2.13</ele>
        <time>2020-05-30T17:07:40Z</time>
      </trkpt>
      <trkpt lat="47.21415" lon="-1.54969">
        <ele>3.22</ele>
        <time>2020-05-30T17:07:42Z</time>
      </trkpt>
      <trkpt lat="47.21407" lon="-1.54984">
        <ele>4.57</ele>
        <time>2020-05-30T17:07:44Z</time>
      </trkpt>
      <trkpt lat="47.21399" lon="-1.55001">
        <ele>4.87</ele>
        <time>2020-05-30T17:07:46Z</time>
      </trkpt>
      <trkpt lat="47.2139" lon="-1.55022">
        <ele>4.61</ele>
        <time>2020-05-30T17:07:48Z</time>
      </trkpt>
      <trkpt lat="47.21382" lon="-1.55041">
        <ele>4.46</ele>
        <time>2020-05-30T17:07:50Z</time>
      </trkpt>
      <trkpt lat="47.21375" lon="-1.55058">
        <ele>5.14</ele>
        <time>2020-05-30T17:07:52Z</time>
      </trkpt>
      <trkpt lat="47.21369" lon="-1.55073">
        <ele>5.82</ele>
        <time>2020-05-30T17:07:54Z</time>
      </trkpt>
      <trkpt lat="47.21362" lon="-1.55092">
        <ele>5.05</ele>
        <time>2020-05-30T17:07:56Z</time>
      </trkpt>
      <trkpt lat="47.21355" lon="-1.55111">
        <ele>4.49</ele>
        <time>2020-05-30T17:07:58Z</time>
      </trkpt>
      <trkpt lat="47.21349" lon="-1.55128">
        <ele>3.99</ele>
        <time>2020-05-30T17:08:00Z</time>
      </trkpt>
      <trkpt lat="47.21342" lon="-1.55146">
        <ele>3.71</ele>
        <time>2020-05-30T17:08:02Z</time>
      </trkpt>
      <trkpt lat="47.21335" lon="-1.55165">
        <ele>2.56</ele>
        <time>2020-05-30T17:08:04Z</time>
      </trkpt>
      <trkpt lat="47.2133" lon="-1.55176">
        <ele>2.42</ele>
        <time>2020-05-30T17:08:05Z</time>
      </trkpt>
      <trkpt lat="47.21323" lon="-1.55195">
        <ele>2.8</ele>
        <time>2020-05-30T17:08:07Z</time>
      </trkpt>
      <trkpt lat="47.21315" lon="-1.55212">
        <ele>3.58</ele>
        <time>2020-05-30T17:08:09Z</time>
      </trkpt>
      <trkpt lat="47.21308" lon="-1.5523">
        <ele>4.21</ele>
        <time>2020-05-30T17:08:11Z</time>
      </trkpt>
      <trkpt lat="47.21301" lon="-1.55245">
        <ele>5.04</ele>
        <time>2020-05-30T17:08:13Z</time>
      </trkpt>
      <trkpt lat="47.21294" lon="-1.55264">
        <ele>6.17</ele>
        <time>2020-05-30T17:08:15Z</time>
      </trkpt>
      <trkpt lat="47.21287" lon="-1.55281">
        <ele>5.88</ele>
        <time>2020-05-30T17:08:17Z</time>
      </trkpt>
      <trkpt lat="47.21281" lon="-1.55294">
        <ele>5.22</ele>
        <time>2020-05-30T17:08:19Z</time>
      </trkpt>
      <trkpt lat="47.21271" lon="-1.553">
        <ele>3.86</ele>
        <time>2020-05-30T17:08:21Z</time>
      </trkpt>
      <trkpt lat="47.21258" lon="-1.55305">
        <ele>3.62</ele>
        <time>2020-05-30T17:08:23Z</time>
      </trkpt>
      <trkpt lat="47.21254" lon="-1.55318">
        <ele>3.31</ele>
        <time>2020-05-30T17:08:25Z</time>
      </trkpt>
      <trkpt lat="47.21259" lon="-1.55339">
        <ele>3.2</ele>
        <time>2020-05-30T17:08:27Z</time>
      </trkpt>
      <trkpt lat="47.21266" lon="-1.55354">
        <ele>3.71</ele>
        <time>2020-05-30T17:08:29Z</time>
      </trkpt>
      <trkpt lat="47.21274" lon="-1.55361">
        <ele>3.97</ele>
        <time>2020-05-30T17:08:32Z</time>
      </trkpt>
      <trkpt lat="47.21282" lon="-1.55373">
        <ele>4.22</ele>
        <time>2020-05-30T17:08:35Z</time>
      </trkpt>
      <trkpt lat="47.21278" lon="-1.55392">
        <ele>2.44</ele>
        <time>2020-05-30T17:08:38Z</time>
      </trkpt>
      <trkpt lat="47.2127" lon="-1.55409">
        <ele>1.17</ele>
        <time>2020-05-30T17:08:40Z</time>
      </trkpt>
      <trkpt lat="47.2126" lon="-1.55427">
        <ele>1.45</ele>
        <time>2020-05-30T17:08:42Z</time>
      </trkpt>
      <trkpt lat="47.2125" lon="-1.5544">
        <ele>1.81</ele>
        <time>2020-05-30T17:08:44Z</time>
      </trkpt>
      <trkpt lat="47.21239" lon="-1.55456">
        <ele>2.68</ele>
        <time>2020-05-30T17:08:46Z</time>
      </trkpt>
      <trkpt lat="47.21229" lon="-1.55474">
        <ele>3.83</ele>
        <time>2020-05-30T17:08:48Z</time>
      </trkpt>
      <trkpt lat="47.2122" lon="-1.55493">
        <ele>4.77</ele>
        <time>2020-05-30T17:08:50Z</time>
      </trkpt>
      <trkpt lat="47.21212" lon="-1.55512">
        <ele>4.22</ele>
        <time>2020-05-30T17:08:52Z</time>
      </trkpt>
      <trkpt lat="47.21205" lon="-1.55535">
        <ele>2.94</ele>
        <time>2020-05-30T17:08:54Z</time>
      </trkpt>
      <trkpt lat="47.21199" lon="-1.55557">
        <ele>2.2</ele>
        <time>2020-05-30T17:08:56Z</time>
      </trkpt>
      <trkpt lat="47.21193" lon="-1.55579">
        <ele>2.44</ele>
        <time>2020-05-30T17:08:58Z</time>
      </trkpt>
      <trkpt lat="47.21187" lon="-1.55599">
        <ele>2.71</ele>
        <time>2020-05-30T17:09:00Z</time>
      </trkpt>
      <trkpt lat="47.21182" lon="-1.55617">
        <ele>2.31</ele>
        <time>2020-05-30T17:09:02Z</time>
      </trkpt>
      <trkpt lat="47.21175" lon="-1.55638">
        <ele>2.85</ele>
        <time>2020-05-30T17:09:04Z</time>
      </trkpt>
      <trkpt lat="47.2117" lon="-1.55658">
        <ele>3.95</ele>
        <time>2020-05-30T17:09:06Z</time>
      </trkpt>
      <trkpt lat="47.2117" lon="-1.55678">
        <ele>3.55</ele>
        <time>2020-05-30T17:09:08Z</time>
      </trkpt>
      <trkpt lat="47.21175" lon="-1.557">
        <ele>3.63</ele>
        <time>2020-05-30T17:09:10Z</time>
      </trkpt>
      <trkpt lat="47.21174" lon="-1.55723">
        <ele>3.31</ele>
        <time>2020-05-30T17:09:12Z</time>
      </trkpt>
      <trkpt lat="47.21168" lon="-1.5574">
        <ele>2.49</ele>
        <time>2020-05-30T17:09:14Z</time>
      </trkpt>
      <trkpt lat="47.2116" lon="-1.55761">
        <ele>0.56</ele>
        <time>2020-05-30T17:09:16Z</time>
      </trkpt>
      <trkpt lat="47.21152" lon="-1.55783">
        <ele>-0.74</ele>
        <time>2020-05-30T17:09:18Z</time>
      </trkpt>
      <trkpt lat="47.21147" lon="-1.55802">
        <ele>-1.77</ele>
        <time>2020-05-30T17:09:20Z</time>
      </trkpt>
      <trkpt lat="47.21142" lon="-1.55823">
        <ele>-3.5</ele>
        <time>2020-05-30T17:09:22Z</time>
      </trkpt>
      <trkpt lat="47.2114" lon="-1.55845">
        <ele>-3.8</ele>
        <time>2020-05-30T17:09:24Z</time>
      </trkpt>
      <trkpt lat="47.21141" lon="-1.55869">
        <ele>-3.06</ele>
        <time>2020-05-30T17:09:26Z</time>
      </trkpt>
      <trkpt lat="47.21146" lon="-1.55887">
        <ele>-1.87</ele>
        <time>2020-05-30T17:09:28Z</time>
      </trkpt>
      <trkpt lat="47.21149" lon="-1.55908">
        <ele>-0.9</ele>
        <time>2020-05-30T17:09:30Z</time>
      </trkpt>
      <trkpt lat="47.21139" lon="-1.5592">
        <ele>0.21</ele>
        <time>2020-05-30T17:09:32Z</time>
      </trkpt>
      <trkpt lat="47.21126" lon="-1.55929">
        <ele>1.18</ele>
        <time>2020-05-30T17:09:34Z</time>
      </trkpt>
      <trkpt lat="47.21111" lon="-1.55938">
        <ele>1.74</ele>
        <time>2020-05-30T17:09:36Z</time>
      </trkpt>
      <trkpt lat="47.21097" lon="-1.55948">
        <ele>2.42</ele>
        <time>2020-05-30T17:09:38Z</time>
      </trkpt>
      <trkpt lat="47.21084" lon="-1.55962">
        <ele>2.37</ele>
        <time>2020-05-30T17:09:40Z</time>
      </trkpt>
      <trkpt lat="47.21074" lon="-1.55978">
        <ele>1.6</ele>
        <time>2020-05-30T17:09:42Z</time>
      </trkpt>
      <trkpt lat="47.21063" lon="-1.55996">
        <ele>0.91</ele>
        <time>2020-05-30T17:09:44Z</time>
      </trkpt>
      <trkpt lat="47.21057" lon="-1.56015">
        <ele>0.14</ele>
        <time>2020-05-30T17:09:46Z</time>
      </trkpt>
      <trkpt lat="47.21049" lon="-1.56027">
        <ele>-0.1</ele>
        <time>2020-05-30T17:09:48Z</time>
      </trkpt>
      <trkpt lat="47.21039" lon="-1.56044">
        <ele>-0.71</ele>
        <time>2020-05-30T17:09:50Z</time>
      </trkpt>
      <trkpt lat="47.21032" lon="-1.56062">
        <ele>-1.19</ele>
        <time>2020-05-30T17:09:52Z</time>
      </trkpt>
      <trkpt lat="47.21025" lon="-1.56078">
        <ele>-1.21</ele>
        <time>2020-05-30T17:09:54Z</time>
      </trkpt>
      <trkpt lat="47.21019" lon="-1.56096">
        <ele>-1.17</ele>
        <time>2020-05-30T17:09:56Z</time>
      </trkpt>
      <trkpt lat="47.21013" lon="-1.56115">
        <ele>-0.5</ele>
        <time>2020-05-30T17:09:58Z</time>
      </trkpt>
      <trkpt lat="47.21008" lon="-1.56133">
        <ele>0.55</ele>
        <time>2020-05-30T17:10:00Z</time>
      </trkpt>
      <trkpt lat="47.21002" lon="-1.56146">
        <ele>0.77</ele>
        <time>2020-05-30T17:10:02Z</time>
      </trkpt>
      <trkpt lat="47.20998" lon="-1.56161">
        <ele>0.88</ele>
        <time>2020-05-30T17:10:04Z</time>
      </trkpt>
      <trkpt lat="47.20992" lon="-1.56175">
        <ele>1.44</ele>
        <time>2020-05-30T17:10:07Z</time>
      </trkpt>
      <trkpt lat="47.20978" lon="-1.56174">
        <ele>2.28</ele>
        <time>2020-05-30T17:10:10Z</time>
      </trkpt>
      <trkpt lat="47.20967" lon="-1.56171">
        <ele>3.62</ele>
        <time>2020-05-30T17:10:12Z</time>
      </trkpt>
      <trkpt lat="47.20956" lon="-1.56169">
        <ele>4.63</ele>
        <time>2020-05-30T17:10:14Z</time>
      </trkpt>
      <trkpt lat="47.20945" lon="-1.56168">
        <ele>5.28</ele>
        <time>2020-05-30T17:10:16Z</time>
      </trkpt>
      <trkpt lat="47.20934" lon="-1.56166">
        <ele>5.87</ele>
        <time>2020-05-30T17:10:18Z</time>
      </trkpt>
      <trkpt lat="47.20923" lon="-1.56164">
        <ele>5.48</ele>
        <time>2020-05-30T17:10:20Z</time>
      </trkpt>
      <trkpt lat="47.20911" lon="-1.56161">
        <ele>5.39</ele>
        <time>2020-05-30T17:10:22Z</time>
      </trkpt>
      <trkpt lat="47.20899" lon="-1.56157">
        <ele>4.82</ele>
        <time>2020-05-30T17:10:24Z</time>
      </trkpt>
      <trkpt lat="47.20889" lon="-1.56153">
        <ele>4.05</ele>
        <time>2020-05-30T17:10:26Z</time>
      </trkpt>
      <trkpt lat="47.20877" lon="-1.5615">
        <ele>2.97</ele>
        <time>2020-05-30T17:10:29Z</time>
      </trkpt>
      <trkpt lat="47.20864" lon="-1.56148">
        <ele>2.24</ele>
        <time>2020-05-30T17:10:31Z</time>
      </trkpt>
      <trkpt lat="47.20851" lon="-1.56146">
        <ele>1.99</ele>
        <time>2020-05-30T17:10:33Z</time>
      </trkpt>
      <trkpt lat="47.20838" lon="-1.56143">
        <ele>2.43</ele>
        <time>2020-05-30T17:10:35Z</time>
      </trkpt>
      <trkpt lat="47.20832" lon="-1.56157">
        <ele>1.76</ele>
        <time>2020-05-30T17:10:37Z</time>
      </trkpt>
      <trkpt lat="47.20832" lon="-1.56181">
        <ele>1.66</ele>
        <time>2020-05-30T17:10:39Z</time>
      </trkpt>
      <trkpt lat="47.20832" lon="-1.56204">
        <ele>0.62</ele>
        <time>2020-05-30T17:10:41Z</time>
      </trkpt>
      <trkpt lat="47.20832" lon="-1.56224">
        <ele>-0.82</ele>
        <time>2020-05-30T17:10:43Z</time>
      </trkpt>
      <trkpt lat="47.20833" lon="-1.56247">
        <ele>-1.94</ele>
        <time>2020-05-30T17:10:45Z</time>
      </trkpt>
      <trkpt lat="47.20833" lon="-1.56267">
        <ele>-2.68</ele>
        <time>2020-05-30T17:10:47Z</time>
      </trkpt>
      <trkpt lat="47.20833" lon="-1.56286">
        <ele>-3.4</ele>
        <time>2020-05-30T17:10:49Z</time>
      </trkpt>
      <trkpt lat="47.20832" lon="-1.56308">
        <ele>-3.88</ele>
        <time>2020-05-30T17:10:51Z</time>
      </trkpt>
      <trkpt lat="47.20827" lon="-1.56328">
        <ele>-4.35</ele>
        <time>2020-05-30T17:10:53Z</time>
      </trkpt>
      <trkpt lat="47.20822" lon="-1.56347">
        <ele>-3.45</ele>
        <time>2020-05-30T17:10:55Z</time>
      </trkpt>
      <trkpt lat="47.20817" lon="-1.56367">
        <ele>-1.16</ele>
        <time>2020-05-30T17:10:58Z</time>
      </trkpt>
      <trkpt lat="47.20811" lon="-1.56386">
        <ele>1.47</ele>
        <time>2020-05-30T17:10:59Z</time>
      </trkpt>
      <trkpt lat="47.20808" lon="-1.56403">
        <ele>4.28</ele>
        <time>2020-05-30T17:11:02Z</time>
      </trkpt>
      <trkpt lat="47.20805" lon="-1.5642">
        <ele>7.37</ele>
        <time>2020-05-30T17:11:04Z</time>
      </trkpt>
      <trkpt lat="47.20801" lon="-1.56436">
        <ele>8.47</ele>
        <time>2020-05-30T17:11:06Z</time>
      </trkpt>
      <trkpt lat="47.20796" lon="-1.56452">
        <ele>8.93</ele>
        <time>2020-05-30T17:11:08Z</time>
      </trkpt>
      <trkpt lat="47.2079" lon="-1.5647">
        <ele>8.67</ele>
        <time>2020-05-30T17:11:10Z</time>
      </trkpt>
      <trkpt lat="47.20785" lon="-1.56486">
        <ele>8.82</ele>
        <time>2020-05-30T17:11:12Z</time>
      </trkpt>
      <trkpt lat="47.20781" lon="-1.56501">
        <ele>10.5</ele>
        <time>2020-05-30T17:11:14Z</time>
      </trkpt>
      <trkpt lat="47.20777" lon="-1.56519">
        <ele>9.68</ele>
        <time>2020-05-30T17:11:16Z</time>
      </trkpt>
      <trkpt lat="47.20766" lon="-1.56519">
        <ele>6.79</ele>
        <time>2020-05-30T17:11:19Z</time>
      </trkpt>
      <trkpt lat="47.20758" lon="-1.5651">
        <ele>5.4</ele>
        <time>2020-05-30T17:11:21Z</time>
      </trkpt>
      <trkpt lat="47.20749" lon="-1.56499">
        <ele>4.79</ele>
        <time>2020-05-30T17:11:24Z</time>
      </trkpt>
      <trkpt lat="47.20742" lon="-1.56511">
        <ele>3.81</ele>
        <time>2020-05-30T17:11:30Z</time>
      </trkpt>
      <trkpt lat="47.20741" lon="-1.56528">
        <ele>-0.17</ele>
        <time>2020-05-30T17:11:33Z</time>
      </trkpt>
      <trkpt lat="47.20735" lon="-1.56544">
        <ele>-3.06</ele>
        <time>2020-05-30T17:11:35Z</time>
      </trkpt>
      <trkpt lat="47.20727" lon="-1.56558">
        <ele>-5.5</ele>
        <time>2020-05-30T17:11:37Z</time>
      </trkpt>
      <trkpt lat="47.20718" lon="-1.56573">
        <ele>-6.9</ele>
        <time>2020-05-30T17:11:39Z</time>
      </trkpt>
      <trkpt lat="47.20702" lon="-1.56577">
        <ele>-7.61</ele>
        <time>2020-05-30T17:11:41Z</time>
      </trkpt>
      <trkpt lat="47.20693" lon="-1.56579">
        <ele>-7.32</ele>
        <time>2020-05-30T17:11:42Z</time>
      </trkpt>
      <trkpt lat="47.20684" lon="-1.56582">
        <ele>-6.79</ele>
        <time>2020-05-30T17:11:43Z</time>
      </trkpt>
      <trkpt lat="47.20673" lon="-1.56597">
        <ele>-5.02</ele>
        <time>2020-05-30T17:11:45Z</time>
      </trkpt>
      <trkpt lat="47.20661" lon="-1.56609">
        <ele>-3.32</ele>
        <time>2020-05-30T17:11:47Z</time>
      </trkpt>
      <trkpt lat="47.20645" lon="-1.56617">
        <ele>-1.92</ele>
        <time>2020-05-30T17:11:49Z</time>
      </trkpt>
      <trkpt lat="47.20629" lon="-1.56623">
        <ele>-1.33</ele>
        <time>2020-05-30T17:11:51Z</time>
      </trkpt>
      <trkpt lat="47.20616" lon="-1.56628">
        <ele>-0.9</ele>
        <time>2020-05-30T17:11:53Z</time>
      </trkpt>
      <trkpt lat="47.20601" lon="-1.56639">
        <ele>-0.46</ele>
        <time>2020-05-30T17:11:55Z</time>
      </trkpt>
      <trkpt lat="47.20588" lon="-1.5665">
        <ele>0.52</ele>
        <time>2020-05-30T17:11:57Z</time>
      </trkpt>
      <trkpt lat="47.20576" lon="-1.56663">
        <ele>1.68</ele>
        <time>2020-05-30T17:11:59Z</time>
      </trkpt>
      <trkpt lat="47.20566" lon="-1.5668">
        <ele>1.49</ele>
        <time>2020-05-30T17:12:01Z</time>
      </trkpt>
      <trkpt lat="47.20555" lon="-1.56699">
        <ele>1.77</ele>
        <time>2020-05-30T17:12:03Z</time>
      </trkpt>
      <trkpt lat="47.20542" lon="-1.56712">
        <ele>2</ele>
        <time>2020-05-30T17:12:05Z</time>
      </trkpt>
      <trkpt lat="47.20529" lon="-1.56719">
        <ele>2.76</ele>
        <time>2020-05-30T17:12:07Z</time>
      </trkpt>
      <trkpt lat="47.20514" lon="-1.56723">
        <ele>2.69</ele>
        <time>2020-05-30T17:12:09Z</time>
      </trkpt>
      <trkpt lat="47.205" lon="-1.56724">
        <ele>1.47</ele>
        <time>2020-05-30T17:12:11Z</time>
      </trkpt>
      <trkpt lat="47.20486" lon="-1.56723">
        <ele>1.67</ele>
        <time>2020-05-30T17:12:13Z</time>
      </trkpt>
      <trkpt lat="47.20472" lon="-1.56722">
        <ele>3.36</ele>
        <time>2020-05-30T17:12:15Z</time>
      </trkpt>
      <trkpt lat="47.20459" lon="-1.56719">
        <ele>4.37</ele>
        <time>2020-05-30T17:12:17Z</time>
      </trkpt>
      <trkpt lat="47.20446" lon="-1.56715">
        <ele>4.11</ele>
        <time>2020-05-30T17:12:19Z</time>
      </trkpt>
      <trkpt lat="47.20432" lon="-1.56712">
        <ele>5.04</ele>
        <time>2020-05-30T17:12:21Z</time>
      </trkpt>
      <trkpt lat="47.2042" lon="-1.56709">
        <ele>6.28</ele>
        <time>2020-05-30T17:12:23Z</time>
      </trkpt>
      <trkpt lat="47.20409" lon="-1.56705">
        <ele>7.74</ele>
        <time>2020-05-30T17:12:25Z</time>
      </trkpt>
      <trkpt lat="47.20401" lon="-1.56723">
        <ele>6.94</ele>
        <time>2020-05-30T17:12:28Z</time>
      </trkpt>
      <trkpt lat="47.204" lon="-1.56743">
        <ele>5.87</ele>
        <time>2020-05-30T17:12:30Z</time>
      </trkpt>
      <trkpt lat="47.20398" lon="-1.56769">
        <ele>4.81</ele>
        <time>2020-05-30T17:12:32Z</time>
      </trkpt>
      <trkpt lat="47.20396" lon="-1.5679">
        <ele>3.89</ele>
        <time>2020-05-30T17:12:34Z</time>
      </trkpt>
      <trkpt lat="47.20394" lon="-1.56807">
        <ele>2.54</ele>
        <time>2020-05-30T17:12:36Z</time>
      </trkpt>
      <trkpt lat="47.20392" lon="-1.56829">
        <ele>1.29</ele>
        <time>2020-05-30T17:12:38Z</time>
      </trkpt>
      <trkpt lat="47.20391" lon="-1.56851">
        <ele>0.32</ele>
        <time>2020-05-30T17:12:40Z</time>
      </trkpt>
      <trkpt lat="47.20391" lon="-1.56868">
        <ele>0.12</ele>
        <time>2020-05-30T17:12:42Z</time>
      </trkpt>
      <trkpt lat="47.20391" lon="-1.56885">
        <ele>0.12</ele>
        <time>2020-05-30T17:12:44Z</time>
      </trkpt>
      <trkpt lat="47.20389" lon="-1.56904">
        <ele>-1.1</ele>
        <time>2020-05-30T17:12:46Z</time>
      </trkpt>
      <trkpt lat="47.20387" lon="-1.56924">
        <ele>-2.43</ele>
        <time>2020-05-30T17:12:48Z</time>
      </trkpt>
      <trkpt lat="47.20384" lon="-1.56945">
        <ele>-3.91</ele>
        <time>2020-05-30T17:12:50Z</time>
      </trkpt>
      <trkpt lat="47.20382" lon="-1.56966">
        <ele>-5.38</ele>
        <time>2020-05-30T17:12:52Z</time>
      </trkpt>
      <trkpt lat="47.20379" lon="-1.56987">
        <ele>-5.59</ele>
        <time>2020-05-30T17:12:54Z</time>
      </trkpt>
      <trkpt lat="47.20377" lon="-1.57006">
        <ele>-5.75</ele>
        <time>2020-05-30T17:12:56Z</time>
      </trkpt>
      <trkpt lat="47.20375" lon="-1.57026">
        <ele>-5.54</ele>
        <time>2020-05-30T17:12:58Z</time>
      </trkpt>
      <trkpt lat="47.20371" lon="-1.57047">
        <ele>-4.41</ele>
        <time>2020-05-30T17:13:00Z</time>
      </trkpt>
      <trkpt lat="47.20364" lon="-1.57065">
        <ele>-3.9</ele>
        <time>2020-05-30T17:13:02Z</time>
      </trkpt>
      <trkpt lat="47.20356" lon="-1.57083">
        <ele>-2.35</ele>
        <time>2020-05-30T17:13:04Z</time>
      </trkpt>
      <trkpt lat="47.20348" lon="-1.57099">
        <ele>-0.95</ele>
        <time>2020-05-30T17:13:06Z</time>
      </trkpt>
      <trkpt lat="47.20337" lon="-1.57113">
        <ele>0.21</ele>
        <time>2020-05-30T17:13:08Z</time>
      </trkpt>
      <trkpt lat="47.20324" lon="-1.57124">
        <ele>0.99</ele>
        <time>2020-05-30T17:13:10Z</time>
      </trkpt>
      <trkpt lat="47.20312" lon="-1.57133">
        <ele>1.19</ele>
        <time>2020-05-30T17:13:12Z</time>
      </trkpt>
      <trkpt lat="47.203" lon="-1.57142">
        <ele>1.05</ele>
        <time>2020-05-30T17:13:14Z</time>
      </trkpt>
      <trkpt lat="47.20287" lon="-1.5715">
        <ele>1.67</ele>
        <time>2020-05-30T17:13:16Z</time>
      </trkpt>
      <trkpt lat="47.20274" lon="-1.57158">
        <ele>1.94</ele>
        <time>2020-05-30T17:13:18Z</time>
      </trkpt>
      <trkpt lat="47.20261" lon="-1.57166">
        <ele>2.21</ele>
        <time>2020-05-30T17:13:20Z</time>
      </trkpt>
      <trkpt lat="47.20249" lon="-1.57173">
        <ele>1.56</ele>
        <time>2020-05-30T17:13:22Z</time>
      </trkpt>
      <trkpt lat="47.20236" lon="-1.5718">
        <ele>1.68</ele>
        <time>2020-05-30T17:13:24Z</time>
      </trkpt>
      <trkpt lat="47.20222" lon="-1.57189">
        <ele>1.7</ele>
        <time>2020-05-30T17:13:26Z</time>
      </trkpt>
      <trkpt lat="47.20209" lon="-1.57198">
        <ele>1.91</ele>
        <time>2020-05-30T17:13:28Z</time>
      </trkpt>
      <trkpt lat="47.20196" lon="-1.57207">
        <ele>1.66</ele>
        <time>2020-05-30T17:13:30Z</time>
      </trkpt>
      <trkpt lat="47.20182" lon="-1.57217">
        <ele>1.21</ele>
        <time>2020-05-30T17:13:32Z</time>
      </trkpt>
      <trkpt lat="47.20169" lon="-1.57226">
        <ele>0.79</ele>
        <time>2020-05-30T17:13:34Z</time>
      </trkpt>
      <trkpt lat="47.20158" lon="-1.57233">
        <ele>0.58</ele>
        <time>2020-05-30T17:13:36Z</time>
      </trkpt>
      <trkpt lat="47.20145" lon="-1.57242">
        <ele>0.46</ele>
        <time>2020-05-30T17:13:38Z</time>
      </trkpt>
      <trkpt lat="47.20132" lon="-1.57251">
        <ele>0.5</ele>
        <time>2020-05-30T17:13:40Z</time>
      </trkpt>
      <trkpt lat="47.20119" lon="-1.5726">
        <ele>0.56</ele>
        <time>2020-05-30T17:13:42Z</time>
      </trkpt>
      <trkpt lat="47.20106" lon="-1.57267">
        <ele>1.29</ele>
        <time>2020-05-30T17:13:44Z</time>
      </trkpt>
      <trkpt lat="47.20093" lon="-1.57276">
        <ele>1.58</ele>
        <time>2020-05-30T17:13:46Z</time>
      </trkpt>
      <trkpt lat="47.20079" lon="-1.57285">
        <ele>1.99</ele>
        <time>2020-05-30T17:13:48Z</time>
      </trkpt>
      <trkpt lat="47.20068" lon="-1.57295">
        <ele>2.28</ele>
        <time>2020-05-30T17:13:50Z</time>
      </trkpt>
      <trkpt lat="47.20056" lon="-1.57305">
        <ele>2.31</ele>
        <time>2020-05-30T17:13:52Z</time>
      </trkpt>
      <trkpt lat="47.20046" lon="-1.57313">
        <ele>1.99</ele>
        <time>2020-05-30T17:13:54Z</time>
      </trkpt>
      <trkpt lat="47.20032" lon="-1.57323">
        <ele>0.81</ele>
        <time>2020-05-30T17:13:56Z</time>
      </trkpt>
      <trkpt lat="47.20019" lon="-1.57332">
        <ele>0.13</ele>
        <time>2020-05-30T17:13:58Z</time>
      </trkpt>
      <trkpt lat="47.20008" lon="-1.57339">
        <ele>1.2</ele>
        <time>2020-05-30T17:14:00Z</time>
      </trkpt>
      <trkpt lat="47.19994" lon="-1.57346">
        <ele>1.59</ele>
        <time>2020-05-30T17:14:02Z</time>
      </trkpt>
      <trkpt lat="47.19981" lon="-1.57335">
        <ele>1.88</ele>
        <time>2020-05-30T17:14:04Z</time>
      </trkpt>
      <trkpt lat="47.19975" lon="-1.57314">
        <ele>2.13</ele>
        <time>2020-05-30T17:14:06Z</time>
      </trkpt>
      <trkpt lat="47.19974" lon="-1.57292">
        <ele>0.59</ele>
        <time>2020-05-30T17:14:08Z</time>
      </trkpt>
      <trkpt lat="47.19974" lon="-1.5727">
        <ele>-0.68</ele>
        <time>2020-05-30T17:14:10Z</time>
      </trkpt>
      <trkpt lat="47.19975" lon="-1.57249">
        <ele>0.45</ele>
        <time>2020-05-30T17:14:12Z</time>
      </trkpt>
      <trkpt lat="47.19975" lon="-1.57227">
        <ele>1.51</ele>
        <time>2020-05-30T17:14:14Z</time>
      </trkpt>
      <trkpt lat="47.19976" lon="-1.57206">
        <ele>1.9</ele>
        <time>2020-05-30T17:14:16Z</time>
      </trkpt>
      <trkpt lat="47.19977" lon="-1.57185">
        <ele>3.14</ele>
        <time>2020-05-30T17:14:18Z</time>
      </trkpt>
      <trkpt lat="47.19978" lon="-1.57165">
        <ele>4.56</ele>
        <time>2020-05-30T17:14:20Z</time>
      </trkpt>
      <trkpt lat="47.19977" lon="-1.57144">
        <ele>5.05</ele>
        <time>2020-05-30T17:14:22Z</time>
      </trkpt>
      <trkpt lat="47.19975" lon="-1.57123">
        <ele>5.81</ele>
        <time>2020-05-30T17:14:24Z</time>
      </trkpt>
      <trkpt lat="47.19972" lon="-1.57105">
        <ele>6.44</ele>
        <time>2020-05-30T17:14:26Z</time>
      </trkpt>
      <trkpt lat="47.19968" lon="-1.57087">
        <ele>6.13</ele>
        <time>2020-05-30T17:14:28Z</time>
      </trkpt>
      <trkpt lat="47.19964" lon="-1.57069">
        <ele>6.16</ele>
        <time>2020-05-30T17:14:30Z</time>
      </trkpt>
      <trkpt lat="47.19959" lon="-1.57052">
        <ele>6.86</ele>
        <time>2020-05-30T17:14:32Z</time>
      </trkpt>
      <trkpt lat="47.19954" lon="-1.57034">
        <ele>7.14</ele>
        <time>2020-05-30T17:14:34Z</time>
      </trkpt>
      <trkpt lat="47.19954" lon="-1.57014">
        <ele>7.09</ele>
        <time>2020-05-30T17:14:36Z</time>
      </trkpt>
      <trkpt lat="47.19953" lon="-1.56994">
        <ele>6.52</ele>
        <time>2020-05-30T17:14:38Z</time>
      </trkpt>
      <trkpt lat="47.19954" lon="-1.56975">
        <ele>6.04</ele>
        <time>2020-05-30T17:14:40Z</time>
      </trkpt>
      <trkpt lat="47.19954" lon="-1.56954">
        <ele>6.27</ele>
        <time>2020-05-30T17:14:42Z</time>
      </trkpt>
      <trkpt lat="47.19954" lon="-1.56935">
        <ele>6.93</ele>
        <time>2020-05-30T17:14:44Z</time>
      </trkpt>
      <trkpt lat="47.19954" lon="-1.56916">
        <ele>7.62</ele>
        <time>2020-05-30T17:14:46Z</time>
      </trkpt>
      <trkpt lat="47.19953" lon="-1.56896">
        <ele>8.15</ele>
        <time>2020-05-30T17:14:48Z</time>
      </trkpt>
      <trkpt lat="47.19953" lon="-1.56877">
        <ele>8.36</ele>
        <time>2020-05-30T17:14:50Z</time>
      </trkpt>
      <trkpt lat="47.19954" lon="-1.56859">
        <ele>8.22</ele>
        <time>2020-05-30T17:14:52Z</time>
      </trkpt>
      <trkpt lat="47.19954" lon="-1.56839">
        <ele>7.33</ele>
        <time>2020-05-30T17:14:54Z</time>
      </trkpt>
      <trkpt lat="47.19954" lon="-1.56821">
        <ele>6.84</ele>
        <time>2020-05-30T17:14:56Z</time>
      </trkpt>
      <trkpt lat="47.19955" lon="-1.56806">
        <ele>5.7</ele>
        <time>2020-05-30T17:14:58Z</time>
      </trkpt>
      <trkpt lat="47.19955" lon="-1.56789">
        <ele>3.93</ele>
        <time>2020-05-30T17:15:00Z</time>
      </trkpt>
      <trkpt lat="47.19955" lon="-1.56772">
        <ele>2.11</ele>
        <time>2020-05-30T17:15:02Z</time>
      </trkpt>
      <trkpt lat="47.19955" lon="-1.56754">
        <ele>0.41</ele>
        <time>2020-05-30T17:15:04Z</time>
      </trkpt>
      <trkpt lat="47.19955" lon="-1.56739">
        <ele>-1.11</ele>
        <time>2020-05-30T17:15:06Z</time>
      </trkpt>
      <trkpt lat="47.19954" lon="-1.56721">
        <ele>-2.86</ele>
        <time>2020-05-30T17:15:08Z</time>
      </trkpt>
      <trkpt lat="47.19952" lon="-1.56706">
        <ele>-4.19</ele>
        <time>2020-05-30T17:15:10Z</time>
      </trkpt>
      <trkpt lat="47.19952" lon="-1.56689">
        <ele>-4.57</ele>
        <time>2020-05-30T17:15:12Z</time>
      </trkpt>
      <trkpt lat="47.19951" lon="-1.56674">
        <ele>-5.06</ele>
        <time>2020-05-30T17:15:14Z</time>
      </trkpt>
      <trkpt lat="47.19949" lon="-1.56657">
        <ele>-6.78</ele>
        <time>2020-05-30T17:15:16Z</time>
      </trkpt>
      <trkpt lat="47.19948" lon="-1.56638">
        <ele>-8.61</ele>
        <time>2020-05-30T17:15:18Z</time>
      </trkpt>
      <trkpt lat="47.19947" lon="-1.56619">
        <ele>-9.64</ele>
        <time>2020-05-30T17:15:20Z</time>
      </trkpt>
      <trkpt lat="47.19946" lon="-1.566">
        <ele>-9.87</ele>
        <time>2020-05-30T17:15:22Z</time>
      </trkpt>
      <trkpt lat="47.19947" lon="-1.56584">
        <ele>-9.9</ele>
        <time>2020-05-30T17:15:24Z</time>
      </trkpt>
      <trkpt lat="47.19946" lon="-1.56563">
        <ele>-7.73</ele>
        <time>2020-05-30T17:15:26Z</time>
      </trkpt>
      <trkpt lat="47.19946" lon="-1.56544">
        <ele>-5.82</ele>
        <time>2020-05-30T17:15:28Z</time>
      </trkpt>
      <trkpt lat="47.19946" lon="-1.56527">
        <ele>-5.16</ele>
        <time>2020-05-30T17:15:30Z</time>
      </trkpt>
      <trkpt lat="47.19947" lon="-1.56512">
        <ele>-4.69</ele>
        <time>2020-05-30T17:15:32Z</time>
      </trkpt>
      <trkpt lat="47.19947" lon="-1.56495">
        <ele>-4.01</ele>
        <time>2020-05-30T17:15:34Z</time>
      </trkpt>
      <trkpt lat="47.19947" lon="-1.56478">
        <ele>-3.1</ele>
        <time>2020-05-30T17:15:36Z</time>
      </trkpt>
      <trkpt lat="47.19948" lon="-1.56461">
        <ele>-1.16</ele>
        <time>2020-05-30T17:15:38Z</time>
      </trkpt>
      <trkpt lat="47.19951" lon="-1.56443">
        <ele>-0.93</ele>
        <time>2020-05-30T17:15:40Z</time>
      </trkpt>
      <trkpt lat="47.19956" lon="-1.56426">
        <ele>-0.48</ele>
        <time>2020-05-30T17:15:42Z</time>
      </trkpt>
      <trkpt lat="47.19962" lon="-1.56408">
        <ele>-0.58</ele>
        <time>2020-05-30T17:15:44Z</time>
      </trkpt>
      <trkpt lat="47.19967" lon="-1.56393">
        <ele>-0.66</ele>
        <time>2020-05-30T17:15:46Z</time>
      </trkpt>
      <trkpt lat="47.1997" lon="-1.56378">
        <ele>0.29</ele>
        <time>2020-05-30T17:15:48Z</time>
      </trkpt>
      <trkpt lat="47.19971" lon="-1.56362">
        <ele>1.01</ele>
        <time>2020-05-30T17:15:50Z</time>
      </trkpt>
      <trkpt lat="47.19973" lon="-1.56344">
        <ele>2.51</ele>
        <time>2020-05-30T17:15:52Z</time>
      </trkpt>
      <trkpt lat="47.19974" lon="-1.56329">
        <ele>1.8</ele>
        <time>2020-05-30T17:15:54Z</time>
      </trkpt>
      <trkpt lat="47.19976" lon="-1.56316">
        <ele>1.86</ele>
        <time>2020-05-30T17:15:56Z</time>
      </trkpt>
      <trkpt lat="47.19978" lon="-1.56296">
        <ele>1.47</ele>
        <time>2020-05-30T17:15:58Z</time>
      </trkpt>
      <trkpt lat="47.19979" lon="-1.56281">
        <ele>1.26</ele>
        <time>2020-05-30T17:16:00Z</time>
      </trkpt>
      <trkpt lat="47.19979" lon="-1.56265">
        <ele>-0.5</ele>
        <time>2020-05-30T17:16:02Z</time>
      </trkpt>
      <trkpt lat="47.19979" lon="-1.56251">
        <ele>-0.85</ele>
        <time>2020-05-30T17:16:04Z</time>
      </trkpt>
      <trkpt lat="47.19978" lon="-1.56233">
        <ele>-1.34</ele>
        <time>2020-05-30T17:16:06Z</time>
      </trkpt>
      <trkpt lat="47.19978" lon="-1.56216">
        <ele>-1.42</ele>
        <time>2020-05-30T17:16:08Z</time>
      </trkpt>
      <trkpt lat="47.19978" lon="-1.56198">
        <ele>-1.04</ele>
        <time>2020-05-30T17:16:10Z</time>
      </trkpt>
      <trkpt lat="47.19977" lon="-1.56182">
        <ele>0.84</ele>
        <time>2020-05-30T17:16:12Z</time>
      </trkpt>
      <trkpt lat="47.19972" lon="-1.56168">
        <ele>2.18</ele>
        <time>2020-05-30T17:16:14Z</time>
      </trkpt>
      <trkpt lat="47.1996" lon="-1.56169">
        <ele>2.68</ele>
        <time>2020-05-30T17:16:16Z</time>
      </trkpt>
      <trkpt lat="47.19946" lon="-1.56171">
        <ele>4.36</ele>
        <time>2020-05-30T17:16:18Z</time>
      </trkpt>
      <trkpt lat="47.19937" lon="-1.56173">
        <ele>5.62</ele>
        <time>2020-05-30T17:16:20Z</time>
      </trkpt>
      <trkpt lat="47.19926" lon="-1.56176">
        <ele>6.52</ele>
        <time>2020-05-30T17:16:22Z</time>
      </trkpt>
      <trkpt lat="47.19915" lon="-1.56178">
        <ele>7.94</ele>
        <time>2020-05-30T17:16:24Z</time>
      </trkpt>
      <trkpt lat="47.19903" lon="-1.56181">
        <ele>10.05</ele>
        <time>2020-05-30T17:16:26Z</time>
      </trkpt>
      <trkpt lat="47.19891" lon="-1.56183">
        <ele>11.55</ele>
        <time>2020-05-30T17:16:28Z</time>
      </trkpt>
      <trkpt lat="47.19879" lon="-1.56185">
        <ele>12.78</ele>
        <time>2020-05-30T17:16:30Z</time>
      </trkpt>
      <trkpt lat="47.19867" lon="-1.56187">
        <ele>13.78</ele>
        <time>2020-05-30T17:16:32Z</time>
      </trkpt>
      <trkpt lat="47.19854" lon="-1.56188">
        <ele>14.12</ele>
        <time>2020-05-30T17:16:34Z</time>
      </trkpt>
      <trkpt lat="47.19843" lon="-1.5619">
        <ele>14.77</ele>
        <time>2020-05-30T17:16:36Z</time>
      </trkpt>
      <trkpt lat="47.19832" lon="-1.56192">
        <ele>14.64</ele>
        <time>2020-05-30T17:16:38Z</time>
      </trkpt>
      <trkpt lat="47.1982" lon="-1.56195">
        <ele>13.82</ele>
        <time>2020-05-30T17:16:40Z</time>
      </trkpt>
      <trkpt lat="47.19809" lon="-1.56197">
        <ele>14.38</ele>
        <time>2020-05-30T17:16:42Z</time>
      </trkpt>
      <trkpt lat="47.19797" lon="-1.56199">
        <ele>15</ele>
        <time>2020-05-30T17:16:44Z</time>
      </trkpt>
      <trkpt lat="47.19786" lon="-1.562">
        <ele>15.61</ele>
        <time>2020-05-30T17:16:46Z</time>
      </trkpt>
      <trkpt lat="47.19773" lon="-1.56202">
        <ele>15.42</ele>
        <time>2020-05-30T17:16:48Z</time>
      </trkpt>
      <trkpt lat="47.19759" lon="-1.56205">
        <ele>13.94</ele>
        <time>2020-05-30T17:16:50Z</time>
      </trkpt>
      <trkpt lat="47.19745" lon="-1.56207">
        <ele>12.55</ele>
        <time>2020-05-30T17:16:52Z</time>
      </trkpt>
      <trkpt lat="47.19732" lon="-1.5621">
        <ele>10.85</ele>
        <time>2020-05-30T17:16:54Z</time>
      </trkpt>
      <trkpt lat="47.19717" lon="-1.56213">
        <ele>9.35</ele>
        <time>2020-05-30T17:16:56Z</time>
      </trkpt>
      <trkpt lat="47.19701" lon="-1.56215">
        <ele>8.87</ele>
        <time>2020-05-30T17:16:58Z</time>
      </trkpt>
      <trkpt lat="47.19684" lon="-1.56217">
        <ele>7.76</ele>
        <time>2020-05-30T17:17:00Z</time>
      </trkpt>
      <trkpt lat="47.19668" lon="-1.5622">
        <ele>6.45</ele>
        <time>2020-05-30T17:17:02Z</time>
      </trkpt>
      <trkpt lat="47.19652" lon="-1.56225">
        <ele>5.91</ele>
        <time>2020-05-30T17:17:04Z</time>
      </trkpt>
      <trkpt lat="47.19638" lon="-1.56234">
        <ele>6.29</ele>
        <time>2020-05-30T17:17:06Z</time>
      </trkpt>
      <trkpt lat="47.19631" lon="-1.56256">
        <ele>6.27</ele>
        <time>2020-05-30T17:17:08Z</time>
      </trkpt>
      <trkpt lat="47.1963" lon="-1.5627">
        <ele>5.8</ele>
        <time>2020-05-30T17:17:09Z</time>
      </trkpt>
      <trkpt lat="47.1963" lon="-1.56283">
        <ele>4.88</ele>
        <time>2020-05-30T17:17:10Z</time>
      </trkpt>
      <trkpt lat="47.19629" lon="-1.56298">
        <ele>4.3</ele>
        <time>2020-05-30T17:17:11Z</time>
      </trkpt>
      <trkpt lat="47.19628" lon="-1.5632">
        <ele>2.44</ele>
        <time>2020-05-30T17:17:13Z</time>
      </trkpt>
      <trkpt lat="47.19628" lon="-1.56343">
        <ele>1.54</ele>
        <time>2020-05-30T17:17:15Z</time>
      </trkpt>
      <trkpt lat="47.19627" lon="-1.56366">
        <ele>0.72</ele>
        <time>2020-05-30T17:17:17Z</time>
      </trkpt>
      <trkpt lat="47.19628" lon="-1.56387">
        <ele>0.51</ele>
        <time>2020-05-30T17:17:19Z</time>
      </trkpt>
      <trkpt lat="47.1963" lon="-1.56407">
        <ele>0.31</ele>
        <time>2020-05-30T17:17:21Z</time>
      </trkpt>
      <trkpt lat="47.19631" lon="-1.5643">
        <ele>-0.2</ele>
        <time>2020-05-30T17:17:23Z</time>
      </trkpt>
      <trkpt lat="47.19632" lon="-1.56452">
        <ele>-0.33</ele>
        <time>2020-05-30T17:17:25Z</time>
      </trkpt>
      <trkpt lat="47.19633" lon="-1.56472">
        <ele>-0.09</ele>
        <time>2020-05-30T17:17:27Z</time>
      </trkpt>
      <trkpt lat="47.19634" lon="-1.56493">
        <ele>-0.43</ele>
        <time>2020-05-30T17:17:29Z</time>
      </trkpt>
      <trkpt lat="47.19635" lon="-1.56515">
        <ele>-0.08</ele>
        <time>2020-05-30T17:17:31Z</time>
      </trkpt>
      <trkpt lat="47.19635" lon="-1.56536">
        <ele>0.78</ele>
        <time>2020-05-30T17:17:33Z</time>
      </trkpt>
      <trkpt lat="47.19634" lon="-1.56556">
        <ele>1.8</ele>
        <time>2020-05-30T17:17:35Z</time>
      </trkpt>
      <trkpt lat="47.19634" lon="-1.56577">
        <ele>2.06</ele>
        <time>2020-05-30T17:17:37Z</time>
      </trkpt>
      <trkpt lat="47.19633" lon="-1.56597">
        <ele>1.27</ele>
        <time>2020-05-30T17:17:39Z</time>
      </trkpt>
      <trkpt lat="47.19632" lon="-1.56619">
        <ele>0.47</ele>
        <time>2020-05-30T17:17:41Z</time>
      </trkpt>
      <trkpt lat="47.19632" lon="-1.56641">
        <ele>-0.18</ele>
        <time>2020-05-30T17:17:43Z</time>
      </trkpt>
      <trkpt lat="47.19632" lon="-1.56662">
        <ele>-0.76</ele>
        <time>2020-05-30T17:17:45Z</time>
      </trkpt>
      <trkpt lat="47.1963" lon="-1.56684">
        <ele>-2.08</ele>
        <time>2020-05-30T17:17:47Z</time>
      </trkpt>
      <trkpt lat="47.19629" lon="-1.56704">
        <ele>-3.49</ele>
        <time>2020-05-30T17:17:49Z</time>
      </trkpt>
      <trkpt lat="47.19628" lon="-1.56727">
        <ele>-4.44</ele>
        <time>2020-05-30T17:17:51Z</time>
      </trkpt>
      <trkpt lat="47.19627" lon="-1.56749">
        <ele>-4.91</ele>
        <time>2020-05-30T17:17:53Z</time>
      </trkpt>
      <trkpt lat="47.19625" lon="-1.56768">
        <ele>-5.19</ele>
        <time>2020-05-30T17:17:55Z</time>
      </trkpt>
      <trkpt lat="47.19622" lon="-1.56794">
        <ele>-4.48</ele>
        <time>2020-05-30T17:17:57Z</time>
      </trkpt>
      <trkpt lat="47.1962" lon="-1.56814">
        <ele>-3.47</ele>
        <time>2020-05-30T17:17:59Z</time>
      </trkpt>
      <trkpt lat="47.19618" lon="-1.56838">
        <ele>-3.02</ele>
        <time>2020-05-30T17:18:01Z</time>
      </trkpt>
      <trkpt lat="47.19618" lon="-1.56854">
        <ele>-2.89</ele>
        <time>2020-05-30T17:18:03Z</time>
      </trkpt>
      <trkpt lat="47.19617" lon="-1.56877">
        <ele>-3.95</ele>
        <time>2020-05-30T17:18:05Z</time>
      </trkpt>
      <trkpt lat="47.19617" lon="-1.56896">
        <ele>-6</ele>
        <time>2020-05-30T17:18:07Z</time>
      </trkpt>
      <trkpt lat="47.19615" lon="-1.56919">
        <ele>-7.44</ele>
        <time>2020-05-30T17:18:09Z</time>
      </trkpt>
      <trkpt lat="47.19614" lon="-1.56937">
        <ele>-8.39</ele>
        <time>2020-05-30T17:18:11Z</time>
      </trkpt>
      <trkpt lat="47.19612" lon="-1.56956">
        <ele>-8.44</ele>
        <time>2020-05-30T17:18:13Z</time>
      </trkpt>
      <trkpt lat="47.19611" lon="-1.56979">
        <ele>-8.48</ele>
        <time>2020-05-30T17:18:15Z</time>
      </trkpt>
      <trkpt lat="47.1961" lon="-1.56992">
        <ele>-8.27</ele>
        <time>2020-05-30T17:18:16Z</time>
      </trkpt>
      <trkpt lat="47.19609" lon="-1.5701">
        <ele>-7.87</ele>
        <time>2020-05-30T17:18:18Z</time>
      </trkpt>
      <trkpt lat="47.19608" lon="-1.57029">
        <ele>-7.07</ele>
        <time>2020-05-30T17:18:20Z</time>
      </trkpt>
      <trkpt lat="47.19608" lon="-1.57048">
        <ele>-7.08</ele>
        <time>2020-05-30T17:18:22Z</time>
      </trkpt>
      <trkpt lat="47.19607" lon="-1.57068">
        <ele>-8.19</ele>
        <time>2020-05-30T17:18:24Z</time>
      </trkpt>
      <trkpt lat="47.19606" lon="-1.57086">
        <ele>-9.26</ele>
        <time>2020-05-30T17:18:26Z</time>
      </trkpt>
      <trkpt lat="47.19605" lon="-1.57105">
        <ele>-9.13</ele>
        <time>2020-05-30T17:18:28Z</time>
      </trkpt>
      <trkpt lat="47.19604" lon="-1.5712">
        <ele>-8.66</ele>
        <time>2020-05-30T17:18:30Z</time>
      </trkpt>
      <trkpt lat="47.19605" lon="-1.57139">
        <ele>-8.9</ele>
        <time>2020-05-30T17:18:33Z</time>
      </trkpt>
      <trkpt lat="47.19597" lon="-1.57145">
        <ele>-8.8</ele>
        <time>2020-05-30T17:18:38Z</time>
      </trkpt>
      <trkpt lat="47.19588" lon="-1.57136">
        <ele>-9.04</ele>
        <time>2020-05-30T17:18:40Z</time>
      </trkpt>
      <trkpt lat="47.19574" lon="-1.57133">
        <ele>-8.82</ele>
        <time>2020-05-30T17:18:42Z</time>
      </trkpt>
      <trkpt lat="47.1956" lon="-1.5713">
        <ele>-7.55</ele>
        <time>2020-05-30T17:18:44Z</time>
      </trkpt>
      <trkpt lat="47.19547" lon="-1.57126">
        <ele>-6.37</ele>
        <time>2020-05-30T17:18:46Z</time>
      </trkpt>
      <trkpt lat="47.19536" lon="-1.57122">
        <ele>-6.65</ele>
        <time>2020-05-30T17:18:48Z</time>
      </trkpt>
      <trkpt lat="47.19525" lon="-1.57119">
        <ele>-7.46</ele>
        <time>2020-05-30T17:18:50Z</time>
      </trkpt>
      <trkpt lat="47.19511" lon="-1.57117">
        <ele>-6.9</ele>
        <time>2020-05-30T17:18:52Z</time>
      </trkpt>
      <trkpt lat="47.19497" lon="-1.57114">
        <ele>-4.54</ele>
        <time>2020-05-30T17:18:54Z</time>
      </trkpt>
      <trkpt lat="47.19486" lon="-1.5711">
        <ele>-2.21</ele>
        <time>2020-05-30T17:18:56Z</time>
      </trkpt>
      <trkpt lat="47.19474" lon="-1.57108">
        <ele>0.39</ele>
        <time>2020-05-30T17:18:58Z</time>
      </trkpt>
      <trkpt lat="47.19461" lon="-1.57109">
        <ele>2.06</ele>
        <time>2020-05-30T17:19:00Z</time>
      </trkpt>
      <trkpt lat="47.19446" lon="-1.57104">
        <ele>2.99</ele>
        <time>2020-05-30T17:19:02Z</time>
      </trkpt>
      <trkpt lat="47.19432" lon="-1.57097">
        <ele>3.51</ele>
        <time>2020-05-30T17:19:04Z</time>
      </trkpt>
      <trkpt lat="47.19421" lon="-1.57092">
        <ele>2.47</ele>
        <time>2020-05-30T17:19:06Z</time>
      </trkpt>
      <trkpt lat="47.19409" lon="-1.57088">
        <ele>2.39</ele>
        <time>2020-05-30T17:19:08Z</time>
      </trkpt>
      <trkpt lat="47.19396" lon="-1.57084">
        <ele>3.67</ele>
        <time>2020-05-30T17:19:10Z</time>
      </trkpt>
      <trkpt lat="47.19383" lon="-1.57081">
        <ele>4.42</ele>
        <time>2020-05-30T17:19:12Z</time>
      </trkpt>
      <trkpt lat="47.19371" lon="-1.57079">
        <ele>5.18</ele>
        <time>2020-05-30T17:19:14Z</time>
      </trkpt>
      <trkpt lat="47.19358" lon="-1.57076">
        <ele>5.63</ele>
        <time>2020-05-30T17:19:16Z</time>
      </trkpt>
      <trkpt lat="47.19347" lon="-1.57075">
        <ele>4.87</ele>
        <time>2020-05-30T17:19:18Z</time>
      </trkpt>
      <trkpt lat="47.19338" lon="-1.57079">
        <ele>5.16</ele>
        <time>2020-05-30T17:19:20Z</time>
      </trkpt>
      <trkpt lat="47.19321" lon="-1.57081">
        <ele>5.16</ele>
        <time>2020-05-30T17:19:22Z</time>
      </trkpt>
      <trkpt lat="47.1931" lon="-1.57076">
        <ele>4.34</ele>
        <time>2020-05-30T17:19:24Z</time>
      </trkpt>
      <trkpt lat="47.19296" lon="-1.57067">
        <ele>3.6</ele>
        <time>2020-05-30T17:19:26Z</time>
      </trkpt>
      <trkpt lat="47.19282" lon="-1.57062">
        <ele>2.77</ele>
        <time>2020-05-30T17:19:28Z</time>
      </trkpt>
      <trkpt lat="47.19269" lon="-1.57068">
        <ele>3.53</ele>
        <time>2020-05-30T17:19:30Z</time>
      </trkpt>
      <trkpt lat="47.19255" lon="-1.57064">
        <ele>4.82</ele>
        <time>2020-05-30T17:19:32Z</time>
      </trkpt>
      <trkpt lat="47.19242" lon="-1.57053">
        <ele>4.39</ele>
        <time>2020-05-30T17:19:34Z</time>
      </trkpt>
      <trkpt lat="47.19226" lon="-1.57048">
        <ele>2.2</ele>
        <time>2020-05-30T17:19:36Z</time>
      </trkpt>
      <trkpt lat="47.19212" lon="-1.57045">
        <ele>-0.68</ele>
        <time>2020-05-30T17:19:38Z</time>
      </trkpt>
      <trkpt lat="47.19198" lon="-1.57042">
        <ele>-0.9</ele>
        <time>2020-05-30T17:19:40Z</time>
      </trkpt>
      <trkpt lat="47.19183" lon="-1.57038">
        <ele>-1.31</ele>
        <time>2020-05-30T17:19:42Z</time>
      </trkpt>
      <trkpt lat="47.19167" lon="-1.57034">
        <ele>-1.72</ele>
        <time>2020-05-30T17:19:44Z</time>
      </trkpt>
      <trkpt lat="47.19154" lon="-1.57031">
        <ele>-0.96</ele>
        <time>2020-05-30T17:19:46Z</time>
      </trkpt>
      <trkpt lat="47.19141" lon="-1.57028">
        <ele>0.3</ele>
        <time>2020-05-30T17:19:48Z</time>
      </trkpt>
      <trkpt lat="47.1913" lon="-1.57027">
        <ele>0.76</ele>
        <time>2020-05-30T17:19:50Z</time>
      </trkpt>
      <trkpt lat="47.19121" lon="-1.57044">
        <ele>1.44</ele>
        <time>2020-05-30T17:19:51Z</time>
      </trkpt>
      <trkpt lat="47.19115" lon="-1.5706">
        <ele>2.34</ele>
        <time>2020-05-30T17:19:53Z</time>
      </trkpt>
      <trkpt lat="47.19111" lon="-1.57076">
        <ele>1.56</ele>
        <time>2020-05-30T17:19:55Z</time>
      </trkpt>
      <trkpt lat="47.19105" lon="-1.57096">
        <ele>0.12</ele>
        <time>2020-05-30T17:19:57Z</time>
      </trkpt>
      <trkpt lat="47.19101" lon="-1.57114">
        <ele>-1.8</ele>
        <time>2020-05-30T17:19:59Z</time>
      </trkpt>
      <trkpt lat="47.19095" lon="-1.57133">
        <ele>-3.83</ele>
        <time>2020-05-30T17:20:01Z</time>
      </trkpt>
      <trkpt lat="47.19089" lon="-1.57148">
        <ele>-4.27</ele>
        <time>2020-05-30T17:20:03Z</time>
      </trkpt>
      <trkpt lat="47.19081" lon="-1.57166">
        <ele>-2.86</ele>
        <time>2020-05-30T17:20:05Z</time>
      </trkpt>
      <trkpt lat="47.19075" lon="-1.57181">
        <ele>-1.29</ele>
        <time>2020-05-30T17:20:07Z</time>
      </trkpt>
      <trkpt lat="47.1907" lon="-1.57193">
        <ele>-1.04</ele>
        <time>2020-05-30T17:20:09Z</time>
      </trkpt>
      <trkpt lat="47.19062" lon="-1.57212">
        <ele>-1.85</ele>
        <time>2020-05-30T17:20:11Z</time>
      </trkpt>
      <trkpt lat="47.19051" lon="-1.57224">
        <ele>-1.25</ele>
        <time>2020-05-30T17:20:13Z</time>
      </trkpt>
      <trkpt lat="47.19038" lon="-1.57234">
        <ele>-0.13</ele>
        <time>2020-05-30T17:20:15Z</time>
      </trkpt>
      <trkpt lat="47.19026" lon="-1.57244">
        <ele>0.66</ele>
        <time>2020-05-30T17:20:17Z</time>
      </trkpt>
      <trkpt lat="47.19014" lon="-1.57253">
        <ele>0.83</ele>
        <time>2020-05-30T17:20:19Z</time>
      </trkpt>
      <trkpt lat="47.19001" lon="-1.57263">
        <ele>1.37</ele>
        <time>2020-05-30T17:20:21Z</time>
      </trkpt>
      <trkpt lat="47.18986" lon="-1.57269">
        <ele>3.02</ele>
        <time>2020-05-30T17:20:23Z</time>
      </trkpt>
      <trkpt lat="47.18972" lon="-1.57272">
        <ele>4.87</ele>
        <time>2020-05-30T17:20:25Z</time>
      </trkpt>
      <trkpt lat="47.18958" lon="-1.57274">
        <ele>6.84</ele>
        <time>2020-05-30T17:20:27Z</time>
      </trkpt>
      <trkpt lat="47.18944" lon="-1.57275">
        <ele>7.66</ele>
        <time>2020-05-30T17:20:29Z</time>
      </trkpt>
      <trkpt lat="47.1893" lon="-1.57275">
        <ele>7.93</ele>
        <time>2020-05-30T17:20:31Z</time>
      </trkpt>
      <trkpt lat="47.18917" lon="-1.57276">
        <ele>7.99</ele>
        <time>2020-05-30T17:20:33Z</time>
      </trkpt>
      <trkpt lat="47.18907" lon="-1.57276">
        <ele>7.57</ele>
        <time>2020-05-30T17:20:35Z</time>
      </trkpt>
      <trkpt lat="47.18896" lon="-1.57276">
        <ele>7.23</ele>
        <time>2020-05-30T17:20:37Z</time>
      </trkpt>
      <trkpt lat="47.1888" lon="-1.57278">
        <ele>7.97</ele>
        <time>2020-05-30T17:20:39Z</time>
      </trkpt>
      <trkpt lat="47.18865" lon="-1.57281">
        <ele>9.47</ele>
        <time>2020-05-30T17:20:41Z</time>
      </trkpt>
      <trkpt lat="47.18852" lon="-1.57289">
        <ele>9.25</ele>
        <time>2020-05-30T17:20:43Z</time>
      </trkpt>
      <trkpt lat="47.18844" lon="-1.57301">
        <ele>9.14</ele>
        <time>2020-05-30T17:20:45Z</time>
      </trkpt>
      <trkpt lat="47.18833" lon="-1.57321">
        <ele>7.8</ele>
        <time>2020-05-30T17:20:47Z</time>
      </trkpt>
      <trkpt lat="47.18827" lon="-1.5734">
        <ele>6.82</ele>
        <time>2020-05-30T17:20:49Z</time>
      </trkpt>
      <trkpt lat="47.18821" lon="-1.57359">
        <ele>6.36</ele>
        <time>2020-05-30T17:20:51Z</time>
      </trkpt>
      <trkpt lat="47.18814" lon="-1.5738">
        <ele>5.63</ele>
        <time>2020-05-30T17:20:53Z</time>
      </trkpt>
      <trkpt lat="47.18805" lon="-1.574">
        <ele>4.99</ele>
        <time>2020-05-30T17:20:55Z</time>
      </trkpt>
      <trkpt lat="47.18794" lon="-1.57415">
        <ele>4.93</ele>
        <time>2020-05-30T17:20:57Z</time>
      </trkpt>
      <trkpt lat="47.18778" lon="-1.57424">
        <ele>5.38</ele>
        <time>2020-05-30T17:20:59Z</time>
      </trkpt>
      <trkpt lat="47.18763" lon="-1.57432">
        <ele>5.45</ele>
        <time>2020-05-30T17:21:01Z</time>
      </trkpt>
      <trkpt lat="47.18754" lon="-1.57437">
        <ele>5.35</ele>
        <time>2020-05-30T17:21:02Z</time>
      </trkpt>
      <trkpt lat="47.18745" lon="-1.57441">
        <ele>5.48</ele>
        <time>2020-05-30T17:21:03Z</time>
      </trkpt>
      <trkpt lat="47.18731" lon="-1.57448">
        <ele>5.36</ele>
        <time>2020-05-30T17:21:05Z</time>
      </trkpt>
      <trkpt lat="47.18716" lon="-1.57456">
        <ele>5.51</ele>
        <time>2020-05-30T17:21:07Z</time>
      </trkpt>
      <trkpt lat="47.18702" lon="-1.57463">
        <ele>5.2</ele>
        <time>2020-05-30T17:21:09Z</time>
      </trkpt>
      <trkpt lat="47.18689" lon="-1.57469">
        <ele>5.87</ele>
        <time>2020-05-30T17:21:11Z</time>
      </trkpt>
      <trkpt lat="47.18676" lon="-1.57477">
        <ele>5.96</ele>
        <time>2020-05-30T17:21:13Z</time>
      </trkpt>
      <trkpt lat="47.18665" lon="-1.57485">
        <ele>5.6</ele>
        <time>2020-05-30T17:21:15Z</time>
      </trkpt>
      <trkpt lat="47.18657" lon="-1.57494">
        <ele>5.51</ele>
        <time>2020-05-30T17:21:17Z</time>
      </trkpt>
      <trkpt lat="47.18648" lon="-1.57507">
        <ele>5.23</ele>
        <time>2020-05-30T17:21:19Z</time>
      </trkpt>
      <trkpt lat="47.18641" lon="-1.5752">
        <ele>5.54</ele>
        <time>2020-05-30T17:21:21Z</time>
      </trkpt>
      <trkpt lat="47.18635" lon="-1.57535">
        <ele>7.5</ele>
        <time>2020-05-30T17:21:23Z</time>
      </trkpt>
      <trkpt lat="47.18629" lon="-1.57552">
        <ele>8.36</ele>
        <time>2020-05-30T17:21:25Z</time>
      </trkpt>
      <trkpt lat="47.18625" lon="-1.57567">
        <ele>8.38</ele>
        <time>2020-05-30T17:21:27Z</time>
      </trkpt>
      <trkpt lat="47.18622" lon="-1.57583">
        <ele>6.13</ele>
        <time>2020-05-30T17:21:29Z</time>
      </trkpt>
      <trkpt lat="47.18621" lon="-1.576">
        <ele>5.18</ele>
        <time>2020-05-30T17:21:31Z</time>
      </trkpt>
      <trkpt lat="47.18622" lon="-1.57617">
        <ele>5.02</ele>
        <time>2020-05-30T17:21:33Z</time>
      </trkpt>
      <trkpt lat="47.18624" lon="-1.57636">
        <ele>5.14</ele>
        <time>2020-05-30T17:21:35Z</time>
      </trkpt>
      <trkpt lat="47.18627" lon="-1.5765">
        <ele>5.39</ele>
        <time>2020-05-30T17:21:37Z</time>
      </trkpt>
      <trkpt lat="47.18629" lon="-1.57668">
        <ele>5.44</ele>
        <time>2020-05-30T17:21:39Z</time>
      </trkpt>
      <trkpt lat="47.18631" lon="-1.57684">
        <ele>5.55</ele>
        <time>2020-05-30T17:21:41Z</time>
      </trkpt>
      <trkpt lat="47.18632" lon="-1.577">
        <ele>5.85</ele>
        <time>2020-05-30T17:21:43Z</time>
      </trkpt>
      <trkpt lat="47.18634" lon="-1.57718">
        <ele>7.74</ele>
        <time>2020-05-30T17:21:45Z</time>
      </trkpt>
      <trkpt lat="47.18635" lon="-1.57739">
        <ele>8.17</ele>
        <time>2020-05-30T17:21:47Z</time>
      </trkpt>
      <trkpt lat="47.18637" lon="-1.57753">
        <ele>7.64</ele>
        <time>2020-05-30T17:21:49Z</time>
      </trkpt>
      <trkpt lat="47.18639" lon="-1.57772">
        <ele>7.02</ele>
        <time>2020-05-30T17:21:51Z</time>
      </trkpt>
      <trkpt lat="47.18641" lon="-1.57788">
        <ele>5.99</ele>
        <time>2020-05-30T17:21:53Z</time>
      </trkpt>
      <trkpt lat="47.18642" lon="-1.57803">
        <ele>5.52</ele>
        <time>2020-05-30T17:21:55Z</time>
      </trkpt>
      <trkpt lat="47.18643" lon="-1.57819">
        <ele>5.7</ele>
        <time>2020-05-30T17:21:57Z</time>
      </trkpt>
      <trkpt lat="47.18644" lon="-1.57837">
        <ele>5.26</ele>
        <time>2020-05-30T17:21:59Z</time>
      </trkpt>
      <trkpt lat="47.18645" lon="-1.57854">
        <ele>5.61</ele>
        <time>2020-05-30T17:22:01Z</time>
      </trkpt>
      <trkpt lat="47.18644" lon="-1.57872">
        <ele>5.88</ele>
        <time>2020-05-30T17:22:03Z</time>
      </trkpt>
      <trkpt lat="47.18644" lon="-1.5789">
        <ele>5.91</ele>
        <time>2020-05-30T17:22:05Z</time>
      </trkpt>
      <trkpt lat="47.18641" lon="-1.57908">
        <ele>5.74</ele>
        <time>2020-05-30T17:22:07Z</time>
      </trkpt>
      <trkpt lat="47.18638" lon="-1.57928">
        <ele>5.49</ele>
        <time>2020-05-30T17:22:09Z</time>
      </trkpt>
      <trkpt lat="47.18635" lon="-1.57944">
        <ele>4.4</ele>
        <time>2020-05-30T17:22:11Z</time>
      </trkpt>
      <trkpt lat="47.18631" lon="-1.57964">
        <ele>3.81</ele>
        <time>2020-05-30T17:22:13Z</time>
      </trkpt>
      <trkpt lat="47.18628" lon="-1.57982">
        <ele>3.84</ele>
        <time>2020-05-30T17:22:15Z</time>
      </trkpt>
      <trkpt lat="47.18624" lon="-1.58002">
        <ele>3.58</ele>
        <time>2020-05-30T17:22:17Z</time>
      </trkpt>
      <trkpt lat="47.18621" lon="-1.58022">
        <ele>3.82</ele>
        <time>2020-05-30T17:22:19Z</time>
      </trkpt>
      <trkpt lat="47.18618" lon="-1.58039">
        <ele>5.45</ele>
        <time>2020-05-30T17:22:21Z</time>
      </trkpt>
      <trkpt lat="47.18614" lon="-1.58057">
        <ele>5.83</ele>
        <time>2020-05-30T17:22:23Z</time>
      </trkpt>
      <trkpt lat="47.18612" lon="-1.58074">
        <ele>4.35</ele>
        <time>2020-05-30T17:22:25Z</time>
      </trkpt>
      <trkpt lat="47.18609" lon="-1.58094">
        <ele>3.68</ele>
        <time>2020-05-30T17:22:27Z</time>
      </trkpt>
      <trkpt lat="47.18597" lon="-1.58098">
        <ele>4.88</ele>
        <time>2020-05-30T17:22:29Z</time>
      </trkpt>
      <trkpt lat="47.18585" lon="-1.58091">
        <ele>6.41</ele>
        <time>2020-05-30T17:22:31Z</time>
      </trkpt>
      <trkpt lat="47.18572" lon="-1.58083">
        <ele>8.03</ele>
        <time>2020-05-30T17:22:33Z</time>
      </trkpt>
      <trkpt lat="47.18558" lon="-1.58075">
        <ele>10.17</ele>
        <time>2020-05-30T17:22:35Z</time>
      </trkpt>
      <trkpt lat="47.18545" lon="-1.58068">
        <ele>12.53</ele>
        <time>2020-05-30T17:22:37Z</time>
      </trkpt>
      <trkpt lat="47.18533" lon="-1.58062">
        <ele>14.13</ele>
        <time>2020-05-30T17:22:39Z</time>
      </trkpt>
      <trkpt lat="47.18519" lon="-1.58056">
        <ele>14.53</ele>
        <time>2020-05-30T17:22:41Z</time>
      </trkpt>
      <trkpt lat="47.18506" lon="-1.58052">
        <ele>14.5</ele>
        <time>2020-05-30T17:22:43Z</time>
      </trkpt>
      <trkpt lat="47.18494" lon="-1.58047">
        <ele>14.42</ele>
        <time>2020-05-30T17:22:45Z</time>
      </trkpt>
      <trkpt lat="47.1848" lon="-1.58042">
        <ele>14.52</ele>
        <time>2020-05-30T17:22:47Z</time>
      </trkpt>
      <trkpt lat="47.18469" lon="-1.58037">
        <ele>13.51</ele>
        <time>2020-05-30T17:22:49Z</time>
      </trkpt>
      <trkpt lat="47.18459" lon="-1.58033">
        <ele>12.58</ele>
        <time>2020-05-30T17:22:51Z</time>
      </trkpt>
      <trkpt lat="47.18446" lon="-1.5803">
        <ele>12.6</ele>
        <time>2020-05-30T17:22:53Z</time>
      </trkpt>
      <trkpt lat="47.18431" lon="-1.58026">
        <ele>12.31</ele>
        <time>2020-05-30T17:22:55Z</time>
      </trkpt>
      <trkpt lat="47.18419" lon="-1.58022">
        <ele>11.49</ele>
        <time>2020-05-30T17:22:57Z</time>
      </trkpt>
      <trkpt lat="47.18409" lon="-1.58018">
        <ele>11.25</ele>
        <time>2020-05-30T17:22:59Z</time>
      </trkpt>
      <trkpt lat="47.18397" lon="-1.58014">
        <ele>11.26</ele>
        <time>2020-05-30T17:23:01Z</time>
      </trkpt>
      <trkpt lat="47.18385" lon="-1.5801">
        <ele>12.31</ele>
        <time>2020-05-30T17:23:03Z</time>
      </trkpt>
      <trkpt lat="47.18373" lon="-1.58007">
        <ele>12.95</ele>
        <time>2020-05-30T17:23:05Z</time>
      </trkpt>
      <trkpt lat="47.1836" lon="-1.58003">
        <ele>12.72</ele>
        <time>2020-05-30T17:23:07Z</time>
      </trkpt>
      <trkpt lat="47.18347" lon="-1.58001">
        <ele>13.57</ele>
        <time>2020-05-30T17:23:09Z</time>
      </trkpt>
      <trkpt lat="47.18335" lon="-1.58">
        <ele>14.45</ele>
        <time>2020-05-30T17:23:11Z</time>
      </trkpt>
      <trkpt lat="47.18323" lon="-1.57999">
        <ele>15.05</ele>
        <time>2020-05-30T17:23:13Z</time>
      </trkpt>
      <trkpt lat="47.1831" lon="-1.57997">
        <ele>15.02</ele>
        <time>2020-05-30T17:23:15Z</time>
      </trkpt>
      <trkpt lat="47.18297" lon="-1.57995">
        <ele>15.55</ele>
        <time>2020-05-30T17:23:17Z</time>
      </trkpt>
      <trkpt lat="47.18287" lon="-1.57994">
        <ele>15.67</ele>
        <time>2020-05-30T17:23:19Z</time>
      </trkpt>
      <trkpt lat="47.18277" lon="-1.57993">
        <ele>16.84</ele>
        <time>2020-05-30T17:23:21Z</time>
      </trkpt>
      <trkpt lat="47.18262" lon="-1.57991">
        <ele>17.69</ele>
        <time>2020-05-30T17:23:23Z</time>
      </trkpt>
      <trkpt lat="47.1825" lon="-1.57989">
        <ele>17.44</ele>
        <time>2020-05-30T17:23:25Z</time>
      </trkpt>
      <trkpt lat="47.1824" lon="-1.57989">
        <ele>18.21</ele>
        <time>2020-05-30T17:23:27Z</time>
      </trkpt>
      <trkpt lat="47.18229" lon="-1.57986">
        <ele>17.89</ele>
        <time>2020-05-30T17:23:29Z</time>
      </trkpt>
      <trkpt lat="47.18218" lon="-1.57986">
        <ele>17.88</ele>
        <time>2020-05-30T17:23:31Z</time>
      </trkpt>
      <trkpt lat="47.18208" lon="-1.57988">
        <ele>18.51</ele>
        <time>2020-05-30T17:23:33Z</time>
      </trkpt>
      <trkpt lat="47.18196" lon="-1.57987">
        <ele>19.43</ele>
        <time>2020-05-30T17:23:35Z</time>
      </trkpt>
      <trkpt lat="47.18184" lon="-1.57987">
        <ele>20.25</ele>
        <time>2020-05-30T17:23:37Z</time>
      </trkpt>
      <trkpt lat="47.18175" lon="-1.57988">
        <ele>22.61</ele>
        <time>2020-05-30T17:23:39Z</time>
      </trkpt>
      <trkpt lat="47.18163" lon="-1.57988">
        <ele>23.97</ele>
        <time>2020-05-30T17:23:41Z</time>
      </trkpt>
      <trkpt lat="47.18153" lon="-1.5799">
        <ele>24.41</ele>
        <time>2020-05-30T17:23:43Z</time>
      </trkpt>
      <trkpt lat="47.18142" lon="-1.57991">
        <ele>25.31</ele>
        <time>2020-05-30T17:23:45Z</time>
      </trkpt>
      <trkpt lat="47.18132" lon="-1.57994">
        <ele>27.42</ele>
        <time>2020-05-30T17:23:48Z</time>
      </trkpt>
      <trkpt lat="47.18131" lon="-1.58014">
        <ele>29.39</ele>
        <time>2020-05-30T17:23:51Z</time>
      </trkpt>
      <trkpt lat="47.18129" lon="-1.5803">
        <ele>30.17</ele>
        <time>2020-05-30T17:23:53Z</time>
      </trkpt>
      <trkpt lat="47.18124" lon="-1.58054">
        <ele>28.09</ele>
        <time>2020-05-30T17:23:55Z</time>
      </trkpt>
      <trkpt lat="47.1812" lon="-1.58077">
        <ele>24.4</ele>
        <time>2020-05-30T17:23:57Z</time>
      </trkpt>
      <trkpt lat="47.18117" lon="-1.58095">
        <ele>21.47</ele>
        <time>2020-05-30T17:23:59Z</time>
      </trkpt>
      <trkpt lat="47.18115" lon="-1.58113">
        <ele>18.67</ele>
        <time>2020-05-30T17:24:01Z</time>
      </trkpt>
      <trkpt lat="47.18113" lon="-1.58132">
        <ele>15.75</ele>
        <time>2020-05-30T17:24:03Z</time>
      </trkpt>
      <trkpt lat="47.18111" lon="-1.58152">
        <ele>14.2</ele>
        <time>2020-05-30T17:24:05Z</time>
      </trkpt>
      <trkpt lat="47.18108" lon="-1.58172">
        <ele>13.88</ele>
        <time>2020-05-30T17:24:07Z</time>
      </trkpt>
      <trkpt lat="47.18104" lon="-1.58195">
        <ele>12.19</ele>
        <time>2020-05-30T17:24:09Z</time>
      </trkpt>
      <trkpt lat="47.18101" lon="-1.58215">
        <ele>10.79</ele>
        <time>2020-05-30T17:24:11Z</time>
      </trkpt>
      <trkpt lat="47.18098" lon="-1.58235">
        <ele>9.99</ele>
        <time>2020-05-30T17:24:13Z</time>
      </trkpt>
      <trkpt lat="47.18095" lon="-1.58252">
        <ele>9.18</ele>
        <time>2020-05-30T17:24:15Z</time>
      </trkpt>
      <trkpt lat="47.18093" lon="-1.58273">
        <ele>8.81</ele>
        <time>2020-05-30T17:24:17Z</time>
      </trkpt>
      <trkpt lat="47.18092" lon="-1.58294">
        <ele>8.74</ele>
        <time>2020-05-30T17:24:19Z</time>
      </trkpt>
      <trkpt lat="47.18092" lon="-1.58312">
        <ele>8.83</ele>
        <time>2020-05-30T17:24:21Z</time>
      </trkpt>
      <trkpt lat="47.18093" lon="-1.58335">
        <ele>8.72</ele>
        <time>2020-05-30T17:24:23Z</time>
      </trkpt>
      <trkpt lat="47.18095" lon="-1.58355">
        <ele>9.57</ele>
        <time>2020-05-30T17:24:25Z</time>
      </trkpt>
      <trkpt lat="47.18097" lon="-1.58375">
        <ele>11.17</ele>
        <time>2020-05-30T17:24:27Z</time>
      </trkpt>
      <trkpt lat="47.18101" lon="-1.58391">
        <ele>13.75</ele>
        <time>2020-05-30T17:24:29Z</time>
      </trkpt>
      <trkpt lat="47.18107" lon="-1.58405">
        <ele>16.4</ele>
        <time>2020-05-30T17:24:31Z</time>
      </trkpt>
      <trkpt lat="47.18113" lon="-1.5842">
        <ele>18.05</ele>
        <time>2020-05-30T17:24:33Z</time>
      </trkpt>
      <trkpt lat="47.18119" lon="-1.58435">
        <ele>18.13</ele>
        <time>2020-05-30T17:24:35Z</time>
      </trkpt>
      <trkpt lat="47.18124" lon="-1.58451">
        <ele>18.19</ele>
        <time>2020-05-30T17:24:37Z</time>
      </trkpt>
      <trkpt lat="47.18122" lon="-1.58465">
        <ele>18.92</ele>
        <time>2020-05-30T17:24:39Z</time>
      </trkpt>
      <trkpt lat="47.18118" lon="-1.58482">
        <ele>19.7</ele>
        <time>2020-05-30T17:24:41Z</time>
      </trkpt>
      <trkpt lat="47.18116" lon="-1.58499">
        <ele>19.73</ele>
        <time>2020-05-30T17:24:43Z</time>
      </trkpt>
      <trkpt lat="47.18114" lon="-1.58513">
        <ele>19.79</ele>
        <time>2020-05-30T17:24:45Z</time>
      </trkpt>
      <trkpt lat="47.18112" lon="-1.58533">
        <ele>19.32</ele>
        <time>2020-05-30T17:24:47Z</time>
      </trkpt>
      <trkpt lat="47.18116" lon="-1.58555">
        <ele>18.17</ele>
        <time>2020-05-30T17:24:49Z</time>
      </trkpt>
      <trkpt lat="47.18126" lon="-1.58564">
        <ele>17.59</ele>
        <time>2020-05-30T17:24:51Z</time>
      </trkpt>
      <trkpt lat="47.18141" lon="-1.58573">
        <ele>17.23</ele>
        <time>2020-05-30T17:24:53Z</time>
      </trkpt>
      <trkpt lat="47.18154" lon="-1.58579">
        <ele>16.25</ele>
        <time>2020-05-30T17:24:55Z</time>
      </trkpt>
      <trkpt lat="47.18165" lon="-1.58584">
        <ele>14.57</ele>
        <time>2020-05-30T17:24:57Z</time>
      </trkpt>
      <trkpt lat="47.18178" lon="-1.5859">
        <ele>11.96</ele>
        <time>2020-05-30T17:24:59Z</time>
      </trkpt>
      <trkpt lat="47.18192" lon="-1.58596">
        <ele>10.05</ele>
        <time>2020-05-30T17:25:01Z</time>
      </trkpt>
      <trkpt lat="47.18204" lon="-1.58602">
        <ele>9.42</ele>
        <time>2020-05-30T17:25:03Z</time>
      </trkpt>
      <trkpt lat="47.18217" lon="-1.58607">
        <ele>9.77</ele>
        <time>2020-05-30T17:25:05Z</time>
      </trkpt>
      <trkpt lat="47.18229" lon="-1.58613">
        <ele>9.39</ele>
        <time>2020-05-30T17:25:07Z</time>
      </trkpt>
      <trkpt lat="47.18239" lon="-1.58618">
        <ele>8.71</ele>
        <time>2020-05-30T17:25:09Z</time>
      </trkpt>
      <trkpt lat="47.18249" lon="-1.58626">
        <ele>8.01</ele>
        <time>2020-05-30T17:25:11Z</time>
      </trkpt>
      <trkpt lat="47.18253" lon="-1.58645">
        <ele>8.28</ele>
        <time>2020-05-30T17:25:13Z</time>
      </trkpt>
      <trkpt lat="47.18251" lon="-1.58666">
        <ele>8.72</ele>
        <time>2020-05-30T17:25:15Z</time>
      </trkpt>
      <trkpt lat="47.1825" lon="-1.58686">
        <ele>9.29</ele>
        <time>2020-05-30T17:25:17Z</time>
      </trkpt>
      <trkpt lat="47.1825" lon="-1.58704">
        <ele>9.02</ele>
        <time>2020-05-30T17:25:19Z</time>
      </trkpt>
      <trkpt lat="47.1825" lon="-1.58723">
        <ele>9.17</ele>
        <time>2020-05-30T17:25:21Z</time>
      </trkpt>
      <trkpt lat="47.1825" lon="-1.58743">
        <ele>8.85</ele>
        <time>2020-05-30T17:25:23Z</time>
      </trkpt>
      <trkpt lat="47.18249" lon="-1.58763">
        <ele>8.16</ele>
        <time>2020-05-30T17:25:25Z</time>
      </trkpt>
      <trkpt lat="47.18249" lon="-1.58784">
        <ele>9.18</ele>
        <time>2020-05-30T17:25:27Z</time>
      </trkpt>
      <trkpt lat="47.18253" lon="-1.58802">
        <ele>11.33</ele>
        <time>2020-05-30T17:25:29Z</time>
      </trkpt>
      <trkpt lat="47.18259" lon="-1.58819">
        <ele>12.7</ele>
        <time>2020-05-30T17:25:31Z</time>
      </trkpt>
      <trkpt lat="47.18266" lon="-1.58834">
        <ele>13.02</ele>
        <time>2020-05-30T17:25:33Z</time>
      </trkpt>
      <trkpt lat="47.18273" lon="-1.58846">
        <ele>13.41</ele>
        <time>2020-05-30T17:25:35Z</time>
      </trkpt>
      <trkpt lat="47.18279" lon="-1.58862">
        <ele>14.06</ele>
        <time>2020-05-30T17:25:37Z</time>
      </trkpt>
      <trkpt lat="47.18283" lon="-1.58878">
        <ele>14.7</ele>
        <time>2020-05-30T17:25:39Z</time>
      </trkpt>
      <trkpt lat="47.18287" lon="-1.58892">
        <ele>14.35</ele>
        <time>2020-05-30T17:25:41Z</time>
      </trkpt>
      <trkpt lat="47.18296" lon="-1.58899">
        <ele>12.57</ele>
        <time>2020-05-30T17:25:43Z</time>
      </trkpt>
      <trkpt lat="47.18306" lon="-1.58898">
        <ele>10.77</ele>
        <time>2020-05-30T17:25:45Z</time>
      </trkpt>
      <trkpt lat="47.18318" lon="-1.58898">
        <ele>10.29</ele>
        <time>2020-05-30T17:25:48Z</time>
      </trkpt>
      <trkpt lat="47.18312" lon="-1.58908">
        <ele>15.13</ele>
        <time>2020-05-30T18:00:49Z</time>
      </trkpt>
      <trkpt lat="47.18321" lon="-1.58901">
        <ele>15.31</ele>
        <time>2020-05-30T18:01:55Z</time>
      </trkpt>
      <trkpt lat="47.1832" lon="-1.58921">
        <ele>16.17</ele>
        <time>2020-05-30T18:02:04Z</time>
      </trkpt>
      <trkpt lat="47.1832" lon="-1.58938">
        <ele>16.4</ele>
        <time>2020-05-30T18:02:07Z</time>
      </trkpt>
      <trkpt lat="47.18326" lon="-1.58951">
        <ele>16.7</ele>
        <time>2020-05-30T18:02:10Z</time>
      </trkpt>
      <trkpt lat="47.18333" lon="-1.58961">
        <ele>17.24</ele>
        <time>2020-05-30T18:02:12Z</time>
      </trkpt>
      <trkpt lat="47.18344" lon="-1.58972">
        <ele>18.64</ele>
        <time>2020-05-30T18:02:15Z</time>
      </trkpt>
      <trkpt lat="47.18354" lon="-1.58987">
        <ele>19.64</ele>
        <time>2020-05-30T18:02:18Z</time>
      </trkpt>
      <trkpt lat="47.18356" lon="-1.59003">
        <ele>21.05</ele>
        <time>2020-05-30T18:02:22Z</time>
      </trkpt>
      <trkpt lat="47.1835" lon="-1.59016">
        <ele>21.33</ele>
        <time>2020-05-30T18:02:24Z</time>
      </trkpt>
      <trkpt lat="47.18343" lon="-1.59028">
        <ele>20.79</ele>
        <time>2020-05-30T18:02:26Z</time>
      </trkpt>
      <trkpt lat="47.18336" lon="-1.59042">
        <ele>19.84</ele>
        <time>2020-05-30T18:02:28Z</time>
      </trkpt>
      <trkpt lat="47.1833" lon="-1.59057">
        <ele>19.73</ele>
        <time>2020-05-30T18:02:30Z</time>
      </trkpt>
      <trkpt lat="47.18324" lon="-1.59073">
        <ele>19.9</ele>
        <time>2020-05-30T18:02:32Z</time>
      </trkpt>
      <trkpt lat="47.18318" lon="-1.59089">
        <ele>19.85</ele>
        <time>2020-05-30T18:02:34Z</time>
      </trkpt>
      <trkpt lat="47.18313" lon="-1.59103">
        <ele>18.44</ele>
        <time>2020-05-30T18:02:36Z</time>
      </trkpt>
      <trkpt lat="47.18306" lon="-1.59119">
        <ele>17.24</ele>
        <time>2020-05-30T18:02:38Z</time>
      </trkpt>
      <trkpt lat="47.183" lon="-1.59137">
        <ele>16.46</ele>
        <time>2020-05-30T18:02:40Z</time>
      </trkpt>
      <trkpt lat="47.18294" lon="-1.59154">
        <ele>18.07</ele>
        <time>2020-05-30T18:02:42Z</time>
      </trkpt>
      <trkpt lat="47.18288" lon="-1.59171">
        <ele>21.23</ele>
        <time>2020-05-30T18:02:44Z</time>
      </trkpt>
      <trkpt lat="47.18283" lon="-1.59188">
        <ele>23.43</ele>
        <time>2020-05-30T18:02:46Z</time>
      </trkpt>
      <trkpt lat="47.18279" lon="-1.59204">
        <ele>24.72</ele>
        <time>2020-05-30T18:02:48Z</time>
      </trkpt>
      <trkpt lat="47.18275" lon="-1.59218">
        <ele>25.2</ele>
        <time>2020-05-30T18:02:50Z</time>
      </trkpt>
      <trkpt lat="47.18268" lon="-1.59229">
        <ele>24.71</ele>
        <time>2020-05-30T18:02:52Z</time>
      </trkpt>
      <trkpt lat="47.18257" lon="-1.59237">
        <ele>23.06</ele>
        <time>2020-05-30T18:02:54Z</time>
      </trkpt>
      <trkpt lat="47.18244" lon="-1.59249">
        <ele>21.62</ele>
        <time>2020-05-30T18:02:56Z</time>
      </trkpt>
      <trkpt lat="47.18232" lon="-1.5926">
        <ele>20.59</ele>
        <time>2020-05-30T18:02:58Z</time>
      </trkpt>
      <trkpt lat="47.1822" lon="-1.5927">
        <ele>19.77</ele>
        <time>2020-05-30T18:03:00Z</time>
      </trkpt>
      <trkpt lat="47.18209" lon="-1.59281">
        <ele>18.78</ele>
        <time>2020-05-30T18:03:02Z</time>
      </trkpt>
      <trkpt lat="47.18198" lon="-1.59292">
        <ele>17.94</ele>
        <time>2020-05-30T18:03:04Z</time>
      </trkpt>
      <trkpt lat="47.18187" lon="-1.59305">
        <ele>17.54</ele>
        <time>2020-05-30T18:03:06Z</time>
      </trkpt>
      <trkpt lat="47.18176" lon="-1.59315">
        <ele>16.62</ele>
        <time>2020-05-30T18:03:08Z</time>
      </trkpt>
      <trkpt lat="47.18165" lon="-1.59327">
        <ele>15.91</ele>
        <time>2020-05-30T18:03:10Z</time>
      </trkpt>
      <trkpt lat="47.18154" lon="-1.59338">
        <ele>15.51</ele>
        <time>2020-05-30T18:03:12Z</time>
      </trkpt>
      <trkpt lat="47.18143" lon="-1.59347">
        <ele>15.39</ele>
        <time>2020-05-30T18:03:14Z</time>
      </trkpt>
      <trkpt lat="47.18132" lon="-1.59359">
        <ele>14.34</ele>
        <time>2020-05-30T18:03:16Z</time>
      </trkpt>
      <trkpt lat="47.1812" lon="-1.5937">
        <ele>13.51</ele>
        <time>2020-05-30T18:03:18Z</time>
      </trkpt>
      <trkpt lat="47.18109" lon="-1.59381">
        <ele>12.76</ele>
        <time>2020-05-30T18:03:20Z</time>
      </trkpt>
      <trkpt lat="47.18097" lon="-1.59392">
        <ele>12.11</ele>
        <time>2020-05-30T18:03:22Z</time>
      </trkpt>
      <trkpt lat="47.18086" lon="-1.59401">
        <ele>12.54</ele>
        <time>2020-05-30T18:03:24Z</time>
      </trkpt>
      <trkpt lat="47.18075" lon="-1.5941">
        <ele>12.67</ele>
        <time>2020-05-30T18:03:26Z</time>
      </trkpt>
      <trkpt lat="47.18065" lon="-1.59423">
        <ele>13.08</ele>
        <time>2020-05-30T18:03:28Z</time>
      </trkpt>
      <trkpt lat="47.18057" lon="-1.59436">
        <ele>14.83</ele>
        <time>2020-05-30T18:03:30Z</time>
      </trkpt>
      <trkpt lat="47.18048" lon="-1.59449">
        <ele>15.72</ele>
        <time>2020-05-30T18:03:32Z</time>
      </trkpt>
      <trkpt lat="47.18038" lon="-1.59465">
        <ele>16.21</ele>
        <time>2020-05-30T18:03:34Z</time>
      </trkpt>
      <trkpt lat="47.18033" lon="-1.59486">
        <ele>16.15</ele>
        <time>2020-05-30T18:03:36Z</time>
      </trkpt>
      <trkpt lat="47.1803" lon="-1.59503">
        <ele>14.58</ele>
        <time>2020-05-30T18:03:38Z</time>
      </trkpt>
      <trkpt lat="47.18027" lon="-1.59524">
        <ele>13.81</ele>
        <time>2020-05-30T18:03:40Z</time>
      </trkpt>
      <trkpt lat="47.18024" lon="-1.59543">
        <ele>13.14</ele>
        <time>2020-05-30T18:03:42Z</time>
      </trkpt>
      <trkpt lat="47.1802" lon="-1.59563">
        <ele>13.06</ele>
        <time>2020-05-30T18:03:44Z</time>
      </trkpt>
      <trkpt lat="47.18015" lon="-1.59582">
        <ele>13.91</ele>
        <time>2020-05-30T18:03:46Z</time>
      </trkpt>
      <trkpt lat="47.18011" lon="-1.596">
        <ele>15.24</ele>
        <time>2020-05-30T18:03:48Z</time>
      </trkpt>
      <trkpt lat="47.18006" lon="-1.5962">
        <ele>16.18</ele>
        <time>2020-05-30T18:03:50Z</time>
      </trkpt>
      <trkpt lat="47.18001" lon="-1.59639">
        <ele>15.58</ele>
        <time>2020-05-30T18:03:52Z</time>
      </trkpt>
      <trkpt lat="47.17996" lon="-1.59659">
        <ele>13.73</ele>
        <time>2020-05-30T18:03:54Z</time>
      </trkpt>
      <trkpt lat="47.17992" lon="-1.59679">
        <ele>11.98</ele>
        <time>2020-05-30T18:03:57Z</time>
      </trkpt>
      <trkpt lat="47.17988" lon="-1.59699">
        <ele>10.04</ele>
        <time>2020-05-30T18:03:58Z</time>
      </trkpt>
      <trkpt lat="47.17984" lon="-1.59719">
        <ele>8.36</ele>
        <time>2020-05-30T18:04:00Z</time>
      </trkpt>
      <trkpt lat="47.17978" lon="-1.5974">
        <ele>7.84</ele>
        <time>2020-05-30T18:04:02Z</time>
      </trkpt>
      <trkpt lat="47.17973" lon="-1.59757">
        <ele>8.24</ele>
        <time>2020-05-30T18:04:04Z</time>
      </trkpt>
      <trkpt lat="47.17966" lon="-1.59779">
        <ele>8.52</ele>
        <time>2020-05-30T18:04:06Z</time>
      </trkpt>
      <trkpt lat="47.17959" lon="-1.59804">
        <ele>8.62</ele>
        <time>2020-05-30T18:04:08Z</time>
      </trkpt>
      <trkpt lat="47.17954" lon="-1.59829">
        <ele>7.29</ele>
        <time>2020-05-30T18:04:10Z</time>
      </trkpt>
      <trkpt lat="47.17952" lon="-1.59844">
        <ele>6.29</ele>
        <time>2020-05-30T18:04:11Z</time>
      </trkpt>
      <trkpt lat="47.17949" lon="-1.59859">
        <ele>5.64</ele>
        <time>2020-05-30T18:04:13Z</time>
      </trkpt>
      <trkpt lat="47.17947" lon="-1.59874">
        <ele>4.96</ele>
        <time>2020-05-30T18:04:14Z</time>
      </trkpt>
      <trkpt lat="47.17944" lon="-1.5989">
        <ele>4.44</ele>
        <time>2020-05-30T18:04:15Z</time>
      </trkpt>
      <trkpt lat="47.17939" lon="-1.59904">
        <ele>4.16</ele>
        <time>2020-05-30T18:04:16Z</time>
      </trkpt>
      <trkpt lat="47.17935" lon="-1.59916">
        <ele>4.02</ele>
        <time>2020-05-30T18:04:17Z</time>
      </trkpt>
      <trkpt lat="47.17934" lon="-1.59931">
        <ele>3.7</ele>
        <time>2020-05-30T18:04:18Z</time>
      </trkpt>
      <trkpt lat="47.17929" lon="-1.59942">
        <ele>3.47</ele>
        <time>2020-05-30T18:04:19Z</time>
      </trkpt>
      <trkpt lat="47.17922" lon="-1.59952">
        <ele>2.95</ele>
        <time>2020-05-30T18:04:20Z</time>
      </trkpt>
      <trkpt lat="47.17903" lon="-1.59957">
        <ele>1.89</ele>
        <time>2020-05-30T18:04:22Z</time>
      </trkpt>
      <trkpt lat="47.17894" lon="-1.59961">
        <ele>1.35</ele>
        <time>2020-05-30T18:04:23Z</time>
      </trkpt>
      <trkpt lat="47.17883" lon="-1.59965">
        <ele>0.97</ele>
        <time>2020-05-30T18:04:24Z</time>
      </trkpt>
      <trkpt lat="47.1787" lon="-1.59981">
        <ele>0.57</ele>
        <time>2020-05-30T18:04:26Z</time>
      </trkpt>
      <trkpt lat="47.17858" lon="-1.59998">
        <ele>0.71</ele>
        <time>2020-05-30T18:04:28Z</time>
      </trkpt>
      <trkpt lat="47.17849" lon="-1.60013">
        <ele>0.71</ele>
        <time>2020-05-30T18:04:30Z</time>
      </trkpt>
      <trkpt lat="47.17838" lon="-1.60033">
        <ele>1.12</ele>
        <time>2020-05-30T18:04:32Z</time>
      </trkpt>
      <trkpt lat="47.17828" lon="-1.60049">
        <ele>2.65</ele>
        <time>2020-05-30T18:04:34Z</time>
      </trkpt>
      <trkpt lat="47.1782" lon="-1.60064">
        <ele>4.21</ele>
        <time>2020-05-30T18:04:36Z</time>
      </trkpt>
      <trkpt lat="47.1781" lon="-1.60082">
        <ele>5.96</ele>
        <time>2020-05-30T18:04:38Z</time>
      </trkpt>
      <trkpt lat="47.17802" lon="-1.60099">
        <ele>7.97</ele>
        <time>2020-05-30T18:04:40Z</time>
      </trkpt>
      <trkpt lat="47.17794" lon="-1.60114">
        <ele>10.89</ele>
        <time>2020-05-30T18:04:42Z</time>
      </trkpt>
      <trkpt lat="47.17788" lon="-1.60126">
        <ele>14.94</ele>
        <time>2020-05-30T18:04:44Z</time>
      </trkpt>
      <trkpt lat="47.17779" lon="-1.60142">
        <ele>17.9</ele>
        <time>2020-05-30T18:04:46Z</time>
      </trkpt>
      <trkpt lat="47.17771" lon="-1.60157">
        <ele>19.92</ele>
        <time>2020-05-30T18:04:48Z</time>
      </trkpt>
      <trkpt lat="47.17763" lon="-1.60171">
        <ele>20.02</ele>
        <time>2020-05-30T18:04:50Z</time>
      </trkpt>
      <trkpt lat="47.17755" lon="-1.60186">
        <ele>19.91</ele>
        <time>2020-05-30T18:04:52Z</time>
      </trkpt>
      <trkpt lat="47.17748" lon="-1.60204">
        <ele>19.38</ele>
        <time>2020-05-30T18:04:54Z</time>
      </trkpt>
      <trkpt lat="47.17744" lon="-1.60222">
        <ele>19.28</ele>
        <time>2020-05-30T18:04:56Z</time>
      </trkpt>
      <trkpt lat="47.17741" lon="-1.60239">
        <ele>19.1</ele>
        <time>2020-05-30T18:04:58Z</time>
      </trkpt>
      <trkpt lat="47.17738" lon="-1.60257">
        <ele>19</ele>
        <time>2020-05-30T18:05:00Z</time>
      </trkpt>
      <trkpt lat="47.17734" lon="-1.60273">
        <ele>19.1</ele>
        <time>2020-05-30T18:05:02Z</time>
      </trkpt>
      <trkpt lat="47.17727" lon="-1.60287">
        <ele>19.82</ele>
        <time>2020-05-30T18:05:04Z</time>
      </trkpt>
      <trkpt lat="47.17721" lon="-1.60297">
        <ele>19.72</ele>
        <time>2020-05-30T18:05:06Z</time>
      </trkpt>
      <trkpt lat="47.17712" lon="-1.6031">
        <ele>19.17</ele>
        <time>2020-05-30T18:05:08Z</time>
      </trkpt>
      <trkpt lat="47.17704" lon="-1.60321">
        <ele>19.54</ele>
        <time>2020-05-30T18:05:10Z</time>
      </trkpt>
      <trkpt lat="47.17693" lon="-1.60335">
        <ele>19.91</ele>
        <time>2020-05-30T18:05:12Z</time>
      </trkpt>
      <trkpt lat="47.17684" lon="-1.60347">
        <ele>20.37</ele>
        <time>2020-05-30T18:05:14Z</time>
      </trkpt>
      <trkpt lat="47.17674" lon="-1.6036">
        <ele>20.4</ele>
        <time>2020-05-30T18:05:16Z</time>
      </trkpt>
      <trkpt lat="47.17664" lon="-1.60374">
        <ele>20.63</ele>
        <time>2020-05-30T18:05:18Z</time>
      </trkpt>
      <trkpt lat="47.17654" lon="-1.60389">
        <ele>19.07</ele>
        <time>2020-05-30T18:05:20Z</time>
      </trkpt>
      <trkpt lat="47.17645" lon="-1.60404">
        <ele>17.3</ele>
        <time>2020-05-30T18:05:22Z</time>
      </trkpt>
      <trkpt lat="47.17636" lon="-1.6042">
        <ele>15.42</ele>
        <time>2020-05-30T18:05:24Z</time>
      </trkpt>
      <trkpt lat="47.17627" lon="-1.60435">
        <ele>14.81</ele>
        <time>2020-05-30T18:05:26Z</time>
      </trkpt>
      <trkpt lat="47.17617" lon="-1.60452">
        <ele>14.37</ele>
        <time>2020-05-30T18:05:28Z</time>
      </trkpt>
      <trkpt lat="47.17607" lon="-1.60466">
        <ele>14.28</ele>
        <time>2020-05-30T18:05:30Z</time>
      </trkpt>
      <trkpt lat="47.17596" lon="-1.60481">
        <ele>14.73</ele>
        <time>2020-05-30T18:05:32Z</time>
      </trkpt>
      <trkpt lat="47.17585" lon="-1.60499">
        <ele>15.22</ele>
        <time>2020-05-30T18:05:34Z</time>
      </trkpt>
      <trkpt lat="47.17574" lon="-1.60515">
        <ele>16.44</ele>
        <time>2020-05-30T18:05:36Z</time>
      </trkpt>
      <trkpt lat="47.17564" lon="-1.6053">
        <ele>16.82</ele>
        <time>2020-05-30T18:05:38Z</time>
      </trkpt>
      <trkpt lat="47.17555" lon="-1.60544">
        <ele>15.96</ele>
        <time>2020-05-30T18:05:40Z</time>
      </trkpt>
      <trkpt lat="47.17543" lon="-1.60561">
        <ele>14.67</ele>
        <time>2020-05-30T18:05:42Z</time>
      </trkpt>
      <trkpt lat="47.17533" lon="-1.60578">
        <ele>13.59</ele>
        <time>2020-05-30T18:05:44Z</time>
      </trkpt>
      <trkpt lat="47.17523" lon="-1.60594">
        <ele>12.77</ele>
        <time>2020-05-30T18:05:46Z</time>
      </trkpt>
      <trkpt lat="47.17514" lon="-1.60608">
        <ele>11.5</ele>
        <time>2020-05-30T18:05:48Z</time>
      </trkpt>
      <trkpt lat="47.17504" lon="-1.60623">
        <ele>10.35</ele>
        <time>2020-05-30T18:05:50Z</time>
      </trkpt>
      <trkpt lat="47.17494" lon="-1.60639">
        <ele>9.24</ele>
        <time>2020-05-30T18:05:52Z</time>
      </trkpt>
      <trkpt lat="47.17485" lon="-1.60654">
        <ele>9.53</ele>
        <time>2020-05-30T18:05:54Z</time>
      </trkpt>
      <trkpt lat="47.17475" lon="-1.60671">
        <ele>10.09</ele>
        <time>2020-05-30T18:05:56Z</time>
      </trkpt>
      <trkpt lat="47.17465" lon="-1.60687">
        <ele>10.93</ele>
        <time>2020-05-30T18:05:58Z</time>
      </trkpt>
      <trkpt lat="47.17455" lon="-1.60703">
        <ele>11.49</ele>
        <time>2020-05-30T18:06:00Z</time>
      </trkpt>
      <trkpt lat="47.17445" lon="-1.60718">
        <ele>10.85</ele>
        <time>2020-05-30T18:06:02Z</time>
      </trkpt>
      <trkpt lat="47.17435" lon="-1.60738">
        <ele>9.67</ele>
        <time>2020-05-30T18:06:04Z</time>
      </trkpt>
      <trkpt lat="47.17426" lon="-1.60756">
        <ele>9.2</ele>
        <time>2020-05-30T18:06:06Z</time>
      </trkpt>
      <trkpt lat="47.17418" lon="-1.60773">
        <ele>9.07</ele>
        <time>2020-05-30T18:06:08Z</time>
      </trkpt>
      <trkpt lat="47.17412" lon="-1.60793">
        <ele>8.83</ele>
        <time>2020-05-30T18:06:10Z</time>
      </trkpt>
      <trkpt lat="47.17404" lon="-1.60817">
        <ele>8.92</ele>
        <time>2020-05-30T18:06:12Z</time>
      </trkpt>
      <trkpt lat="47.17399" lon="-1.6084">
        <ele>8.85</ele>
        <time>2020-05-30T18:06:14Z</time>
      </trkpt>
      <trkpt lat="47.17397" lon="-1.60866">
        <ele>8.55</ele>
        <time>2020-05-30T18:06:16Z</time>
      </trkpt>
      <trkpt lat="47.17396" lon="-1.60892">
        <ele>7.81</ele>
        <time>2020-05-30T18:06:18Z</time>
      </trkpt>
      <trkpt lat="47.17395" lon="-1.60907">
        <ele>7.47</ele>
        <time>2020-05-30T18:06:19Z</time>
      </trkpt>
      <trkpt lat="47.17395" lon="-1.60933">
        <ele>6.98</ele>
        <time>2020-05-30T18:06:21Z</time>
      </trkpt>
      <trkpt lat="47.17398" lon="-1.60958">
        <ele>6.94</ele>
        <time>2020-05-30T18:06:23Z</time>
      </trkpt>
      <trkpt lat="47.17405" lon="-1.60981">
        <ele>6.21</ele>
        <time>2020-05-30T18:06:25Z</time>
      </trkpt>
      <trkpt lat="47.17415" lon="-1.60999">
        <ele>5.61</ele>
        <time>2020-05-30T18:06:27Z</time>
      </trkpt>
      <trkpt lat="47.1742" lon="-1.6101">
        <ele>5.04</ele>
        <time>2020-05-30T18:06:28Z</time>
      </trkpt>
      <trkpt lat="47.17425" lon="-1.61029">
        <ele>3.78</ele>
        <time>2020-05-30T18:06:30Z</time>
      </trkpt>
      <trkpt lat="47.17429" lon="-1.6105">
        <ele>2.94</ele>
        <time>2020-05-30T18:06:32Z</time>
      </trkpt>
      <trkpt lat="47.17433" lon="-1.61068">
        <ele>2.98</ele>
        <time>2020-05-30T18:06:34Z</time>
      </trkpt>
      <trkpt lat="47.1744" lon="-1.61088">
        <ele>3.03</ele>
        <time>2020-05-30T18:06:36Z</time>
      </trkpt>
      <trkpt lat="47.17446" lon="-1.61105">
        <ele>2.33</ele>
        <time>2020-05-30T18:06:38Z</time>
      </trkpt>
      <trkpt lat="47.17453" lon="-1.61121">
        <ele>2.67</ele>
        <time>2020-05-30T18:06:40Z</time>
      </trkpt>
      <trkpt lat="47.1746" lon="-1.61138">
        <ele>2.71</ele>
        <time>2020-05-30T18:06:42Z</time>
      </trkpt>
      <trkpt lat="47.17467" lon="-1.61156">
        <ele>3.55</ele>
        <time>2020-05-30T18:06:44Z</time>
      </trkpt>
      <trkpt lat="47.17473" lon="-1.61171">
        <ele>4.44</ele>
        <time>2020-05-30T18:06:46Z</time>
      </trkpt>
      <trkpt lat="47.17479" lon="-1.61184">
        <ele>4.84</ele>
        <time>2020-05-30T18:06:48Z</time>
      </trkpt>
      <trkpt lat="47.17484" lon="-1.612">
        <ele>5.14</ele>
        <time>2020-05-30T18:06:50Z</time>
      </trkpt>
      <trkpt lat="47.1749" lon="-1.61215">
        <ele>5.59</ele>
        <time>2020-05-30T18:06:52Z</time>
      </trkpt>
      <trkpt lat="47.17498" lon="-1.61233">
        <ele>6.92</ele>
        <time>2020-05-30T18:06:54Z</time>
      </trkpt>
      <trkpt lat="47.17505" lon="-1.61249">
        <ele>7.51</ele>
        <time>2020-05-30T18:06:56Z</time>
      </trkpt>
      <trkpt lat="47.17513" lon="-1.61265">
        <ele>7.71</ele>
        <time>2020-05-30T18:06:58Z</time>
      </trkpt>
      <trkpt lat="47.1752" lon="-1.61278">
        <ele>8.56</ele>
        <time>2020-05-30T18:07:00Z</time>
      </trkpt>
      <trkpt lat="47.17528" lon="-1.6129">
        <ele>8.99</ele>
        <time>2020-05-30T18:07:02Z</time>
      </trkpt>
      <trkpt lat="47.1754" lon="-1.61299">
        <ele>9.9</ele>
        <time>2020-05-30T18:07:04Z</time>
      </trkpt>
      <trkpt lat="47.17551" lon="-1.61304">
        <ele>10.91</ele>
        <time>2020-05-30T18:07:06Z</time>
      </trkpt>
      <trkpt lat="47.17561" lon="-1.61322">
        <ele>11.19</ele>
        <time>2020-05-30T18:07:08Z</time>
      </trkpt>
      <trkpt lat="47.17561" lon="-1.61345">
        <ele>10.37</ele>
        <time>2020-05-30T18:07:10Z</time>
      </trkpt>
      <trkpt lat="47.1755" lon="-1.61361">
        <ele>9.95</ele>
        <time>2020-05-30T18:07:12Z</time>
      </trkpt>
      <trkpt lat="47.17538" lon="-1.61376">
        <ele>9.52</ele>
        <time>2020-05-30T18:07:14Z</time>
      </trkpt>
      <trkpt lat="47.17526" lon="-1.61397">
        <ele>8.77</ele>
        <time>2020-05-30T18:07:16Z</time>
      </trkpt>
      <trkpt lat="47.17519" lon="-1.61419">
        <ele>8.92</ele>
        <time>2020-05-30T18:07:18Z</time>
      </trkpt>
      <trkpt lat="47.17514" lon="-1.6144">
        <ele>9.86</ele>
        <time>2020-05-30T18:07:20Z</time>
      </trkpt>
      <trkpt lat="47.1751" lon="-1.61461">
        <ele>10.11</ele>
        <time>2020-05-30T18:07:22Z</time>
      </trkpt>
      <trkpt lat="47.17501" lon="-1.61473">
        <ele>10.87</ele>
        <time>2020-05-30T18:07:24Z</time>
      </trkpt>
      <trkpt lat="47.1749" lon="-1.61478">
        <ele>10.31</ele>
        <time>2020-05-30T18:07:26Z</time>
      </trkpt>
      <trkpt lat="47.17477" lon="-1.61485">
        <ele>9.15</ele>
        <time>2020-05-30T18:07:28Z</time>
      </trkpt>
      <trkpt lat="47.17464" lon="-1.61491">
        <ele>8.14</ele>
        <time>2020-05-30T18:07:30Z</time>
      </trkpt>
      <trkpt lat="47.17451" lon="-1.61498">
        <ele>7.96</ele>
        <time>2020-05-30T18:07:32Z</time>
      </trkpt>
      <trkpt lat="47.17443" lon="-1.61502">
        <ele>7.93</ele>
        <time>2020-05-30T18:07:33Z</time>
      </trkpt>
      <trkpt lat="47.17428" lon="-1.6151">
        <ele>8</ele>
        <time>2020-05-30T18:07:35Z</time>
      </trkpt>
      <trkpt lat="47.17415" lon="-1.61517">
        <ele>8.34</ele>
        <time>2020-05-30T18:07:37Z</time>
      </trkpt>
      <trkpt lat="47.17403" lon="-1.61525">
        <ele>8.37</ele>
        <time>2020-05-30T18:07:39Z</time>
      </trkpt>
      <trkpt lat="47.17392" lon="-1.61534">
        <ele>9.08</ele>
        <time>2020-05-30T18:07:41Z</time>
      </trkpt>
      <trkpt lat="47.1738" lon="-1.61543">
        <ele>10.44</ele>
        <time>2020-05-30T18:07:43Z</time>
      </trkpt>
      <trkpt lat="47.1737" lon="-1.61553">
        <ele>11.7</ele>
        <time>2020-05-30T18:07:45Z</time>
      </trkpt>
      <trkpt lat="47.1736" lon="-1.61562">
        <ele>12.5</ele>
        <time>2020-05-30T18:07:47Z</time>
      </trkpt>
      <trkpt lat="47.17349" lon="-1.61574">
        <ele>12.44</ele>
        <time>2020-05-30T18:07:49Z</time>
      </trkpt>
      <trkpt lat="47.17338" lon="-1.61585">
        <ele>12.03</ele>
        <time>2020-05-30T18:07:51Z</time>
      </trkpt>
      <trkpt lat="47.17328" lon="-1.61596">
        <ele>12.2</ele>
        <time>2020-05-30T18:07:53Z</time>
      </trkpt>
      <trkpt lat="47.1732" lon="-1.61608">
        <ele>12.87</ele>
        <time>2020-05-30T18:07:55Z</time>
      </trkpt>
      <trkpt lat="47.17309" lon="-1.61623">
        <ele>13.32</ele>
        <time>2020-05-30T18:07:57Z</time>
      </trkpt>
      <trkpt lat="47.17299" lon="-1.61639">
        <ele>14.35</ele>
        <time>2020-05-30T18:07:59Z</time>
      </trkpt>
      <trkpt lat="47.1729" lon="-1.61652">
        <ele>15.55</ele>
        <time>2020-05-30T18:08:01Z</time>
      </trkpt>
      <trkpt lat="47.17281" lon="-1.61667">
        <ele>14.9</ele>
        <time>2020-05-30T18:08:03Z</time>
      </trkpt>
      <trkpt lat="47.17273" lon="-1.61685">
        <ele>14.05</ele>
        <time>2020-05-30T18:08:05Z</time>
      </trkpt>
      <trkpt lat="47.17265" lon="-1.617">
        <ele>13.58</ele>
        <time>2020-05-30T18:08:07Z</time>
      </trkpt>
      <trkpt lat="47.17258" lon="-1.61716">
        <ele>14.29</ele>
        <time>2020-05-30T18:08:09Z</time>
      </trkpt>
      <trkpt lat="47.1725" lon="-1.61733">
        <ele>14.45</ele>
        <time>2020-05-30T18:08:11Z</time>
      </trkpt>
      <trkpt lat="47.17243" lon="-1.61752">
        <ele>13.89</ele>
        <time>2020-05-30T18:08:13Z</time>
      </trkpt>
      <trkpt lat="47.17241" lon="-1.61771">
        <ele>14.4</ele>
        <time>2020-05-30T18:08:15Z</time>
      </trkpt>
      <trkpt lat="47.17235" lon="-1.6179">
        <ele>15.77</ele>
        <time>2020-05-30T18:08:17Z</time>
      </trkpt>
      <trkpt lat="47.17227" lon="-1.618">
        <ele>16.34</ele>
        <time>2020-05-30T18:08:19Z</time>
      </trkpt>
      <trkpt lat="47.17215" lon="-1.61812">
        <ele>18.01</ele>
        <time>2020-05-30T18:08:21Z</time>
      </trkpt>
      <trkpt lat="47.17204" lon="-1.61822">
        <ele>19.62</ele>
        <time>2020-05-30T18:08:23Z</time>
      </trkpt>
      <trkpt lat="47.17192" lon="-1.61832">
        <ele>19.22</ele>
        <time>2020-05-30T18:08:25Z</time>
      </trkpt>
      <trkpt lat="47.17181" lon="-1.61842">
        <ele>18.81</ele>
        <time>2020-05-30T18:08:27Z</time>
      </trkpt>
      <trkpt lat="47.17169" lon="-1.61852">
        <ele>17.95</ele>
        <time>2020-05-30T18:08:29Z</time>
      </trkpt>
      <trkpt lat="47.17156" lon="-1.61862">
        <ele>17.02</ele>
        <time>2020-05-30T18:08:31Z</time>
      </trkpt>
      <trkpt lat="47.17146" lon="-1.61873">
        <ele>16.38</ele>
        <time>2020-05-30T18:08:33Z</time>
      </trkpt>
      <trkpt lat="47.17136" lon="-1.61886">
        <ele>15.64</ele>
        <time>2020-05-30T18:08:35Z</time>
      </trkpt>
      <trkpt lat="47.17125" lon="-1.61897">
        <ele>15.04</ele>
        <time>2020-05-30T18:08:37Z</time>
      </trkpt>
      <trkpt lat="47.17114" lon="-1.61908">
        <ele>14.22</ele>
        <time>2020-05-30T18:08:39Z</time>
      </trkpt>
      <trkpt lat="47.17103" lon="-1.61918">
        <ele>14.32</ele>
        <time>2020-05-30T18:08:41Z</time>
      </trkpt>
      <trkpt lat="47.17092" lon="-1.61929">
        <ele>13.92</ele>
        <time>2020-05-30T18:08:43Z</time>
      </trkpt>
      <trkpt lat="47.17081" lon="-1.6194">
        <ele>14.27</ele>
        <time>2020-05-30T18:08:45Z</time>
      </trkpt>
      <trkpt lat="47.17071" lon="-1.6195">
        <ele>13.78</ele>
        <time>2020-05-30T18:08:47Z</time>
      </trkpt>
      <trkpt lat="47.17061" lon="-1.61961">
        <ele>14.31</ele>
        <time>2020-05-30T18:08:49Z</time>
      </trkpt>
      <trkpt lat="47.1705" lon="-1.61973">
        <ele>15.9</ele>
        <time>2020-05-30T18:08:51Z</time>
      </trkpt>
      <trkpt lat="47.1704" lon="-1.61986">
        <ele>17.45</ele>
        <time>2020-05-30T18:08:53Z</time>
      </trkpt>
      <trkpt lat="47.1703" lon="-1.61998">
        <ele>18.34</ele>
        <time>2020-05-30T18:08:55Z</time>
      </trkpt>
      <trkpt lat="47.17019" lon="-1.62014">
        <ele>18.95</ele>
        <time>2020-05-30T18:08:57Z</time>
      </trkpt>
      <trkpt lat="47.1701" lon="-1.62028">
        <ele>19.37</ele>
        <time>2020-05-30T18:08:59Z</time>
      </trkpt>
      <trkpt lat="47.16999" lon="-1.62045">
        <ele>19.63</ele>
        <time>2020-05-30T18:09:01Z</time>
      </trkpt>
      <trkpt lat="47.16991" lon="-1.62061">
        <ele>20.55</ele>
        <time>2020-05-30T18:09:03Z</time>
      </trkpt>
      <trkpt lat="47.16982" lon="-1.62078">
        <ele>22.03</ele>
        <time>2020-05-30T18:09:05Z</time>
      </trkpt>
      <trkpt lat="47.16972" lon="-1.62094">
        <ele>22.52</ele>
        <time>2020-05-30T18:09:07Z</time>
      </trkpt>
      <trkpt lat="47.16964" lon="-1.62111">
        <ele>23.2</ele>
        <time>2020-05-30T18:09:09Z</time>
      </trkpt>
      <trkpt lat="47.16955" lon="-1.62128">
        <ele>24.59</ele>
        <time>2020-05-30T18:09:11Z</time>
      </trkpt>
      <trkpt lat="47.16948" lon="-1.62141">
        <ele>25.77</ele>
        <time>2020-05-30T18:09:13Z</time>
      </trkpt>
      <trkpt lat="47.16938" lon="-1.62158">
        <ele>26.8</ele>
        <time>2020-05-30T18:09:15Z</time>
      </trkpt>
      <trkpt lat="47.1693" lon="-1.62177">
        <ele>27.79</ele>
        <time>2020-05-30T18:09:17Z</time>
      </trkpt>
      <trkpt lat="47.16924" lon="-1.62191">
        <ele>27.69</ele>
        <time>2020-05-30T18:09:19Z</time>
      </trkpt>
      <trkpt lat="47.16918" lon="-1.62206">
        <ele>25.99</ele>
        <time>2020-05-30T18:09:21Z</time>
      </trkpt>
      <trkpt lat="47.16911" lon="-1.6222">
        <ele>24.57</ele>
        <time>2020-05-30T18:09:23Z</time>
      </trkpt>
      <trkpt lat="47.16902" lon="-1.62234">
        <ele>23.27</ele>
        <time>2020-05-30T18:09:25Z</time>
      </trkpt>
      <trkpt lat="47.16891" lon="-1.62249">
        <ele>22.68</ele>
        <time>2020-05-30T18:09:27Z</time>
      </trkpt>
      <trkpt lat="47.1688" lon="-1.62264">
        <ele>22.87</ele>
        <time>2020-05-30T18:09:29Z</time>
      </trkpt>
      <trkpt lat="47.16871" lon="-1.62274">
        <ele>22.83</ele>
        <time>2020-05-30T18:09:31Z</time>
      </trkpt>
      <trkpt lat="47.16862" lon="-1.62286">
        <ele>22.77</ele>
        <time>2020-05-30T18:09:33Z</time>
      </trkpt>
      <trkpt lat="47.16851" lon="-1.62301">
        <ele>21.81</ele>
        <time>2020-05-30T18:09:35Z</time>
      </trkpt>
      <trkpt lat="47.16841" lon="-1.62313">
        <ele>20.72</ele>
        <time>2020-05-30T18:09:37Z</time>
      </trkpt>
      <trkpt lat="47.16831" lon="-1.62323">
        <ele>19.71</ele>
        <time>2020-05-30T18:09:39Z</time>
      </trkpt>
      <trkpt lat="47.1682" lon="-1.62333">
        <ele>19.33</ele>
        <time>2020-05-30T18:09:41Z</time>
      </trkpt>
      <trkpt lat="47.16808" lon="-1.62341">
        <ele>18.01</ele>
        <time>2020-05-30T18:09:43Z</time>
      </trkpt>
      <trkpt lat="47.16795" lon="-1.62348">
        <ele>17.42</ele>
        <time>2020-05-30T18:09:45Z</time>
      </trkpt>
      <trkpt lat="47.1678" lon="-1.62356">
        <ele>16.64</ele>
        <time>2020-05-30T18:09:47Z</time>
      </trkpt>
      <trkpt lat="47.16768" lon="-1.62362">
        <ele>15.65</ele>
        <time>2020-05-30T18:09:49Z</time>
      </trkpt>
      <trkpt lat="47.16757" lon="-1.6237">
        <ele>14.88</ele>
        <time>2020-05-30T18:09:51Z</time>
      </trkpt>
      <trkpt lat="47.16746" lon="-1.62382">
        <ele>15.11</ele>
        <time>2020-05-30T18:09:53Z</time>
      </trkpt>
      <trkpt lat="47.16738" lon="-1.62394">
        <ele>15.55</ele>
        <time>2020-05-30T18:09:55Z</time>
      </trkpt>
      <trkpt lat="47.16733" lon="-1.62415">
        <ele>15.73</ele>
        <time>2020-05-30T18:09:57Z</time>
      </trkpt>
      <trkpt lat="47.1673" lon="-1.62434">
        <ele>15.95</ele>
        <time>2020-05-30T18:09:59Z</time>
      </trkpt>
      <trkpt lat="47.16728" lon="-1.62453">
        <ele>15.47</ele>
        <time>2020-05-30T18:10:01Z</time>
      </trkpt>
      <trkpt lat="47.16723" lon="-1.62471">
        <ele>15.11</ele>
        <time>2020-05-30T18:10:03Z</time>
      </trkpt>
      <trkpt lat="47.16719" lon="-1.62485">
        <ele>16.52</ele>
        <time>2020-05-30T18:10:05Z</time>
      </trkpt>
      <trkpt lat="47.1672" lon="-1.62501">
        <ele>18.26</ele>
        <time>2020-05-30T18:10:07Z</time>
      </trkpt>
      <trkpt lat="47.16729" lon="-1.62511">
        <ele>18.1</ele>
        <time>2020-05-30T18:10:09Z</time>
      </trkpt>
      <trkpt lat="47.16742" lon="-1.62518">
        <ele>17.21</ele>
        <time>2020-05-30T18:10:11Z</time>
      </trkpt>
      <trkpt lat="47.16754" lon="-1.62523">
        <ele>17.65</ele>
        <time>2020-05-30T18:10:13Z</time>
      </trkpt>
      <trkpt lat="47.16768" lon="-1.62529">
        <ele>18.95</ele>
        <time>2020-05-30T18:10:15Z</time>
      </trkpt>
      <trkpt lat="47.16781" lon="-1.62535">
        <ele>19.92</ele>
        <time>2020-05-30T18:10:17Z</time>
      </trkpt>
      <trkpt lat="47.1679" lon="-1.6254">
        <ele>19.54</ele>
        <time>2020-05-30T18:10:19Z</time>
      </trkpt>
      <trkpt lat="47.168" lon="-1.62547">
        <ele>19.24</ele>
        <time>2020-05-30T18:10:21Z</time>
      </trkpt>
      <trkpt lat="47.16808" lon="-1.62552">
        <ele>18.72</ele>
        <time>2020-05-30T18:10:23Z</time>
      </trkpt>
      <trkpt lat="47.16817" lon="-1.62559">
        <ele>18.73</ele>
        <time>2020-05-30T18:10:25Z</time>
      </trkpt>
      <trkpt lat="47.16825" lon="-1.62567">
        <ele>18.16</ele>
        <time>2020-05-30T18:10:27Z</time>
      </trkpt>
      <trkpt lat="47.16832" lon="-1.62578">
        <ele>18.22</ele>
        <time>2020-05-30T18:10:29Z</time>
      </trkpt>
      <trkpt lat="47.1683" lon="-1.62593">
        <ele>18.82</ele>
        <time>2020-05-30T18:10:31Z</time>
      </trkpt>
      <trkpt lat="47.16823" lon="-1.62608">
        <ele>19.94</ele>
        <time>2020-05-30T18:10:34Z</time>
      </trkpt>
      <trkpt lat="47.16814" lon="-1.62612">
        <ele>19.62</ele>
        <time>2020-05-30T18:11:17Z</time>
      </trkpt>
      <trkpt lat="47.16805" lon="-1.6261">
        <ele>19.12</ele>
        <time>2020-05-30T18:11:35Z</time>
      </trkpt>
      <trkpt lat="47.1681" lon="-1.62621">
        <ele>20.23</ele>
        <time>2020-05-30T18:12:21Z</time>
      </trkpt>
      <trkpt lat="47.168" lon="-1.62634">
        <ele>19.81</ele>
        <time>2020-05-30T18:15:44Z</time>
      </trkpt>
      <trkpt lat="47.16794" lon="-1.62646">
        <ele>19.71</ele>
        <time>2020-05-30T18:15:46Z</time>
      </trkpt>
      <trkpt lat="47.16787" lon="-1.62661">
        <ele>21.12</ele>
        <time>2020-05-30T18:15:49Z</time>
      </trkpt>
      <trkpt lat="47.16778" lon="-1.62662">
        <ele>21.4</ele>
        <time>2020-05-30T18:15:54Z</time>
      </trkpt>
    </trkseg>
  </trk>
</gpx>